<?xml version="1.0" encoding="UTF-8" standalone="no" ?>
<gpx xmlns="http://www.topografix.com/GPX/1/1" xmlns:xsi="http://www.w3.org/2001/XMLSchema-instance" xsi:schemaLocation="http://www.topografix.com/GPX/1/1 http://www.topografix.com/GPX/1/1/gpx.xsd" version="1.1" creator="VisuGPX - https://www.visugpx.com">
  <metadata>
    <name>port des barques</name>
  </metadata>
  <trk>
    <name><![CDATA[2014-05-18 - port des barques]]></name>
    <extensions>
      <line xmlns="http://www.topografix.com/GPX/gpx_style/0/2">
        <width>3</width>
      </line>
    </extensions>
    <trkseg>
      <trkpt lat="45.92613" lon="-1.00818">
        <ele>7.3</ele>
        <time>2014-05-18T08:19:59.000Z</time>
      </trkpt>
      <trkpt lat="45.92613" lon="-1.00818">
        <ele>7.5</ele>
        <time>2014-05-18T08:20:00.000Z</time>
      </trkpt>
      <trkpt lat="45.9262" lon="-1.00827">
        <ele>7</ele>
        <time>2014-05-18T08:20:59.000Z</time>
      </trkpt>
      <trkpt lat="45.92627" lon="-1.00819">
        <ele>6.9</ele>
        <time>2014-05-18T08:21:06.000Z</time>
      </trkpt>
      <trkpt lat="45.92635" lon="-1.00826">
        <ele>7.4</ele>
        <time>2014-05-18T08:23:20.000Z</time>
      </trkpt>
      <trkpt lat="45.92643" lon="-1.00819">
        <ele>7.8</ele>
        <time>2014-05-18T08:23:26.000Z</time>
      </trkpt>
      <trkpt lat="45.92653" lon="-1.00813">
        <ele>7.5</ele>
        <time>2014-05-18T08:23:32.000Z</time>
      </trkpt>
      <trkpt lat="45.92663" lon="-1.0081">
        <ele>7.6</ele>
        <time>2014-05-18T08:23:36.000Z</time>
      </trkpt>
      <trkpt lat="45.92673" lon="-1.00807">
        <ele>7.1</ele>
        <time>2014-05-18T08:23:40.000Z</time>
      </trkpt>
      <trkpt lat="45.92684" lon="-1.00806">
        <ele>6.9</ele>
        <time>2014-05-18T08:23:44.000Z</time>
      </trkpt>
      <trkpt lat="45.92694" lon="-1.00805">
        <ele>7.1</ele>
        <time>2014-05-18T08:23:48.000Z</time>
      </trkpt>
      <trkpt lat="45.92705" lon="-1.00812">
        <ele>6.7</ele>
        <time>2014-05-18T08:23:52.000Z</time>
      </trkpt>
      <trkpt lat="45.92714" lon="-1.00816">
        <ele>5.6</ele>
        <time>2014-05-18T08:23:57.000Z</time>
      </trkpt>
      <trkpt lat="45.92721" lon="-1.00804">
        <ele>4.7</ele>
        <time>2014-05-18T08:24:01.000Z</time>
      </trkpt>
      <trkpt lat="45.92728" lon="-1.00794">
        <ele>4.1</ele>
        <time>2014-05-18T08:24:04.000Z</time>
      </trkpt>
      <trkpt lat="45.92738" lon="-1.00782">
        <ele>3.4</ele>
        <time>2014-05-18T08:24:07.000Z</time>
      </trkpt>
      <trkpt lat="45.92747" lon="-1.00776">
        <ele>2.7</ele>
        <time>2014-05-18T08:24:09.000Z</time>
      </trkpt>
      <trkpt lat="45.92758" lon="-1.00773">
        <ele>2.2</ele>
        <time>2014-05-18T08:24:11.000Z</time>
      </trkpt>
      <trkpt lat="45.9277" lon="-1.00774">
        <ele>1.3</ele>
        <time>2014-05-18T08:24:13.000Z</time>
      </trkpt>
      <trkpt lat="45.92782" lon="-1.00776">
        <ele>0.2</ele>
        <time>2014-05-18T08:24:15.000Z</time>
      </trkpt>
      <trkpt lat="45.92793" lon="-1.00778">
        <ele>-0.4</ele>
        <time>2014-05-18T08:24:17.000Z</time>
      </trkpt>
      <trkpt lat="45.92803" lon="-1.00779">
        <ele>-1</ele>
        <time>2014-05-18T08:24:19.000Z</time>
      </trkpt>
      <trkpt lat="45.92813" lon="-1.00778">
        <ele>-1.5</ele>
        <time>2014-05-18T08:24:21.000Z</time>
      </trkpt>
      <trkpt lat="45.92828" lon="-1.00777">
        <ele>-2.2</ele>
        <time>2014-05-18T08:24:23.000Z</time>
      </trkpt>
      <trkpt lat="45.92841" lon="-1.0077">
        <ele>-2.9</ele>
        <time>2014-05-18T08:24:25.000Z</time>
      </trkpt>
      <trkpt lat="45.92853" lon="-1.0076">
        <ele>-3.6</ele>
        <time>2014-05-18T08:24:27.000Z</time>
      </trkpt>
      <trkpt lat="45.92864" lon="-1.0075">
        <ele>-4.3</ele>
        <time>2014-05-18T08:24:29.000Z</time>
      </trkpt>
      <trkpt lat="45.92872" lon="-1.00742">
        <ele>-4.5</ele>
        <time>2014-05-18T08:24:31.000Z</time>
      </trkpt>
      <trkpt lat="45.92879" lon="-1.00733">
        <ele>-4.4</ele>
        <time>2014-05-18T08:24:34.000Z</time>
      </trkpt>
      <trkpt lat="45.92887" lon="-1.00725">
        <ele>-4.2</ele>
        <time>2014-05-18T08:24:39.000Z</time>
      </trkpt>
      <trkpt lat="45.92894" lon="-1.00714">
        <ele>-4.6</ele>
        <time>2014-05-18T08:24:44.000Z</time>
      </trkpt>
      <trkpt lat="45.92903" lon="-1.00706">
        <ele>-4.7</ele>
        <time>2014-05-18T08:24:48.000Z</time>
      </trkpt>
      <trkpt lat="45.92912" lon="-1.00708">
        <ele>-4.8</ele>
        <time>2014-05-18T08:24:53.000Z</time>
      </trkpt>
      <trkpt lat="45.92905" lon="-1.00717">
        <ele>-4.7</ele>
        <time>2014-05-18T08:24:57.000Z</time>
      </trkpt>
      <trkpt lat="45.92896" lon="-1.00726">
        <ele>-4.5</ele>
        <time>2014-05-18T08:25:01.000Z</time>
      </trkpt>
      <trkpt lat="45.92886" lon="-1.00734">
        <ele>-4.5</ele>
        <time>2014-05-18T08:25:05.000Z</time>
      </trkpt>
      <trkpt lat="45.92877" lon="-1.0074">
        <ele>-4.2</ele>
        <time>2014-05-18T08:25:09.000Z</time>
      </trkpt>
      <trkpt lat="45.92868" lon="-1.00749">
        <ele>-4.6</ele>
        <time>2014-05-18T08:25:13.000Z</time>
      </trkpt>
      <trkpt lat="45.9286" lon="-1.00758">
        <ele>-4.4</ele>
        <time>2014-05-18T08:25:17.000Z</time>
      </trkpt>
      <trkpt lat="45.92853" lon="-1.00766">
        <ele>-3.8</ele>
        <time>2014-05-18T08:25:21.000Z</time>
      </trkpt>
      <trkpt lat="45.92845" lon="-1.00773">
        <ele>-4.2</ele>
        <time>2014-05-18T08:25:25.000Z</time>
      </trkpt>
      <trkpt lat="45.92837" lon="-1.00797">
        <ele>-3.7</ele>
        <time>2014-05-18T08:25:36.000Z</time>
      </trkpt>
      <trkpt lat="45.92844" lon="-1.00806">
        <ele>-4</ele>
        <time>2014-05-18T08:25:40.000Z</time>
      </trkpt>
      <trkpt lat="45.92852" lon="-1.00815">
        <ele>-3.9</ele>
        <time>2014-05-18T08:25:45.000Z</time>
      </trkpt>
      <trkpt lat="45.92858" lon="-1.00825">
        <ele>-4.1</ele>
        <time>2014-05-18T08:25:49.000Z</time>
      </trkpt>
      <trkpt lat="45.92865" lon="-1.00836">
        <ele>-4</ele>
        <time>2014-05-18T08:25:53.000Z</time>
      </trkpt>
      <trkpt lat="45.92873" lon="-1.00848">
        <ele>-4.4</ele>
        <time>2014-05-18T08:25:57.000Z</time>
      </trkpt>
      <trkpt lat="45.9288" lon="-1.00858">
        <ele>-4.3</ele>
        <time>2014-05-18T08:26:01.000Z</time>
      </trkpt>
      <trkpt lat="45.92888" lon="-1.00871">
        <ele>-4</ele>
        <time>2014-05-18T08:26:05.000Z</time>
      </trkpt>
      <trkpt lat="45.92896" lon="-1.00882">
        <ele>-4.1</ele>
        <time>2014-05-18T08:26:09.000Z</time>
      </trkpt>
      <trkpt lat="45.92906" lon="-1.00892">
        <ele>-4</ele>
        <time>2014-05-18T08:26:13.000Z</time>
      </trkpt>
      <trkpt lat="45.92914" lon="-1.00898">
        <ele>-4</ele>
        <time>2014-05-18T08:26:16.000Z</time>
      </trkpt>
      <trkpt lat="45.92923" lon="-1.00902">
        <ele>-4.2</ele>
        <time>2014-05-18T08:26:19.000Z</time>
      </trkpt>
      <trkpt lat="45.92933" lon="-1.00906">
        <ele>-4.5</ele>
        <time>2014-05-18T08:26:22.000Z</time>
      </trkpt>
      <trkpt lat="45.92943" lon="-1.00911">
        <ele>-4.3</ele>
        <time>2014-05-18T08:26:25.000Z</time>
      </trkpt>
      <trkpt lat="45.92951" lon="-1.00917">
        <ele>-4.6</ele>
        <time>2014-05-18T08:26:28.000Z</time>
      </trkpt>
      <trkpt lat="45.92969" lon="-1.00934">
        <ele>-4.5</ele>
        <time>2014-05-18T08:26:35.000Z</time>
      </trkpt>
      <trkpt lat="45.92977" lon="-1.00945">
        <ele>-4.4</ele>
        <time>2014-05-18T08:26:39.000Z</time>
      </trkpt>
      <trkpt lat="45.92985" lon="-1.00959">
        <ele>-4.5</ele>
        <time>2014-05-18T08:26:43.000Z</time>
      </trkpt>
      <trkpt lat="45.92992" lon="-1.00971">
        <ele>-4.2</ele>
        <time>2014-05-18T08:26:47.000Z</time>
      </trkpt>
      <trkpt lat="45.92999" lon="-1.00981">
        <ele>-4.3</ele>
        <time>2014-05-18T08:26:50.000Z</time>
      </trkpt>
      <trkpt lat="45.93005" lon="-1.00991">
        <ele>-4.3</ele>
        <time>2014-05-18T08:26:53.000Z</time>
      </trkpt>
      <trkpt lat="45.93012" lon="-1.01002">
        <ele>-4.4</ele>
        <time>2014-05-18T08:26:56.000Z</time>
      </trkpt>
      <trkpt lat="45.93019" lon="-1.01012">
        <ele>-4.2</ele>
        <time>2014-05-18T08:26:59.000Z</time>
      </trkpt>
      <trkpt lat="45.93026" lon="-1.01021">
        <ele>-4.1</ele>
        <time>2014-05-18T08:27:02.000Z</time>
      </trkpt>
      <trkpt lat="45.93033" lon="-1.01031">
        <ele>-4.4</ele>
        <time>2014-05-18T08:27:05.000Z</time>
      </trkpt>
      <trkpt lat="45.9304" lon="-1.01041">
        <ele>-4.4</ele>
        <time>2014-05-18T08:27:08.000Z</time>
      </trkpt>
      <trkpt lat="45.93046" lon="-1.0105">
        <ele>-4.5</ele>
        <time>2014-05-18T08:27:11.000Z</time>
      </trkpt>
      <trkpt lat="45.93054" lon="-1.01062">
        <ele>-4.6</ele>
        <time>2014-05-18T08:27:15.000Z</time>
      </trkpt>
      <trkpt lat="45.93061" lon="-1.01071">
        <ele>-4.3</ele>
        <time>2014-05-18T08:27:18.000Z</time>
      </trkpt>
      <trkpt lat="45.9307" lon="-1.01083">
        <ele>-4.2</ele>
        <time>2014-05-18T08:27:22.000Z</time>
      </trkpt>
      <trkpt lat="45.93077" lon="-1.01092">
        <ele>-4.4</ele>
        <time>2014-05-18T08:27:25.000Z</time>
      </trkpt>
      <trkpt lat="45.93084" lon="-1.01102">
        <ele>-4.2</ele>
        <time>2014-05-18T08:27:28.000Z</time>
      </trkpt>
      <trkpt lat="45.93093" lon="-1.01113">
        <ele>-4.1</ele>
        <time>2014-05-18T08:27:32.000Z</time>
      </trkpt>
      <trkpt lat="45.93109" lon="-1.0113">
        <ele>-4.3</ele>
        <time>2014-05-18T08:27:38.000Z</time>
      </trkpt>
      <trkpt lat="45.93116" lon="-1.01139">
        <ele>-4</ele>
        <time>2014-05-18T08:27:41.000Z</time>
      </trkpt>
      <trkpt lat="45.93124" lon="-1.01147">
        <ele>-4.1</ele>
        <time>2014-05-18T08:27:44.000Z</time>
      </trkpt>
      <trkpt lat="45.93132" lon="-1.01155">
        <ele>-4.1</ele>
        <time>2014-05-18T08:27:47.000Z</time>
      </trkpt>
      <trkpt lat="45.9314" lon="-1.01162">
        <ele>-3.8</ele>
        <time>2014-05-18T08:27:50.000Z</time>
      </trkpt>
      <trkpt lat="45.93148" lon="-1.01169">
        <ele>-4</ele>
        <time>2014-05-18T08:27:53.000Z</time>
      </trkpt>
      <trkpt lat="45.93156" lon="-1.01176">
        <ele>-3.9</ele>
        <time>2014-05-18T08:27:56.000Z</time>
      </trkpt>
      <trkpt lat="45.93165" lon="-1.01183">
        <ele>-3.9</ele>
        <time>2014-05-18T08:27:59.000Z</time>
      </trkpt>
      <trkpt lat="45.93174" lon="-1.01191">
        <ele>-4</ele>
        <time>2014-05-18T08:28:02.000Z</time>
      </trkpt>
      <trkpt lat="45.93182" lon="-1.01199">
        <ele>-4</ele>
        <time>2014-05-18T08:28:05.000Z</time>
      </trkpt>
      <trkpt lat="45.93189" lon="-1.01209">
        <ele>-4.1</ele>
        <time>2014-05-18T08:28:08.000Z</time>
      </trkpt>
      <trkpt lat="45.93196" lon="-1.01219">
        <ele>-4.1</ele>
        <time>2014-05-18T08:28:11.000Z</time>
      </trkpt>
      <trkpt lat="45.93203" lon="-1.01232">
        <ele>-4</ele>
        <time>2014-05-18T08:28:14.000Z</time>
      </trkpt>
      <trkpt lat="45.93209" lon="-1.01243">
        <ele>-3.9</ele>
        <time>2014-05-18T08:28:17.000Z</time>
      </trkpt>
      <trkpt lat="45.93215" lon="-1.01256">
        <ele>-3.9</ele>
        <time>2014-05-18T08:28:20.000Z</time>
      </trkpt>
      <trkpt lat="45.93221" lon="-1.01268">
        <ele>-4.1</ele>
        <time>2014-05-18T08:28:23.000Z</time>
      </trkpt>
      <trkpt lat="45.93226" lon="-1.0128">
        <ele>-4</ele>
        <time>2014-05-18T08:28:26.000Z</time>
      </trkpt>
      <trkpt lat="45.93233" lon="-1.01293">
        <ele>-4</ele>
        <time>2014-05-18T08:28:29.000Z</time>
      </trkpt>
      <trkpt lat="45.93239" lon="-1.01306">
        <ele>-3.9</ele>
        <time>2014-05-18T08:28:32.000Z</time>
      </trkpt>
      <trkpt lat="45.93245" lon="-1.01319">
        <ele>-3.9</ele>
        <time>2014-05-18T08:28:35.000Z</time>
      </trkpt>
      <trkpt lat="45.93256" lon="-1.01345">
        <ele>-4.1</ele>
        <time>2014-05-18T08:28:41.000Z</time>
      </trkpt>
      <trkpt lat="45.93262" lon="-1.01357">
        <ele>-4.1</ele>
        <time>2014-05-18T08:28:44.000Z</time>
      </trkpt>
      <trkpt lat="45.93269" lon="-1.01369">
        <ele>-4</ele>
        <time>2014-05-18T08:28:47.000Z</time>
      </trkpt>
      <trkpt lat="45.93275" lon="-1.01381">
        <ele>-4.1</ele>
        <time>2014-05-18T08:28:50.000Z</time>
      </trkpt>
      <trkpt lat="45.93282" lon="-1.01391">
        <ele>-3.9</ele>
        <time>2014-05-18T08:28:53.000Z</time>
      </trkpt>
      <trkpt lat="45.93289" lon="-1.014">
        <ele>-3.8</ele>
        <time>2014-05-18T08:28:56.000Z</time>
      </trkpt>
      <trkpt lat="45.93298" lon="-1.01409">
        <ele>-3.9</ele>
        <time>2014-05-18T08:28:59.000Z</time>
      </trkpt>
      <trkpt lat="45.93306" lon="-1.01417">
        <ele>-4.2</ele>
        <time>2014-05-18T08:29:02.000Z</time>
      </trkpt>
      <trkpt lat="45.93316" lon="-1.01426">
        <ele>-4.1</ele>
        <time>2014-05-18T08:29:06.000Z</time>
      </trkpt>
      <trkpt lat="45.93324" lon="-1.01434">
        <ele>-4</ele>
        <time>2014-05-18T08:29:09.000Z</time>
      </trkpt>
      <trkpt lat="45.93332" lon="-1.01442">
        <ele>-4.2</ele>
        <time>2014-05-18T08:29:12.000Z</time>
      </trkpt>
      <trkpt lat="45.93339" lon="-1.0145">
        <ele>-4.1</ele>
        <time>2014-05-18T08:29:15.000Z</time>
      </trkpt>
      <trkpt lat="45.93347" lon="-1.01458">
        <ele>-3.9</ele>
        <time>2014-05-18T08:29:18.000Z</time>
      </trkpt>
      <trkpt lat="45.93353" lon="-1.01468">
        <ele>-4.2</ele>
        <time>2014-05-18T08:29:21.000Z</time>
      </trkpt>
      <trkpt lat="45.93361" lon="-1.01476">
        <ele>-4.4</ele>
        <time>2014-05-18T08:29:24.000Z</time>
      </trkpt>
      <trkpt lat="45.93368" lon="-1.01487">
        <ele>-4.2</ele>
        <time>2014-05-18T08:29:27.000Z</time>
      </trkpt>
      <trkpt lat="45.93376" lon="-1.01497">
        <ele>-4.3</ele>
        <time>2014-05-18T08:29:30.000Z</time>
      </trkpt>
      <trkpt lat="45.93383" lon="-1.01506">
        <ele>-4</ele>
        <time>2014-05-18T08:29:33.000Z</time>
      </trkpt>
      <trkpt lat="45.93389" lon="-1.01517">
        <ele>-4.1</ele>
        <time>2014-05-18T08:29:36.000Z</time>
      </trkpt>
      <trkpt lat="45.93404" lon="-1.01538">
        <ele>-4</ele>
        <time>2014-05-18T08:29:42.000Z</time>
      </trkpt>
      <trkpt lat="45.93412" lon="-1.0155">
        <ele>-4.1</ele>
        <time>2014-05-18T08:29:45.000Z</time>
      </trkpt>
      <trkpt lat="45.93418" lon="-1.01562">
        <ele>-4.4</ele>
        <time>2014-05-18T08:29:48.000Z</time>
      </trkpt>
      <trkpt lat="45.93424" lon="-1.01576">
        <ele>-4.2</ele>
        <time>2014-05-18T08:29:51.000Z</time>
      </trkpt>
      <trkpt lat="45.93429" lon="-1.0159">
        <ele>-4</ele>
        <time>2014-05-18T08:29:54.000Z</time>
      </trkpt>
      <trkpt lat="45.93433" lon="-1.01604">
        <ele>-4.2</ele>
        <time>2014-05-18T08:29:57.000Z</time>
      </trkpt>
      <trkpt lat="45.93438" lon="-1.01617">
        <ele>-4.1</ele>
        <time>2014-05-18T08:30:00.000Z</time>
      </trkpt>
      <trkpt lat="45.93442" lon="-1.01631">
        <ele>-3.7</ele>
        <time>2014-05-18T08:30:03.000Z</time>
      </trkpt>
      <trkpt lat="45.93446" lon="-1.01644">
        <ele>-3.6</ele>
        <time>2014-05-18T08:30:06.000Z</time>
      </trkpt>
      <trkpt lat="45.93449" lon="-1.01658">
        <ele>-3.9</ele>
        <time>2014-05-18T08:30:09.000Z</time>
      </trkpt>
      <trkpt lat="45.93453" lon="-1.01672">
        <ele>-3.9</ele>
        <time>2014-05-18T08:30:12.000Z</time>
      </trkpt>
      <trkpt lat="45.93456" lon="-1.01686">
        <ele>-4</ele>
        <time>2014-05-18T08:30:15.000Z</time>
      </trkpt>
      <trkpt lat="45.93458" lon="-1.01701">
        <ele>-4</ele>
        <time>2014-05-18T08:30:18.000Z</time>
      </trkpt>
      <trkpt lat="45.93459" lon="-1.01717">
        <ele>-3.8</ele>
        <time>2014-05-18T08:30:21.000Z</time>
      </trkpt>
      <trkpt lat="45.9346" lon="-1.01732">
        <ele>-3.8</ele>
        <time>2014-05-18T08:30:24.000Z</time>
      </trkpt>
      <trkpt lat="45.9346" lon="-1.01748">
        <ele>-4</ele>
        <time>2014-05-18T08:30:27.000Z</time>
      </trkpt>
      <trkpt lat="45.9346" lon="-1.01764">
        <ele>-4.2</ele>
        <time>2014-05-18T08:30:30.000Z</time>
      </trkpt>
      <trkpt lat="45.9346" lon="-1.01779">
        <ele>-4.4</ele>
        <time>2014-05-18T08:30:33.000Z</time>
      </trkpt>
      <trkpt lat="45.9346" lon="-1.01795">
        <ele>-4.4</ele>
        <time>2014-05-18T08:30:36.000Z</time>
      </trkpt>
      <trkpt lat="45.93462" lon="-1.01811">
        <ele>-4.2</ele>
        <time>2014-05-18T08:30:39.000Z</time>
      </trkpt>
      <trkpt lat="45.9347" lon="-1.0184">
        <ele>-4.1</ele>
        <time>2014-05-18T08:30:45.000Z</time>
      </trkpt>
      <trkpt lat="45.93477" lon="-1.01852">
        <ele>-3.9</ele>
        <time>2014-05-18T08:30:48.000Z</time>
      </trkpt>
      <trkpt lat="45.93484" lon="-1.01865">
        <ele>-4.1</ele>
        <time>2014-05-18T08:30:51.000Z</time>
      </trkpt>
      <trkpt lat="45.9349" lon="-1.01877">
        <ele>-4</ele>
        <time>2014-05-18T08:30:54.000Z</time>
      </trkpt>
      <trkpt lat="45.93497" lon="-1.01889">
        <ele>-3.9</ele>
        <time>2014-05-18T08:30:57.000Z</time>
      </trkpt>
      <trkpt lat="45.93504" lon="-1.01901">
        <ele>-3.8</ele>
        <time>2014-05-18T08:31:00.000Z</time>
      </trkpt>
      <trkpt lat="45.9351" lon="-1.01914">
        <ele>-3.7</ele>
        <time>2014-05-18T08:31:03.000Z</time>
      </trkpt>
      <trkpt lat="45.93517" lon="-1.01926">
        <ele>-3.9</ele>
        <time>2014-05-18T08:31:06.000Z</time>
      </trkpt>
      <trkpt lat="45.93524" lon="-1.01939">
        <ele>-4.1</ele>
        <time>2014-05-18T08:31:09.000Z</time>
      </trkpt>
      <trkpt lat="45.93531" lon="-1.01952">
        <ele>-3.9</ele>
        <time>2014-05-18T08:31:12.000Z</time>
      </trkpt>
      <trkpt lat="45.93538" lon="-1.01964">
        <ele>-3.8</ele>
        <time>2014-05-18T08:31:15.000Z</time>
      </trkpt>
      <trkpt lat="45.93543" lon="-1.01975">
        <ele>-3.9</ele>
        <time>2014-05-18T08:31:18.000Z</time>
      </trkpt>
      <trkpt lat="45.9355" lon="-1.01987">
        <ele>-3.9</ele>
        <time>2014-05-18T08:31:21.000Z</time>
      </trkpt>
      <trkpt lat="45.93555" lon="-1.01998">
        <ele>-3.9</ele>
        <time>2014-05-18T08:31:24.000Z</time>
      </trkpt>
      <trkpt lat="45.93562" lon="-1.0201">
        <ele>-4.1</ele>
        <time>2014-05-18T08:31:27.000Z</time>
      </trkpt>
      <trkpt lat="45.93569" lon="-1.02022">
        <ele>-4</ele>
        <time>2014-05-18T08:31:30.000Z</time>
      </trkpt>
      <trkpt lat="45.93576" lon="-1.02035">
        <ele>-4.2</ele>
        <time>2014-05-18T08:31:33.000Z</time>
      </trkpt>
      <trkpt lat="45.93583" lon="-1.02048">
        <ele>-4.3</ele>
        <time>2014-05-18T08:31:36.000Z</time>
      </trkpt>
      <trkpt lat="45.9359" lon="-1.0206">
        <ele>-4.3</ele>
        <time>2014-05-18T08:31:39.000Z</time>
      </trkpt>
      <trkpt lat="45.93597" lon="-1.02073">
        <ele>-4.3</ele>
        <time>2014-05-18T08:31:42.000Z</time>
      </trkpt>
      <trkpt lat="45.93612" lon="-1.02098">
        <ele>-4</ele>
        <time>2014-05-18T08:31:48.000Z</time>
      </trkpt>
      <trkpt lat="45.93619" lon="-1.02109">
        <ele>-4.1</ele>
        <time>2014-05-18T08:31:51.000Z</time>
      </trkpt>
      <trkpt lat="45.93626" lon="-1.0212">
        <ele>-4</ele>
        <time>2014-05-18T08:31:54.000Z</time>
      </trkpt>
      <trkpt lat="45.93633" lon="-1.02132">
        <ele>-3.9</ele>
        <time>2014-05-18T08:31:57.000Z</time>
      </trkpt>
      <trkpt lat="45.93641" lon="-1.02144">
        <ele>-4.3</ele>
        <time>2014-05-18T08:32:00.000Z</time>
      </trkpt>
      <trkpt lat="45.93648" lon="-1.02155">
        <ele>-4.1</ele>
        <time>2014-05-18T08:32:03.000Z</time>
      </trkpt>
      <trkpt lat="45.93655" lon="-1.02167">
        <ele>-4.1</ele>
        <time>2014-05-18T08:32:06.000Z</time>
      </trkpt>
      <trkpt lat="45.93662" lon="-1.02178">
        <ele>-4.4</ele>
        <time>2014-05-18T08:32:09.000Z</time>
      </trkpt>
      <trkpt lat="45.93669" lon="-1.02189">
        <ele>-4.3</ele>
        <time>2014-05-18T08:32:12.000Z</time>
      </trkpt>
      <trkpt lat="45.93676" lon="-1.02201">
        <ele>-4.3</ele>
        <time>2014-05-18T08:32:15.000Z</time>
      </trkpt>
      <trkpt lat="45.93683" lon="-1.02211">
        <ele>-4.3</ele>
        <time>2014-05-18T08:32:18.000Z</time>
      </trkpt>
      <trkpt lat="45.93692" lon="-1.02217">
        <ele>-4.4</ele>
        <time>2014-05-18T08:32:21.000Z</time>
      </trkpt>
      <trkpt lat="45.93701" lon="-1.02218">
        <ele>-4.3</ele>
        <time>2014-05-18T08:32:24.000Z</time>
      </trkpt>
      <trkpt lat="45.9371" lon="-1.02213">
        <ele>-4.3</ele>
        <time>2014-05-18T08:32:27.000Z</time>
      </trkpt>
      <trkpt lat="45.93719" lon="-1.02205">
        <ele>-4.3</ele>
        <time>2014-05-18T08:32:31.000Z</time>
      </trkpt>
      <trkpt lat="45.93729" lon="-1.02196">
        <ele>-4.2</ele>
        <time>2014-05-18T08:32:35.000Z</time>
      </trkpt>
      <trkpt lat="45.93739" lon="-1.02186">
        <ele>-4.3</ele>
        <time>2014-05-18T08:32:39.000Z</time>
      </trkpt>
      <trkpt lat="45.93747" lon="-1.02179">
        <ele>-4.4</ele>
        <time>2014-05-18T08:32:42.000Z</time>
      </trkpt>
      <trkpt lat="45.93756" lon="-1.02171">
        <ele>-4.4</ele>
        <time>2014-05-18T08:32:45.000Z</time>
      </trkpt>
      <trkpt lat="45.93775" lon="-1.02153">
        <ele>-4.8</ele>
        <time>2014-05-18T08:32:51.000Z</time>
      </trkpt>
      <trkpt lat="45.93784" lon="-1.02145">
        <ele>-4.5</ele>
        <time>2014-05-18T08:32:54.000Z</time>
      </trkpt>
      <trkpt lat="45.93794" lon="-1.02137">
        <ele>-4.5</ele>
        <time>2014-05-18T08:32:57.000Z</time>
      </trkpt>
      <trkpt lat="45.93804" lon="-1.02129">
        <ele>-4.3</ele>
        <time>2014-05-18T08:33:00.000Z</time>
      </trkpt>
      <trkpt lat="45.93813" lon="-1.02122">
        <ele>-4.2</ele>
        <time>2014-05-18T08:33:03.000Z</time>
      </trkpt>
      <trkpt lat="45.93823" lon="-1.02115">
        <ele>-4.3</ele>
        <time>2014-05-18T08:33:06.000Z</time>
      </trkpt>
      <trkpt lat="45.93832" lon="-1.02107">
        <ele>-4.1</ele>
        <time>2014-05-18T08:33:09.000Z</time>
      </trkpt>
      <trkpt lat="45.93841" lon="-1.02099">
        <ele>-4.3</ele>
        <time>2014-05-18T08:33:12.000Z</time>
      </trkpt>
      <trkpt lat="45.93851" lon="-1.02092">
        <ele>-4.3</ele>
        <time>2014-05-18T08:33:15.000Z</time>
      </trkpt>
      <trkpt lat="45.93861" lon="-1.02085">
        <ele>-4.1</ele>
        <time>2014-05-18T08:33:18.000Z</time>
      </trkpt>
      <trkpt lat="45.9387" lon="-1.02077">
        <ele>-4.3</ele>
        <time>2014-05-18T08:33:21.000Z</time>
      </trkpt>
      <trkpt lat="45.93879" lon="-1.0207">
        <ele>-4.3</ele>
        <time>2014-05-18T08:33:24.000Z</time>
      </trkpt>
      <trkpt lat="45.93888" lon="-1.02063">
        <ele>-4.5</ele>
        <time>2014-05-18T08:33:27.000Z</time>
      </trkpt>
      <trkpt lat="45.93898" lon="-1.02056">
        <ele>-4.5</ele>
        <time>2014-05-18T08:33:30.000Z</time>
      </trkpt>
      <trkpt lat="45.93906" lon="-1.02048">
        <ele>-4.2</ele>
        <time>2014-05-18T08:33:33.000Z</time>
      </trkpt>
      <trkpt lat="45.93914" lon="-1.02042">
        <ele>-4.1</ele>
        <time>2014-05-18T08:33:36.000Z</time>
      </trkpt>
      <trkpt lat="45.93923" lon="-1.02035">
        <ele>-4.4</ele>
        <time>2014-05-18T08:33:39.000Z</time>
      </trkpt>
      <trkpt lat="45.93932" lon="-1.02027">
        <ele>-4.5</ele>
        <time>2014-05-18T08:33:42.000Z</time>
      </trkpt>
      <trkpt lat="45.93942" lon="-1.02022">
        <ele>-4.5</ele>
        <time>2014-05-18T08:33:45.000Z</time>
      </trkpt>
      <trkpt lat="45.93953" lon="-1.02021">
        <ele>-4.5</ele>
        <time>2014-05-18T08:33:48.000Z</time>
      </trkpt>
      <trkpt lat="45.93971" lon="-1.02038">
        <ele>-4.5</ele>
        <time>2014-05-18T08:33:54.000Z</time>
      </trkpt>
      <trkpt lat="45.93977" lon="-1.02052">
        <ele>-4.5</ele>
        <time>2014-05-18T08:33:57.000Z</time>
      </trkpt>
      <trkpt lat="45.93982" lon="-1.02067">
        <ele>-4.5</ele>
        <time>2014-05-18T08:34:00.000Z</time>
      </trkpt>
      <trkpt lat="45.93987" lon="-1.02082">
        <ele>-4.7</ele>
        <time>2014-05-18T08:34:03.000Z</time>
      </trkpt>
      <trkpt lat="45.93992" lon="-1.02097">
        <ele>-4.5</ele>
        <time>2014-05-18T08:34:06.000Z</time>
      </trkpt>
      <trkpt lat="45.93998" lon="-1.02111">
        <ele>-4.3</ele>
        <time>2014-05-18T08:34:09.000Z</time>
      </trkpt>
      <trkpt lat="45.94002" lon="-1.02127">
        <ele>-4.7</ele>
        <time>2014-05-18T08:34:12.000Z</time>
      </trkpt>
      <trkpt lat="45.94008" lon="-1.02139">
        <ele>-4.6</ele>
        <time>2014-05-18T08:34:15.000Z</time>
      </trkpt>
      <trkpt lat="45.94017" lon="-1.02146">
        <ele>-4.5</ele>
        <time>2014-05-18T08:34:18.000Z</time>
      </trkpt>
      <trkpt lat="45.94028" lon="-1.02146">
        <ele>-4.6</ele>
        <time>2014-05-18T08:34:21.000Z</time>
      </trkpt>
      <trkpt lat="45.94038" lon="-1.02138">
        <ele>-4.5</ele>
        <time>2014-05-18T08:34:24.000Z</time>
      </trkpt>
      <trkpt lat="45.94047" lon="-1.02128">
        <ele>-4.5</ele>
        <time>2014-05-18T08:34:27.000Z</time>
      </trkpt>
      <trkpt lat="45.94055" lon="-1.02118">
        <ele>-4.3</ele>
        <time>2014-05-18T08:34:30.000Z</time>
      </trkpt>
      <trkpt lat="45.94064" lon="-1.02109">
        <ele>-4.1</ele>
        <time>2014-05-18T08:34:33.000Z</time>
      </trkpt>
      <trkpt lat="45.94072" lon="-1.021">
        <ele>-4.1</ele>
        <time>2014-05-18T08:34:36.000Z</time>
      </trkpt>
      <trkpt lat="45.94081" lon="-1.02091">
        <ele>-4.2</ele>
        <time>2014-05-18T08:34:39.000Z</time>
      </trkpt>
      <trkpt lat="45.94089" lon="-1.02083">
        <ele>-4</ele>
        <time>2014-05-18T08:34:42.000Z</time>
      </trkpt>
      <trkpt lat="45.94098" lon="-1.02074">
        <ele>-3.9</ele>
        <time>2014-05-18T08:34:45.000Z</time>
      </trkpt>
      <trkpt lat="45.94107" lon="-1.02065">
        <ele>-4</ele>
        <time>2014-05-18T08:34:48.000Z</time>
      </trkpt>
      <trkpt lat="45.94117" lon="-1.02056">
        <ele>-4.1</ele>
        <time>2014-05-18T08:34:51.000Z</time>
      </trkpt>
      <trkpt lat="45.94135" lon="-1.02038">
        <ele>-4.3</ele>
        <time>2014-05-18T08:34:57.000Z</time>
      </trkpt>
      <trkpt lat="45.94144" lon="-1.02029">
        <ele>-4.3</ele>
        <time>2014-05-18T08:35:00.000Z</time>
      </trkpt>
      <trkpt lat="45.94153" lon="-1.0202">
        <ele>-4.2</ele>
        <time>2014-05-18T08:35:03.000Z</time>
      </trkpt>
      <trkpt lat="45.94161" lon="-1.02012">
        <ele>-4.2</ele>
        <time>2014-05-18T08:35:06.000Z</time>
      </trkpt>
      <trkpt lat="45.9417" lon="-1.02004">
        <ele>-4.2</ele>
        <time>2014-05-18T08:35:09.000Z</time>
      </trkpt>
      <trkpt lat="45.94178" lon="-1.01995">
        <ele>-4.3</ele>
        <time>2014-05-18T08:35:12.000Z</time>
      </trkpt>
      <trkpt lat="45.94186" lon="-1.01986">
        <ele>-4.3</ele>
        <time>2014-05-18T08:35:15.000Z</time>
      </trkpt>
      <trkpt lat="45.94194" lon="-1.01977">
        <ele>-4.1</ele>
        <time>2014-05-18T08:35:18.000Z</time>
      </trkpt>
      <trkpt lat="45.94203" lon="-1.01969">
        <ele>-4.3</ele>
        <time>2014-05-18T08:35:21.000Z</time>
      </trkpt>
      <trkpt lat="45.94212" lon="-1.0196">
        <ele>-4.5</ele>
        <time>2014-05-18T08:35:24.000Z</time>
      </trkpt>
      <trkpt lat="45.9422" lon="-1.01952">
        <ele>-4.5</ele>
        <time>2014-05-18T08:35:27.000Z</time>
      </trkpt>
      <trkpt lat="45.94229" lon="-1.01943">
        <ele>-4.3</ele>
        <time>2014-05-18T08:35:30.000Z</time>
      </trkpt>
      <trkpt lat="45.94237" lon="-1.01934">
        <ele>-4.3</ele>
        <time>2014-05-18T08:35:33.000Z</time>
      </trkpt>
      <trkpt lat="45.94246" lon="-1.01926">
        <ele>-4.4</ele>
        <time>2014-05-18T08:35:36.000Z</time>
      </trkpt>
      <trkpt lat="45.94255" lon="-1.01917">
        <ele>-4.4</ele>
        <time>2014-05-18T08:35:39.000Z</time>
      </trkpt>
      <trkpt lat="45.94263" lon="-1.01907">
        <ele>-3.9</ele>
        <time>2014-05-18T08:35:42.000Z</time>
      </trkpt>
      <trkpt lat="45.94272" lon="-1.01898">
        <ele>-4</ele>
        <time>2014-05-18T08:35:45.000Z</time>
      </trkpt>
      <trkpt lat="45.94281" lon="-1.01889">
        <ele>-4.1</ele>
        <time>2014-05-18T08:35:48.000Z</time>
      </trkpt>
      <trkpt lat="45.9429" lon="-1.01881">
        <ele>-4.3</ele>
        <time>2014-05-18T08:35:51.000Z</time>
      </trkpt>
      <trkpt lat="45.94299" lon="-1.01872">
        <ele>-4</ele>
        <time>2014-05-18T08:35:54.000Z</time>
      </trkpt>
      <trkpt lat="45.94316" lon="-1.01855">
        <ele>-3.9</ele>
        <time>2014-05-18T08:36:00.000Z</time>
      </trkpt>
      <trkpt lat="45.94324" lon="-1.01848">
        <ele>-4</ele>
        <time>2014-05-18T08:36:03.000Z</time>
      </trkpt>
      <trkpt lat="45.94332" lon="-1.0184">
        <ele>-3.8</ele>
        <time>2014-05-18T08:36:06.000Z</time>
      </trkpt>
      <trkpt lat="45.94341" lon="-1.01832">
        <ele>-4</ele>
        <time>2014-05-18T08:36:09.000Z</time>
      </trkpt>
      <trkpt lat="45.94349" lon="-1.01823">
        <ele>-4.1</ele>
        <time>2014-05-18T08:36:12.000Z</time>
      </trkpt>
      <trkpt lat="45.94358" lon="-1.01815">
        <ele>-4.3</ele>
        <time>2014-05-18T08:36:15.000Z</time>
      </trkpt>
      <trkpt lat="45.94367" lon="-1.01806">
        <ele>-4.3</ele>
        <time>2014-05-18T08:36:18.000Z</time>
      </trkpt>
      <trkpt lat="45.94375" lon="-1.01797">
        <ele>-4.1</ele>
        <time>2014-05-18T08:36:21.000Z</time>
      </trkpt>
      <trkpt lat="45.94384" lon="-1.01789">
        <ele>-4</ele>
        <time>2014-05-18T08:36:24.000Z</time>
      </trkpt>
      <trkpt lat="45.94393" lon="-1.0178">
        <ele>-3.9</ele>
        <time>2014-05-18T08:36:27.000Z</time>
      </trkpt>
      <trkpt lat="45.94402" lon="-1.01771">
        <ele>-4</ele>
        <time>2014-05-18T08:36:30.000Z</time>
      </trkpt>
      <trkpt lat="45.9441" lon="-1.01762">
        <ele>-4</ele>
        <time>2014-05-18T08:36:33.000Z</time>
      </trkpt>
      <trkpt lat="45.94419" lon="-1.01754">
        <ele>-4.2</ele>
        <time>2014-05-18T08:36:36.000Z</time>
      </trkpt>
      <trkpt lat="45.94428" lon="-1.01745">
        <ele>-4.3</ele>
        <time>2014-05-18T08:36:39.000Z</time>
      </trkpt>
      <trkpt lat="45.94436" lon="-1.01736">
        <ele>-4.3</ele>
        <time>2014-05-18T08:36:42.000Z</time>
      </trkpt>
      <trkpt lat="45.94445" lon="-1.01728">
        <ele>-4.3</ele>
        <time>2014-05-18T08:36:45.000Z</time>
      </trkpt>
      <trkpt lat="45.94453" lon="-1.0172">
        <ele>-4</ele>
        <time>2014-05-18T08:36:48.000Z</time>
      </trkpt>
      <trkpt lat="45.94461" lon="-1.01712">
        <ele>-4</ele>
        <time>2014-05-18T08:36:51.000Z</time>
      </trkpt>
      <trkpt lat="45.94469" lon="-1.01704">
        <ele>-3.9</ele>
        <time>2014-05-18T08:36:54.000Z</time>
      </trkpt>
      <trkpt lat="45.94476" lon="-1.01695">
        <ele>-3.8</ele>
        <time>2014-05-18T08:36:57.000Z</time>
      </trkpt>
      <trkpt lat="45.94493" lon="-1.0168">
        <ele>-3.7</ele>
        <time>2014-05-18T08:37:03.000Z</time>
      </trkpt>
      <trkpt lat="45.94501" lon="-1.01672">
        <ele>-3.8</ele>
        <time>2014-05-18T08:37:06.000Z</time>
      </trkpt>
      <trkpt lat="45.94508" lon="-1.01664">
        <ele>-3.7</ele>
        <time>2014-05-18T08:37:09.000Z</time>
      </trkpt>
      <trkpt lat="45.94516" lon="-1.01656">
        <ele>-3.8</ele>
        <time>2014-05-18T08:37:12.000Z</time>
      </trkpt>
      <trkpt lat="45.94525" lon="-1.01648">
        <ele>-3.9</ele>
        <time>2014-05-18T08:37:15.000Z</time>
      </trkpt>
      <trkpt lat="45.94533" lon="-1.0164">
        <ele>-4.2</ele>
        <time>2014-05-18T08:37:18.000Z</time>
      </trkpt>
      <trkpt lat="45.94542" lon="-1.0163">
        <ele>-4.1</ele>
        <time>2014-05-18T08:37:21.000Z</time>
      </trkpt>
      <trkpt lat="45.9455" lon="-1.0162">
        <ele>-3.9</ele>
        <time>2014-05-18T08:37:24.000Z</time>
      </trkpt>
      <trkpt lat="45.94557" lon="-1.01609">
        <ele>-4.1</ele>
        <time>2014-05-18T08:37:27.000Z</time>
      </trkpt>
      <trkpt lat="45.94564" lon="-1.01598">
        <ele>-4.2</ele>
        <time>2014-05-18T08:37:30.000Z</time>
      </trkpt>
      <trkpt lat="45.94571" lon="-1.01586">
        <ele>-4.2</ele>
        <time>2014-05-18T08:37:33.000Z</time>
      </trkpt>
      <trkpt lat="45.94577" lon="-1.01574">
        <ele>-3.7</ele>
        <time>2014-05-18T08:37:36.000Z</time>
      </trkpt>
      <trkpt lat="45.94584" lon="-1.01562">
        <ele>-4.1</ele>
        <time>2014-05-18T08:37:39.000Z</time>
      </trkpt>
      <trkpt lat="45.9459" lon="-1.01549">
        <ele>-4.1</ele>
        <time>2014-05-18T08:37:42.000Z</time>
      </trkpt>
      <trkpt lat="45.94596" lon="-1.01538">
        <ele>-3.9</ele>
        <time>2014-05-18T08:37:45.000Z</time>
      </trkpt>
      <trkpt lat="45.94602" lon="-1.01526">
        <ele>-4.1</ele>
        <time>2014-05-18T08:37:48.000Z</time>
      </trkpt>
      <trkpt lat="45.94608" lon="-1.01513">
        <ele>-3.9</ele>
        <time>2014-05-18T08:37:51.000Z</time>
      </trkpt>
      <trkpt lat="45.94615" lon="-1.01502">
        <ele>-4.1</ele>
        <time>2014-05-18T08:37:54.000Z</time>
      </trkpt>
      <trkpt lat="45.94621" lon="-1.0149">
        <ele>-4</ele>
        <time>2014-05-18T08:37:57.000Z</time>
      </trkpt>
      <trkpt lat="45.94627" lon="-1.01479">
        <ele>-3.8</ele>
        <time>2014-05-18T08:38:00.000Z</time>
      </trkpt>
      <trkpt lat="45.94639" lon="-1.01455">
        <ele>-3.8</ele>
        <time>2014-05-18T08:38:06.000Z</time>
      </trkpt>
      <trkpt lat="45.94645" lon="-1.01444">
        <ele>-3.8</ele>
        <time>2014-05-18T08:38:09.000Z</time>
      </trkpt>
      <trkpt lat="45.94651" lon="-1.01433">
        <ele>-3.7</ele>
        <time>2014-05-18T08:38:12.000Z</time>
      </trkpt>
      <trkpt lat="45.94656" lon="-1.01422">
        <ele>-3.7</ele>
        <time>2014-05-18T08:38:15.000Z</time>
      </trkpt>
      <trkpt lat="45.94662" lon="-1.01411">
        <ele>-3.8</ele>
        <time>2014-05-18T08:38:18.000Z</time>
      </trkpt>
      <trkpt lat="45.94668" lon="-1.01399">
        <ele>-3.8</ele>
        <time>2014-05-18T08:38:21.000Z</time>
      </trkpt>
      <trkpt lat="45.94675" lon="-1.01389">
        <ele>-3.6</ele>
        <time>2014-05-18T08:38:24.000Z</time>
      </trkpt>
      <trkpt lat="45.94681" lon="-1.01377">
        <ele>-3.5</ele>
        <time>2014-05-18T08:38:27.000Z</time>
      </trkpt>
      <trkpt lat="45.94687" lon="-1.01366">
        <ele>-3.8</ele>
        <time>2014-05-18T08:38:30.000Z</time>
      </trkpt>
      <trkpt lat="45.94695" lon="-1.01354">
        <ele>-4.1</ele>
        <time>2014-05-18T08:38:33.000Z</time>
      </trkpt>
      <trkpt lat="45.94702" lon="-1.01344">
        <ele>-4.1</ele>
        <time>2014-05-18T08:38:36.000Z</time>
      </trkpt>
      <trkpt lat="45.94709" lon="-1.01333">
        <ele>-3.7</ele>
        <time>2014-05-18T08:38:40.000Z</time>
      </trkpt>
      <trkpt lat="45.94717" lon="-1.01323">
        <ele>-3.7</ele>
        <time>2014-05-18T08:38:44.000Z</time>
      </trkpt>
      <trkpt lat="45.94727" lon="-1.01312">
        <ele>-3.7</ele>
        <time>2014-05-18T08:38:48.000Z</time>
      </trkpt>
      <trkpt lat="45.94736" lon="-1.01303">
        <ele>-4</ele>
        <time>2014-05-18T08:38:52.000Z</time>
      </trkpt>
      <trkpt lat="45.94744" lon="-1.01295">
        <ele>-3.9</ele>
        <time>2014-05-18T08:38:56.000Z</time>
      </trkpt>
      <trkpt lat="45.94752" lon="-1.01288">
        <ele>-3.7</ele>
        <time>2014-05-18T08:39:00.000Z</time>
      </trkpt>
      <trkpt lat="45.94762" lon="-1.01279">
        <ele>-3.5</ele>
        <time>2014-05-18T08:39:04.000Z</time>
      </trkpt>
      <trkpt lat="45.94777" lon="-1.01264">
        <ele>-3.5</ele>
        <time>2014-05-18T08:39:10.000Z</time>
      </trkpt>
      <trkpt lat="45.94786" lon="-1.01256">
        <ele>-3.5</ele>
        <time>2014-05-18T08:39:13.000Z</time>
      </trkpt>
      <trkpt lat="45.94794" lon="-1.01247">
        <ele>-3.9</ele>
        <time>2014-05-18T08:39:16.000Z</time>
      </trkpt>
      <trkpt lat="45.94802" lon="-1.01239">
        <ele>-3.9</ele>
        <time>2014-05-18T08:39:19.000Z</time>
      </trkpt>
      <trkpt lat="45.9481" lon="-1.01231">
        <ele>-3.9</ele>
        <time>2014-05-18T08:39:22.000Z</time>
      </trkpt>
      <trkpt lat="45.94819" lon="-1.01222">
        <ele>-3.9</ele>
        <time>2014-05-18T08:39:25.000Z</time>
      </trkpt>
      <trkpt lat="45.94826" lon="-1.01215">
        <ele>-3.8</ele>
        <time>2014-05-18T08:39:28.000Z</time>
      </trkpt>
      <trkpt lat="45.94835" lon="-1.01205">
        <ele>-3.7</ele>
        <time>2014-05-18T08:39:32.000Z</time>
      </trkpt>
      <trkpt lat="45.94842" lon="-1.01198">
        <ele>-3.6</ele>
        <time>2014-05-18T08:39:36.000Z</time>
      </trkpt>
      <trkpt lat="45.94849" lon="-1.01189">
        <ele>-3.6</ele>
        <time>2014-05-18T08:39:42.000Z</time>
      </trkpt>
      <trkpt lat="45.94858" lon="-1.01183">
        <ele>-3.5</ele>
        <time>2014-05-18T08:41:47.000Z</time>
      </trkpt>
      <trkpt lat="45.94877" lon="-1.01171">
        <ele>-3.4</ele>
        <time>2014-05-18T08:41:57.000Z</time>
      </trkpt>
      <trkpt lat="45.94885" lon="-1.01165">
        <ele>-3.6</ele>
        <time>2014-05-18T08:42:01.000Z</time>
      </trkpt>
      <trkpt lat="45.94894" lon="-1.01159">
        <ele>-3.7</ele>
        <time>2014-05-18T08:42:05.000Z</time>
      </trkpt>
      <trkpt lat="45.94903" lon="-1.01153">
        <ele>-3.8</ele>
        <time>2014-05-18T08:42:09.000Z</time>
      </trkpt>
      <trkpt lat="45.94912" lon="-1.01147">
        <ele>-3.7</ele>
        <time>2014-05-18T08:42:14.000Z</time>
      </trkpt>
      <trkpt lat="45.94921" lon="-1.01142">
        <ele>-3.4</ele>
        <time>2014-05-18T08:43:29.000Z</time>
      </trkpt>
      <trkpt lat="45.9494" lon="-1.01127">
        <ele>-3.5</ele>
        <time>2014-05-18T08:43:37.000Z</time>
      </trkpt>
      <trkpt lat="45.94949" lon="-1.01122">
        <ele>-3.4</ele>
        <time>2014-05-18T08:43:40.000Z</time>
      </trkpt>
      <trkpt lat="45.94958" lon="-1.01116">
        <ele>-3.4</ele>
        <time>2014-05-18T08:43:43.000Z</time>
      </trkpt>
      <trkpt lat="45.94967" lon="-1.01109">
        <ele>-3.5</ele>
        <time>2014-05-18T08:43:46.000Z</time>
      </trkpt>
      <trkpt lat="45.94976" lon="-1.01103">
        <ele>-3.6</ele>
        <time>2014-05-18T08:43:49.000Z</time>
      </trkpt>
      <trkpt lat="45.94985" lon="-1.01097">
        <ele>-3.6</ele>
        <time>2014-05-18T08:43:52.000Z</time>
      </trkpt>
      <trkpt lat="45.94995" lon="-1.0109">
        <ele>-3.3</ele>
        <time>2014-05-18T08:43:55.000Z</time>
      </trkpt>
      <trkpt lat="45.95004" lon="-1.0108">
        <ele>-3.4</ele>
        <time>2014-05-18T08:43:58.000Z</time>
      </trkpt>
      <trkpt lat="45.95014" lon="-1.01072">
        <ele>-3.4</ele>
        <time>2014-05-18T08:44:01.000Z</time>
      </trkpt>
      <trkpt lat="45.95024" lon="-1.01064">
        <ele>-3.4</ele>
        <time>2014-05-18T08:44:04.000Z</time>
      </trkpt>
      <trkpt lat="45.95035" lon="-1.01057">
        <ele>-3.7</ele>
        <time>2014-05-18T08:44:07.000Z</time>
      </trkpt>
      <trkpt lat="45.95046" lon="-1.01049">
        <ele>-3.6</ele>
        <time>2014-05-18T08:44:10.000Z</time>
      </trkpt>
      <trkpt lat="45.95058" lon="-1.01044">
        <ele>-3.6</ele>
        <time>2014-05-18T08:44:13.000Z</time>
      </trkpt>
      <trkpt lat="45.95068" lon="-1.01037">
        <ele>-3.5</ele>
        <time>2014-05-18T08:44:16.000Z</time>
      </trkpt>
      <trkpt lat="45.95078" lon="-1.01032">
        <ele>-3.4</ele>
        <time>2014-05-18T08:44:19.000Z</time>
      </trkpt>
      <trkpt lat="45.95088" lon="-1.01028">
        <ele>-3.2</ele>
        <time>2014-05-18T08:44:22.000Z</time>
      </trkpt>
      <trkpt lat="45.95099" lon="-1.01024">
        <ele>-3.6</ele>
        <time>2014-05-18T08:44:25.000Z</time>
      </trkpt>
      <trkpt lat="45.95112" lon="-1.01023">
        <ele>-3.5</ele>
        <time>2014-05-18T08:44:28.000Z</time>
      </trkpt>
      <trkpt lat="45.95125" lon="-1.01024">
        <ele>-3.3</ele>
        <time>2014-05-18T08:44:31.000Z</time>
      </trkpt>
      <trkpt lat="45.95151" lon="-1.01029">
        <ele>-3.1</ele>
        <time>2014-05-18T08:44:37.000Z</time>
      </trkpt>
      <trkpt lat="45.95164" lon="-1.01032">
        <ele>-3</ele>
        <time>2014-05-18T08:44:40.000Z</time>
      </trkpt>
      <trkpt lat="45.95177" lon="-1.01035">
        <ele>-3</ele>
        <time>2014-05-18T08:44:43.000Z</time>
      </trkpt>
      <trkpt lat="45.95189" lon="-1.01037">
        <ele>-3.1</ele>
        <time>2014-05-18T08:44:46.000Z</time>
      </trkpt>
      <trkpt lat="45.95202" lon="-1.0104">
        <ele>-3.2</ele>
        <time>2014-05-18T08:44:49.000Z</time>
      </trkpt>
      <trkpt lat="45.95212" lon="-1.01043">
        <ele>-3.2</ele>
        <time>2014-05-18T08:44:51.000Z</time>
      </trkpt>
      <trkpt lat="45.95221" lon="-1.01046">
        <ele>-3.6</ele>
        <time>2014-05-18T08:44:53.000Z</time>
      </trkpt>
      <trkpt lat="45.9523" lon="-1.01048">
        <ele>-3.6</ele>
        <time>2014-05-18T08:44:55.000Z</time>
      </trkpt>
      <trkpt lat="45.95242" lon="-1.01052">
        <ele>-3.1</ele>
        <time>2014-05-18T08:44:58.000Z</time>
      </trkpt>
      <trkpt lat="45.95254" lon="-1.01055">
        <ele>-3.1</ele>
        <time>2014-05-18T08:45:01.000Z</time>
      </trkpt>
      <trkpt lat="45.95266" lon="-1.01057">
        <ele>-3.1</ele>
        <time>2014-05-18T08:45:04.000Z</time>
      </trkpt>
      <trkpt lat="45.95276" lon="-1.01061">
        <ele>-3.1</ele>
        <time>2014-05-18T08:45:07.000Z</time>
      </trkpt>
      <trkpt lat="45.95289" lon="-1.01064">
        <ele>-3</ele>
        <time>2014-05-18T08:45:10.000Z</time>
      </trkpt>
      <trkpt lat="45.95301" lon="-1.01066">
        <ele>-3.3</ele>
        <time>2014-05-18T08:45:13.000Z</time>
      </trkpt>
      <trkpt lat="45.95314" lon="-1.01069">
        <ele>-3.3</ele>
        <time>2014-05-18T08:45:16.000Z</time>
      </trkpt>
      <trkpt lat="45.95327" lon="-1.01071">
        <ele>-3.1</ele>
        <time>2014-05-18T08:45:19.000Z</time>
      </trkpt>
      <trkpt lat="45.9534" lon="-1.01074">
        <ele>-3.3</ele>
        <time>2014-05-18T08:45:22.000Z</time>
      </trkpt>
      <trkpt lat="45.95354" lon="-1.01078">
        <ele>-3.5</ele>
        <time>2014-05-18T08:45:25.000Z</time>
      </trkpt>
      <trkpt lat="45.95367" lon="-1.01081">
        <ele>-3.5</ele>
        <time>2014-05-18T08:45:28.000Z</time>
      </trkpt>
      <trkpt lat="45.95379" lon="-1.01083">
        <ele>-3.6</ele>
        <time>2014-05-18T08:45:31.000Z</time>
      </trkpt>
      <trkpt lat="45.95392" lon="-1.01087">
        <ele>-3.3</ele>
        <time>2014-05-18T08:45:34.000Z</time>
      </trkpt>
      <trkpt lat="45.95415" lon="-1.01076">
        <ele>-3.6</ele>
        <time>2014-05-18T08:45:40.000Z</time>
      </trkpt>
      <trkpt lat="45.95421" lon="-1.01059">
        <ele>-3.8</ele>
        <time>2014-05-18T08:45:43.000Z</time>
      </trkpt>
      <trkpt lat="45.95425" lon="-1.01042">
        <ele>-3.8</ele>
        <time>2014-05-18T08:45:46.000Z</time>
      </trkpt>
      <trkpt lat="45.9543" lon="-1.01025">
        <ele>-3.9</ele>
        <time>2014-05-18T08:45:49.000Z</time>
      </trkpt>
      <trkpt lat="45.95435" lon="-1.01008">
        <ele>-3.9</ele>
        <time>2014-05-18T08:45:52.000Z</time>
      </trkpt>
      <trkpt lat="45.95439" lon="-1.00991">
        <ele>-3.8</ele>
        <time>2014-05-18T08:45:55.000Z</time>
      </trkpt>
      <trkpt lat="45.95444" lon="-1.00973">
        <ele>-3.5</ele>
        <time>2014-05-18T08:45:58.000Z</time>
      </trkpt>
      <trkpt lat="45.9545" lon="-1.00956">
        <ele>-3.3</ele>
        <time>2014-05-18T08:46:01.000Z</time>
      </trkpt>
      <trkpt lat="45.95454" lon="-1.00938">
        <ele>-3.5</ele>
        <time>2014-05-18T08:46:04.000Z</time>
      </trkpt>
      <trkpt lat="45.9546" lon="-1.0092">
        <ele>-3.6</ele>
        <time>2014-05-18T08:46:07.000Z</time>
      </trkpt>
      <trkpt lat="45.95465" lon="-1.00903">
        <ele>-3.8</ele>
        <time>2014-05-18T08:46:10.000Z</time>
      </trkpt>
      <trkpt lat="45.9547" lon="-1.00885">
        <ele>-3.7</ele>
        <time>2014-05-18T08:46:13.000Z</time>
      </trkpt>
      <trkpt lat="45.95474" lon="-1.00868">
        <ele>-3.7</ele>
        <time>2014-05-18T08:46:16.000Z</time>
      </trkpt>
      <trkpt lat="45.95479" lon="-1.0085">
        <ele>-3.8</ele>
        <time>2014-05-18T08:46:19.000Z</time>
      </trkpt>
      <trkpt lat="45.95484" lon="-1.00832">
        <ele>-3.7</ele>
        <time>2014-05-18T08:46:22.000Z</time>
      </trkpt>
      <trkpt lat="45.95489" lon="-1.00816">
        <ele>-3.7</ele>
        <time>2014-05-18T08:46:25.000Z</time>
      </trkpt>
      <trkpt lat="45.95494" lon="-1.00799">
        <ele>-3.6</ele>
        <time>2014-05-18T08:46:28.000Z</time>
      </trkpt>
      <trkpt lat="45.95498" lon="-1.00783">
        <ele>-3.6</ele>
        <time>2014-05-18T08:46:31.000Z</time>
      </trkpt>
      <trkpt lat="45.95503" lon="-1.00767">
        <ele>-3.5</ele>
        <time>2014-05-18T08:46:34.000Z</time>
      </trkpt>
      <trkpt lat="45.95508" lon="-1.00751">
        <ele>-3.5</ele>
        <time>2014-05-18T08:46:37.000Z</time>
      </trkpt>
      <trkpt lat="45.95518" lon="-1.00719">
        <ele>-3.5</ele>
        <time>2014-05-18T08:46:43.000Z</time>
      </trkpt>
      <trkpt lat="45.95522" lon="-1.00704">
        <ele>-3.2</ele>
        <time>2014-05-18T08:46:46.000Z</time>
      </trkpt>
      <trkpt lat="45.95526" lon="-1.00689">
        <ele>-3.6</ele>
        <time>2014-05-18T08:46:50.000Z</time>
      </trkpt>
      <trkpt lat="45.9553" lon="-1.00673">
        <ele>-3.5</ele>
        <time>2014-05-18T08:46:54.000Z</time>
      </trkpt>
      <trkpt lat="45.95535" lon="-1.00657">
        <ele>-3.3</ele>
        <time>2014-05-18T08:46:58.000Z</time>
      </trkpt>
      <trkpt lat="45.95543" lon="-1.00647">
        <ele>-3.4</ele>
        <time>2014-05-18T08:47:02.000Z</time>
      </trkpt>
      <trkpt lat="45.95553" lon="-1.00647">
        <ele>-3.3</ele>
        <time>2014-05-18T08:47:06.000Z</time>
      </trkpt>
      <trkpt lat="45.95563" lon="-1.00651">
        <ele>-3.3</ele>
        <time>2014-05-18T08:47:10.000Z</time>
      </trkpt>
      <trkpt lat="45.95573" lon="-1.00656">
        <ele>-3.4</ele>
        <time>2014-05-18T08:47:14.000Z</time>
      </trkpt>
      <trkpt lat="45.95585" lon="-1.0066">
        <ele>-3.4</ele>
        <time>2014-05-18T08:47:18.000Z</time>
      </trkpt>
      <trkpt lat="45.95593" lon="-1.00665">
        <ele>-3.3</ele>
        <time>2014-05-18T08:47:21.000Z</time>
      </trkpt>
      <trkpt lat="45.95605" lon="-1.00669">
        <ele>-3.6</ele>
        <time>2014-05-18T08:47:25.000Z</time>
      </trkpt>
      <trkpt lat="45.95614" lon="-1.00671">
        <ele>-3.5</ele>
        <time>2014-05-18T08:47:28.000Z</time>
      </trkpt>
      <trkpt lat="45.95623" lon="-1.00675">
        <ele>-3.4</ele>
        <time>2014-05-18T08:47:31.000Z</time>
      </trkpt>
      <trkpt lat="45.95632" lon="-1.0068">
        <ele>-3.6</ele>
        <time>2014-05-18T08:47:34.000Z</time>
      </trkpt>
      <trkpt lat="45.95642" lon="-1.00684">
        <ele>-3.5</ele>
        <time>2014-05-18T08:47:37.000Z</time>
      </trkpt>
      <trkpt lat="45.95653" lon="-1.00688">
        <ele>-3.5</ele>
        <time>2014-05-18T08:47:40.000Z</time>
      </trkpt>
      <trkpt lat="45.95673" lon="-1.00694">
        <ele>-3.4</ele>
        <time>2014-05-18T08:47:46.000Z</time>
      </trkpt>
      <trkpt lat="45.95683" lon="-1.00697">
        <ele>-3.4</ele>
        <time>2014-05-18T08:47:49.000Z</time>
      </trkpt>
      <trkpt lat="45.95692" lon="-1.007">
        <ele>-3.5</ele>
        <time>2014-05-18T08:47:52.000Z</time>
      </trkpt>
      <trkpt lat="45.95702" lon="-1.00702">
        <ele>-3.5</ele>
        <time>2014-05-18T08:47:55.000Z</time>
      </trkpt>
      <trkpt lat="45.95711" lon="-1.00705">
        <ele>-3.7</ele>
        <time>2014-05-18T08:47:58.000Z</time>
      </trkpt>
      <trkpt lat="45.95721" lon="-1.00707">
        <ele>-3.8</ele>
        <time>2014-05-18T08:48:01.000Z</time>
      </trkpt>
      <trkpt lat="45.9573" lon="-1.00709">
        <ele>-3.7</ele>
        <time>2014-05-18T08:48:04.000Z</time>
      </trkpt>
      <trkpt lat="45.9574" lon="-1.00712">
        <ele>-3.7</ele>
        <time>2014-05-18T08:48:07.000Z</time>
      </trkpt>
      <trkpt lat="45.95751" lon="-1.00714">
        <ele>-3.7</ele>
        <time>2014-05-18T08:48:11.000Z</time>
      </trkpt>
      <trkpt lat="45.95763" lon="-1.00717">
        <ele>-3.7</ele>
        <time>2014-05-18T08:48:15.000Z</time>
      </trkpt>
      <trkpt lat="45.95774" lon="-1.00719">
        <ele>-4</ele>
        <time>2014-05-18T08:48:19.000Z</time>
      </trkpt>
      <trkpt lat="45.95784" lon="-1.00716">
        <ele>-3.7</ele>
        <time>2014-05-18T08:48:23.000Z</time>
      </trkpt>
      <trkpt lat="45.95794" lon="-1.00711">
        <ele>-3.5</ele>
        <time>2014-05-18T08:48:27.000Z</time>
      </trkpt>
      <trkpt lat="45.95804" lon="-1.00705">
        <ele>-3.2</ele>
        <time>2014-05-18T08:48:31.000Z</time>
      </trkpt>
      <trkpt lat="45.95815" lon="-1.00699">
        <ele>-3.3</ele>
        <time>2014-05-18T08:48:35.000Z</time>
      </trkpt>
      <trkpt lat="45.95825" lon="-1.00692">
        <ele>-3.4</ele>
        <time>2014-05-18T08:48:39.000Z</time>
      </trkpt>
      <trkpt lat="45.95835" lon="-1.00687">
        <ele>-3.5</ele>
        <time>2014-05-18T08:48:43.000Z</time>
      </trkpt>
      <trkpt lat="45.95857" lon="-1.00674">
        <ele>-3.4</ele>
        <time>2014-05-18T08:48:51.000Z</time>
      </trkpt>
      <trkpt lat="45.95868" lon="-1.00669">
        <ele>-3.4</ele>
        <time>2014-05-18T08:48:55.000Z</time>
      </trkpt>
      <trkpt lat="45.95878" lon="-1.00663">
        <ele>-3.5</ele>
        <time>2014-05-18T08:48:59.000Z</time>
      </trkpt>
      <trkpt lat="45.95887" lon="-1.00658">
        <ele>-3.5</ele>
        <time>2014-05-18T08:49:02.000Z</time>
      </trkpt>
      <trkpt lat="45.95895" lon="-1.00654">
        <ele>-3.4</ele>
        <time>2014-05-18T08:49:05.000Z</time>
      </trkpt>
      <trkpt lat="45.95904" lon="-1.0065">
        <ele>-3.3</ele>
        <time>2014-05-18T08:49:08.000Z</time>
      </trkpt>
      <trkpt lat="45.95915" lon="-1.00644">
        <ele>-3.4</ele>
        <time>2014-05-18T08:49:12.000Z</time>
      </trkpt>
      <trkpt lat="45.95925" lon="-1.00638">
        <ele>-3.1</ele>
        <time>2014-05-18T08:49:16.000Z</time>
      </trkpt>
      <trkpt lat="45.95936" lon="-1.00631">
        <ele>-3.6</ele>
        <time>2014-05-18T08:49:20.000Z</time>
      </trkpt>
      <trkpt lat="45.95947" lon="-1.00625">
        <ele>-3.4</ele>
        <time>2014-05-18T08:49:24.000Z</time>
      </trkpt>
      <trkpt lat="45.95958" lon="-1.00619">
        <ele>-3.2</ele>
        <time>2014-05-18T08:49:28.000Z</time>
      </trkpt>
      <trkpt lat="45.95969" lon="-1.00612">
        <ele>-3.5</ele>
        <time>2014-05-18T08:49:32.000Z</time>
      </trkpt>
      <trkpt lat="45.95977" lon="-1.00607">
        <ele>-3.6</ele>
        <time>2014-05-18T08:49:35.000Z</time>
      </trkpt>
      <trkpt lat="45.95988" lon="-1.00601">
        <ele>-3.6</ele>
        <time>2014-05-18T08:49:39.000Z</time>
      </trkpt>
      <trkpt lat="45.95996" lon="-1.00595">
        <ele>-3.4</ele>
        <time>2014-05-18T08:49:42.000Z</time>
      </trkpt>
      <trkpt lat="45.96005" lon="-1.00591">
        <ele>-3.4</ele>
        <time>2014-05-18T08:49:45.000Z</time>
      </trkpt>
      <trkpt lat="45.96023" lon="-1.0058">
        <ele>-3.3</ele>
        <time>2014-05-18T08:49:51.000Z</time>
      </trkpt>
      <trkpt lat="45.96033" lon="-1.00575">
        <ele>-3.2</ele>
        <time>2014-05-18T08:49:54.000Z</time>
      </trkpt>
      <trkpt lat="45.96041" lon="-1.00569">
        <ele>-3</ele>
        <time>2014-05-18T08:49:57.000Z</time>
      </trkpt>
      <trkpt lat="45.96051" lon="-1.00564">
        <ele>-3.2</ele>
        <time>2014-05-18T08:50:00.000Z</time>
      </trkpt>
      <trkpt lat="45.9606" lon="-1.00559">
        <ele>-3.2</ele>
        <time>2014-05-18T08:50:03.000Z</time>
      </trkpt>
      <trkpt lat="45.96069" lon="-1.00554">
        <ele>-3</ele>
        <time>2014-05-18T08:50:06.000Z</time>
      </trkpt>
      <trkpt lat="45.96078" lon="-1.00548">
        <ele>-3.1</ele>
        <time>2014-05-18T08:50:09.000Z</time>
      </trkpt>
      <trkpt lat="45.96087" lon="-1.00542">
        <ele>-3.1</ele>
        <time>2014-05-18T08:50:12.000Z</time>
      </trkpt>
      <trkpt lat="45.96096" lon="-1.00536">
        <ele>-3.2</ele>
        <time>2014-05-18T08:50:15.000Z</time>
      </trkpt>
      <trkpt lat="45.96106" lon="-1.00531">
        <ele>-3.3</ele>
        <time>2014-05-18T08:50:18.000Z</time>
      </trkpt>
      <trkpt lat="45.96115" lon="-1.00525">
        <ele>-3.2</ele>
        <time>2014-05-18T08:50:21.000Z</time>
      </trkpt>
      <trkpt lat="45.96125" lon="-1.0052">
        <ele>-3.1</ele>
        <time>2014-05-18T08:50:24.000Z</time>
      </trkpt>
      <trkpt lat="45.96134" lon="-1.00514">
        <ele>-3.4</ele>
        <time>2014-05-18T08:50:27.000Z</time>
      </trkpt>
      <trkpt lat="45.96144" lon="-1.00509">
        <ele>-3.5</ele>
        <time>2014-05-18T08:50:30.000Z</time>
      </trkpt>
      <trkpt lat="45.96153" lon="-1.00504">
        <ele>-3.3</ele>
        <time>2014-05-18T08:50:33.000Z</time>
      </trkpt>
      <trkpt lat="45.96162" lon="-1.00497">
        <ele>-3.4</ele>
        <time>2014-05-18T08:50:36.000Z</time>
      </trkpt>
      <trkpt lat="45.96171" lon="-1.00492">
        <ele>-3.5</ele>
        <time>2014-05-18T08:50:39.000Z</time>
      </trkpt>
      <trkpt lat="45.96182" lon="-1.00488">
        <ele>-4</ele>
        <time>2014-05-18T08:50:42.000Z</time>
      </trkpt>
      <trkpt lat="45.96191" lon="-1.00481">
        <ele>-3.5</ele>
        <time>2014-05-18T08:50:45.000Z</time>
      </trkpt>
      <trkpt lat="45.962" lon="-1.00476">
        <ele>-3.2</ele>
        <time>2014-05-18T08:50:48.000Z</time>
      </trkpt>
      <trkpt lat="45.9622" lon="-1.00464">
        <ele>-3.2</ele>
        <time>2014-05-18T08:50:55.000Z</time>
      </trkpt>
      <trkpt lat="45.96229" lon="-1.00459">
        <ele>-3.4</ele>
        <time>2014-05-18T08:50:58.000Z</time>
      </trkpt>
      <trkpt lat="45.96239" lon="-1.00453">
        <ele>-3.7</ele>
        <time>2014-05-18T08:51:01.000Z</time>
      </trkpt>
      <trkpt lat="45.96248" lon="-1.00448">
        <ele>-3.5</ele>
        <time>2014-05-18T08:51:04.000Z</time>
      </trkpt>
      <trkpt lat="45.96257" lon="-1.00443">
        <ele>-3.4</ele>
        <time>2014-05-18T08:51:07.000Z</time>
      </trkpt>
      <trkpt lat="45.96266" lon="-1.00438">
        <ele>-3.6</ele>
        <time>2014-05-18T08:51:10.000Z</time>
      </trkpt>
      <trkpt lat="45.96275" lon="-1.00433">
        <ele>-3.6</ele>
        <time>2014-05-18T08:51:13.000Z</time>
      </trkpt>
      <trkpt lat="45.96285" lon="-1.00428">
        <ele>-3.2</ele>
        <time>2014-05-18T08:51:16.000Z</time>
      </trkpt>
      <trkpt lat="45.96294" lon="-1.00423">
        <ele>-3.3</ele>
        <time>2014-05-18T08:51:19.000Z</time>
      </trkpt>
      <trkpt lat="45.96303" lon="-1.00417">
        <ele>-3.2</ele>
        <time>2014-05-18T08:51:22.000Z</time>
      </trkpt>
      <trkpt lat="45.96313" lon="-1.00413">
        <ele>-3.4</ele>
        <time>2014-05-18T08:51:25.000Z</time>
      </trkpt>
      <trkpt lat="45.96322" lon="-1.00407">
        <ele>-3.6</ele>
        <time>2014-05-18T08:51:28.000Z</time>
      </trkpt>
      <trkpt lat="45.96331" lon="-1.00402">
        <ele>-3.5</ele>
        <time>2014-05-18T08:51:31.000Z</time>
      </trkpt>
      <trkpt lat="45.96341" lon="-1.00397">
        <ele>-3.2</ele>
        <time>2014-05-18T08:51:35.000Z</time>
      </trkpt>
      <trkpt lat="45.9635" lon="-1.0039">
        <ele>-3.3</ele>
        <time>2014-05-18T08:52:10.000Z</time>
      </trkpt>
      <trkpt lat="45.96368" lon="-1.00379">
        <ele>-3.4</ele>
        <time>2014-05-18T08:52:17.000Z</time>
      </trkpt>
      <trkpt lat="45.96377" lon="-1.00374">
        <ele>-3.4</ele>
        <time>2014-05-18T08:52:20.000Z</time>
      </trkpt>
      <trkpt lat="45.96386" lon="-1.00369">
        <ele>-3.4</ele>
        <time>2014-05-18T08:52:23.000Z</time>
      </trkpt>
      <trkpt lat="45.96395" lon="-1.00363">
        <ele>-3.5</ele>
        <time>2014-05-18T08:52:26.000Z</time>
      </trkpt>
      <trkpt lat="45.96404" lon="-1.00358">
        <ele>-3.6</ele>
        <time>2014-05-18T08:52:29.000Z</time>
      </trkpt>
      <trkpt lat="45.96415" lon="-1.00353">
        <ele>-3.6</ele>
        <time>2014-05-18T08:52:33.000Z</time>
      </trkpt>
      <trkpt lat="45.96425" lon="-1.00346">
        <ele>-3.5</ele>
        <time>2014-05-18T08:52:37.000Z</time>
      </trkpt>
      <trkpt lat="45.96436" lon="-1.0034">
        <ele>-3.3</ele>
        <time>2014-05-18T08:52:41.000Z</time>
      </trkpt>
      <trkpt lat="45.96444" lon="-1.00334">
        <ele>-3.6</ele>
        <time>2014-05-18T08:52:44.000Z</time>
      </trkpt>
      <trkpt lat="45.96453" lon="-1.00329">
        <ele>-3.4</ele>
        <time>2014-05-18T08:52:47.000Z</time>
      </trkpt>
      <trkpt lat="45.96463" lon="-1.00324">
        <ele>-3.2</ele>
        <time>2014-05-18T08:52:50.000Z</time>
      </trkpt>
      <trkpt lat="45.96473" lon="-1.00318">
        <ele>-3</ele>
        <time>2014-05-18T08:52:53.000Z</time>
      </trkpt>
      <trkpt lat="45.96483" lon="-1.00312">
        <ele>-2.8</ele>
        <time>2014-05-18T08:52:56.000Z</time>
      </trkpt>
      <trkpt lat="45.96493" lon="-1.00306">
        <ele>-3.2</ele>
        <time>2014-05-18T08:52:59.000Z</time>
      </trkpt>
      <trkpt lat="45.96504" lon="-1.00299">
        <ele>-2.6</ele>
        <time>2014-05-18T08:53:02.000Z</time>
      </trkpt>
      <trkpt lat="45.96515" lon="-1.00293">
        <ele>-2.9</ele>
        <time>2014-05-18T08:53:05.000Z</time>
      </trkpt>
      <trkpt lat="45.96526" lon="-1.00286">
        <ele>-2.8</ele>
        <time>2014-05-18T08:53:08.000Z</time>
      </trkpt>
      <trkpt lat="45.96538" lon="-1.00279">
        <ele>-2.8</ele>
        <time>2014-05-18T08:53:11.000Z</time>
      </trkpt>
      <trkpt lat="45.96559" lon="-1.00265">
        <ele>-3.1</ele>
        <time>2014-05-18T08:53:17.000Z</time>
      </trkpt>
      <trkpt lat="45.9657" lon="-1.00258">
        <ele>-3.2</ele>
        <time>2014-05-18T08:53:20.000Z</time>
      </trkpt>
      <trkpt lat="45.96581" lon="-1.00251">
        <ele>-3.4</ele>
        <time>2014-05-18T08:53:23.000Z</time>
      </trkpt>
      <trkpt lat="45.96593" lon="-1.00244">
        <ele>-3.3</ele>
        <time>2014-05-18T08:53:26.000Z</time>
      </trkpt>
      <trkpt lat="45.96604" lon="-1.00237">
        <ele>-3.2</ele>
        <time>2014-05-18T08:53:29.000Z</time>
      </trkpt>
      <trkpt lat="45.96616" lon="-1.0023">
        <ele>-3.1</ele>
        <time>2014-05-18T08:53:32.000Z</time>
      </trkpt>
      <trkpt lat="45.96628" lon="-1.00223">
        <ele>-3.2</ele>
        <time>2014-05-18T08:53:35.000Z</time>
      </trkpt>
      <trkpt lat="45.9664" lon="-1.00216">
        <ele>-3.2</ele>
        <time>2014-05-18T08:53:38.000Z</time>
      </trkpt>
      <trkpt lat="45.96652" lon="-1.00209">
        <ele>-3.4</ele>
        <time>2014-05-18T08:53:41.000Z</time>
      </trkpt>
      <trkpt lat="45.96664" lon="-1.00202">
        <ele>-3.3</ele>
        <time>2014-05-18T08:53:44.000Z</time>
      </trkpt>
      <trkpt lat="45.96676" lon="-1.00194">
        <ele>-3.5</ele>
        <time>2014-05-18T08:53:47.000Z</time>
      </trkpt>
      <trkpt lat="45.96688" lon="-1.00187">
        <ele>-3.2</ele>
        <time>2014-05-18T08:53:50.000Z</time>
      </trkpt>
      <trkpt lat="45.96701" lon="-1.0018">
        <ele>-3.3</ele>
        <time>2014-05-18T08:53:53.000Z</time>
      </trkpt>
      <trkpt lat="45.96709" lon="-1.00175">
        <ele>-3.2</ele>
        <time>2014-05-18T08:53:55.000Z</time>
      </trkpt>
      <trkpt lat="45.96718" lon="-1.0017">
        <ele>-3.1</ele>
        <time>2014-05-18T08:53:57.000Z</time>
      </trkpt>
      <trkpt lat="45.96726" lon="-1.00165">
        <ele>-3</ele>
        <time>2014-05-18T08:53:59.000Z</time>
      </trkpt>
      <trkpt lat="45.96735" lon="-1.0016">
        <ele>-3.2</ele>
        <time>2014-05-18T08:54:01.000Z</time>
      </trkpt>
      <trkpt lat="45.96744" lon="-1.00155">
        <ele>-3.2</ele>
        <time>2014-05-18T08:54:03.000Z</time>
      </trkpt>
      <trkpt lat="45.96753" lon="-1.0015">
        <ele>-3.2</ele>
        <time>2014-05-18T08:54:05.000Z</time>
      </trkpt>
      <trkpt lat="45.96761" lon="-1.00145">
        <ele>-2.9</ele>
        <time>2014-05-18T08:54:07.000Z</time>
      </trkpt>
      <trkpt lat="45.9677" lon="-1.0014">
        <ele>-3</ele>
        <time>2014-05-18T08:54:09.000Z</time>
      </trkpt>
      <trkpt lat="45.96778" lon="-1.00134">
        <ele>-2.9</ele>
        <time>2014-05-18T08:54:11.000Z</time>
      </trkpt>
      <trkpt lat="45.96787" lon="-1.0013">
        <ele>-3</ele>
        <time>2014-05-18T08:54:13.000Z</time>
      </trkpt>
      <trkpt lat="45.96804" lon="-1.0012">
        <ele>-3.3</ele>
        <time>2014-05-18T08:54:17.000Z</time>
      </trkpt>
      <trkpt lat="45.96813" lon="-1.00115">
        <ele>-3.2</ele>
        <time>2014-05-18T08:54:19.000Z</time>
      </trkpt>
      <trkpt lat="45.96822" lon="-1.0011">
        <ele>-3.3</ele>
        <time>2014-05-18T08:54:21.000Z</time>
      </trkpt>
      <trkpt lat="45.9683" lon="-1.00105">
        <ele>-3.1</ele>
        <time>2014-05-18T08:54:23.000Z</time>
      </trkpt>
      <trkpt lat="45.96839" lon="-1.00101">
        <ele>-3</ele>
        <time>2014-05-18T08:54:25.000Z</time>
      </trkpt>
      <trkpt lat="45.96847" lon="-1.00096">
        <ele>-2.9</ele>
        <time>2014-05-18T08:54:27.000Z</time>
      </trkpt>
      <trkpt lat="45.96856" lon="-1.00091">
        <ele>-3.2</ele>
        <time>2014-05-18T08:54:29.000Z</time>
      </trkpt>
      <trkpt lat="45.96869" lon="-1.00084">
        <ele>-3.1</ele>
        <time>2014-05-18T08:54:32.000Z</time>
      </trkpt>
      <trkpt lat="45.9688" lon="-1.00077">
        <ele>-3.3</ele>
        <time>2014-05-18T08:54:35.000Z</time>
      </trkpt>
      <trkpt lat="45.96891" lon="-1.00071">
        <ele>-3.2</ele>
        <time>2014-05-18T08:54:38.000Z</time>
      </trkpt>
      <trkpt lat="45.96902" lon="-1.00065">
        <ele>-2.9</ele>
        <time>2014-05-18T08:54:41.000Z</time>
      </trkpt>
      <trkpt lat="45.96912" lon="-1.00059">
        <ele>-2.8</ele>
        <time>2014-05-18T08:54:44.000Z</time>
      </trkpt>
      <trkpt lat="45.96921" lon="-1.00054">
        <ele>-2.5</ele>
        <time>2014-05-18T08:54:47.000Z</time>
      </trkpt>
      <trkpt lat="45.96932" lon="-1.00049">
        <ele>-2.2</ele>
        <time>2014-05-18T08:54:51.000Z</time>
      </trkpt>
      <trkpt lat="45.96942" lon="-1.00043">
        <ele>-2.5</ele>
        <time>2014-05-18T08:54:55.000Z</time>
      </trkpt>
      <trkpt lat="45.96951" lon="-1.00039">
        <ele>-2.7</ele>
        <time>2014-05-18T08:54:59.000Z</time>
      </trkpt>
      <trkpt lat="45.9696" lon="-1.00034">
        <ele>-2.6</ele>
        <time>2014-05-18T08:55:57.000Z</time>
      </trkpt>
      <trkpt lat="45.96932" lon="-1.00052">
        <ele>-3.8</ele>
        <time>2014-05-18T09:09:00.000Z</time>
      </trkpt>
      <trkpt lat="45.96922" lon="-1.00057">
        <ele>-3.6</ele>
        <time>2014-05-18T09:09:04.000Z</time>
      </trkpt>
      <trkpt lat="45.96913" lon="-1.00062">
        <ele>-3.6</ele>
        <time>2014-05-18T09:09:08.000Z</time>
      </trkpt>
      <trkpt lat="45.96903" lon="-1.00069">
        <ele>-3.6</ele>
        <time>2014-05-18T09:09:12.000Z</time>
      </trkpt>
      <trkpt lat="45.96892" lon="-1.00075">
        <ele>-3.7</ele>
        <time>2014-05-18T09:09:16.000Z</time>
      </trkpt>
      <trkpt lat="45.96882" lon="-1.00082">
        <ele>-3.5</ele>
        <time>2014-05-18T09:09:20.000Z</time>
      </trkpt>
      <trkpt lat="45.96872" lon="-1.00088">
        <ele>-3.7</ele>
        <time>2014-05-18T09:09:24.000Z</time>
      </trkpt>
      <trkpt lat="45.96862" lon="-1.00094">
        <ele>-3.5</ele>
        <time>2014-05-18T09:09:28.000Z</time>
      </trkpt>
      <trkpt lat="45.96852" lon="-1.001">
        <ele>-3.6</ele>
        <time>2014-05-18T09:09:32.000Z</time>
      </trkpt>
      <trkpt lat="45.96841" lon="-1.00107">
        <ele>-3.4</ele>
        <time>2014-05-18T09:09:36.000Z</time>
      </trkpt>
      <trkpt lat="45.9683" lon="-1.00113">
        <ele>-3.4</ele>
        <time>2014-05-18T09:09:40.000Z</time>
      </trkpt>
      <trkpt lat="45.96821" lon="-1.00118">
        <ele>-3.3</ele>
        <time>2014-05-18T09:09:43.000Z</time>
      </trkpt>
      <trkpt lat="45.96813" lon="-1.00124">
        <ele>-3.3</ele>
        <time>2014-05-18T09:09:46.000Z</time>
      </trkpt>
      <trkpt lat="45.96802" lon="-1.0013">
        <ele>-3.5</ele>
        <time>2014-05-18T09:09:50.000Z</time>
      </trkpt>
      <trkpt lat="45.96791" lon="-1.00135">
        <ele>-3.5</ele>
        <time>2014-05-18T09:09:54.000Z</time>
      </trkpt>
      <trkpt lat="45.96774" lon="-1.00145">
        <ele>-3.6</ele>
        <time>2014-05-18T09:10:00.000Z</time>
      </trkpt>
      <trkpt lat="45.96765" lon="-1.0015">
        <ele>-3.6</ele>
        <time>2014-05-18T09:10:03.000Z</time>
      </trkpt>
      <trkpt lat="45.96756" lon="-1.00155">
        <ele>-3.5</ele>
        <time>2014-05-18T09:10:06.000Z</time>
      </trkpt>
      <trkpt lat="45.96747" lon="-1.00161">
        <ele>-3.5</ele>
        <time>2014-05-18T09:10:09.000Z</time>
      </trkpt>
      <trkpt lat="45.96737" lon="-1.00166">
        <ele>-3.6</ele>
        <time>2014-05-18T09:10:12.000Z</time>
      </trkpt>
      <trkpt lat="45.96728" lon="-1.00171">
        <ele>-3.4</ele>
        <time>2014-05-18T09:10:15.000Z</time>
      </trkpt>
      <trkpt lat="45.96719" lon="-1.00176">
        <ele>-3.4</ele>
        <time>2014-05-18T09:10:18.000Z</time>
      </trkpt>
      <trkpt lat="45.9671" lon="-1.00182">
        <ele>-3.6</ele>
        <time>2014-05-18T09:10:21.000Z</time>
      </trkpt>
      <trkpt lat="45.96701" lon="-1.00187">
        <ele>-3.5</ele>
        <time>2014-05-18T09:10:24.000Z</time>
      </trkpt>
      <trkpt lat="45.96692" lon="-1.00192">
        <ele>-3.6</ele>
        <time>2014-05-18T09:10:27.000Z</time>
      </trkpt>
      <trkpt lat="45.96683" lon="-1.00197">
        <ele>-3.5</ele>
        <time>2014-05-18T09:10:30.000Z</time>
      </trkpt>
      <trkpt lat="45.96675" lon="-1.00201">
        <ele>-3.4</ele>
        <time>2014-05-18T09:10:33.000Z</time>
      </trkpt>
      <trkpt lat="45.96665" lon="-1.00207">
        <ele>-3.4</ele>
        <time>2014-05-18T09:10:37.000Z</time>
      </trkpt>
      <trkpt lat="45.96655" lon="-1.00214">
        <ele>-3.2</ele>
        <time>2014-05-18T09:10:41.000Z</time>
      </trkpt>
      <trkpt lat="45.96645" lon="-1.00221">
        <ele>-3.6</ele>
        <time>2014-05-18T09:10:45.000Z</time>
      </trkpt>
      <trkpt lat="45.96634" lon="-1.00227">
        <ele>-3.8</ele>
        <time>2014-05-18T09:10:49.000Z</time>
      </trkpt>
      <trkpt lat="45.96623" lon="-1.00233">
        <ele>-3.7</ele>
        <time>2014-05-18T09:10:53.000Z</time>
      </trkpt>
      <trkpt lat="45.96614" lon="-1.00238">
        <ele>-3.6</ele>
        <time>2014-05-18T09:10:56.000Z</time>
      </trkpt>
      <trkpt lat="45.96597" lon="-1.00248">
        <ele>-3.6</ele>
        <time>2014-05-18T09:11:02.000Z</time>
      </trkpt>
      <trkpt lat="45.96588" lon="-1.00254">
        <ele>-3.7</ele>
        <time>2014-05-18T09:11:05.000Z</time>
      </trkpt>
      <trkpt lat="45.96579" lon="-1.0026">
        <ele>-3.3</ele>
        <time>2014-05-18T09:11:08.000Z</time>
      </trkpt>
      <trkpt lat="45.9657" lon="-1.00265">
        <ele>-3.4</ele>
        <time>2014-05-18T09:11:11.000Z</time>
      </trkpt>
      <trkpt lat="45.96561" lon="-1.0027">
        <ele>-3.4</ele>
        <time>2014-05-18T09:11:14.000Z</time>
      </trkpt>
      <trkpt lat="45.96553" lon="-1.00276">
        <ele>-3.4</ele>
        <time>2014-05-18T09:11:17.000Z</time>
      </trkpt>
      <trkpt lat="45.96545" lon="-1.00281">
        <ele>-3.6</ele>
        <time>2014-05-18T09:11:20.000Z</time>
      </trkpt>
      <trkpt lat="45.96536" lon="-1.00285">
        <ele>-3.2</ele>
        <time>2014-05-18T09:11:23.000Z</time>
      </trkpt>
      <trkpt lat="45.96527" lon="-1.00291">
        <ele>-3.1</ele>
        <time>2014-05-18T09:11:26.000Z</time>
      </trkpt>
      <trkpt lat="45.96518" lon="-1.00296">
        <ele>-3.2</ele>
        <time>2014-05-18T09:11:29.000Z</time>
      </trkpt>
      <trkpt lat="45.96509" lon="-1.00302">
        <ele>-3</ele>
        <time>2014-05-18T09:11:32.000Z</time>
      </trkpt>
      <trkpt lat="45.965" lon="-1.00307">
        <ele>-3.2</ele>
        <time>2014-05-18T09:11:35.000Z</time>
      </trkpt>
      <trkpt lat="45.96492" lon="-1.00312">
        <ele>-3.4</ele>
        <time>2014-05-18T09:11:38.000Z</time>
      </trkpt>
      <trkpt lat="45.96483" lon="-1.00317">
        <ele>-3.3</ele>
        <time>2014-05-18T09:11:41.000Z</time>
      </trkpt>
      <trkpt lat="45.96474" lon="-1.00322">
        <ele>-3.2</ele>
        <time>2014-05-18T09:11:44.000Z</time>
      </trkpt>
      <trkpt lat="45.96466" lon="-1.00328">
        <ele>-3.2</ele>
        <time>2014-05-18T09:11:47.000Z</time>
      </trkpt>
      <trkpt lat="45.96457" lon="-1.00333">
        <ele>-3.3</ele>
        <time>2014-05-18T09:11:50.000Z</time>
      </trkpt>
      <trkpt lat="45.96448" lon="-1.00337">
        <ele>-3.3</ele>
        <time>2014-05-18T09:11:53.000Z</time>
      </trkpt>
      <trkpt lat="45.96439" lon="-1.00343">
        <ele>-3.3</ele>
        <time>2014-05-18T09:11:56.000Z</time>
      </trkpt>
      <trkpt lat="45.9643" lon="-1.00348">
        <ele>-3.3</ele>
        <time>2014-05-18T09:11:59.000Z</time>
      </trkpt>
      <trkpt lat="45.96413" lon="-1.00358">
        <ele>-3.3</ele>
        <time>2014-05-18T09:12:05.000Z</time>
      </trkpt>
      <trkpt lat="45.96404" lon="-1.00363">
        <ele>-3.2</ele>
        <time>2014-05-18T09:12:08.000Z</time>
      </trkpt>
      <trkpt lat="45.96395" lon="-1.00368">
        <ele>-3.2</ele>
        <time>2014-05-18T09:12:11.000Z</time>
      </trkpt>
      <trkpt lat="45.96386" lon="-1.00373">
        <ele>-3.3</ele>
        <time>2014-05-18T09:12:14.000Z</time>
      </trkpt>
      <trkpt lat="45.96378" lon="-1.00378">
        <ele>-3.1</ele>
        <time>2014-05-18T09:12:17.000Z</time>
      </trkpt>
      <trkpt lat="45.96369" lon="-1.00383">
        <ele>-3.1</ele>
        <time>2014-05-18T09:12:20.000Z</time>
      </trkpt>
      <trkpt lat="45.9636" lon="-1.00391">
        <ele>-3.2</ele>
        <time>2014-05-18T09:13:05.000Z</time>
      </trkpt>
      <trkpt lat="45.96342" lon="-1.00399">
        <ele>-3.1</ele>
        <time>2014-05-18T09:13:14.000Z</time>
      </trkpt>
      <trkpt lat="45.96333" lon="-1.00405">
        <ele>-3.1</ele>
        <time>2014-05-18T09:13:19.000Z</time>
      </trkpt>
      <trkpt lat="45.96324" lon="-1.00409">
        <ele>-3</ele>
        <time>2014-05-18T09:13:23.000Z</time>
      </trkpt>
      <trkpt lat="45.96314" lon="-1.00415">
        <ele>-3.4</ele>
        <time>2014-05-18T09:13:27.000Z</time>
      </trkpt>
      <trkpt lat="45.96303" lon="-1.00421">
        <ele>-3.1</ele>
        <time>2014-05-18T09:13:31.000Z</time>
      </trkpt>
      <trkpt lat="45.96295" lon="-1.00426">
        <ele>-3.2</ele>
        <time>2014-05-18T09:13:34.000Z</time>
      </trkpt>
      <trkpt lat="45.96286" lon="-1.00431">
        <ele>-3.3</ele>
        <time>2014-05-18T09:13:37.000Z</time>
      </trkpt>
      <trkpt lat="45.96277" lon="-1.00437">
        <ele>-3.3</ele>
        <time>2014-05-18T09:13:40.000Z</time>
      </trkpt>
      <trkpt lat="45.96268" lon="-1.00442">
        <ele>-3.3</ele>
        <time>2014-05-18T09:13:43.000Z</time>
      </trkpt>
      <trkpt lat="45.96259" lon="-1.00448">
        <ele>-3.1</ele>
        <time>2014-05-18T09:13:46.000Z</time>
      </trkpt>
      <trkpt lat="45.96249" lon="-1.00453">
        <ele>-3</ele>
        <time>2014-05-18T09:13:49.000Z</time>
      </trkpt>
      <trkpt lat="45.96239" lon="-1.00459">
        <ele>-3.3</ele>
        <time>2014-05-18T09:13:52.000Z</time>
      </trkpt>
      <trkpt lat="45.96228" lon="-1.00465">
        <ele>-3.4</ele>
        <time>2014-05-18T09:13:55.000Z</time>
      </trkpt>
      <trkpt lat="45.96218" lon="-1.0047">
        <ele>-3.3</ele>
        <time>2014-05-18T09:13:58.000Z</time>
      </trkpt>
      <trkpt lat="45.96209" lon="-1.00476">
        <ele>-3.4</ele>
        <time>2014-05-18T09:14:01.000Z</time>
      </trkpt>
      <trkpt lat="45.962" lon="-1.00481">
        <ele>-3.5</ele>
        <time>2014-05-18T09:14:04.000Z</time>
      </trkpt>
      <trkpt lat="45.96191" lon="-1.00487">
        <ele>-3.6</ele>
        <time>2014-05-18T09:14:07.000Z</time>
      </trkpt>
      <trkpt lat="45.96171" lon="-1.00499">
        <ele>-3.5</ele>
        <time>2014-05-18T09:14:13.000Z</time>
      </trkpt>
      <trkpt lat="45.96161" lon="-1.00504">
        <ele>-3.3</ele>
        <time>2014-05-18T09:14:16.000Z</time>
      </trkpt>
      <trkpt lat="45.96151" lon="-1.0051">
        <ele>-3.1</ele>
        <time>2014-05-18T09:14:19.000Z</time>
      </trkpt>
      <trkpt lat="45.96141" lon="-1.00516">
        <ele>-2.9</ele>
        <time>2014-05-18T09:14:22.000Z</time>
      </trkpt>
      <trkpt lat="45.9613" lon="-1.00522">
        <ele>-2.9</ele>
        <time>2014-05-18T09:14:25.000Z</time>
      </trkpt>
      <trkpt lat="45.9612" lon="-1.00528">
        <ele>-3</ele>
        <time>2014-05-18T09:14:28.000Z</time>
      </trkpt>
      <trkpt lat="45.9611" lon="-1.00534">
        <ele>-3.1</ele>
        <time>2014-05-18T09:14:31.000Z</time>
      </trkpt>
      <trkpt lat="45.96099" lon="-1.00539">
        <ele>-3.4</ele>
        <time>2014-05-18T09:14:34.000Z</time>
      </trkpt>
      <trkpt lat="45.9609" lon="-1.00545">
        <ele>-3.4</ele>
        <time>2014-05-18T09:14:37.000Z</time>
      </trkpt>
      <trkpt lat="45.96081" lon="-1.00551">
        <ele>-3.5</ele>
        <time>2014-05-18T09:14:40.000Z</time>
      </trkpt>
      <trkpt lat="45.96071" lon="-1.00557">
        <ele>-3.5</ele>
        <time>2014-05-18T09:14:43.000Z</time>
      </trkpt>
      <trkpt lat="45.96061" lon="-1.00563">
        <ele>-3.2</ele>
        <time>2014-05-18T09:14:46.000Z</time>
      </trkpt>
      <trkpt lat="45.96051" lon="-1.00569">
        <ele>-3.1</ele>
        <time>2014-05-18T09:14:49.000Z</time>
      </trkpt>
      <trkpt lat="45.96041" lon="-1.00574">
        <ele>-3.1</ele>
        <time>2014-05-18T09:14:52.000Z</time>
      </trkpt>
      <trkpt lat="45.96031" lon="-1.0058">
        <ele>-3.3</ele>
        <time>2014-05-18T09:14:55.000Z</time>
      </trkpt>
      <trkpt lat="45.96021" lon="-1.00586">
        <ele>-3.5</ele>
        <time>2014-05-18T09:14:58.000Z</time>
      </trkpt>
      <trkpt lat="45.96011" lon="-1.00592">
        <ele>-3.4</ele>
        <time>2014-05-18T09:15:01.000Z</time>
      </trkpt>
      <trkpt lat="45.96" lon="-1.00597">
        <ele>-3.5</ele>
        <time>2014-05-18T09:15:04.000Z</time>
      </trkpt>
      <trkpt lat="45.9599" lon="-1.00604">
        <ele>-3.5</ele>
        <time>2014-05-18T09:15:07.000Z</time>
      </trkpt>
      <trkpt lat="45.9598" lon="-1.0061">
        <ele>-3.5</ele>
        <time>2014-05-18T09:15:10.000Z</time>
      </trkpt>
      <trkpt lat="45.95959" lon="-1.00622">
        <ele>-3</ele>
        <time>2014-05-18T09:15:16.000Z</time>
      </trkpt>
      <trkpt lat="45.95949" lon="-1.00628">
        <ele>-3.1</ele>
        <time>2014-05-18T09:15:19.000Z</time>
      </trkpt>
      <trkpt lat="45.95938" lon="-1.00634">
        <ele>-3</ele>
        <time>2014-05-18T09:15:22.000Z</time>
      </trkpt>
      <trkpt lat="45.95928" lon="-1.0064">
        <ele>-3</ele>
        <time>2014-05-18T09:15:25.000Z</time>
      </trkpt>
      <trkpt lat="45.95918" lon="-1.00646">
        <ele>-3.5</ele>
        <time>2014-05-18T09:15:28.000Z</time>
      </trkpt>
      <trkpt lat="45.95907" lon="-1.00652">
        <ele>-3.4</ele>
        <time>2014-05-18T09:15:31.000Z</time>
      </trkpt>
      <trkpt lat="45.95897" lon="-1.00658">
        <ele>-3.7</ele>
        <time>2014-05-18T09:15:34.000Z</time>
      </trkpt>
      <trkpt lat="45.95888" lon="-1.00664">
        <ele>-3.5</ele>
        <time>2014-05-18T09:15:37.000Z</time>
      </trkpt>
      <trkpt lat="45.95878" lon="-1.00669">
        <ele>-3.4</ele>
        <time>2014-05-18T09:15:40.000Z</time>
      </trkpt>
      <trkpt lat="45.95868" lon="-1.00675">
        <ele>-3.3</ele>
        <time>2014-05-18T09:15:43.000Z</time>
      </trkpt>
      <trkpt lat="45.95858" lon="-1.0068">
        <ele>-3.2</ele>
        <time>2014-05-18T09:15:46.000Z</time>
      </trkpt>
      <trkpt lat="45.95847" lon="-1.00686">
        <ele>-3.2</ele>
        <time>2014-05-18T09:15:49.000Z</time>
      </trkpt>
      <trkpt lat="45.95836" lon="-1.00691">
        <ele>-3.4</ele>
        <time>2014-05-18T09:15:52.000Z</time>
      </trkpt>
      <trkpt lat="45.95826" lon="-1.00697">
        <ele>-3.1</ele>
        <time>2014-05-18T09:15:55.000Z</time>
      </trkpt>
      <trkpt lat="45.95815" lon="-1.00703">
        <ele>-3.2</ele>
        <time>2014-05-18T09:15:58.000Z</time>
      </trkpt>
      <trkpt lat="45.95804" lon="-1.00709">
        <ele>-3.2</ele>
        <time>2014-05-18T09:16:01.000Z</time>
      </trkpt>
      <trkpt lat="45.95793" lon="-1.00715">
        <ele>-3</ele>
        <time>2014-05-18T09:16:04.000Z</time>
      </trkpt>
      <trkpt lat="45.95781" lon="-1.0072">
        <ele>-3.3</ele>
        <time>2014-05-18T09:16:07.000Z</time>
      </trkpt>
      <trkpt lat="45.95769" lon="-1.00721">
        <ele>-3.1</ele>
        <time>2014-05-18T09:16:10.000Z</time>
      </trkpt>
      <trkpt lat="45.95757" lon="-1.00719">
        <ele>-3.3</ele>
        <time>2014-05-18T09:16:13.000Z</time>
      </trkpt>
      <trkpt lat="45.95735" lon="-1.00714">
        <ele>-3.4</ele>
        <time>2014-05-18T09:16:19.000Z</time>
      </trkpt>
      <trkpt lat="45.95723" lon="-1.00711">
        <ele>-3.3</ele>
        <time>2014-05-18T09:16:22.000Z</time>
      </trkpt>
      <trkpt lat="45.95712" lon="-1.00708">
        <ele>-3.3</ele>
        <time>2014-05-18T09:16:25.000Z</time>
      </trkpt>
      <trkpt lat="45.95701" lon="-1.00705">
        <ele>-3.4</ele>
        <time>2014-05-18T09:16:28.000Z</time>
      </trkpt>
      <trkpt lat="45.9569" lon="-1.00704">
        <ele>-3.3</ele>
        <time>2014-05-18T09:16:31.000Z</time>
      </trkpt>
      <trkpt lat="45.9568" lon="-1.007">
        <ele>-3.5</ele>
        <time>2014-05-18T09:16:34.000Z</time>
      </trkpt>
      <trkpt lat="45.95669" lon="-1.00696">
        <ele>-3.3</ele>
        <time>2014-05-18T09:16:37.000Z</time>
      </trkpt>
      <trkpt lat="45.95658" lon="-1.00692">
        <ele>-3.3</ele>
        <time>2014-05-18T09:16:40.000Z</time>
      </trkpt>
      <trkpt lat="45.95647" lon="-1.00687">
        <ele>-3.1</ele>
        <time>2014-05-18T09:16:43.000Z</time>
      </trkpt>
      <trkpt lat="45.95635" lon="-1.00683">
        <ele>-2.8</ele>
        <time>2014-05-18T09:16:46.000Z</time>
      </trkpt>
      <trkpt lat="45.95624" lon="-1.0068">
        <ele>-3</ele>
        <time>2014-05-18T09:16:49.000Z</time>
      </trkpt>
      <trkpt lat="45.95613" lon="-1.00677">
        <ele>-2.9</ele>
        <time>2014-05-18T09:16:52.000Z</time>
      </trkpt>
      <trkpt lat="45.95601" lon="-1.00673">
        <ele>-2.9</ele>
        <time>2014-05-18T09:16:55.000Z</time>
      </trkpt>
      <trkpt lat="45.95589" lon="-1.00669">
        <ele>-3</ele>
        <time>2014-05-18T09:16:58.000Z</time>
      </trkpt>
      <trkpt lat="45.95578" lon="-1.00663">
        <ele>-3</ele>
        <time>2014-05-18T09:17:01.000Z</time>
      </trkpt>
      <trkpt lat="45.95567" lon="-1.00659">
        <ele>-3</ele>
        <time>2014-05-18T09:17:04.000Z</time>
      </trkpt>
      <trkpt lat="45.95556" lon="-1.00655">
        <ele>-3.3</ele>
        <time>2014-05-18T09:17:07.000Z</time>
      </trkpt>
      <trkpt lat="45.95545" lon="-1.00655">
        <ele>-3.2</ele>
        <time>2014-05-18T09:17:10.000Z</time>
      </trkpt>
      <trkpt lat="45.95535" lon="-1.00663">
        <ele>-3.1</ele>
        <time>2014-05-18T09:17:13.000Z</time>
      </trkpt>
      <trkpt lat="45.9553" lon="-1.00677">
        <ele>-3.2</ele>
        <time>2014-05-18T09:17:16.000Z</time>
      </trkpt>
      <trkpt lat="45.95522" lon="-1.00708">
        <ele>-3.1</ele>
        <time>2014-05-18T09:17:22.000Z</time>
      </trkpt>
      <trkpt lat="45.95518" lon="-1.00723">
        <ele>-3.2</ele>
        <time>2014-05-18T09:17:25.000Z</time>
      </trkpt>
      <trkpt lat="45.95514" lon="-1.00739">
        <ele>-3.3</ele>
        <time>2014-05-18T09:17:28.000Z</time>
      </trkpt>
      <trkpt lat="45.9551" lon="-1.00754">
        <ele>-3.4</ele>
        <time>2014-05-18T09:17:31.000Z</time>
      </trkpt>
      <trkpt lat="45.95506" lon="-1.00769">
        <ele>-3.3</ele>
        <time>2014-05-18T09:17:34.000Z</time>
      </trkpt>
      <trkpt lat="45.95501" lon="-1.00785">
        <ele>-3.6</ele>
        <time>2014-05-18T09:17:37.000Z</time>
      </trkpt>
      <trkpt lat="45.95497" lon="-1.008">
        <ele>-3.8</ele>
        <time>2014-05-18T09:17:40.000Z</time>
      </trkpt>
      <trkpt lat="45.95493" lon="-1.00814">
        <ele>-3.2</ele>
        <time>2014-05-18T09:17:43.000Z</time>
      </trkpt>
      <trkpt lat="45.95489" lon="-1.00829">
        <ele>-3.2</ele>
        <time>2014-05-18T09:17:46.000Z</time>
      </trkpt>
      <trkpt lat="45.95484" lon="-1.00845">
        <ele>-3</ele>
        <time>2014-05-18T09:17:49.000Z</time>
      </trkpt>
      <trkpt lat="45.9548" lon="-1.0086">
        <ele>-3.3</ele>
        <time>2014-05-18T09:17:52.000Z</time>
      </trkpt>
      <trkpt lat="45.95475" lon="-1.00876">
        <ele>-3.1</ele>
        <time>2014-05-18T09:17:55.000Z</time>
      </trkpt>
      <trkpt lat="45.95471" lon="-1.00892">
        <ele>-2.8</ele>
        <time>2014-05-18T09:17:58.000Z</time>
      </trkpt>
      <trkpt lat="45.95467" lon="-1.00907">
        <ele>-2.9</ele>
        <time>2014-05-18T09:18:01.000Z</time>
      </trkpt>
      <trkpt lat="45.95462" lon="-1.00923">
        <ele>-3.1</ele>
        <time>2014-05-18T09:18:04.000Z</time>
      </trkpt>
      <trkpt lat="45.95458" lon="-1.00938">
        <ele>-3.2</ele>
        <time>2014-05-18T09:18:07.000Z</time>
      </trkpt>
      <trkpt lat="45.95454" lon="-1.00952">
        <ele>-3.3</ele>
        <time>2014-05-18T09:18:10.000Z</time>
      </trkpt>
      <trkpt lat="45.9545" lon="-1.00966">
        <ele>-3.1</ele>
        <time>2014-05-18T09:18:13.000Z</time>
      </trkpt>
      <trkpt lat="45.95445" lon="-1.00981">
        <ele>-3.1</ele>
        <time>2014-05-18T09:18:16.000Z</time>
      </trkpt>
      <trkpt lat="45.95441" lon="-1.00996">
        <ele>-3.4</ele>
        <time>2014-05-18T09:18:19.000Z</time>
      </trkpt>
      <trkpt lat="45.95433" lon="-1.01025">
        <ele>-3.4</ele>
        <time>2014-05-18T09:18:25.000Z</time>
      </trkpt>
      <trkpt lat="45.95428" lon="-1.0104">
        <ele>-3.3</ele>
        <time>2014-05-18T09:18:28.000Z</time>
      </trkpt>
      <trkpt lat="45.95424" lon="-1.01054">
        <ele>-3.3</ele>
        <time>2014-05-18T09:18:31.000Z</time>
      </trkpt>
      <trkpt lat="45.9542" lon="-1.01068">
        <ele>-3.4</ele>
        <time>2014-05-18T09:18:34.000Z</time>
      </trkpt>
      <trkpt lat="45.95417" lon="-1.01082">
        <ele>-3.3</ele>
        <time>2014-05-18T09:18:37.000Z</time>
      </trkpt>
      <trkpt lat="45.95416" lon="-1.01096">
        <ele>-2.9</ele>
        <time>2014-05-18T09:18:40.000Z</time>
      </trkpt>
      <trkpt lat="45.9542" lon="-1.0111">
        <ele>-3.1</ele>
        <time>2014-05-18T09:18:43.000Z</time>
      </trkpt>
      <trkpt lat="45.95428" lon="-1.01122">
        <ele>-2.7</ele>
        <time>2014-05-18T09:18:46.000Z</time>
      </trkpt>
      <trkpt lat="45.95434" lon="-1.01135">
        <ele>-2.8</ele>
        <time>2014-05-18T09:18:49.000Z</time>
      </trkpt>
      <trkpt lat="45.95441" lon="-1.01149">
        <ele>-3</ele>
        <time>2014-05-18T09:18:52.000Z</time>
      </trkpt>
      <trkpt lat="45.95446" lon="-1.01161">
        <ele>-3.3</ele>
        <time>2014-05-18T09:18:55.000Z</time>
      </trkpt>
      <trkpt lat="45.95451" lon="-1.01173">
        <ele>-2.9</ele>
        <time>2014-05-18T09:18:58.000Z</time>
      </trkpt>
      <trkpt lat="45.95456" lon="-1.01187">
        <ele>-2.7</ele>
        <time>2014-05-18T09:19:01.000Z</time>
      </trkpt>
      <trkpt lat="45.95461" lon="-1.01201">
        <ele>-2.7</ele>
        <time>2014-05-18T09:19:04.000Z</time>
      </trkpt>
      <trkpt lat="45.95465" lon="-1.01215">
        <ele>-3.1</ele>
        <time>2014-05-18T09:19:07.000Z</time>
      </trkpt>
      <trkpt lat="45.9547" lon="-1.01229">
        <ele>-3.1</ele>
        <time>2014-05-18T09:19:10.000Z</time>
      </trkpt>
      <trkpt lat="45.95474" lon="-1.01242">
        <ele>-2.9</ele>
        <time>2014-05-18T09:19:13.000Z</time>
      </trkpt>
      <trkpt lat="45.95477" lon="-1.01257">
        <ele>-2.5</ele>
        <time>2014-05-18T09:19:16.000Z</time>
      </trkpt>
      <trkpt lat="45.95481" lon="-1.01271">
        <ele>-2.6</ele>
        <time>2014-05-18T09:19:19.000Z</time>
      </trkpt>
      <trkpt lat="45.95485" lon="-1.01285">
        <ele>-2.6</ele>
        <time>2014-05-18T09:19:22.000Z</time>
      </trkpt>
      <trkpt lat="45.95493" lon="-1.01315">
        <ele>-2.6</ele>
        <time>2014-05-18T09:19:28.000Z</time>
      </trkpt>
      <trkpt lat="45.95496" lon="-1.0133">
        <ele>-3.1</ele>
        <time>2014-05-18T09:19:31.000Z</time>
      </trkpt>
      <trkpt lat="45.955" lon="-1.01345">
        <ele>-3</ele>
        <time>2014-05-18T09:19:34.000Z</time>
      </trkpt>
      <trkpt lat="45.95504" lon="-1.0136">
        <ele>-3</ele>
        <time>2014-05-18T09:19:37.000Z</time>
      </trkpt>
      <trkpt lat="45.95508" lon="-1.01375">
        <ele>-3.1</ele>
        <time>2014-05-18T09:19:40.000Z</time>
      </trkpt>
      <trkpt lat="45.95512" lon="-1.0139">
        <ele>-2.8</ele>
        <time>2014-05-18T09:19:43.000Z</time>
      </trkpt>
      <trkpt lat="45.95515" lon="-1.01403">
        <ele>-2.6</ele>
        <time>2014-05-18T09:19:46.000Z</time>
      </trkpt>
      <trkpt lat="45.95518" lon="-1.01416">
        <ele>-2.7</ele>
        <time>2014-05-18T09:19:49.000Z</time>
      </trkpt>
      <trkpt lat="45.95522" lon="-1.0143">
        <ele>-2.6</ele>
        <time>2014-05-18T09:19:52.000Z</time>
      </trkpt>
      <trkpt lat="45.95524" lon="-1.01444">
        <ele>-2.5</ele>
        <time>2014-05-18T09:19:55.000Z</time>
      </trkpt>
      <trkpt lat="45.95526" lon="-1.01457">
        <ele>-2.7</ele>
        <time>2014-05-18T09:19:58.000Z</time>
      </trkpt>
      <trkpt lat="45.95529" lon="-1.01472">
        <ele>-2.5</ele>
        <time>2014-05-18T09:20:03.000Z</time>
      </trkpt>
      <trkpt lat="45.95529" lon="-1.01472">
        <ele>-2.5</ele>
        <time>2014-05-18T09:20:03.000Z</time>
      </trkpt>
      <trkpt lat="45.9553" lon="-1.01488">
        <ele>-2.5</ele>
        <time>2014-05-18T09:20:08.000Z</time>
      </trkpt>
      <trkpt lat="45.95531" lon="-1.01503">
        <ele>-2.4</ele>
        <time>2014-05-18T09:20:12.000Z</time>
      </trkpt>
      <trkpt lat="45.95532" lon="-1.01519">
        <ele>-2.6</ele>
        <time>2014-05-18T09:20:16.000Z</time>
      </trkpt>
      <trkpt lat="45.95533" lon="-1.01536">
        <ele>-2.2</ele>
        <time>2014-05-18T09:20:20.000Z</time>
      </trkpt>
      <trkpt lat="45.95533" lon="-1.01552">
        <ele>-2.3</ele>
        <time>2014-05-18T09:20:24.000Z</time>
      </trkpt>
      <trkpt lat="45.95534" lon="-1.01585">
        <ele>-2.3</ele>
        <time>2014-05-18T09:20:32.000Z</time>
      </trkpt>
      <trkpt lat="45.95534" lon="-1.01598">
        <ele>-2.2</ele>
        <time>2014-05-18T09:20:35.000Z</time>
      </trkpt>
      <trkpt lat="45.95535" lon="-1.01612">
        <ele>-2.4</ele>
        <time>2014-05-18T09:20:38.000Z</time>
      </trkpt>
      <trkpt lat="45.95535" lon="-1.01627">
        <ele>-2.4</ele>
        <time>2014-05-18T09:20:41.000Z</time>
      </trkpt>
      <trkpt lat="45.95536" lon="-1.01643">
        <ele>-2.2</ele>
        <time>2014-05-18T09:20:44.000Z</time>
      </trkpt>
      <trkpt lat="45.95536" lon="-1.0166">
        <ele>-2.1</ele>
        <time>2014-05-18T09:20:47.000Z</time>
      </trkpt>
      <trkpt lat="45.95539" lon="-1.01675">
        <ele>-1.8</ele>
        <time>2014-05-18T09:20:50.000Z</time>
      </trkpt>
      <trkpt lat="45.95549" lon="-1.01683">
        <ele>-2.1</ele>
        <time>2014-05-18T09:20:53.000Z</time>
      </trkpt>
      <trkpt lat="45.9556" lon="-1.01686">
        <ele>-2.5</ele>
        <time>2014-05-18T09:20:56.000Z</time>
      </trkpt>
      <trkpt lat="45.9557" lon="-1.0169">
        <ele>-2.6</ele>
        <time>2014-05-18T09:20:59.000Z</time>
      </trkpt>
      <trkpt lat="45.95579" lon="-1.01696">
        <ele>-2.6</ele>
        <time>2014-05-18T09:21:02.000Z</time>
      </trkpt>
      <trkpt lat="45.95587" lon="-1.01703">
        <ele>-2.6</ele>
        <time>2014-05-18T09:21:05.000Z</time>
      </trkpt>
      <trkpt lat="45.95594" lon="-1.01712">
        <ele>-2.7</ele>
        <time>2014-05-18T09:21:08.000Z</time>
      </trkpt>
      <trkpt lat="45.95602" lon="-1.0172">
        <ele>-2.5</ele>
        <time>2014-05-18T09:21:11.000Z</time>
      </trkpt>
      <trkpt lat="45.9561" lon="-1.01729">
        <ele>-2.3</ele>
        <time>2014-05-18T09:21:14.000Z</time>
      </trkpt>
      <trkpt lat="45.95617" lon="-1.01739">
        <ele>-2.4</ele>
        <time>2014-05-18T09:21:17.000Z</time>
      </trkpt>
      <trkpt lat="45.95623" lon="-1.0175">
        <ele>-2.7</ele>
        <time>2014-05-18T09:21:20.000Z</time>
      </trkpt>
      <trkpt lat="45.95629" lon="-1.01762">
        <ele>-2.7</ele>
        <time>2014-05-18T09:21:23.000Z</time>
      </trkpt>
      <trkpt lat="45.95635" lon="-1.01773">
        <ele>-2.6</ele>
        <time>2014-05-18T09:21:26.000Z</time>
      </trkpt>
      <trkpt lat="45.95646" lon="-1.01795">
        <ele>-2.5</ele>
        <time>2014-05-18T09:21:32.000Z</time>
      </trkpt>
      <trkpt lat="45.95653" lon="-1.01806">
        <ele>-2.7</ele>
        <time>2014-05-18T09:21:35.000Z</time>
      </trkpt>
      <trkpt lat="45.95659" lon="-1.01817">
        <ele>-2.5</ele>
        <time>2014-05-18T09:21:38.000Z</time>
      </trkpt>
      <trkpt lat="45.95666" lon="-1.01829">
        <ele>-2.7</ele>
        <time>2014-05-18T09:21:41.000Z</time>
      </trkpt>
      <trkpt lat="45.95673" lon="-1.01842">
        <ele>-2.6</ele>
        <time>2014-05-18T09:21:44.000Z</time>
      </trkpt>
      <trkpt lat="45.95678" lon="-1.01855">
        <ele>-2.5</ele>
        <time>2014-05-18T09:21:47.000Z</time>
      </trkpt>
      <trkpt lat="45.95684" lon="-1.01867">
        <ele>-2.2</ele>
        <time>2014-05-18T09:21:50.000Z</time>
      </trkpt>
      <trkpt lat="45.95689" lon="-1.01881">
        <ele>-2.4</ele>
        <time>2014-05-18T09:21:54.000Z</time>
      </trkpt>
      <trkpt lat="45.95693" lon="-1.01896">
        <ele>-2.4</ele>
        <time>2014-05-18T09:21:58.000Z</time>
      </trkpt>
      <trkpt lat="45.95695" lon="-1.01911">
        <ele>-2.3</ele>
        <time>2014-05-18T09:22:02.000Z</time>
      </trkpt>
      <trkpt lat="45.95697" lon="-1.01924">
        <ele>-2.9</ele>
        <time>2014-05-18T09:22:05.000Z</time>
      </trkpt>
      <trkpt lat="45.95698" lon="-1.01938">
        <ele>-2.6</ele>
        <time>2014-05-18T09:22:08.000Z</time>
      </trkpt>
      <trkpt lat="45.95699" lon="-1.01951">
        <ele>-2.5</ele>
        <time>2014-05-18T09:22:11.000Z</time>
      </trkpt>
      <trkpt lat="45.957" lon="-1.01967">
        <ele>-2.4</ele>
        <time>2014-05-18T09:22:15.000Z</time>
      </trkpt>
      <trkpt lat="45.95701" lon="-1.01984">
        <ele>-2.2</ele>
        <time>2014-05-18T09:22:19.000Z</time>
      </trkpt>
      <trkpt lat="45.95703" lon="-1.01999">
        <ele>-2.4</ele>
        <time>2014-05-18T09:22:23.000Z</time>
      </trkpt>
      <trkpt lat="45.95702" lon="-1.02014">
        <ele>-2.5</ele>
        <time>2014-05-18T09:22:27.000Z</time>
      </trkpt>
      <trkpt lat="45.95702" lon="-1.02044">
        <ele>-2.4</ele>
        <time>2014-05-18T09:22:35.000Z</time>
      </trkpt>
      <trkpt lat="45.95701" lon="-1.0206">
        <ele>-2.4</ele>
        <time>2014-05-18T09:22:39.000Z</time>
      </trkpt>
      <trkpt lat="45.957" lon="-1.02076">
        <ele>-2.5</ele>
        <time>2014-05-18T09:22:43.000Z</time>
      </trkpt>
      <trkpt lat="45.95699" lon="-1.02091">
        <ele>-2.4</ele>
        <time>2014-05-18T09:22:47.000Z</time>
      </trkpt>
      <trkpt lat="45.95698" lon="-1.02106">
        <ele>-2.3</ele>
        <time>2014-05-18T09:22:51.000Z</time>
      </trkpt>
      <trkpt lat="45.95698" lon="-1.0212">
        <ele>-2.7</ele>
        <time>2014-05-18T09:22:54.000Z</time>
      </trkpt>
      <trkpt lat="45.95698" lon="-1.02134">
        <ele>-3.1</ele>
        <time>2014-05-18T09:22:57.000Z</time>
      </trkpt>
      <trkpt lat="45.95698" lon="-1.02147">
        <ele>-2.8</ele>
        <time>2014-05-18T09:23:00.000Z</time>
      </trkpt>
      <trkpt lat="45.95697" lon="-1.0216">
        <ele>-2.6</ele>
        <time>2014-05-18T09:23:03.000Z</time>
      </trkpt>
      <trkpt lat="45.95697" lon="-1.02173">
        <ele>-2.5</ele>
        <time>2014-05-18T09:23:06.000Z</time>
      </trkpt>
      <trkpt lat="45.95696" lon="-1.02187">
        <ele>-2.6</ele>
        <time>2014-05-18T09:23:09.000Z</time>
      </trkpt>
      <trkpt lat="45.95694" lon="-1.02202">
        <ele>-2.5</ele>
        <time>2014-05-18T09:23:13.000Z</time>
      </trkpt>
      <trkpt lat="45.95694" lon="-1.02216">
        <ele>-2.2</ele>
        <time>2014-05-18T09:23:17.000Z</time>
      </trkpt>
      <trkpt lat="45.95693" lon="-1.0223">
        <ele>-2.9</ele>
        <time>2014-05-18T09:23:21.000Z</time>
      </trkpt>
      <trkpt lat="45.95691" lon="-1.02246">
        <ele>-2.8</ele>
        <time>2014-05-18T09:23:26.000Z</time>
      </trkpt>
      <trkpt lat="45.95688" lon="-1.02261">
        <ele>-3</ele>
        <time>2014-05-18T09:23:30.000Z</time>
      </trkpt>
      <trkpt lat="45.95681" lon="-1.0229">
        <ele>-2.8</ele>
        <time>2014-05-18T09:23:36.000Z</time>
      </trkpt>
      <trkpt lat="45.95681" lon="-1.02306">
        <ele>-2.5</ele>
        <time>2014-05-18T09:23:39.000Z</time>
      </trkpt>
      <trkpt lat="45.95682" lon="-1.02321">
        <ele>-2.5</ele>
        <time>2014-05-18T09:23:42.000Z</time>
      </trkpt>
      <trkpt lat="45.95686" lon="-1.02334">
        <ele>-2.6</ele>
        <time>2014-05-18T09:23:45.000Z</time>
      </trkpt>
      <trkpt lat="45.9569" lon="-1.02348">
        <ele>-2.6</ele>
        <time>2014-05-18T09:23:48.000Z</time>
      </trkpt>
      <trkpt lat="45.95693" lon="-1.0236">
        <ele>-2.5</ele>
        <time>2014-05-18T09:23:51.000Z</time>
      </trkpt>
      <trkpt lat="45.95698" lon="-1.02373">
        <ele>-2.3</ele>
        <time>2014-05-18T09:23:55.000Z</time>
      </trkpt>
      <trkpt lat="45.95702" lon="-1.02387">
        <ele>-2.3</ele>
        <time>2014-05-18T09:23:59.000Z</time>
      </trkpt>
      <trkpt lat="45.95706" lon="-1.02402">
        <ele>-2.3</ele>
        <time>2014-05-18T09:24:03.000Z</time>
      </trkpt>
      <trkpt lat="45.95709" lon="-1.02417">
        <ele>-2.5</ele>
        <time>2014-05-18T09:24:07.000Z</time>
      </trkpt>
      <trkpt lat="45.95713" lon="-1.02431">
        <ele>-2.4</ele>
        <time>2014-05-18T09:24:12.000Z</time>
      </trkpt>
      <trkpt lat="45.95716" lon="-1.02445">
        <ele>-2.4</ele>
        <time>2014-05-18T09:24:18.000Z</time>
      </trkpt>
      <trkpt lat="45.95719" lon="-1.0246">
        <ele>-2.4</ele>
        <time>2014-05-18T09:24:23.000Z</time>
      </trkpt>
      <trkpt lat="45.95722" lon="-1.02474">
        <ele>-2.3</ele>
        <time>2014-05-18T09:24:27.000Z</time>
      </trkpt>
      <trkpt lat="45.95725" lon="-1.02487">
        <ele>-2.1</ele>
        <time>2014-05-18T09:24:31.000Z</time>
      </trkpt>
      <trkpt lat="45.95734" lon="-1.02517">
        <ele>-1.9</ele>
        <time>2014-05-18T09:24:39.000Z</time>
      </trkpt>
      <trkpt lat="45.95738" lon="-1.02532">
        <ele>-1.8</ele>
        <time>2014-05-18T09:24:43.000Z</time>
      </trkpt>
      <trkpt lat="45.95742" lon="-1.02549">
        <ele>-2.2</ele>
        <time>2014-05-18T09:24:47.000Z</time>
      </trkpt>
      <trkpt lat="45.95745" lon="-1.02561">
        <ele>-2.4</ele>
        <time>2014-05-18T09:24:50.000Z</time>
      </trkpt>
      <trkpt lat="45.9575" lon="-1.02576">
        <ele>-2.2</ele>
        <time>2014-05-18T09:24:54.000Z</time>
      </trkpt>
      <trkpt lat="45.95754" lon="-1.02592">
        <ele>-2</ele>
        <time>2014-05-18T09:24:58.000Z</time>
      </trkpt>
      <trkpt lat="45.9576" lon="-1.02606">
        <ele>-2.2</ele>
        <time>2014-05-18T09:25:02.000Z</time>
      </trkpt>
      <trkpt lat="45.95767" lon="-1.0262">
        <ele>-2.2</ele>
        <time>2014-05-18T09:25:06.000Z</time>
      </trkpt>
      <trkpt lat="45.95773" lon="-1.02632">
        <ele>-1.9</ele>
        <time>2014-05-18T09:25:10.000Z</time>
      </trkpt>
      <trkpt lat="45.95781" lon="-1.02643">
        <ele>-2.2</ele>
        <time>2014-05-18T09:25:14.000Z</time>
      </trkpt>
      <trkpt lat="45.9579" lon="-1.02651">
        <ele>-2</ele>
        <time>2014-05-18T09:25:18.000Z</time>
      </trkpt>
      <trkpt lat="45.95798" lon="-1.02662">
        <ele>-1.6</ele>
        <time>2014-05-18T09:25:22.000Z</time>
      </trkpt>
      <trkpt lat="45.95806" lon="-1.02672">
        <ele>-1.4</ele>
        <time>2014-05-18T09:25:26.000Z</time>
      </trkpt>
      <trkpt lat="45.95814" lon="-1.02684">
        <ele>-1.5</ele>
        <time>2014-05-18T09:25:30.000Z</time>
      </trkpt>
      <trkpt lat="45.95822" lon="-1.02697">
        <ele>-1.7</ele>
        <time>2014-05-18T09:25:34.000Z</time>
      </trkpt>
      <trkpt lat="45.95838" lon="-1.0272">
        <ele>-2</ele>
        <time>2014-05-18T09:25:42.000Z</time>
      </trkpt>
      <trkpt lat="45.95845" lon="-1.02729">
        <ele>-1.7</ele>
        <time>2014-05-18T09:25:46.000Z</time>
      </trkpt>
      <trkpt lat="45.9585" lon="-1.02742">
        <ele>-1.7</ele>
        <time>2014-05-18T09:25:50.000Z</time>
      </trkpt>
      <trkpt lat="45.9585" lon="-1.02758">
        <ele>-1.8</ele>
        <time>2014-05-18T09:25:54.000Z</time>
      </trkpt>
      <trkpt lat="45.9585" lon="-1.02773">
        <ele>-1.7</ele>
        <time>2014-05-18T09:25:58.000Z</time>
      </trkpt>
      <trkpt lat="45.95848" lon="-1.02788">
        <ele>-1.8</ele>
        <time>2014-05-18T09:26:02.000Z</time>
      </trkpt>
      <trkpt lat="45.95846" lon="-1.02804">
        <ele>-1.9</ele>
        <time>2014-05-18T09:26:06.000Z</time>
      </trkpt>
      <trkpt lat="45.95844" lon="-1.0282">
        <ele>-1.9</ele>
        <time>2014-05-18T09:26:10.000Z</time>
      </trkpt>
      <trkpt lat="45.95843" lon="-1.02833">
        <ele>-2</ele>
        <time>2014-05-18T09:26:13.000Z</time>
      </trkpt>
      <trkpt lat="45.95841" lon="-1.02849">
        <ele>-1.8</ele>
        <time>2014-05-18T09:26:17.000Z</time>
      </trkpt>
      <trkpt lat="45.95839" lon="-1.02864">
        <ele>-1.9</ele>
        <time>2014-05-18T09:26:21.000Z</time>
      </trkpt>
      <trkpt lat="45.95836" lon="-1.02879">
        <ele>-2</ele>
        <time>2014-05-18T09:26:25.000Z</time>
      </trkpt>
      <trkpt lat="45.95833" lon="-1.02895">
        <ele>-2</ele>
        <time>2014-05-18T09:26:29.000Z</time>
      </trkpt>
      <trkpt lat="45.9583" lon="-1.02911">
        <ele>-1.7</ele>
        <time>2014-05-18T09:26:33.000Z</time>
      </trkpt>
      <trkpt lat="45.95826" lon="-1.02927">
        <ele>-1.7</ele>
        <time>2014-05-18T09:26:37.000Z</time>
      </trkpt>
      <trkpt lat="45.95818" lon="-1.02958">
        <ele>-1.9</ele>
        <time>2014-05-18T09:26:45.000Z</time>
      </trkpt>
      <trkpt lat="45.95812" lon="-1.02973">
        <ele>-1.7</ele>
        <time>2014-05-18T09:26:49.000Z</time>
      </trkpt>
      <trkpt lat="45.95807" lon="-1.02983">
        <ele>-1.8</ele>
        <time>2014-05-18T09:26:52.000Z</time>
      </trkpt>
      <trkpt lat="45.95799" lon="-1.02996">
        <ele>-1.5</ele>
        <time>2014-05-18T09:26:56.000Z</time>
      </trkpt>
      <trkpt lat="45.9579" lon="-1.03006">
        <ele>-1.4</ele>
        <time>2014-05-18T09:27:00.000Z</time>
      </trkpt>
      <trkpt lat="45.95781" lon="-1.03012">
        <ele>-1.2</ele>
        <time>2014-05-18T09:27:03.000Z</time>
      </trkpt>
      <trkpt lat="45.95772" lon="-1.03015">
        <ele>-1.4</ele>
        <time>2014-05-18T09:27:06.000Z</time>
      </trkpt>
      <trkpt lat="45.95761" lon="-1.03021">
        <ele>-1</ele>
        <time>2014-05-18T09:27:10.000Z</time>
      </trkpt>
      <trkpt lat="45.95753" lon="-1.03028">
        <ele>-1</ele>
        <time>2014-05-18T09:27:14.000Z</time>
      </trkpt>
      <trkpt lat="45.95743" lon="-1.03035">
        <ele>-0.6</ele>
        <time>2014-05-18T09:27:19.000Z</time>
      </trkpt>
      <trkpt lat="45.95738" lon="-1.03046">
        <ele>-0.4</ele>
        <time>2014-05-18T09:27:22.000Z</time>
      </trkpt>
      <trkpt lat="45.95732" lon="-1.03059">
        <ele>-0.4</ele>
        <time>2014-05-18T09:27:26.000Z</time>
      </trkpt>
      <trkpt lat="45.95725" lon="-1.0307">
        <ele>-0.3</ele>
        <time>2014-05-18T09:27:29.000Z</time>
      </trkpt>
      <trkpt lat="45.95717" lon="-1.0308">
        <ele>0.1</ele>
        <time>2014-05-18T09:27:32.000Z</time>
      </trkpt>
      <trkpt lat="45.95708" lon="-1.03088">
        <ele>5</ele>
        <time>2014-05-18T09:27:35.000Z</time>
      </trkpt>
      <trkpt lat="45.95701" lon="-1.03098">
        <ele>0.2</ele>
        <time>2014-05-18T09:27:39.000Z</time>
      </trkpt>
      <trkpt lat="45.95684" lon="-1.03121">
        <ele>-0.2</ele>
        <time>2014-05-18T09:27:47.000Z</time>
      </trkpt>
      <trkpt lat="45.95676" lon="-1.0313">
        <ele>-0.2</ele>
        <time>2014-05-18T09:27:52.000Z</time>
      </trkpt>
      <trkpt lat="45.95669" lon="-1.0314">
        <ele>-0.2</ele>
        <time>2014-05-18T09:27:56.000Z</time>
      </trkpt>
      <trkpt lat="45.95661" lon="-1.03149">
        <ele>-0.1</ele>
        <time>2014-05-18T09:28:01.000Z</time>
      </trkpt>
      <trkpt lat="45.95666" lon="-1.03137">
        <ele>-0.3</ele>
        <time>2014-05-18T09:31:44.000Z</time>
      </trkpt>
      <trkpt lat="45.9568" lon="-1.03119">
        <ele>-0.3</ele>
        <time>2014-05-18T09:31:55.000Z</time>
      </trkpt>
      <trkpt lat="45.95687" lon="-1.03108">
        <ele>5</ele>
        <time>2014-05-18T09:32:00.000Z</time>
      </trkpt>
      <trkpt lat="45.95694" lon="-1.03098">
        <ele>0.1</ele>
        <time>2014-05-18T09:32:04.000Z</time>
      </trkpt>
      <trkpt lat="45.95702" lon="-1.03088">
        <ele>0.1</ele>
        <time>2014-05-18T09:32:09.000Z</time>
      </trkpt>
      <trkpt lat="45.95709" lon="-1.03077">
        <ele>5</ele>
        <time>2014-05-18T09:32:15.000Z</time>
      </trkpt>
      <trkpt lat="45.95716" lon="-1.03065">
        <ele>0.5</ele>
        <time>2014-05-18T09:32:20.000Z</time>
      </trkpt>
      <trkpt lat="45.95724" lon="-1.03054">
        <ele>0.5</ele>
        <time>2014-05-18T09:32:25.000Z</time>
      </trkpt>
      <trkpt lat="45.9573" lon="-1.03043">
        <ele>0.5</ele>
        <time>2014-05-18T09:32:29.000Z</time>
      </trkpt>
      <trkpt lat="45.95737" lon="-1.03032">
        <ele>-0.2</ele>
        <time>2014-05-18T09:32:34.000Z</time>
      </trkpt>
      <trkpt lat="45.95745" lon="-1.03024">
        <ele>-0.4</ele>
        <time>2014-05-18T09:32:37.000Z</time>
      </trkpt>
      <trkpt lat="45.95756" lon="-1.03016">
        <ele>-0.5</ele>
        <time>2014-05-18T09:32:40.000Z</time>
      </trkpt>
      <trkpt lat="45.95765" lon="-1.03012">
        <ele>-0.6</ele>
        <time>2014-05-18T09:32:42.000Z</time>
      </trkpt>
      <trkpt lat="45.95775" lon="-1.03006">
        <ele>-0.8</ele>
        <time>2014-05-18T09:32:45.000Z</time>
      </trkpt>
      <trkpt lat="45.95793" lon="-1.03">
        <ele>-0.9</ele>
        <time>2014-05-18T09:32:55.000Z</time>
      </trkpt>
      <trkpt lat="45.958" lon="-1.0301">
        <ele>-0.9</ele>
        <time>2014-05-18T09:33:01.000Z</time>
      </trkpt>
      <trkpt lat="45.95803" lon="-1.03024">
        <ele>-1.3</ele>
        <time>2014-05-18T09:33:06.000Z</time>
      </trkpt>
      <trkpt lat="45.95806" lon="-1.03039">
        <ele>-0.7</ele>
        <time>2014-05-18T09:33:12.000Z</time>
      </trkpt>
      <trkpt lat="45.95808" lon="-1.03051">
        <ele>-0.6</ele>
        <time>2014-05-18T09:33:18.000Z</time>
      </trkpt>
      <trkpt lat="45.9581" lon="-1.03066">
        <ele>-1.2</ele>
        <time>2014-05-18T09:33:23.000Z</time>
      </trkpt>
      <trkpt lat="45.95814" lon="-1.03079">
        <ele>-1.2</ele>
        <time>2014-05-18T09:33:29.000Z</time>
      </trkpt>
      <trkpt lat="45.95811" lon="-1.03093">
        <ele>-1.3</ele>
        <time>2014-05-18T09:33:37.000Z</time>
      </trkpt>
      <trkpt lat="45.95808" lon="-1.03106">
        <ele>-1.5</ele>
        <time>2014-05-18T09:33:42.000Z</time>
      </trkpt>
      <trkpt lat="45.95805" lon="-1.03121">
        <ele>-1.6</ele>
        <time>2014-05-18T09:33:47.000Z</time>
      </trkpt>
      <trkpt lat="45.958" lon="-1.03148">
        <ele>-1.5</ele>
        <time>2014-05-18T09:33:59.000Z</time>
      </trkpt>
      <trkpt lat="45.95803" lon="-1.03161">
        <ele>-1.7</ele>
        <time>2014-05-18T09:37:00.000Z</time>
      </trkpt>
      <trkpt lat="45.95799" lon="-1.03156">
        <ele>-1.9</ele>
        <time>2014-05-18T09:53:20.000Z</time>
      </trkpt>
      <trkpt lat="45.958" lon="-1.03129">
        <ele>-1.8</ele>
        <time>2014-05-18T09:53:34.000Z</time>
      </trkpt>
      <trkpt lat="45.95803" lon="-1.03116">
        <ele>-1.6</ele>
        <time>2014-05-18T09:53:40.000Z</time>
      </trkpt>
      <trkpt lat="45.95807" lon="-1.03104">
        <ele>-1.8</ele>
        <time>2014-05-18T09:53:45.000Z</time>
      </trkpt>
      <trkpt lat="45.9581" lon="-1.0309">
        <ele>-1.7</ele>
        <time>2014-05-18T09:53:50.000Z</time>
      </trkpt>
      <trkpt lat="45.95813" lon="-1.03075">
        <ele>-1.7</ele>
        <time>2014-05-18T09:53:57.000Z</time>
      </trkpt>
      <trkpt lat="45.95809" lon="-1.03062">
        <ele>-1.8</ele>
        <time>2014-05-18T09:54:04.000Z</time>
      </trkpt>
      <trkpt lat="45.95806" lon="-1.03049">
        <ele>-1.1</ele>
        <time>2014-05-18T09:54:11.000Z</time>
      </trkpt>
      <trkpt lat="45.95803" lon="-1.03035">
        <ele>-0.9</ele>
        <time>2014-05-18T09:54:18.000Z</time>
      </trkpt>
      <trkpt lat="45.95801" lon="-1.03019">
        <ele>-1.3</ele>
        <time>2014-05-18T09:54:22.000Z</time>
      </trkpt>
      <trkpt lat="45.95786" lon="-1.03008">
        <ele>-1.1</ele>
        <time>2014-05-18T09:54:32.000Z</time>
      </trkpt>
      <trkpt lat="45.95776" lon="-1.03013">
        <ele>-1</ele>
        <time>2014-05-18T09:54:36.000Z</time>
      </trkpt>
      <trkpt lat="45.95767" lon="-1.03016">
        <ele>-0.8</ele>
        <time>2014-05-18T09:54:40.000Z</time>
      </trkpt>
      <trkpt lat="45.95756" lon="-1.03023">
        <ele>-0.9</ele>
        <time>2014-05-18T09:54:45.000Z</time>
      </trkpt>
      <trkpt lat="45.95749" lon="-1.03031">
        <ele>-0.1</ele>
        <time>2014-05-18T09:54:50.000Z</time>
      </trkpt>
      <trkpt lat="45.95741" lon="-1.03042">
        <ele>4.7</ele>
        <time>2014-05-18T09:54:56.000Z</time>
      </trkpt>
      <trkpt lat="45.95735" lon="-1.03052">
        <ele>0.2</ele>
        <time>2014-05-18T09:55:00.000Z</time>
      </trkpt>
      <trkpt lat="45.95728" lon="-1.03063">
        <ele>0.1</ele>
        <time>2014-05-18T09:55:04.000Z</time>
      </trkpt>
      <trkpt lat="45.95722" lon="-1.03073">
        <ele>0.3</ele>
        <time>2014-05-18T09:55:09.000Z</time>
      </trkpt>
      <trkpt lat="45.95715" lon="-1.03083">
        <ele>0.6</ele>
        <time>2014-05-18T09:55:13.000Z</time>
      </trkpt>
      <trkpt lat="45.95706" lon="-1.03094">
        <ele>0.4</ele>
        <time>2014-05-18T09:55:17.000Z</time>
      </trkpt>
      <trkpt lat="45.95697" lon="-1.03105">
        <ele>0.2</ele>
        <time>2014-05-18T09:55:21.000Z</time>
      </trkpt>
      <trkpt lat="45.95689" lon="-1.03118">
        <ele>0.3</ele>
        <time>2014-05-18T09:55:25.000Z</time>
      </trkpt>
      <trkpt lat="45.95674" lon="-1.03136">
        <ele>0.1</ele>
        <time>2014-05-18T09:55:33.000Z</time>
      </trkpt>
      <trkpt lat="45.95667" lon="-1.03145">
        <ele>-0.1</ele>
        <time>2014-05-18T09:55:37.000Z</time>
      </trkpt>
      <trkpt lat="45.9566" lon="-1.03156">
        <ele>0.2</ele>
        <time>2014-05-18T09:55:42.000Z</time>
      </trkpt>
      <trkpt lat="45.95652" lon="-1.03166">
        <ele>-0.1</ele>
        <time>2014-05-18T09:55:48.000Z</time>
      </trkpt>
      <trkpt lat="45.95647" lon="-1.03177">
        <ele>0.3</ele>
        <time>2014-05-18T09:55:52.000Z</time>
      </trkpt>
      <trkpt lat="45.95644" lon="-1.0319">
        <ele>0.6</ele>
        <time>2014-05-18T09:55:56.000Z</time>
      </trkpt>
      <trkpt lat="45.95643" lon="-1.03207">
        <ele>0.6</ele>
        <time>2014-05-18T09:56:00.000Z</time>
      </trkpt>
      <trkpt lat="45.95644" lon="-1.03221">
        <ele>0.4</ele>
        <time>2014-05-18T09:56:03.000Z</time>
      </trkpt>
      <trkpt lat="45.95645" lon="-1.03235">
        <ele>0.3</ele>
        <time>2014-05-18T09:56:06.000Z</time>
      </trkpt>
      <trkpt lat="45.95647" lon="-1.0325">
        <ele>0.4</ele>
        <time>2014-05-18T09:56:09.000Z</time>
      </trkpt>
      <trkpt lat="45.95649" lon="-1.03265">
        <ele>0.4</ele>
        <time>2014-05-18T09:56:12.000Z</time>
      </trkpt>
      <trkpt lat="45.9565" lon="-1.03281">
        <ele>0.2</ele>
        <time>2014-05-18T09:56:15.000Z</time>
      </trkpt>
      <trkpt lat="45.95647" lon="-1.03295">
        <ele>4.7</ele>
        <time>2014-05-18T09:56:18.000Z</time>
      </trkpt>
      <trkpt lat="45.95643" lon="-1.03307">
        <ele>4.8</ele>
        <time>2014-05-18T09:56:21.000Z</time>
      </trkpt>
      <trkpt lat="45.95638" lon="-1.03319">
        <ele>-0.3</ele>
        <time>2014-05-18T09:56:24.000Z</time>
      </trkpt>
      <trkpt lat="45.95632" lon="-1.03332">
        <ele>-0.3</ele>
        <time>2014-05-18T09:56:27.000Z</time>
      </trkpt>
      <trkpt lat="45.95616" lon="-1.03352">
        <ele>-0.1</ele>
        <time>2014-05-18T09:56:33.000Z</time>
      </trkpt>
      <trkpt lat="45.95608" lon="-1.03359">
        <ele>-0.1</ele>
        <time>2014-05-18T09:56:36.000Z</time>
      </trkpt>
      <trkpt lat="45.95599" lon="-1.03365">
        <ele>-0.4</ele>
        <time>2014-05-18T09:56:39.000Z</time>
      </trkpt>
      <trkpt lat="45.9559" lon="-1.0337">
        <ele>-0.1</ele>
        <time>2014-05-18T09:56:42.000Z</time>
      </trkpt>
      <trkpt lat="45.95579" lon="-1.03376">
        <ele>0.2</ele>
        <time>2014-05-18T09:56:46.000Z</time>
      </trkpt>
      <trkpt lat="45.95569" lon="-1.03382">
        <ele>-0.1</ele>
        <time>2014-05-18T09:56:50.000Z</time>
      </trkpt>
      <trkpt lat="45.95558" lon="-1.0339">
        <ele>0.1</ele>
        <time>2014-05-18T09:56:54.000Z</time>
      </trkpt>
      <trkpt lat="45.95549" lon="-1.03396">
        <ele>-0.1</ele>
        <time>2014-05-18T09:56:57.000Z</time>
      </trkpt>
      <trkpt lat="45.95539" lon="-1.03404">
        <ele>-0.3</ele>
        <time>2014-05-18T09:57:00.000Z</time>
      </trkpt>
      <trkpt lat="45.95529" lon="-1.03411">
        <ele>-0.6</ele>
        <time>2014-05-18T09:57:03.000Z</time>
      </trkpt>
      <trkpt lat="45.95519" lon="-1.03418">
        <ele>-0.9</ele>
        <time>2014-05-18T09:57:06.000Z</time>
      </trkpt>
      <trkpt lat="45.9551" lon="-1.03424">
        <ele>-0.7</ele>
        <time>2014-05-18T09:57:09.000Z</time>
      </trkpt>
      <trkpt lat="45.95501" lon="-1.03429">
        <ele>-0.9</ele>
        <time>2014-05-18T09:57:12.000Z</time>
      </trkpt>
      <trkpt lat="45.95492" lon="-1.03436">
        <ele>-1.2</ele>
        <time>2014-05-18T09:57:15.000Z</time>
      </trkpt>
      <trkpt lat="45.95485" lon="-1.03448">
        <ele>-1.5</ele>
        <time>2014-05-18T09:57:18.000Z</time>
      </trkpt>
      <trkpt lat="45.9548" lon="-1.03461">
        <ele>-1.6</ele>
        <time>2014-05-18T09:57:21.000Z</time>
      </trkpt>
      <trkpt lat="45.95475" lon="-1.03474">
        <ele>-2</ele>
        <time>2014-05-18T09:57:24.000Z</time>
      </trkpt>
      <trkpt lat="45.95471" lon="-1.03485">
        <ele>-1.8</ele>
        <time>2014-05-18T09:57:27.000Z</time>
      </trkpt>
      <trkpt lat="45.95465" lon="-1.03501">
        <ele>-1.6</ele>
        <time>2014-05-18T09:57:31.000Z</time>
      </trkpt>
      <trkpt lat="45.95456" lon="-1.03527">
        <ele>-1.6</ele>
        <time>2014-05-18T09:57:38.000Z</time>
      </trkpt>
      <trkpt lat="45.95449" lon="-1.03541">
        <ele>-1.8</ele>
        <time>2014-05-18T09:57:42.000Z</time>
      </trkpt>
      <trkpt lat="45.95442" lon="-1.03553">
        <ele>-1.6</ele>
        <time>2014-05-18T09:57:46.000Z</time>
      </trkpt>
      <trkpt lat="45.95434" lon="-1.03565">
        <ele>-1.2</ele>
        <time>2014-05-18T09:57:50.000Z</time>
      </trkpt>
      <trkpt lat="45.95426" lon="-1.03577">
        <ele>-1.1</ele>
        <time>2014-05-18T09:57:54.000Z</time>
      </trkpt>
      <trkpt lat="45.95418" lon="-1.03588">
        <ele>-1.4</ele>
        <time>2014-05-18T09:57:58.000Z</time>
      </trkpt>
      <trkpt lat="45.95408" lon="-1.03597">
        <ele>-1.5</ele>
        <time>2014-05-18T09:58:02.000Z</time>
      </trkpt>
      <trkpt lat="45.95397" lon="-1.036">
        <ele>-1.4</ele>
        <time>2014-05-18T09:58:06.000Z</time>
      </trkpt>
      <trkpt lat="45.95386" lon="-1.03599">
        <ele>-1.2</ele>
        <time>2014-05-18T09:58:10.000Z</time>
      </trkpt>
      <trkpt lat="45.95376" lon="-1.03597">
        <ele>-1.2</ele>
        <time>2014-05-18T09:58:14.000Z</time>
      </trkpt>
      <trkpt lat="45.95365" lon="-1.03599">
        <ele>-1.3</ele>
        <time>2014-05-18T09:58:18.000Z</time>
      </trkpt>
      <trkpt lat="45.95361" lon="-1.03612">
        <ele>-1</ele>
        <time>2014-05-18T09:58:22.000Z</time>
      </trkpt>
      <trkpt lat="45.9536" lon="-1.03626">
        <ele>-0.9</ele>
        <time>2014-05-18T09:58:26.000Z</time>
      </trkpt>
      <trkpt lat="45.95359" lon="-1.03641">
        <ele>-1</ele>
        <time>2014-05-18T09:58:30.000Z</time>
      </trkpt>
      <trkpt lat="45.95358" lon="-1.03657">
        <ele>-1</ele>
        <time>2014-05-18T09:58:34.000Z</time>
      </trkpt>
      <trkpt lat="45.95353" lon="-1.03683">
        <ele>-0.9</ele>
        <time>2014-05-18T09:58:40.000Z</time>
      </trkpt>
      <trkpt lat="45.95347" lon="-1.03698">
        <ele>-1.1</ele>
        <time>2014-05-18T09:58:44.000Z</time>
      </trkpt>
      <trkpt lat="45.9534" lon="-1.03712">
        <ele>-1.1</ele>
        <time>2014-05-18T09:58:48.000Z</time>
      </trkpt>
      <trkpt lat="45.95332" lon="-1.03725">
        <ele>-1.2</ele>
        <time>2014-05-18T09:58:52.000Z</time>
      </trkpt>
      <trkpt lat="45.95326" lon="-1.03735">
        <ele>-1.1</ele>
        <time>2014-05-18T09:58:55.000Z</time>
      </trkpt>
      <trkpt lat="45.9532" lon="-1.03746">
        <ele>-1.3</ele>
        <time>2014-05-18T09:58:58.000Z</time>
      </trkpt>
      <trkpt lat="45.95313" lon="-1.03757">
        <ele>-1.2</ele>
        <time>2014-05-18T09:59:01.000Z</time>
      </trkpt>
      <trkpt lat="45.95308" lon="-1.03768">
        <ele>-1.2</ele>
        <time>2014-05-18T09:59:04.000Z</time>
      </trkpt>
      <trkpt lat="45.95303" lon="-1.03779">
        <ele>-1.6</ele>
        <time>2014-05-18T09:59:07.000Z</time>
      </trkpt>
      <trkpt lat="45.95298" lon="-1.0379">
        <ele>-1.5</ele>
        <time>2014-05-18T09:59:10.000Z</time>
      </trkpt>
      <trkpt lat="45.95293" lon="-1.03802">
        <ele>-1.5</ele>
        <time>2014-05-18T09:59:13.000Z</time>
      </trkpt>
      <trkpt lat="45.9529" lon="-1.03815">
        <ele>-1.4</ele>
        <time>2014-05-18T09:59:16.000Z</time>
      </trkpt>
      <trkpt lat="45.95288" lon="-1.03828">
        <ele>-1.3</ele>
        <time>2014-05-18T09:59:19.000Z</time>
      </trkpt>
      <trkpt lat="45.95286" lon="-1.03841">
        <ele>-1.5</ele>
        <time>2014-05-18T09:59:22.000Z</time>
      </trkpt>
      <trkpt lat="45.95285" lon="-1.03855">
        <ele>-1.4</ele>
        <time>2014-05-18T09:59:25.000Z</time>
      </trkpt>
      <trkpt lat="45.95284" lon="-1.03868">
        <ele>-1.3</ele>
        <time>2014-05-18T09:59:28.000Z</time>
      </trkpt>
      <trkpt lat="45.95282" lon="-1.03884">
        <ele>-1.2</ele>
        <time>2014-05-18T09:59:32.000Z</time>
      </trkpt>
      <trkpt lat="45.9528" lon="-1.03901">
        <ele>-1.1</ele>
        <time>2014-05-18T09:59:36.000Z</time>
      </trkpt>
      <trkpt lat="45.95275" lon="-1.03932">
        <ele>-0.9</ele>
        <time>2014-05-18T09:59:43.000Z</time>
      </trkpt>
      <trkpt lat="45.95271" lon="-1.03945">
        <ele>-1.1</ele>
        <time>2014-05-18T09:59:46.000Z</time>
      </trkpt>
      <trkpt lat="45.95266" lon="-1.03958">
        <ele>-1.1</ele>
        <time>2014-05-18T09:59:49.000Z</time>
      </trkpt>
      <trkpt lat="45.95262" lon="-1.03971">
        <ele>-0.9</ele>
        <time>2014-05-18T09:59:52.000Z</time>
      </trkpt>
      <trkpt lat="45.95259" lon="-1.03985">
        <ele>-1.2</ele>
        <time>2014-05-18T09:59:55.000Z</time>
      </trkpt>
      <trkpt lat="45.95257" lon="-1.03999">
        <ele>-1.3</ele>
        <time>2014-05-18T09:59:58.000Z</time>
      </trkpt>
      <trkpt lat="45.95256" lon="-1.04013">
        <ele>-1.4</ele>
        <time>2014-05-18T10:00:01.000Z</time>
      </trkpt>
      <trkpt lat="45.95255" lon="-1.04028">
        <ele>-1.2</ele>
        <time>2014-05-18T10:00:04.000Z</time>
      </trkpt>
      <trkpt lat="45.95254" lon="-1.04043">
        <ele>-0.9</ele>
        <time>2014-05-18T10:00:07.000Z</time>
      </trkpt>
      <trkpt lat="45.95251" lon="-1.04058">
        <ele>-0.7</ele>
        <time>2014-05-18T10:00:10.000Z</time>
      </trkpt>
      <trkpt lat="45.95246" lon="-1.0407">
        <ele>-0.6</ele>
        <time>2014-05-18T10:00:13.000Z</time>
      </trkpt>
      <trkpt lat="45.95238" lon="-1.04079">
        <ele>-1</ele>
        <time>2014-05-18T10:00:16.000Z</time>
      </trkpt>
      <trkpt lat="45.95228" lon="-1.04084">
        <ele>-1.3</ele>
        <time>2014-05-18T10:00:19.000Z</time>
      </trkpt>
      <trkpt lat="45.95218" lon="-1.04088">
        <ele>-1.2</ele>
        <time>2014-05-18T10:00:22.000Z</time>
      </trkpt>
      <trkpt lat="45.95208" lon="-1.04091">
        <ele>-1</ele>
        <time>2014-05-18T10:00:25.000Z</time>
      </trkpt>
      <trkpt lat="45.95198" lon="-1.04095">
        <ele>-1.1</ele>
        <time>2014-05-18T10:00:28.000Z</time>
      </trkpt>
      <trkpt lat="45.95188" lon="-1.04097">
        <ele>-1.2</ele>
        <time>2014-05-18T10:00:31.000Z</time>
      </trkpt>
      <trkpt lat="45.95178" lon="-1.041">
        <ele>-1.2</ele>
        <time>2014-05-18T10:00:34.000Z</time>
      </trkpt>
      <trkpt lat="45.95168" lon="-1.04105">
        <ele>-1.3</ele>
        <time>2014-05-18T10:00:37.000Z</time>
      </trkpt>
      <trkpt lat="45.95148" lon="-1.04112">
        <ele>-1.2</ele>
        <time>2014-05-18T10:00:43.000Z</time>
      </trkpt>
      <trkpt lat="45.95137" lon="-1.04116">
        <ele>-1.2</ele>
        <time>2014-05-18T10:00:46.000Z</time>
      </trkpt>
      <trkpt lat="45.95126" lon="-1.04119">
        <ele>-1.4</ele>
        <time>2014-05-18T10:00:49.000Z</time>
      </trkpt>
      <trkpt lat="45.95116" lon="-1.04123">
        <ele>-1.4</ele>
        <time>2014-05-18T10:00:52.000Z</time>
      </trkpt>
      <trkpt lat="45.95106" lon="-1.04126">
        <ele>-1.3</ele>
        <time>2014-05-18T10:00:55.000Z</time>
      </trkpt>
      <trkpt lat="45.95096" lon="-1.0413">
        <ele>-1.2</ele>
        <time>2014-05-18T10:00:58.000Z</time>
      </trkpt>
      <trkpt lat="45.95086" lon="-1.04134">
        <ele>-1.3</ele>
        <time>2014-05-18T10:01:01.000Z</time>
      </trkpt>
      <trkpt lat="45.95076" lon="-1.04137">
        <ele>-1.1</ele>
        <time>2014-05-18T10:01:04.000Z</time>
      </trkpt>
      <trkpt lat="45.95066" lon="-1.0414">
        <ele>-1.2</ele>
        <time>2014-05-18T10:01:07.000Z</time>
      </trkpt>
      <trkpt lat="45.95056" lon="-1.04144">
        <ele>-1.2</ele>
        <time>2014-05-18T10:01:10.000Z</time>
      </trkpt>
      <trkpt lat="45.95046" lon="-1.04147">
        <ele>-1.2</ele>
        <time>2014-05-18T10:01:13.000Z</time>
      </trkpt>
      <trkpt lat="45.95035" lon="-1.04151">
        <ele>-1.2</ele>
        <time>2014-05-18T10:01:16.000Z</time>
      </trkpt>
      <trkpt lat="45.95023" lon="-1.04155">
        <ele>-1.2</ele>
        <time>2014-05-18T10:01:19.000Z</time>
      </trkpt>
      <trkpt lat="45.95012" lon="-1.04158">
        <ele>-1.2</ele>
        <time>2014-05-18T10:01:22.000Z</time>
      </trkpt>
      <trkpt lat="45.95002" lon="-1.04162">
        <ele>-1.1</ele>
        <time>2014-05-18T10:01:25.000Z</time>
      </trkpt>
      <trkpt lat="45.94991" lon="-1.04166">
        <ele>-0.9</ele>
        <time>2014-05-18T10:01:28.000Z</time>
      </trkpt>
      <trkpt lat="45.94981" lon="-1.04174">
        <ele>-1.2</ele>
        <time>2014-05-18T10:01:31.000Z</time>
      </trkpt>
      <trkpt lat="45.94975" lon="-1.04186">
        <ele>-1.2</ele>
        <time>2014-05-18T10:01:34.000Z</time>
      </trkpt>
      <trkpt lat="45.94972" lon="-1.042">
        <ele>-1.1</ele>
        <time>2014-05-18T10:01:37.000Z</time>
      </trkpt>
      <trkpt lat="45.94969" lon="-1.04213">
        <ele>-0.9</ele>
        <time>2014-05-18T10:01:40.000Z</time>
      </trkpt>
      <trkpt lat="45.94954" lon="-1.04236">
        <ele>-1</ele>
        <time>2014-05-18T10:01:46.000Z</time>
      </trkpt>
      <trkpt lat="45.94943" lon="-1.04243">
        <ele>-1.1</ele>
        <time>2014-05-18T10:01:49.000Z</time>
      </trkpt>
      <trkpt lat="45.94933" lon="-1.04249">
        <ele>-1.1</ele>
        <time>2014-05-18T10:01:52.000Z</time>
      </trkpt>
      <trkpt lat="45.94923" lon="-1.04255">
        <ele>-1.2</ele>
        <time>2014-05-18T10:01:55.000Z</time>
      </trkpt>
      <trkpt lat="45.94913" lon="-1.0426">
        <ele>-1.2</ele>
        <time>2014-05-18T10:01:58.000Z</time>
      </trkpt>
      <trkpt lat="45.94903" lon="-1.04266">
        <ele>-1.1</ele>
        <time>2014-05-18T10:02:01.000Z</time>
      </trkpt>
      <trkpt lat="45.94893" lon="-1.04272">
        <ele>-0.9</ele>
        <time>2014-05-18T10:02:04.000Z</time>
      </trkpt>
      <trkpt lat="45.94883" lon="-1.04278">
        <ele>-0.9</ele>
        <time>2014-05-18T10:02:07.000Z</time>
      </trkpt>
      <trkpt lat="45.94873" lon="-1.04284">
        <ele>-0.9</ele>
        <time>2014-05-18T10:02:10.000Z</time>
      </trkpt>
      <trkpt lat="45.94863" lon="-1.0429">
        <ele>-0.8</ele>
        <time>2014-05-18T10:02:13.000Z</time>
      </trkpt>
      <trkpt lat="45.94854" lon="-1.04297">
        <ele>-0.7</ele>
        <time>2014-05-18T10:02:16.000Z</time>
      </trkpt>
      <trkpt lat="45.94845" lon="-1.04302">
        <ele>-1</ele>
        <time>2014-05-18T10:02:19.000Z</time>
      </trkpt>
      <trkpt lat="45.94835" lon="-1.04307">
        <ele>-1.3</ele>
        <time>2014-05-18T10:02:22.000Z</time>
      </trkpt>
      <trkpt lat="45.94826" lon="-1.04313">
        <ele>-1.2</ele>
        <time>2014-05-18T10:02:25.000Z</time>
      </trkpt>
      <trkpt lat="45.94816" lon="-1.04319">
        <ele>-1.1</ele>
        <time>2014-05-18T10:02:28.000Z</time>
      </trkpt>
      <trkpt lat="45.94807" lon="-1.04324">
        <ele>-0.9</ele>
        <time>2014-05-18T10:02:31.000Z</time>
      </trkpt>
      <trkpt lat="45.94797" lon="-1.0433">
        <ele>-0.8</ele>
        <time>2014-05-18T10:02:34.000Z</time>
      </trkpt>
      <trkpt lat="45.94786" lon="-1.04335">
        <ele>-1</ele>
        <time>2014-05-18T10:02:37.000Z</time>
      </trkpt>
      <trkpt lat="45.94777" lon="-1.04341">
        <ele>-1.2</ele>
        <time>2014-05-18T10:02:40.000Z</time>
      </trkpt>
      <trkpt lat="45.94767" lon="-1.04347">
        <ele>-1.1</ele>
        <time>2014-05-18T10:02:43.000Z</time>
      </trkpt>
      <trkpt lat="45.9475" lon="-1.04358">
        <ele>-1.2</ele>
        <time>2014-05-18T10:02:49.000Z</time>
      </trkpt>
      <trkpt lat="45.9474" lon="-1.04363">
        <ele>-1.1</ele>
        <time>2014-05-18T10:02:52.000Z</time>
      </trkpt>
      <trkpt lat="45.94731" lon="-1.04369">
        <ele>-0.9</ele>
        <time>2014-05-18T10:02:55.000Z</time>
      </trkpt>
      <trkpt lat="45.94722" lon="-1.04377">
        <ele>-1</ele>
        <time>2014-05-18T10:02:58.000Z</time>
      </trkpt>
      <trkpt lat="45.94714" lon="-1.04385">
        <ele>-1</ele>
        <time>2014-05-18T10:03:01.000Z</time>
      </trkpt>
      <trkpt lat="45.94706" lon="-1.04394">
        <ele>-1.3</ele>
        <time>2014-05-18T10:03:04.000Z</time>
      </trkpt>
      <trkpt lat="45.94698" lon="-1.04403">
        <ele>-1.1</ele>
        <time>2014-05-18T10:03:07.000Z</time>
      </trkpt>
      <trkpt lat="45.94691" lon="-1.04412">
        <ele>-1.1</ele>
        <time>2014-05-18T10:03:10.000Z</time>
      </trkpt>
      <trkpt lat="45.94684" lon="-1.04422">
        <ele>-1.3</ele>
        <time>2014-05-18T10:03:13.000Z</time>
      </trkpt>
      <trkpt lat="45.94677" lon="-1.04431">
        <ele>-1.1</ele>
        <time>2014-05-18T10:03:16.000Z</time>
      </trkpt>
      <trkpt lat="45.94669" lon="-1.0444">
        <ele>-1</ele>
        <time>2014-05-18T10:03:19.000Z</time>
      </trkpt>
      <trkpt lat="45.94661" lon="-1.04448">
        <ele>-1</ele>
        <time>2014-05-18T10:03:22.000Z</time>
      </trkpt>
      <trkpt lat="45.94653" lon="-1.04456">
        <ele>-1</ele>
        <time>2014-05-18T10:03:25.000Z</time>
      </trkpt>
      <trkpt lat="45.94646" lon="-1.04463">
        <ele>-1.2</ele>
        <time>2014-05-18T10:03:28.000Z</time>
      </trkpt>
      <trkpt lat="45.94638" lon="-1.04471">
        <ele>-1</ele>
        <time>2014-05-18T10:03:31.000Z</time>
      </trkpt>
      <trkpt lat="45.9463" lon="-1.04478">
        <ele>-1.2</ele>
        <time>2014-05-18T10:03:34.000Z</time>
      </trkpt>
      <trkpt lat="45.94621" lon="-1.04486">
        <ele>-1.2</ele>
        <time>2014-05-18T10:03:38.000Z</time>
      </trkpt>
      <trkpt lat="45.94612" lon="-1.04494">
        <ele>-1.2</ele>
        <time>2014-05-18T10:03:42.000Z</time>
      </trkpt>
      <trkpt lat="45.94604" lon="-1.04501">
        <ele>-1.2</ele>
        <time>2014-05-18T10:03:46.000Z</time>
      </trkpt>
      <trkpt lat="45.94606" lon="-1.04531">
        <ele>-0.8</ele>
        <time>2014-05-18T10:03:56.000Z</time>
      </trkpt>
      <trkpt lat="45.94611" lon="-1.04545">
        <ele>-0.8</ele>
        <time>2014-05-18T10:04:00.000Z</time>
      </trkpt>
      <trkpt lat="45.94616" lon="-1.0456">
        <ele>-1.1</ele>
        <time>2014-05-18T10:04:04.000Z</time>
      </trkpt>
      <trkpt lat="45.9462" lon="-1.04572">
        <ele>-1</ele>
        <time>2014-05-18T10:04:07.000Z</time>
      </trkpt>
      <trkpt lat="45.94625" lon="-1.04584">
        <ele>-1</ele>
        <time>2014-05-18T10:04:10.000Z</time>
      </trkpt>
      <trkpt lat="45.9463" lon="-1.04596">
        <ele>-1</ele>
        <time>2014-05-18T10:04:13.000Z</time>
      </trkpt>
      <trkpt lat="45.94635" lon="-1.04609">
        <ele>-0.9</ele>
        <time>2014-05-18T10:04:16.000Z</time>
      </trkpt>
      <trkpt lat="45.9464" lon="-1.04623">
        <ele>-0.9</ele>
        <time>2014-05-18T10:04:19.000Z</time>
      </trkpt>
      <trkpt lat="45.94646" lon="-1.04636">
        <ele>-1</ele>
        <time>2014-05-18T10:04:22.000Z</time>
      </trkpt>
      <trkpt lat="45.94651" lon="-1.0465">
        <ele>-1.1</ele>
        <time>2014-05-18T10:04:25.000Z</time>
      </trkpt>
      <trkpt lat="45.94657" lon="-1.04662">
        <ele>-0.7</ele>
        <time>2014-05-18T10:04:28.000Z</time>
      </trkpt>
      <trkpt lat="45.94662" lon="-1.04674">
        <ele>-0.8</ele>
        <time>2014-05-18T10:04:31.000Z</time>
      </trkpt>
      <trkpt lat="45.94668" lon="-1.04684">
        <ele>-0.9</ele>
        <time>2014-05-18T10:04:34.000Z</time>
      </trkpt>
      <trkpt lat="45.94676" lon="-1.04692">
        <ele>-1.1</ele>
        <time>2014-05-18T10:04:37.000Z</time>
      </trkpt>
      <trkpt lat="45.94684" lon="-1.04699">
        <ele>-1.2</ele>
        <time>2014-05-18T10:04:40.000Z</time>
      </trkpt>
      <trkpt lat="45.94693" lon="-1.04706">
        <ele>-1.1</ele>
        <time>2014-05-18T10:04:43.000Z</time>
      </trkpt>
      <trkpt lat="45.94701" lon="-1.04712">
        <ele>-1.2</ele>
        <time>2014-05-18T10:04:46.000Z</time>
      </trkpt>
      <trkpt lat="45.9471" lon="-1.04718">
        <ele>-0.9</ele>
        <time>2014-05-18T10:04:49.000Z</time>
      </trkpt>
      <trkpt lat="45.94727" lon="-1.0473">
        <ele>-0.6</ele>
        <time>2014-05-18T10:04:55.000Z</time>
      </trkpt>
      <trkpt lat="45.94739" lon="-1.04736">
        <ele>-0.9</ele>
        <time>2014-05-18T10:04:59.000Z</time>
      </trkpt>
      <trkpt lat="45.94749" lon="-1.04739">
        <ele>-1.2</ele>
        <time>2014-05-18T10:05:02.000Z</time>
      </trkpt>
      <trkpt lat="45.94759" lon="-1.04742">
        <ele>-1.3</ele>
        <time>2014-05-18T10:05:05.000Z</time>
      </trkpt>
      <trkpt lat="45.9477" lon="-1.04744">
        <ele>-1</ele>
        <time>2014-05-18T10:05:08.000Z</time>
      </trkpt>
      <trkpt lat="45.9478" lon="-1.04745">
        <ele>-1.1</ele>
        <time>2014-05-18T10:05:11.000Z</time>
      </trkpt>
      <trkpt lat="45.9479" lon="-1.04747">
        <ele>-1</ele>
        <time>2014-05-18T10:05:14.000Z</time>
      </trkpt>
      <trkpt lat="45.94801" lon="-1.0475">
        <ele>-0.9</ele>
        <time>2014-05-18T10:05:17.000Z</time>
      </trkpt>
      <trkpt lat="45.94813" lon="-1.04752">
        <ele>-0.8</ele>
        <time>2014-05-18T10:05:20.000Z</time>
      </trkpt>
      <trkpt lat="45.94824" lon="-1.04754">
        <ele>-1</ele>
        <time>2014-05-18T10:05:23.000Z</time>
      </trkpt>
      <trkpt lat="45.94834" lon="-1.04759">
        <ele>-1.3</ele>
        <time>2014-05-18T10:05:28.000Z</time>
      </trkpt>
      <trkpt lat="45.94842" lon="-1.04763">
        <ele>-1.3</ele>
        <time>2014-05-18T10:05:31.000Z</time>
      </trkpt>
      <trkpt lat="45.94852" lon="-1.04766">
        <ele>-1.4</ele>
        <time>2014-05-18T10:05:34.000Z</time>
      </trkpt>
      <trkpt lat="45.94862" lon="-1.04769">
        <ele>-1.5</ele>
        <time>2014-05-18T10:05:39.000Z</time>
      </trkpt>
      <trkpt lat="45.94873" lon="-1.04768">
        <ele>-1.2</ele>
        <time>2014-05-18T10:05:42.000Z</time>
      </trkpt>
      <trkpt lat="45.94884" lon="-1.04767">
        <ele>-1.3</ele>
        <time>2014-05-18T10:05:45.000Z</time>
      </trkpt>
      <trkpt lat="45.94894" lon="-1.04764">
        <ele>-1.6</ele>
        <time>2014-05-18T10:05:48.000Z</time>
      </trkpt>
      <trkpt lat="45.94904" lon="-1.04762">
        <ele>-1.5</ele>
        <time>2014-05-18T10:05:51.000Z</time>
      </trkpt>
      <trkpt lat="45.94924" lon="-1.04759">
        <ele>-1.1</ele>
        <time>2014-05-18T10:05:57.000Z</time>
      </trkpt>
      <trkpt lat="45.94934" lon="-1.04758">
        <ele>-1.5</ele>
        <time>2014-05-18T10:06:00.000Z</time>
      </trkpt>
      <trkpt lat="45.94944" lon="-1.04758">
        <ele>-1.5</ele>
        <time>2014-05-18T10:06:03.000Z</time>
      </trkpt>
      <trkpt lat="45.94954" lon="-1.04757">
        <ele>-1.4</ele>
        <time>2014-05-18T10:06:06.000Z</time>
      </trkpt>
      <trkpt lat="45.94963" lon="-1.04756">
        <ele>-1.2</ele>
        <time>2014-05-18T10:06:09.000Z</time>
      </trkpt>
      <trkpt lat="45.94973" lon="-1.04756">
        <ele>-1.5</ele>
        <time>2014-05-18T10:06:12.000Z</time>
      </trkpt>
      <trkpt lat="45.94983" lon="-1.04755">
        <ele>-1.8</ele>
        <time>2014-05-18T10:06:15.000Z</time>
      </trkpt>
      <trkpt lat="45.94993" lon="-1.04754">
        <ele>-1.3</ele>
        <time>2014-05-18T10:06:18.000Z</time>
      </trkpt>
      <trkpt lat="45.95004" lon="-1.04752">
        <ele>-1.3</ele>
        <time>2014-05-18T10:06:21.000Z</time>
      </trkpt>
      <trkpt lat="45.95014" lon="-1.04748">
        <ele>-1.4</ele>
        <time>2014-05-18T10:06:24.000Z</time>
      </trkpt>
      <trkpt lat="45.95024" lon="-1.04744">
        <ele>-1</ele>
        <time>2014-05-18T10:06:27.000Z</time>
      </trkpt>
      <trkpt lat="45.95035" lon="-1.04741">
        <ele>-1.2</ele>
        <time>2014-05-18T10:06:30.000Z</time>
      </trkpt>
      <trkpt lat="45.95045" lon="-1.04741">
        <ele>-1.3</ele>
        <time>2014-05-18T10:06:33.000Z</time>
      </trkpt>
      <trkpt lat="45.95054" lon="-1.04746">
        <ele>-1.5</ele>
        <time>2014-05-18T10:06:36.000Z</time>
      </trkpt>
      <trkpt lat="45.9506" lon="-1.04757">
        <ele>-1.4</ele>
        <time>2014-05-18T10:06:39.000Z</time>
      </trkpt>
      <trkpt lat="45.95064" lon="-1.0477">
        <ele>-1.5</ele>
        <time>2014-05-18T10:06:42.000Z</time>
      </trkpt>
      <trkpt lat="45.95065" lon="-1.04784">
        <ele>-1.3</ele>
        <time>2014-05-18T10:06:45.000Z</time>
      </trkpt>
      <trkpt lat="45.95065" lon="-1.048">
        <ele>-1.4</ele>
        <time>2014-05-18T10:06:49.000Z</time>
      </trkpt>
      <trkpt lat="45.95066" lon="-1.04818">
        <ele>-1.3</ele>
        <time>2014-05-18T10:06:53.000Z</time>
      </trkpt>
      <trkpt lat="45.95062" lon="-1.04848">
        <ele>-1.3</ele>
        <time>2014-05-18T10:06:59.000Z</time>
      </trkpt>
      <trkpt lat="45.95059" lon="-1.0486">
        <ele>-1.7</ele>
        <time>2014-05-18T10:07:02.000Z</time>
      </trkpt>
      <trkpt lat="45.95056" lon="-1.04877">
        <ele>-1.5</ele>
        <time>2014-05-18T10:07:06.000Z</time>
      </trkpt>
      <trkpt lat="45.95052" lon="-1.04892">
        <ele>-1.8</ele>
        <time>2014-05-18T10:07:10.000Z</time>
      </trkpt>
      <trkpt lat="45.95048" lon="-1.04907">
        <ele>-1.7</ele>
        <time>2014-05-18T10:07:14.000Z</time>
      </trkpt>
      <trkpt lat="45.95043" lon="-1.04922">
        <ele>-1.6</ele>
        <time>2014-05-18T10:07:18.000Z</time>
      </trkpt>
      <trkpt lat="45.95038" lon="-1.04933">
        <ele>-1.4</ele>
        <time>2014-05-18T10:07:21.000Z</time>
      </trkpt>
      <trkpt lat="45.95032" lon="-1.04944">
        <ele>-1.4</ele>
        <time>2014-05-18T10:07:24.000Z</time>
      </trkpt>
      <trkpt lat="45.95026" lon="-1.04953">
        <ele>-1.2</ele>
        <time>2014-05-18T10:07:27.000Z</time>
      </trkpt>
      <trkpt lat="45.95019" lon="-1.04967">
        <ele>-1.3</ele>
        <time>2014-05-18T10:07:31.000Z</time>
      </trkpt>
      <trkpt lat="45.95011" lon="-1.04979">
        <ele>-1.2</ele>
        <time>2014-05-18T10:07:35.000Z</time>
      </trkpt>
      <trkpt lat="45.95003" lon="-1.04992">
        <ele>-1.2</ele>
        <time>2014-05-18T10:07:39.000Z</time>
      </trkpt>
      <trkpt lat="45.94998" lon="-1.05002">
        <ele>-1.1</ele>
        <time>2014-05-18T10:07:42.000Z</time>
      </trkpt>
      <trkpt lat="45.94991" lon="-1.05015">
        <ele>-0.9</ele>
        <time>2014-05-18T10:07:46.000Z</time>
      </trkpt>
      <trkpt lat="45.94985" lon="-1.05025">
        <ele>-0.7</ele>
        <time>2014-05-18T10:07:49.000Z</time>
      </trkpt>
      <trkpt lat="45.94978" lon="-1.05035">
        <ele>-1.1</ele>
        <time>2014-05-18T10:07:52.000Z</time>
      </trkpt>
      <trkpt lat="45.94971" lon="-1.05047">
        <ele>-0.9</ele>
        <time>2014-05-18T10:07:56.000Z</time>
      </trkpt>
      <trkpt lat="45.94957" lon="-1.05072">
        <ele>-0.7</ele>
        <time>2014-05-18T10:08:04.000Z</time>
      </trkpt>
      <trkpt lat="45.94948" lon="-1.05084">
        <ele>-0.8</ele>
        <time>2014-05-18T10:08:08.000Z</time>
      </trkpt>
      <trkpt lat="45.94941" lon="-1.05096">
        <ele>-0.6</ele>
        <time>2014-05-18T10:08:12.000Z</time>
      </trkpt>
      <trkpt lat="45.94933" lon="-1.05107">
        <ele>-0.6</ele>
        <time>2014-05-18T10:08:16.000Z</time>
      </trkpt>
      <trkpt lat="45.94927" lon="-1.05116">
        <ele>-0.7</ele>
        <time>2014-05-18T10:08:19.000Z</time>
      </trkpt>
      <trkpt lat="45.94919" lon="-1.05126">
        <ele>-0.7</ele>
        <time>2014-05-18T10:08:23.000Z</time>
      </trkpt>
      <trkpt lat="45.9491" lon="-1.05137">
        <ele>-0.8</ele>
        <time>2014-05-18T10:08:27.000Z</time>
      </trkpt>
      <trkpt lat="45.94902" lon="-1.05147">
        <ele>-0.6</ele>
        <time>2014-05-18T10:08:31.000Z</time>
      </trkpt>
      <trkpt lat="45.94894" lon="-1.05157">
        <ele>-1</ele>
        <time>2014-05-18T10:10:09.000Z</time>
      </trkpt>
      <trkpt lat="45.94882" lon="-1.05181">
        <ele>-1.3</ele>
        <time>2014-05-18T10:10:15.000Z</time>
      </trkpt>
      <trkpt lat="45.94879" lon="-1.05196">
        <ele>-1.2</ele>
        <time>2014-05-18T10:10:18.000Z</time>
      </trkpt>
      <trkpt lat="45.94879" lon="-1.05212">
        <ele>-1.3</ele>
        <time>2014-05-18T10:10:21.000Z</time>
      </trkpt>
      <trkpt lat="45.94882" lon="-1.05229">
        <ele>-1.5</ele>
        <time>2014-05-18T10:10:24.000Z</time>
      </trkpt>
      <trkpt lat="45.94884" lon="-1.05247">
        <ele>-1.5</ele>
        <time>2014-05-18T10:10:27.000Z</time>
      </trkpt>
      <trkpt lat="45.94888" lon="-1.05263">
        <ele>-1.7</ele>
        <time>2014-05-18T10:10:30.000Z</time>
      </trkpt>
      <trkpt lat="45.94893" lon="-1.05279">
        <ele>-1.4</ele>
        <time>2014-05-18T10:10:33.000Z</time>
      </trkpt>
      <trkpt lat="45.94897" lon="-1.0529">
        <ele>-1.3</ele>
        <time>2014-05-18T10:10:35.000Z</time>
      </trkpt>
      <trkpt lat="45.94906" lon="-1.05303">
        <ele>-1.3</ele>
        <time>2014-05-18T10:10:38.000Z</time>
      </trkpt>
      <trkpt lat="45.94912" lon="-1.05313">
        <ele>-1.7</ele>
        <time>2014-05-18T10:10:40.000Z</time>
      </trkpt>
      <trkpt lat="45.94921" lon="-1.05323">
        <ele>-1.8</ele>
        <time>2014-05-18T10:10:43.000Z</time>
      </trkpt>
      <trkpt lat="45.9493" lon="-1.05328">
        <ele>-1.6</ele>
        <time>2014-05-18T10:10:46.000Z</time>
      </trkpt>
      <trkpt lat="45.9494" lon="-1.05329">
        <ele>-1.1</ele>
        <time>2014-05-18T10:10:49.000Z</time>
      </trkpt>
      <trkpt lat="45.9495" lon="-1.0533">
        <ele>-1.2</ele>
        <time>2014-05-18T10:10:52.000Z</time>
      </trkpt>
      <trkpt lat="45.94963" lon="-1.05329">
        <ele>-1.1</ele>
        <time>2014-05-18T10:10:55.000Z</time>
      </trkpt>
      <trkpt lat="45.94976" lon="-1.05328">
        <ele>-1.2</ele>
        <time>2014-05-18T10:10:58.000Z</time>
      </trkpt>
      <trkpt lat="45.94989" lon="-1.05328">
        <ele>-1.3</ele>
        <time>2014-05-18T10:11:01.000Z</time>
      </trkpt>
      <trkpt lat="45.94999" lon="-1.05329">
        <ele>-1</ele>
        <time>2014-05-18T10:11:03.000Z</time>
      </trkpt>
      <trkpt lat="45.95011" lon="-1.0533">
        <ele>-1.1</ele>
        <time>2014-05-18T10:11:06.000Z</time>
      </trkpt>
      <trkpt lat="45.95025" lon="-1.0533">
        <ele>-1.1</ele>
        <time>2014-05-18T10:11:09.000Z</time>
      </trkpt>
      <trkpt lat="45.95036" lon="-1.05329">
        <ele>-0.8</ele>
        <time>2014-05-18T10:11:12.000Z</time>
      </trkpt>
      <trkpt lat="45.95057" lon="-1.05329">
        <ele>-0.6</ele>
        <time>2014-05-18T10:11:18.000Z</time>
      </trkpt>
      <trkpt lat="45.95069" lon="-1.05329">
        <ele>-0.7</ele>
        <time>2014-05-18T10:11:21.000Z</time>
      </trkpt>
      <trkpt lat="45.95081" lon="-1.05329">
        <ele>-0.9</ele>
        <time>2014-05-18T10:11:24.000Z</time>
      </trkpt>
      <trkpt lat="45.95093" lon="-1.05329">
        <ele>-0.9</ele>
        <time>2014-05-18T10:11:27.000Z</time>
      </trkpt>
      <trkpt lat="45.95104" lon="-1.05329">
        <ele>-0.9</ele>
        <time>2014-05-18T10:11:30.000Z</time>
      </trkpt>
      <trkpt lat="45.95115" lon="-1.05329">
        <ele>-0.9</ele>
        <time>2014-05-18T10:11:33.000Z</time>
      </trkpt>
      <trkpt lat="45.95125" lon="-1.05329">
        <ele>-1.1</ele>
        <time>2014-05-18T10:11:36.000Z</time>
      </trkpt>
      <trkpt lat="45.95135" lon="-1.05329">
        <ele>-0.9</ele>
        <time>2014-05-18T10:11:39.000Z</time>
      </trkpt>
      <trkpt lat="45.95146" lon="-1.0533">
        <ele>-0.8</ele>
        <time>2014-05-18T10:11:42.000Z</time>
      </trkpt>
      <trkpt lat="45.95156" lon="-1.0533">
        <ele>-0.7</ele>
        <time>2014-05-18T10:11:45.000Z</time>
      </trkpt>
      <trkpt lat="45.95166" lon="-1.0533">
        <ele>-0.3</ele>
        <time>2014-05-18T10:11:48.000Z</time>
      </trkpt>
      <trkpt lat="45.95176" lon="-1.0533">
        <ele>-0.3</ele>
        <time>2014-05-18T10:11:51.000Z</time>
      </trkpt>
      <trkpt lat="45.95185" lon="-1.0533">
        <ele>-0.5</ele>
        <time>2014-05-18T10:11:54.000Z</time>
      </trkpt>
      <trkpt lat="45.95197" lon="-1.05331">
        <ele>-0.5</ele>
        <time>2014-05-18T10:11:58.000Z</time>
      </trkpt>
      <trkpt lat="45.95207" lon="-1.0533">
        <ele>-0.4</ele>
        <time>2014-05-18T10:12:02.000Z</time>
      </trkpt>
      <trkpt lat="45.95216" lon="-1.05331">
        <ele>-0.5</ele>
        <time>2014-05-18T10:12:06.000Z</time>
      </trkpt>
      <trkpt lat="45.95223" lon="-1.05341">
        <ele>-0.9</ele>
        <time>2014-05-18T10:12:10.000Z</time>
      </trkpt>
      <trkpt lat="45.95216" lon="-1.0535">
        <ele>-0.7</ele>
        <time>2014-05-18T10:12:15.000Z</time>
      </trkpt>
      <trkpt lat="45.95202" lon="-1.05372">
        <ele>2.2</ele>
        <time>2014-05-18T10:34:07.000Z</time>
      </trkpt>
      <trkpt lat="45.95202" lon="-1.05372">
        <ele>2.2</ele>
        <time>2014-05-18T10:34:07.000Z</time>
      </trkpt>
      <trkpt lat="45.95199" lon="-1.05384">
        <ele>1.7</ele>
        <time>2014-05-18T10:34:11.000Z</time>
      </trkpt>
      <trkpt lat="45.95196" lon="-1.05398">
        <ele>1.7</ele>
        <time>2014-05-18T10:34:15.000Z</time>
      </trkpt>
      <trkpt lat="45.95191" lon="-1.05412">
        <ele>1.7</ele>
        <time>2014-05-18T10:34:20.000Z</time>
      </trkpt>
      <trkpt lat="45.95186" lon="-1.05425">
        <ele>1.9</ele>
        <time>2014-05-18T10:34:24.000Z</time>
      </trkpt>
      <trkpt lat="45.95181" lon="-1.05439">
        <ele>1.8</ele>
        <time>2014-05-18T10:34:28.000Z</time>
      </trkpt>
      <trkpt lat="45.95177" lon="-1.05452">
        <ele>1.9</ele>
        <time>2014-05-18T10:34:32.000Z</time>
      </trkpt>
      <trkpt lat="45.95171" lon="-1.05467">
        <ele>1.7</ele>
        <time>2014-05-18T10:34:36.000Z</time>
      </trkpt>
      <trkpt lat="45.95166" lon="-1.05481">
        <ele>2</ele>
        <time>2014-05-18T10:34:40.000Z</time>
      </trkpt>
      <trkpt lat="45.95161" lon="-1.05493">
        <ele>2</ele>
        <time>2014-05-18T10:34:43.000Z</time>
      </trkpt>
      <trkpt lat="45.95156" lon="-1.05505">
        <ele>2.4</ele>
        <time>2014-05-18T10:34:46.000Z</time>
      </trkpt>
      <trkpt lat="45.95151" lon="-1.05518">
        <ele>2.2</ele>
        <time>2014-05-18T10:34:49.000Z</time>
      </trkpt>
      <trkpt lat="45.95145" lon="-1.05531">
        <ele>2.2</ele>
        <time>2014-05-18T10:34:52.000Z</time>
      </trkpt>
      <trkpt lat="45.9514" lon="-1.05544">
        <ele>2.1</ele>
        <time>2014-05-18T10:34:55.000Z</time>
      </trkpt>
      <trkpt lat="45.95135" lon="-1.05559">
        <ele>1.8</ele>
        <time>2014-05-18T10:34:58.000Z</time>
      </trkpt>
      <trkpt lat="45.95129" lon="-1.05588">
        <ele>1.8</ele>
        <time>2014-05-18T10:35:04.000Z</time>
      </trkpt>
      <trkpt lat="45.95128" lon="-1.05603">
        <ele>1.8</ele>
        <time>2014-05-18T10:35:07.000Z</time>
      </trkpt>
      <trkpt lat="45.95125" lon="-1.05618">
        <ele>2</ele>
        <time>2014-05-18T10:35:10.000Z</time>
      </trkpt>
      <trkpt lat="45.95123" lon="-1.05633">
        <ele>2.1</ele>
        <time>2014-05-18T10:35:13.000Z</time>
      </trkpt>
      <trkpt lat="45.95121" lon="-1.05649">
        <ele>2.1</ele>
        <time>2014-05-18T10:35:16.000Z</time>
      </trkpt>
      <trkpt lat="45.95118" lon="-1.05665">
        <ele>1.9</ele>
        <time>2014-05-18T10:35:19.000Z</time>
      </trkpt>
      <trkpt lat="45.95116" lon="-1.05681">
        <ele>2</ele>
        <time>2014-05-18T10:35:22.000Z</time>
      </trkpt>
      <trkpt lat="45.95114" lon="-1.05695">
        <ele>2.2</ele>
        <time>2014-05-18T10:35:25.000Z</time>
      </trkpt>
      <trkpt lat="45.95111" lon="-1.05708">
        <ele>2</ele>
        <time>2014-05-18T10:35:28.000Z</time>
      </trkpt>
      <trkpt lat="45.95108" lon="-1.05723">
        <ele>2.2</ele>
        <time>2014-05-18T10:35:31.000Z</time>
      </trkpt>
      <trkpt lat="45.95106" lon="-1.05737">
        <ele>2.2</ele>
        <time>2014-05-18T10:35:34.000Z</time>
      </trkpt>
      <trkpt lat="45.95102" lon="-1.0575">
        <ele>2.4</ele>
        <time>2014-05-18T10:35:37.000Z</time>
      </trkpt>
      <trkpt lat="45.95099" lon="-1.05766">
        <ele>2.2</ele>
        <time>2014-05-18T10:35:41.000Z</time>
      </trkpt>
      <trkpt lat="45.95095" lon="-1.05778">
        <ele>2.3</ele>
        <time>2014-05-18T10:35:45.000Z</time>
      </trkpt>
      <trkpt lat="45.95092" lon="-1.05791">
        <ele>2.3</ele>
        <time>2014-05-18T10:35:50.000Z</time>
      </trkpt>
      <trkpt lat="45.95089" lon="-1.05803">
        <ele>2.4</ele>
        <time>2014-05-18T10:35:55.000Z</time>
      </trkpt>
      <trkpt lat="45.95084" lon="-1.05817">
        <ele>2.3</ele>
        <time>2014-05-18T10:36:00.000Z</time>
      </trkpt>
      <trkpt lat="45.95075" lon="-1.05845">
        <ele>2</ele>
        <time>2014-05-18T10:36:08.000Z</time>
      </trkpt>
      <trkpt lat="45.95071" lon="-1.05857">
        <ele>2</ele>
        <time>2014-05-18T10:36:11.000Z</time>
      </trkpt>
      <trkpt lat="45.95067" lon="-1.05869">
        <ele>2.3</ele>
        <time>2014-05-18T10:36:14.000Z</time>
      </trkpt>
      <trkpt lat="45.95062" lon="-1.05884">
        <ele>2.1</ele>
        <time>2014-05-18T10:36:18.000Z</time>
      </trkpt>
      <trkpt lat="45.95058" lon="-1.05896">
        <ele>2.1</ele>
        <time>2014-05-18T10:36:21.000Z</time>
      </trkpt>
      <trkpt lat="45.95053" lon="-1.05907">
        <ele>2</ele>
        <time>2014-05-18T10:36:24.000Z</time>
      </trkpt>
      <trkpt lat="45.95048" lon="-1.05921">
        <ele>2</ele>
        <time>2014-05-18T10:36:28.000Z</time>
      </trkpt>
      <trkpt lat="45.95042" lon="-1.05935">
        <ele>2</ele>
        <time>2014-05-18T10:36:32.000Z</time>
      </trkpt>
      <trkpt lat="45.95035" lon="-1.05948">
        <ele>2.2</ele>
        <time>2014-05-18T10:36:36.000Z</time>
      </trkpt>
      <trkpt lat="45.95028" lon="-1.05959">
        <ele>2</ele>
        <time>2014-05-18T10:36:40.000Z</time>
      </trkpt>
      <trkpt lat="45.95021" lon="-1.0597">
        <ele>2.3</ele>
        <time>2014-05-18T10:36:44.000Z</time>
      </trkpt>
      <trkpt lat="45.95014" lon="-1.05982">
        <ele>2</ele>
        <time>2014-05-18T10:36:48.000Z</time>
      </trkpt>
      <trkpt lat="45.95007" lon="-1.05993">
        <ele>2</ele>
        <time>2014-05-18T10:36:51.000Z</time>
      </trkpt>
      <trkpt lat="45.95002" lon="-1.06005">
        <ele>1.7</ele>
        <time>2014-05-18T10:36:54.000Z</time>
      </trkpt>
      <trkpt lat="45.94997" lon="-1.06018">
        <ele>1.4</ele>
        <time>2014-05-18T10:36:57.000Z</time>
      </trkpt>
      <trkpt lat="45.94992" lon="-1.0603">
        <ele>1.3</ele>
        <time>2014-05-18T10:37:00.000Z</time>
      </trkpt>
      <trkpt lat="45.94988" lon="-1.06044">
        <ele>1.5</ele>
        <time>2014-05-18T10:37:03.000Z</time>
      </trkpt>
      <trkpt lat="45.94981" lon="-1.06072">
        <ele>1.7</ele>
        <time>2014-05-18T10:37:10.000Z</time>
      </trkpt>
      <trkpt lat="45.94977" lon="-1.06084">
        <ele>1.8</ele>
        <time>2014-05-18T10:37:13.000Z</time>
      </trkpt>
      <trkpt lat="45.94972" lon="-1.06096">
        <ele>1.7</ele>
        <time>2014-05-18T10:37:16.000Z</time>
      </trkpt>
      <trkpt lat="45.94967" lon="-1.06108">
        <ele>1.6</ele>
        <time>2014-05-18T10:37:19.000Z</time>
      </trkpt>
      <trkpt lat="45.94961" lon="-1.06121">
        <ele>1.6</ele>
        <time>2014-05-18T10:37:22.000Z</time>
      </trkpt>
      <trkpt lat="45.94954" lon="-1.06135">
        <ele>1.5</ele>
        <time>2014-05-18T10:37:26.000Z</time>
      </trkpt>
      <trkpt lat="45.94948" lon="-1.06148">
        <ele>1.6</ele>
        <time>2014-05-18T10:37:30.000Z</time>
      </trkpt>
      <trkpt lat="45.94941" lon="-1.06161">
        <ele>1.5</ele>
        <time>2014-05-18T10:37:34.000Z</time>
      </trkpt>
      <trkpt lat="45.94935" lon="-1.06172">
        <ele>1.4</ele>
        <time>2014-05-18T10:37:37.000Z</time>
      </trkpt>
      <trkpt lat="45.94929" lon="-1.06182">
        <ele>1.4</ele>
        <time>2014-05-18T10:37:40.000Z</time>
      </trkpt>
      <trkpt lat="45.94922" lon="-1.06192">
        <ele>1.3</ele>
        <time>2014-05-18T10:37:43.000Z</time>
      </trkpt>
      <trkpt lat="45.94915" lon="-1.06204">
        <ele>1.5</ele>
        <time>2014-05-18T10:37:47.000Z</time>
      </trkpt>
      <trkpt lat="45.94908" lon="-1.06213">
        <ele>1.4</ele>
        <time>2014-05-18T10:37:51.000Z</time>
      </trkpt>
      <trkpt lat="45.949" lon="-1.06223">
        <ele>1.9</ele>
        <time>2014-05-18T10:37:56.000Z</time>
      </trkpt>
      <trkpt lat="45.94893" lon="-1.06233">
        <ele>1.7</ele>
        <time>2014-05-18T10:38:00.000Z</time>
      </trkpt>
      <trkpt lat="45.94885" lon="-1.06243">
        <ele>1.6</ele>
        <time>2014-05-18T10:38:03.000Z</time>
      </trkpt>
      <trkpt lat="45.94877" lon="-1.06253">
        <ele>1.4</ele>
        <time>2014-05-18T10:38:06.000Z</time>
      </trkpt>
      <trkpt lat="45.94859" lon="-1.06277">
        <ele>1.5</ele>
        <time>2014-05-18T10:38:12.000Z</time>
      </trkpt>
      <trkpt lat="45.94852" lon="-1.06288">
        <ele>1.6</ele>
        <time>2014-05-18T10:38:15.000Z</time>
      </trkpt>
      <trkpt lat="45.94843" lon="-1.063">
        <ele>1.5</ele>
        <time>2014-05-18T10:38:18.000Z</time>
      </trkpt>
      <trkpt lat="45.94835" lon="-1.06311">
        <ele>1.8</ele>
        <time>2014-05-18T10:38:21.000Z</time>
      </trkpt>
      <trkpt lat="45.94826" lon="-1.06323">
        <ele>1.8</ele>
        <time>2014-05-18T10:38:24.000Z</time>
      </trkpt>
      <trkpt lat="45.94818" lon="-1.06336">
        <ele>1.7</ele>
        <time>2014-05-18T10:38:27.000Z</time>
      </trkpt>
      <trkpt lat="45.9481" lon="-1.06347">
        <ele>1.5</ele>
        <time>2014-05-18T10:38:30.000Z</time>
      </trkpt>
      <trkpt lat="45.94803" lon="-1.06359">
        <ele>1.4</ele>
        <time>2014-05-18T10:38:33.000Z</time>
      </trkpt>
      <trkpt lat="45.94796" lon="-1.06369">
        <ele>1.6</ele>
        <time>2014-05-18T10:38:36.000Z</time>
      </trkpt>
      <trkpt lat="45.94788" lon="-1.06381">
        <ele>1.7</ele>
        <time>2014-05-18T10:38:39.000Z</time>
      </trkpt>
      <trkpt lat="45.94781" lon="-1.06392">
        <ele>1.6</ele>
        <time>2014-05-18T10:38:42.000Z</time>
      </trkpt>
      <trkpt lat="45.94775" lon="-1.06403">
        <ele>1.6</ele>
        <time>2014-05-18T10:38:45.000Z</time>
      </trkpt>
      <trkpt lat="45.94769" lon="-1.06413">
        <ele>1.6</ele>
        <time>2014-05-18T10:38:48.000Z</time>
      </trkpt>
      <trkpt lat="45.94762" lon="-1.06423">
        <ele>1.4</ele>
        <time>2014-05-18T10:38:51.000Z</time>
      </trkpt>
      <trkpt lat="45.94756" lon="-1.06434">
        <ele>1.4</ele>
        <time>2014-05-18T10:38:54.000Z</time>
      </trkpt>
      <trkpt lat="45.9475" lon="-1.06445">
        <ele>1.3</ele>
        <time>2014-05-18T10:38:57.000Z</time>
      </trkpt>
      <trkpt lat="45.94744" lon="-1.06455">
        <ele>1.6</ele>
        <time>2014-05-18T10:39:00.000Z</time>
      </trkpt>
      <trkpt lat="45.94736" lon="-1.06467">
        <ele>1.7</ele>
        <time>2014-05-18T10:39:04.000Z</time>
      </trkpt>
      <trkpt lat="45.9473" lon="-1.06478">
        <ele>1.6</ele>
        <time>2014-05-18T10:39:08.000Z</time>
      </trkpt>
      <trkpt lat="45.94716" lon="-1.06502">
        <ele>1.6</ele>
        <time>2014-05-18T10:39:15.000Z</time>
      </trkpt>
      <trkpt lat="45.9471" lon="-1.06513">
        <ele>1.9</ele>
        <time>2014-05-18T10:39:18.000Z</time>
      </trkpt>
      <trkpt lat="45.94705" lon="-1.06526">
        <ele>1.8</ele>
        <time>2014-05-18T10:39:22.000Z</time>
      </trkpt>
      <trkpt lat="45.947" lon="-1.06539">
        <ele>1.7</ele>
        <time>2014-05-18T10:39:26.000Z</time>
      </trkpt>
      <trkpt lat="45.94695" lon="-1.06554">
        <ele>1.7</ele>
        <time>2014-05-18T10:39:30.000Z</time>
      </trkpt>
      <trkpt lat="45.9469" lon="-1.0657">
        <ele>1.5</ele>
        <time>2014-05-18T10:39:34.000Z</time>
      </trkpt>
      <trkpt lat="45.94685" lon="-1.06585">
        <ele>1.6</ele>
        <time>2014-05-18T10:39:38.000Z</time>
      </trkpt>
      <trkpt lat="45.9468" lon="-1.066">
        <ele>1.9</ele>
        <time>2014-05-18T10:39:42.000Z</time>
      </trkpt>
      <trkpt lat="45.94674" lon="-1.06613">
        <ele>2</ele>
        <time>2014-05-18T10:39:46.000Z</time>
      </trkpt>
      <trkpt lat="45.94668" lon="-1.06628">
        <ele>2</ele>
        <time>2014-05-18T10:39:50.000Z</time>
      </trkpt>
      <trkpt lat="45.94663" lon="-1.06642">
        <ele>2</ele>
        <time>2014-05-18T10:39:54.000Z</time>
      </trkpt>
      <trkpt lat="45.94658" lon="-1.06654">
        <ele>1.8</ele>
        <time>2014-05-18T10:39:58.000Z</time>
      </trkpt>
      <trkpt lat="45.94653" lon="-1.06669">
        <ele>1.6</ele>
        <time>2014-05-18T10:40:02.000Z</time>
      </trkpt>
      <trkpt lat="45.94649" lon="-1.06683">
        <ele>1.8</ele>
        <time>2014-05-18T10:40:05.000Z</time>
      </trkpt>
      <trkpt lat="45.94645" lon="-1.06696">
        <ele>1.8</ele>
        <time>2014-05-18T10:40:08.000Z</time>
      </trkpt>
      <trkpt lat="45.9464" lon="-1.06711">
        <ele>1.8</ele>
        <time>2014-05-18T10:40:12.000Z</time>
      </trkpt>
      <trkpt lat="45.94632" lon="-1.06739">
        <ele>1.7</ele>
        <time>2014-05-18T10:40:19.000Z</time>
      </trkpt>
      <trkpt lat="45.94629" lon="-1.06754">
        <ele>1.9</ele>
        <time>2014-05-18T10:40:23.000Z</time>
      </trkpt>
      <trkpt lat="45.94629" lon="-1.06767">
        <ele>1.7</ele>
        <time>2014-05-18T10:40:26.000Z</time>
      </trkpt>
      <trkpt lat="45.94634" lon="-1.06779">
        <ele>1.6</ele>
        <time>2014-05-18T10:40:29.000Z</time>
      </trkpt>
      <trkpt lat="45.94642" lon="-1.0679">
        <ele>1.3</ele>
        <time>2014-05-18T10:40:32.000Z</time>
      </trkpt>
      <trkpt lat="45.94651" lon="-1.06799">
        <ele>1.6</ele>
        <time>2014-05-18T10:40:35.000Z</time>
      </trkpt>
      <trkpt lat="45.9466" lon="-1.06809">
        <ele>1.5</ele>
        <time>2014-05-18T10:40:38.000Z</time>
      </trkpt>
      <trkpt lat="45.94667" lon="-1.0682">
        <ele>1.6</ele>
        <time>2014-05-18T10:40:41.000Z</time>
      </trkpt>
      <trkpt lat="45.94674" lon="-1.06831">
        <ele>1.9</ele>
        <time>2014-05-18T10:40:44.000Z</time>
      </trkpt>
      <trkpt lat="45.9468" lon="-1.06842">
        <ele>1.9</ele>
        <time>2014-05-18T10:40:47.000Z</time>
      </trkpt>
      <trkpt lat="45.94685" lon="-1.06855">
        <ele>2.1</ele>
        <time>2014-05-18T10:40:51.000Z</time>
      </trkpt>
      <trkpt lat="45.94691" lon="-1.0687">
        <ele>1.9</ele>
        <time>2014-05-18T10:40:55.000Z</time>
      </trkpt>
      <trkpt lat="45.94695" lon="-1.06882">
        <ele>2</ele>
        <time>2014-05-18T10:40:58.000Z</time>
      </trkpt>
      <trkpt lat="45.94698" lon="-1.06896">
        <ele>2</ele>
        <time>2014-05-18T10:41:01.000Z</time>
      </trkpt>
      <trkpt lat="45.94702" lon="-1.06908">
        <ele>1.8</ele>
        <time>2014-05-18T10:41:04.000Z</time>
      </trkpt>
      <trkpt lat="45.94706" lon="-1.06923">
        <ele>2</ele>
        <time>2014-05-18T10:41:08.000Z</time>
      </trkpt>
      <trkpt lat="45.94711" lon="-1.06937">
        <ele>2.2</ele>
        <time>2014-05-18T10:41:12.000Z</time>
      </trkpt>
      <trkpt lat="45.94716" lon="-1.06952">
        <ele>2</ele>
        <time>2014-05-18T10:41:16.000Z</time>
      </trkpt>
      <trkpt lat="45.94723" lon="-1.06977">
        <ele>2.1</ele>
        <time>2014-05-18T10:41:22.000Z</time>
      </trkpt>
      <trkpt lat="45.94727" lon="-1.0699">
        <ele>2.3</ele>
        <time>2014-05-18T10:41:25.000Z</time>
      </trkpt>
      <trkpt lat="45.94731" lon="-1.07001">
        <ele>2.2</ele>
        <time>2014-05-18T10:41:28.000Z</time>
      </trkpt>
      <trkpt lat="45.94735" lon="-1.07013">
        <ele>2.3</ele>
        <time>2014-05-18T10:41:31.000Z</time>
      </trkpt>
      <trkpt lat="45.94738" lon="-1.07026">
        <ele>2.6</ele>
        <time>2014-05-18T10:41:34.000Z</time>
      </trkpt>
      <trkpt lat="45.94743" lon="-1.07041">
        <ele>2.4</ele>
        <time>2014-05-18T10:41:38.000Z</time>
      </trkpt>
      <trkpt lat="45.94747" lon="-1.07057">
        <ele>2.5</ele>
        <time>2014-05-18T10:41:42.000Z</time>
      </trkpt>
      <trkpt lat="45.94752" lon="-1.07072">
        <ele>2.6</ele>
        <time>2014-05-18T10:41:46.000Z</time>
      </trkpt>
      <trkpt lat="45.94756" lon="-1.07085">
        <ele>2.3</ele>
        <time>2014-05-18T10:41:50.000Z</time>
      </trkpt>
      <trkpt lat="45.94762" lon="-1.07097">
        <ele>2.5</ele>
        <time>2014-05-18T10:41:54.000Z</time>
      </trkpt>
      <trkpt lat="45.94769" lon="-1.07109">
        <ele>2.6</ele>
        <time>2014-05-18T10:41:58.000Z</time>
      </trkpt>
      <trkpt lat="45.94776" lon="-1.07122">
        <ele>2.7</ele>
        <time>2014-05-18T10:42:02.000Z</time>
      </trkpt>
      <trkpt lat="45.94782" lon="-1.07134">
        <ele>2.7</ele>
        <time>2014-05-18T10:42:06.000Z</time>
      </trkpt>
      <trkpt lat="45.94787" lon="-1.07146">
        <ele>3</ele>
        <time>2014-05-18T10:42:10.000Z</time>
      </trkpt>
      <trkpt lat="45.94793" lon="-1.07158">
        <ele>3.2</ele>
        <time>2014-05-18T10:42:14.000Z</time>
      </trkpt>
      <trkpt lat="45.94799" lon="-1.07171">
        <ele>3.4</ele>
        <time>2014-05-18T10:42:18.000Z</time>
      </trkpt>
      <trkpt lat="45.9481" lon="-1.07197">
        <ele>3.1</ele>
        <time>2014-05-18T10:42:26.000Z</time>
      </trkpt>
      <trkpt lat="45.94814" lon="-1.07209">
        <ele>3.3</ele>
        <time>2014-05-18T10:42:29.000Z</time>
      </trkpt>
      <trkpt lat="45.94818" lon="-1.07221">
        <ele>3.4</ele>
        <time>2014-05-18T10:42:32.000Z</time>
      </trkpt>
      <trkpt lat="45.94822" lon="-1.07233">
        <ele>3.3</ele>
        <time>2014-05-18T10:42:35.000Z</time>
      </trkpt>
      <trkpt lat="45.94826" lon="-1.07249">
        <ele>3.4</ele>
        <time>2014-05-18T10:42:39.000Z</time>
      </trkpt>
      <trkpt lat="45.94829" lon="-1.07262">
        <ele>3.3</ele>
        <time>2014-05-18T10:42:42.000Z</time>
      </trkpt>
      <trkpt lat="45.94831" lon="-1.07274">
        <ele>3.5</ele>
        <time>2014-05-18T10:42:45.000Z</time>
      </trkpt>
      <trkpt lat="45.94834" lon="-1.07291">
        <ele>3.5</ele>
        <time>2014-05-18T10:42:49.000Z</time>
      </trkpt>
      <trkpt lat="45.94837" lon="-1.07306">
        <ele>3.5</ele>
        <time>2014-05-18T10:42:53.000Z</time>
      </trkpt>
      <trkpt lat="45.94841" lon="-1.07322">
        <ele>3.6</ele>
        <time>2014-05-18T10:42:57.000Z</time>
      </trkpt>
      <trkpt lat="45.94845" lon="-1.07338">
        <ele>3.7</ele>
        <time>2014-05-18T10:43:01.000Z</time>
      </trkpt>
      <trkpt lat="45.94848" lon="-1.07353">
        <ele>3.7</ele>
        <time>2014-05-18T10:43:05.000Z</time>
      </trkpt>
      <trkpt lat="45.94851" lon="-1.07368">
        <ele>3.8</ele>
        <time>2014-05-18T10:43:09.000Z</time>
      </trkpt>
      <trkpt lat="45.94853" lon="-1.07383">
        <ele>4.2</ele>
        <time>2014-05-18T10:43:13.000Z</time>
      </trkpt>
      <trkpt lat="45.94855" lon="-1.07399">
        <ele>4.2</ele>
        <time>2014-05-18T10:43:17.000Z</time>
      </trkpt>
      <trkpt lat="45.94858" lon="-1.07415">
        <ele>4</ele>
        <time>2014-05-18T10:43:21.000Z</time>
      </trkpt>
      <trkpt lat="45.94861" lon="-1.07447">
        <ele>4.2</ele>
        <time>2014-05-18T10:43:29.000Z</time>
      </trkpt>
      <trkpt lat="45.94862" lon="-1.07463">
        <ele>4.2</ele>
        <time>2014-05-18T10:43:33.000Z</time>
      </trkpt>
      <trkpt lat="45.94863" lon="-1.07478">
        <ele>3.9</ele>
        <time>2014-05-18T10:43:37.000Z</time>
      </trkpt>
      <trkpt lat="45.94864" lon="-1.07493">
        <ele>4.2</ele>
        <time>2014-05-18T10:43:41.000Z</time>
      </trkpt>
      <trkpt lat="45.94865" lon="-1.07508">
        <ele>4.1</ele>
        <time>2014-05-18T10:43:45.000Z</time>
      </trkpt>
      <trkpt lat="45.94867" lon="-1.07524">
        <ele>3.8</ele>
        <time>2014-05-18T10:43:49.000Z</time>
      </trkpt>
      <trkpt lat="45.9487" lon="-1.07539">
        <ele>4</ele>
        <time>2014-05-18T10:43:53.000Z</time>
      </trkpt>
      <trkpt lat="45.94873" lon="-1.07555">
        <ele>4</ele>
        <time>2014-05-18T10:43:57.000Z</time>
      </trkpt>
      <trkpt lat="45.94873" lon="-1.07571">
        <ele>4.1</ele>
        <time>2014-05-18T10:44:01.000Z</time>
      </trkpt>
      <trkpt lat="45.94874" lon="-1.07584">
        <ele>3.9</ele>
        <time>2014-05-18T10:44:04.000Z</time>
      </trkpt>
      <trkpt lat="45.94876" lon="-1.07598">
        <ele>3.7</ele>
        <time>2014-05-18T10:44:07.000Z</time>
      </trkpt>
      <trkpt lat="45.94878" lon="-1.07612">
        <ele>3.5</ele>
        <time>2014-05-18T10:44:10.000Z</time>
      </trkpt>
      <trkpt lat="45.9488" lon="-1.07625">
        <ele>3.6</ele>
        <time>2014-05-18T10:44:13.000Z</time>
      </trkpt>
      <trkpt lat="45.94881" lon="-1.07641">
        <ele>3.4</ele>
        <time>2014-05-18T10:44:17.000Z</time>
      </trkpt>
      <trkpt lat="45.94883" lon="-1.07657">
        <ele>3.4</ele>
        <time>2014-05-18T10:44:21.000Z</time>
      </trkpt>
      <trkpt lat="45.94884" lon="-1.0767">
        <ele>3.3</ele>
        <time>2014-05-18T10:44:24.000Z</time>
      </trkpt>
      <trkpt lat="45.9489" lon="-1.07703">
        <ele>3.4</ele>
        <time>2014-05-18T10:44:32.000Z</time>
      </trkpt>
      <trkpt lat="45.94894" lon="-1.07719">
        <ele>3.3</ele>
        <time>2014-05-18T10:44:36.000Z</time>
      </trkpt>
      <trkpt lat="45.94896" lon="-1.07734">
        <ele>3.5</ele>
        <time>2014-05-18T10:44:40.000Z</time>
      </trkpt>
      <trkpt lat="45.94897" lon="-1.07749">
        <ele>3.4</ele>
        <time>2014-05-18T10:44:45.000Z</time>
      </trkpt>
      <trkpt lat="45.94898" lon="-1.07763">
        <ele>3.8</ele>
        <time>2014-05-18T10:44:51.000Z</time>
      </trkpt>
      <trkpt lat="45.94901" lon="-1.07778">
        <ele>3.8</ele>
        <time>2014-05-18T10:44:57.000Z</time>
      </trkpt>
      <trkpt lat="45.94903" lon="-1.07792">
        <ele>3.6</ele>
        <time>2014-05-18T10:45:02.000Z</time>
      </trkpt>
      <trkpt lat="45.94904" lon="-1.07807">
        <ele>3.5</ele>
        <time>2014-05-18T10:45:07.000Z</time>
      </trkpt>
      <trkpt lat="45.94907" lon="-1.0782">
        <ele>3.4</ele>
        <time>2014-05-18T10:45:11.000Z</time>
      </trkpt>
      <trkpt lat="45.9491" lon="-1.07834">
        <ele>3.6</ele>
        <time>2014-05-18T10:45:15.000Z</time>
      </trkpt>
      <trkpt lat="45.94913" lon="-1.07849">
        <ele>3.5</ele>
        <time>2014-05-18T10:45:19.000Z</time>
      </trkpt>
      <trkpt lat="45.94916" lon="-1.07864">
        <ele>3.5</ele>
        <time>2014-05-18T10:45:23.000Z</time>
      </trkpt>
      <trkpt lat="45.94918" lon="-1.07877">
        <ele>3.7</ele>
        <time>2014-05-18T10:45:28.000Z</time>
      </trkpt>
      <trkpt lat="45.94918" lon="-1.07921">
        <ele>3.3</ele>
        <time>2014-05-18T10:47:50.000Z</time>
      </trkpt>
      <trkpt lat="45.94919" lon="-1.07936">
        <ele>3.2</ele>
        <time>2014-05-18T10:47:53.000Z</time>
      </trkpt>
      <trkpt lat="45.9492" lon="-1.07952">
        <ele>2.9</ele>
        <time>2014-05-18T10:47:56.000Z</time>
      </trkpt>
      <trkpt lat="45.9492" lon="-1.07966">
        <ele>2.9</ele>
        <time>2014-05-18T10:47:59.000Z</time>
      </trkpt>
      <trkpt lat="45.9492" lon="-1.0798">
        <ele>3</ele>
        <time>2014-05-18T10:48:02.000Z</time>
      </trkpt>
      <trkpt lat="45.94921" lon="-1.07995">
        <ele>2.8</ele>
        <time>2014-05-18T10:48:05.000Z</time>
      </trkpt>
      <trkpt lat="45.94921" lon="-1.0801">
        <ele>2.5</ele>
        <time>2014-05-18T10:48:08.000Z</time>
      </trkpt>
      <trkpt lat="45.94922" lon="-1.08024">
        <ele>2.6</ele>
        <time>2014-05-18T10:48:11.000Z</time>
      </trkpt>
      <trkpt lat="45.94922" lon="-1.0804">
        <ele>2.7</ele>
        <time>2014-05-18T10:48:14.000Z</time>
      </trkpt>
      <trkpt lat="45.94923" lon="-1.08055">
        <ele>2.8</ele>
        <time>2014-05-18T10:48:17.000Z</time>
      </trkpt>
      <trkpt lat="45.94924" lon="-1.08068">
        <ele>2.9</ele>
        <time>2014-05-18T10:48:20.000Z</time>
      </trkpt>
      <trkpt lat="45.94922" lon="-1.08082">
        <ele>2.9</ele>
        <time>2014-05-18T10:48:23.000Z</time>
      </trkpt>
      <trkpt lat="45.94921" lon="-1.08096">
        <ele>3</ele>
        <time>2014-05-18T10:48:26.000Z</time>
      </trkpt>
      <trkpt lat="45.9492" lon="-1.08111">
        <ele>3</ele>
        <time>2014-05-18T10:48:29.000Z</time>
      </trkpt>
      <trkpt lat="45.94918" lon="-1.08125">
        <ele>2.9</ele>
        <time>2014-05-18T10:48:32.000Z</time>
      </trkpt>
      <trkpt lat="45.94916" lon="-1.08137">
        <ele>2.8</ele>
        <time>2014-05-18T10:48:35.000Z</time>
      </trkpt>
      <trkpt lat="45.94915" lon="-1.08151">
        <ele>3.2</ele>
        <time>2014-05-18T10:48:38.000Z</time>
      </trkpt>
      <trkpt lat="45.94914" lon="-1.08165">
        <ele>3.5</ele>
        <time>2014-05-18T10:48:41.000Z</time>
      </trkpt>
      <trkpt lat="45.94911" lon="-1.08179">
        <ele>3.5</ele>
        <time>2014-05-18T10:48:44.000Z</time>
      </trkpt>
      <trkpt lat="45.94909" lon="-1.08208">
        <ele>3.2</ele>
        <time>2014-05-18T10:48:50.000Z</time>
      </trkpt>
      <trkpt lat="45.94907" lon="-1.08222">
        <ele>3.4</ele>
        <time>2014-05-18T10:48:53.000Z</time>
      </trkpt>
      <trkpt lat="45.94906" lon="-1.08236">
        <ele>3.5</ele>
        <time>2014-05-18T10:48:56.000Z</time>
      </trkpt>
      <trkpt lat="45.94905" lon="-1.08249">
        <ele>3.8</ele>
        <time>2014-05-18T10:48:59.000Z</time>
      </trkpt>
      <trkpt lat="45.94905" lon="-1.08262">
        <ele>4.1</ele>
        <time>2014-05-18T10:49:02.000Z</time>
      </trkpt>
      <trkpt lat="45.94905" lon="-1.08279">
        <ele>4.3</ele>
        <time>2014-05-18T10:49:06.000Z</time>
      </trkpt>
      <trkpt lat="45.94906" lon="-1.08295">
        <ele>4.6</ele>
        <time>2014-05-18T10:49:10.000Z</time>
      </trkpt>
      <trkpt lat="45.94907" lon="-1.0831">
        <ele>5.1</ele>
        <time>2014-05-18T10:49:14.000Z</time>
      </trkpt>
      <trkpt lat="45.94906" lon="-1.08324">
        <ele>5.5</ele>
        <time>2014-05-18T10:49:18.000Z</time>
      </trkpt>
      <trkpt lat="45.94907" lon="-1.08339">
        <ele>5.8</ele>
        <time>2014-05-18T10:49:22.000Z</time>
      </trkpt>
      <trkpt lat="45.94909" lon="-1.08352">
        <ele>6.1</ele>
        <time>2014-05-18T10:49:26.000Z</time>
      </trkpt>
      <trkpt lat="45.94911" lon="-1.08366">
        <ele>6.5</ele>
        <time>2014-05-18T10:49:30.000Z</time>
      </trkpt>
      <trkpt lat="45.94912" lon="-1.08379">
        <ele>6.9</ele>
        <time>2014-05-18T10:49:34.000Z</time>
      </trkpt>
      <trkpt lat="45.94913" lon="-1.08392">
        <ele>6.9</ele>
        <time>2014-05-18T10:49:38.000Z</time>
      </trkpt>
      <trkpt lat="45.94914" lon="-1.08408">
        <ele>7</ele>
        <time>2014-05-18T10:49:43.000Z</time>
      </trkpt>
      <trkpt lat="45.94915" lon="-1.08422">
        <ele>7.3</ele>
        <time>2014-05-18T10:49:48.000Z</time>
      </trkpt>
      <trkpt lat="45.94917" lon="-1.08449">
        <ele>8.5</ele>
        <time>2014-05-18T10:52:41.000Z</time>
      </trkpt>
      <trkpt lat="45.94917" lon="-1.08476">
        <ele>8.5</ele>
        <time>2014-05-18T10:52:48.000Z</time>
      </trkpt>
      <trkpt lat="45.94919" lon="-1.08491">
        <ele>8.7</ele>
        <time>2014-05-18T10:52:52.000Z</time>
      </trkpt>
      <trkpt lat="45.94918" lon="-1.08506">
        <ele>8.7</ele>
        <time>2014-05-18T10:52:56.000Z</time>
      </trkpt>
      <trkpt lat="45.94919" lon="-1.0852">
        <ele>9</ele>
        <time>2014-05-18T10:53:00.000Z</time>
      </trkpt>
      <trkpt lat="45.94919" lon="-1.08534">
        <ele>9.2</ele>
        <time>2014-05-18T10:53:04.000Z</time>
      </trkpt>
      <trkpt lat="45.94919" lon="-1.08549">
        <ele>9.4</ele>
        <time>2014-05-18T10:53:08.000Z</time>
      </trkpt>
      <trkpt lat="45.94918" lon="-1.08564">
        <ele>9.3</ele>
        <time>2014-05-18T10:53:12.000Z</time>
      </trkpt>
      <trkpt lat="45.94916" lon="-1.0858">
        <ele>9.4</ele>
        <time>2014-05-18T10:53:16.000Z</time>
      </trkpt>
      <trkpt lat="45.94914" lon="-1.08593">
        <ele>9.1</ele>
        <time>2014-05-18T10:53:20.000Z</time>
      </trkpt>
      <trkpt lat="45.9491" lon="-1.08609">
        <ele>9.2</ele>
        <time>2014-05-18T10:53:24.000Z</time>
      </trkpt>
      <trkpt lat="45.94907" lon="-1.08624">
        <ele>9.3</ele>
        <time>2014-05-18T10:53:28.000Z</time>
      </trkpt>
      <trkpt lat="45.94903" lon="-1.08639">
        <ele>9.3</ele>
        <time>2014-05-18T10:53:32.000Z</time>
      </trkpt>
      <trkpt lat="45.94899" lon="-1.08655">
        <ele>9.1</ele>
        <time>2014-05-18T10:53:36.000Z</time>
      </trkpt>
      <trkpt lat="45.94896" lon="-1.08671">
        <ele>9.3</ele>
        <time>2014-05-18T10:53:40.000Z</time>
      </trkpt>
      <trkpt lat="45.94892" lon="-1.08686">
        <ele>9.4</ele>
        <time>2014-05-18T10:53:44.000Z</time>
      </trkpt>
      <trkpt lat="45.94887" lon="-1.08717">
        <ele>9.3</ele>
        <time>2014-05-18T10:53:51.000Z</time>
      </trkpt>
      <trkpt lat="45.94887" lon="-1.0873">
        <ele>9.3</ele>
        <time>2014-05-18T10:53:54.000Z</time>
      </trkpt>
      <trkpt lat="45.94888" lon="-1.08747">
        <ele>9.4</ele>
        <time>2014-05-18T10:53:58.000Z</time>
      </trkpt>
      <trkpt lat="45.94888" lon="-1.08764">
        <ele>9.3</ele>
        <time>2014-05-18T10:54:02.000Z</time>
      </trkpt>
      <trkpt lat="45.94889" lon="-1.08779">
        <ele>9.4</ele>
        <time>2014-05-18T10:54:06.000Z</time>
      </trkpt>
      <trkpt lat="45.9489" lon="-1.08794">
        <ele>9.5</ele>
        <time>2014-05-18T10:54:10.000Z</time>
      </trkpt>
      <trkpt lat="45.9489" lon="-1.08808">
        <ele>9.5</ele>
        <time>2014-05-18T10:54:14.000Z</time>
      </trkpt>
      <trkpt lat="45.9489" lon="-1.08823">
        <ele>9.3</ele>
        <time>2014-05-18T10:54:18.000Z</time>
      </trkpt>
      <trkpt lat="45.94891" lon="-1.0884">
        <ele>9.2</ele>
        <time>2014-05-18T10:54:22.000Z</time>
      </trkpt>
      <trkpt lat="45.94891" lon="-1.08854">
        <ele>8.9</ele>
        <time>2014-05-18T10:54:25.000Z</time>
      </trkpt>
      <trkpt lat="45.94891" lon="-1.08867">
        <ele>8.2</ele>
        <time>2014-05-18T10:54:28.000Z</time>
      </trkpt>
      <trkpt lat="45.94892" lon="-1.08884">
        <ele>7.9</ele>
        <time>2014-05-18T10:54:32.000Z</time>
      </trkpt>
      <trkpt lat="45.94891" lon="-1.08898">
        <ele>7.4</ele>
        <time>2014-05-18T10:54:35.000Z</time>
      </trkpt>
      <trkpt lat="45.94891" lon="-1.08911">
        <ele>7.1</ele>
        <time>2014-05-18T10:54:38.000Z</time>
      </trkpt>
      <trkpt lat="45.9489" lon="-1.08926">
        <ele>7</ele>
        <time>2014-05-18T10:54:42.000Z</time>
      </trkpt>
      <trkpt lat="45.94889" lon="-1.0894">
        <ele>6.5</ele>
        <time>2014-05-18T10:54:45.000Z</time>
      </trkpt>
      <trkpt lat="45.94888" lon="-1.08955">
        <ele>6.4</ele>
        <time>2014-05-18T10:54:48.000Z</time>
      </trkpt>
      <trkpt lat="45.94885" lon="-1.08982">
        <ele>5.9</ele>
        <time>2014-05-18T10:54:54.000Z</time>
      </trkpt>
      <trkpt lat="45.94884" lon="-1.08996">
        <ele>5.8</ele>
        <time>2014-05-18T10:54:57.000Z</time>
      </trkpt>
      <trkpt lat="45.94883" lon="-1.09011">
        <ele>5.4</ele>
        <time>2014-05-18T10:55:00.000Z</time>
      </trkpt>
      <trkpt lat="45.94883" lon="-1.09026">
        <ele>5.4</ele>
        <time>2014-05-18T10:55:03.000Z</time>
      </trkpt>
      <trkpt lat="45.94881" lon="-1.09039">
        <ele>5.4</ele>
        <time>2014-05-18T10:55:06.000Z</time>
      </trkpt>
      <trkpt lat="45.94881" lon="-1.09054">
        <ele>5.3</ele>
        <time>2014-05-18T10:55:10.000Z</time>
      </trkpt>
      <trkpt lat="45.9488" lon="-1.09071">
        <ele>4.9</ele>
        <time>2014-05-18T10:55:14.000Z</time>
      </trkpt>
      <trkpt lat="45.94879" lon="-1.09085">
        <ele>4.4</ele>
        <time>2014-05-18T10:55:17.000Z</time>
      </trkpt>
      <trkpt lat="45.9488" lon="-1.091">
        <ele>4.5</ele>
        <time>2014-05-18T10:55:20.000Z</time>
      </trkpt>
      <trkpt lat="45.94879" lon="-1.09117">
        <ele>4.6</ele>
        <time>2014-05-18T10:55:23.000Z</time>
      </trkpt>
      <trkpt lat="45.9488" lon="-1.09131">
        <ele>4.4</ele>
        <time>2014-05-18T10:55:26.000Z</time>
      </trkpt>
      <trkpt lat="45.9488" lon="-1.09146">
        <ele>4.2</ele>
        <time>2014-05-18T10:55:30.000Z</time>
      </trkpt>
      <trkpt lat="45.94878" lon="-1.09159">
        <ele>4.2</ele>
        <time>2014-05-18T10:55:33.000Z</time>
      </trkpt>
      <trkpt lat="45.94876" lon="-1.09177">
        <ele>4</ele>
        <time>2014-05-18T10:55:36.000Z</time>
      </trkpt>
      <trkpt lat="45.94873" lon="-1.0919">
        <ele>3.7</ele>
        <time>2014-05-18T10:55:38.000Z</time>
      </trkpt>
      <trkpt lat="45.94872" lon="-1.09204">
        <ele>3.7</ele>
        <time>2014-05-18T10:55:40.000Z</time>
      </trkpt>
      <trkpt lat="45.94872" lon="-1.09219">
        <ele>3.3</ele>
        <time>2014-05-18T10:55:42.000Z</time>
      </trkpt>
      <trkpt lat="45.94871" lon="-1.09234">
        <ele>3.1</ele>
        <time>2014-05-18T10:55:44.000Z</time>
      </trkpt>
      <trkpt lat="45.94869" lon="-1.0925">
        <ele>2.9</ele>
        <time>2014-05-18T10:55:46.000Z</time>
      </trkpt>
      <trkpt lat="45.94868" lon="-1.09265">
        <ele>3.2</ele>
        <time>2014-05-18T10:55:48.000Z</time>
      </trkpt>
      <trkpt lat="45.94867" lon="-1.0928">
        <ele>3.2</ele>
        <time>2014-05-18T10:55:50.000Z</time>
      </trkpt>
      <trkpt lat="45.94865" lon="-1.0931">
        <ele>3.1</ele>
        <time>2014-05-18T10:55:55.000Z</time>
      </trkpt>
      <trkpt lat="45.94865" lon="-1.09326">
        <ele>3.2</ele>
        <time>2014-05-18T10:55:58.000Z</time>
      </trkpt>
      <trkpt lat="45.94864" lon="-1.09341">
        <ele>3.1</ele>
        <time>2014-05-18T10:56:01.000Z</time>
      </trkpt>
      <trkpt lat="45.94863" lon="-1.09356">
        <ele>3.1</ele>
        <time>2014-05-18T10:56:04.000Z</time>
      </trkpt>
      <trkpt lat="45.94864" lon="-1.09372">
        <ele>3.2</ele>
        <time>2014-05-18T10:56:07.000Z</time>
      </trkpt>
      <trkpt lat="45.94864" lon="-1.09388">
        <ele>3.2</ele>
        <time>2014-05-18T10:56:10.000Z</time>
      </trkpt>
      <trkpt lat="45.94863" lon="-1.09402">
        <ele>3.2</ele>
        <time>2014-05-18T10:56:13.000Z</time>
      </trkpt>
      <trkpt lat="45.94863" lon="-1.09417">
        <ele>3</ele>
        <time>2014-05-18T10:56:16.000Z</time>
      </trkpt>
      <trkpt lat="45.94863" lon="-1.09431">
        <ele>2.8</ele>
        <time>2014-05-18T10:56:19.000Z</time>
      </trkpt>
      <trkpt lat="45.94865" lon="-1.09444">
        <ele>2.7</ele>
        <time>2014-05-18T10:56:22.000Z</time>
      </trkpt>
      <trkpt lat="45.94867" lon="-1.0946">
        <ele>2.8</ele>
        <time>2014-05-18T10:56:26.000Z</time>
      </trkpt>
      <trkpt lat="45.9487" lon="-1.09472">
        <ele>3</ele>
        <time>2014-05-18T10:56:30.000Z</time>
      </trkpt>
      <trkpt lat="45.94874" lon="-1.09487">
        <ele>3.4</ele>
        <time>2014-05-18T10:56:35.000Z</time>
      </trkpt>
      <trkpt lat="45.94879" lon="-1.09499">
        <ele>3.4</ele>
        <time>2014-05-18T10:56:39.000Z</time>
      </trkpt>
      <trkpt lat="45.94881" lon="-1.09512">
        <ele>3.6</ele>
        <time>2014-05-18T10:56:45.000Z</time>
      </trkpt>
      <trkpt lat="45.9489" lon="-1.09513">
        <ele>3.2</ele>
        <time>2014-05-18T10:56:51.000Z</time>
      </trkpt>
      <trkpt lat="45.94892" lon="-1.09527">
        <ele>3</ele>
        <time>2014-05-18T10:56:57.000Z</time>
      </trkpt>
      <trkpt lat="45.94875" lon="-1.09543">
        <ele>3.9</ele>
        <time>2014-05-18T10:57:07.000Z</time>
      </trkpt>
      <trkpt lat="45.94864" lon="-1.09551">
        <ele>3.7</ele>
        <time>2014-05-18T10:57:11.000Z</time>
      </trkpt>
      <trkpt lat="45.94855" lon="-1.09561">
        <ele>3.6</ele>
        <time>2014-05-18T10:57:15.000Z</time>
      </trkpt>
      <trkpt lat="45.94848" lon="-1.09575">
        <ele>3.5</ele>
        <time>2014-05-18T10:57:19.000Z</time>
      </trkpt>
      <trkpt lat="45.94843" lon="-1.09586">
        <ele>3.1</ele>
        <time>2014-05-18T10:57:22.000Z</time>
      </trkpt>
      <trkpt lat="45.94837" lon="-1.096">
        <ele>3.1</ele>
        <time>2014-05-18T10:57:26.000Z</time>
      </trkpt>
      <trkpt lat="45.94834" lon="-1.09614">
        <ele>3.1</ele>
        <time>2014-05-18T10:57:30.000Z</time>
      </trkpt>
      <trkpt lat="45.94837" lon="-1.09625">
        <ele>2.9</ele>
        <time>2014-05-18T10:57:34.000Z</time>
      </trkpt>
      <trkpt lat="45.94847" lon="-1.09633">
        <ele>3.4</ele>
        <time>2014-05-18T10:57:38.000Z</time>
      </trkpt>
      <trkpt lat="45.94857" lon="-1.09641">
        <ele>3.5</ele>
        <time>2014-05-18T10:57:42.000Z</time>
      </trkpt>
      <trkpt lat="45.94866" lon="-1.09649">
        <ele>3.9</ele>
        <time>2014-05-18T10:57:46.000Z</time>
      </trkpt>
      <trkpt lat="45.94875" lon="-1.09658">
        <ele>4.1</ele>
        <time>2014-05-18T10:57:51.000Z</time>
      </trkpt>
      <trkpt lat="45.94873" lon="-1.09672">
        <ele>4.8</ele>
        <time>2014-05-18T10:57:57.000Z</time>
      </trkpt>
      <trkpt lat="45.94862" lon="-1.09673">
        <ele>5</ele>
        <time>2014-05-18T10:58:04.000Z</time>
      </trkpt>
      <trkpt lat="45.94845" lon="-1.09683">
        <ele>5.4</ele>
        <time>2014-05-18T10:58:14.000Z</time>
      </trkpt>
      <trkpt lat="45.94839" lon="-1.09685">
        <ele>5.2</ele>
        <time>2014-05-18T10:59:36.000Z</time>
      </trkpt>
      <trkpt lat="45.94865" lon="-1.09678">
        <ele>13.3</ele>
        <time>2014-05-18T12:19:00.000Z</time>
      </trkpt>
      <trkpt lat="45.94865" lon="-1.09678">
        <ele>13.3</ele>
        <time>2014-05-18T12:19:00.000Z</time>
      </trkpt>
      <trkpt lat="45.94875" lon="-1.09675">
        <ele>12.8</ele>
        <time>2014-05-18T12:19:04.000Z</time>
      </trkpt>
      <trkpt lat="45.94885" lon="-1.09674">
        <ele>12.8</ele>
        <time>2014-05-18T12:19:08.000Z</time>
      </trkpt>
      <trkpt lat="45.94896" lon="-1.09673">
        <ele>13</ele>
        <time>2014-05-18T12:19:13.000Z</time>
      </trkpt>
      <trkpt lat="45.94905" lon="-1.09668">
        <ele>13.1</ele>
        <time>2014-05-18T12:19:18.000Z</time>
      </trkpt>
      <trkpt lat="45.94912" lon="-1.09658">
        <ele>13.2</ele>
        <time>2014-05-18T12:19:23.000Z</time>
      </trkpt>
      <trkpt lat="45.94916" lon="-1.09644">
        <ele>13.3</ele>
        <time>2014-05-18T12:19:28.000Z</time>
      </trkpt>
      <trkpt lat="45.94919" lon="-1.0963">
        <ele>13.4</ele>
        <time>2014-05-18T12:19:33.000Z</time>
      </trkpt>
      <trkpt lat="45.9492" lon="-1.09616">
        <ele>13.4</ele>
        <time>2014-05-18T12:19:38.000Z</time>
      </trkpt>
      <trkpt lat="45.94923" lon="-1.09603">
        <ele>13.1</ele>
        <time>2014-05-18T12:19:43.000Z</time>
      </trkpt>
      <trkpt lat="45.94926" lon="-1.09588">
        <ele>12.9</ele>
        <time>2014-05-18T12:19:47.000Z</time>
      </trkpt>
      <trkpt lat="45.94928" lon="-1.09575">
        <ele>12.9</ele>
        <time>2014-05-18T12:19:50.000Z</time>
      </trkpt>
      <trkpt lat="45.94931" lon="-1.09559">
        <ele>12.3</ele>
        <time>2014-05-18T12:19:54.000Z</time>
      </trkpt>
      <trkpt lat="45.94936" lon="-1.09532">
        <ele>12.6</ele>
        <time>2014-05-18T12:20:01.000Z</time>
      </trkpt>
      <trkpt lat="45.94934" lon="-1.0952">
        <ele>12.4</ele>
        <time>2014-05-18T12:20:07.000Z</time>
      </trkpt>
      <trkpt lat="45.94931" lon="-1.09506">
        <ele>11.6</ele>
        <time>2014-05-18T12:20:13.000Z</time>
      </trkpt>
      <trkpt lat="45.94936" lon="-1.09492">
        <ele>11.4</ele>
        <time>2014-05-18T12:20:18.000Z</time>
      </trkpt>
      <trkpt lat="45.94941" lon="-1.0948">
        <ele>11.1</ele>
        <time>2014-05-18T12:20:23.000Z</time>
      </trkpt>
      <trkpt lat="45.94947" lon="-1.09468">
        <ele>10.6</ele>
        <time>2014-05-18T12:20:29.000Z</time>
      </trkpt>
      <trkpt lat="45.94955" lon="-1.0946">
        <ele>10.4</ele>
        <time>2014-05-18T12:20:35.000Z</time>
      </trkpt>
      <trkpt lat="45.94965" lon="-1.09457">
        <ele>10.6</ele>
        <time>2014-05-18T12:20:40.000Z</time>
      </trkpt>
      <trkpt lat="45.94974" lon="-1.09461">
        <ele>10.5</ele>
        <time>2014-05-18T12:20:45.000Z</time>
      </trkpt>
      <trkpt lat="45.94982" lon="-1.09469">
        <ele>10.2</ele>
        <time>2014-05-18T12:20:50.000Z</time>
      </trkpt>
      <trkpt lat="45.94992" lon="-1.09473">
        <ele>10.3</ele>
        <time>2014-05-18T12:20:55.000Z</time>
      </trkpt>
      <trkpt lat="45.95012" lon="-1.09485">
        <ele>10.8</ele>
        <time>2014-05-18T12:21:05.000Z</time>
      </trkpt>
      <trkpt lat="45.9502" lon="-1.09491">
        <ele>10.4</ele>
        <time>2014-05-18T12:21:09.000Z</time>
      </trkpt>
      <trkpt lat="45.95028" lon="-1.09498">
        <ele>10.4</ele>
        <time>2014-05-18T12:21:13.000Z</time>
      </trkpt>
      <trkpt lat="45.95036" lon="-1.09505">
        <ele>10.5</ele>
        <time>2014-05-18T12:21:17.000Z</time>
      </trkpt>
      <trkpt lat="45.95044" lon="-1.09513">
        <ele>10.4</ele>
        <time>2014-05-18T12:21:21.000Z</time>
      </trkpt>
      <trkpt lat="45.95053" lon="-1.09522">
        <ele>10.4</ele>
        <time>2014-05-18T12:21:27.000Z</time>
      </trkpt>
      <trkpt lat="45.9506" lon="-1.0953">
        <ele>10.7</ele>
        <time>2014-05-18T12:21:31.000Z</time>
      </trkpt>
      <trkpt lat="45.95067" lon="-1.0954">
        <ele>10.4</ele>
        <time>2014-05-18T12:21:35.000Z</time>
      </trkpt>
      <trkpt lat="45.95075" lon="-1.0955">
        <ele>10.6</ele>
        <time>2014-05-18T12:21:39.000Z</time>
      </trkpt>
      <trkpt lat="45.95081" lon="-1.09561">
        <ele>10.4</ele>
        <time>2014-05-18T12:21:43.000Z</time>
      </trkpt>
      <trkpt lat="45.95088" lon="-1.09571">
        <ele>10.5</ele>
        <time>2014-05-18T12:21:47.000Z</time>
      </trkpt>
      <trkpt lat="45.95095" lon="-1.09581">
        <ele>10.4</ele>
        <time>2014-05-18T12:21:51.000Z</time>
      </trkpt>
      <trkpt lat="45.95102" lon="-1.09592">
        <ele>10.4</ele>
        <time>2014-05-18T12:21:55.000Z</time>
      </trkpt>
      <trkpt lat="45.95108" lon="-1.09603">
        <ele>10.2</ele>
        <time>2014-05-18T12:21:59.000Z</time>
      </trkpt>
      <trkpt lat="45.95118" lon="-1.09628">
        <ele>10.3</ele>
        <time>2014-05-18T12:22:07.000Z</time>
      </trkpt>
      <trkpt lat="45.95124" lon="-1.09638">
        <ele>10.1</ele>
        <time>2014-05-18T12:22:11.000Z</time>
      </trkpt>
      <trkpt lat="45.9513" lon="-1.09649">
        <ele>10.4</ele>
        <time>2014-05-18T12:22:15.000Z</time>
      </trkpt>
      <trkpt lat="45.95135" lon="-1.09659">
        <ele>10.2</ele>
        <time>2014-05-18T12:22:19.000Z</time>
      </trkpt>
      <trkpt lat="45.95142" lon="-1.09671">
        <ele>10.1</ele>
        <time>2014-05-18T12:22:24.000Z</time>
      </trkpt>
      <trkpt lat="45.95148" lon="-1.09681">
        <ele>10</ele>
        <time>2014-05-18T12:22:29.000Z</time>
      </trkpt>
      <trkpt lat="45.95154" lon="-1.09692">
        <ele>10.2</ele>
        <time>2014-05-18T12:22:34.000Z</time>
      </trkpt>
      <trkpt lat="45.9516" lon="-1.09704">
        <ele>10.2</ele>
        <time>2014-05-18T12:22:39.000Z</time>
      </trkpt>
      <trkpt lat="45.95164" lon="-1.09716">
        <ele>10.6</ele>
        <time>2014-05-18T12:22:43.000Z</time>
      </trkpt>
      <trkpt lat="45.95166" lon="-1.09729">
        <ele>10.4</ele>
        <time>2014-05-18T12:22:47.000Z</time>
      </trkpt>
      <trkpt lat="45.95172" lon="-1.09742">
        <ele>10.5</ele>
        <time>2014-05-18T12:22:52.000Z</time>
      </trkpt>
      <trkpt lat="45.95177" lon="-1.09753">
        <ele>10.6</ele>
        <time>2014-05-18T12:22:56.000Z</time>
      </trkpt>
      <trkpt lat="45.95181" lon="-1.09766">
        <ele>10.4</ele>
        <time>2014-05-18T12:23:00.000Z</time>
      </trkpt>
      <trkpt lat="45.95192" lon="-1.09788">
        <ele>10.3</ele>
        <time>2014-05-18T12:23:08.000Z</time>
      </trkpt>
      <trkpt lat="45.95195" lon="-1.09801">
        <ele>10.7</ele>
        <time>2014-05-18T12:23:12.000Z</time>
      </trkpt>
      <trkpt lat="45.952" lon="-1.09816">
        <ele>10.2</ele>
        <time>2014-05-18T12:23:17.000Z</time>
      </trkpt>
      <trkpt lat="45.95205" lon="-1.0983">
        <ele>10.9</ele>
        <time>2014-05-18T12:23:22.000Z</time>
      </trkpt>
      <trkpt lat="45.95209" lon="-1.09842">
        <ele>10.6</ele>
        <time>2014-05-18T12:23:26.000Z</time>
      </trkpt>
      <trkpt lat="45.95213" lon="-1.09856">
        <ele>10.2</ele>
        <time>2014-05-18T12:23:31.000Z</time>
      </trkpt>
      <trkpt lat="45.95217" lon="-1.09871">
        <ele>10.3</ele>
        <time>2014-05-18T12:23:36.000Z</time>
      </trkpt>
      <trkpt lat="45.95224" lon="-1.09884">
        <ele>10.4</ele>
        <time>2014-05-18T12:23:41.000Z</time>
      </trkpt>
      <trkpt lat="45.9523" lon="-1.09894">
        <ele>10.4</ele>
        <time>2014-05-18T12:23:45.000Z</time>
      </trkpt>
      <trkpt lat="45.95233" lon="-1.09909">
        <ele>10.7</ele>
        <time>2014-05-18T12:23:50.000Z</time>
      </trkpt>
      <trkpt lat="45.95235" lon="-1.09925">
        <ele>10.5</ele>
        <time>2014-05-18T12:23:55.000Z</time>
      </trkpt>
      <trkpt lat="45.95237" lon="-1.0994">
        <ele>10.5</ele>
        <time>2014-05-18T12:24:00.000Z</time>
      </trkpt>
      <trkpt lat="45.95241" lon="-1.09952">
        <ele>10.4</ele>
        <time>2014-05-18T12:24:05.000Z</time>
      </trkpt>
      <trkpt lat="45.9525" lon="-1.09976">
        <ele>10</ele>
        <time>2014-05-18T12:24:18.000Z</time>
      </trkpt>
      <trkpt lat="45.95254" lon="-1.09989">
        <ele>10.1</ele>
        <time>2014-05-18T12:24:23.000Z</time>
      </trkpt>
      <trkpt lat="45.95258" lon="-1.10002">
        <ele>10</ele>
        <time>2014-05-18T12:24:28.000Z</time>
      </trkpt>
      <trkpt lat="45.95261" lon="-1.10015">
        <ele>10</ele>
        <time>2014-05-18T12:24:33.000Z</time>
      </trkpt>
      <trkpt lat="45.95264" lon="-1.10029">
        <ele>10.4</ele>
        <time>2014-05-18T12:24:38.000Z</time>
      </trkpt>
      <trkpt lat="45.95268" lon="-1.10043">
        <ele>10.2</ele>
        <time>2014-05-18T12:24:43.000Z</time>
      </trkpt>
      <trkpt lat="45.9527" lon="-1.10058">
        <ele>10.2</ele>
        <time>2014-05-18T12:24:48.000Z</time>
      </trkpt>
      <trkpt lat="45.95274" lon="-1.1007">
        <ele>10.4</ele>
        <time>2014-05-18T12:24:52.000Z</time>
      </trkpt>
      <trkpt lat="45.95278" lon="-1.10082">
        <ele>10.3</ele>
        <time>2014-05-18T12:24:56.000Z</time>
      </trkpt>
      <trkpt lat="45.95283" lon="-1.10094">
        <ele>10.5</ele>
        <time>2014-05-18T12:25:00.000Z</time>
      </trkpt>
      <trkpt lat="45.95288" lon="-1.10107">
        <ele>10.7</ele>
        <time>2014-05-18T12:25:04.000Z</time>
      </trkpt>
      <trkpt lat="45.95291" lon="-1.1012">
        <ele>10.6</ele>
        <time>2014-05-18T12:25:08.000Z</time>
      </trkpt>
      <trkpt lat="45.95301" lon="-1.10146">
        <ele>10.9</ele>
        <time>2014-05-18T12:25:16.000Z</time>
      </trkpt>
      <trkpt lat="45.95305" lon="-1.10158">
        <ele>10.9</ele>
        <time>2014-05-18T12:25:20.000Z</time>
      </trkpt>
      <trkpt lat="45.95313" lon="-1.1017">
        <ele>11</ele>
        <time>2014-05-18T12:25:24.000Z</time>
      </trkpt>
      <trkpt lat="45.95318" lon="-1.10181">
        <ele>10.5</ele>
        <time>2014-05-18T12:25:28.000Z</time>
      </trkpt>
      <trkpt lat="45.95325" lon="-1.10192">
        <ele>10.3</ele>
        <time>2014-05-18T12:25:33.000Z</time>
      </trkpt>
      <trkpt lat="45.95331" lon="-1.10203">
        <ele>10.5</ele>
        <time>2014-05-18T12:25:38.000Z</time>
      </trkpt>
      <trkpt lat="45.95337" lon="-1.10214">
        <ele>10.5</ele>
        <time>2014-05-18T12:25:52.000Z</time>
      </trkpt>
      <trkpt lat="45.95342" lon="-1.10225">
        <ele>10.8</ele>
        <time>2014-05-18T12:25:56.000Z</time>
      </trkpt>
      <trkpt lat="45.95347" lon="-1.10237">
        <ele>10.4</ele>
        <time>2014-05-18T12:26:00.000Z</time>
      </trkpt>
      <trkpt lat="45.95351" lon="-1.1025">
        <ele>11.4</ele>
        <time>2014-05-18T12:26:04.000Z</time>
      </trkpt>
      <trkpt lat="45.95355" lon="-1.10264">
        <ele>11.2</ele>
        <time>2014-05-18T12:26:08.000Z</time>
      </trkpt>
      <trkpt lat="45.95358" lon="-1.10277">
        <ele>11.1</ele>
        <time>2014-05-18T12:26:12.000Z</time>
      </trkpt>
      <trkpt lat="45.95361" lon="-1.1031">
        <ele>10.8</ele>
        <time>2014-05-18T12:26:20.000Z</time>
      </trkpt>
      <trkpt lat="45.95364" lon="-1.10323">
        <ele>10.9</ele>
        <time>2014-05-18T12:26:24.000Z</time>
      </trkpt>
      <trkpt lat="45.95369" lon="-1.10335">
        <ele>11.2</ele>
        <time>2014-05-18T12:26:28.000Z</time>
      </trkpt>
      <trkpt lat="45.95373" lon="-1.10347">
        <ele>11.1</ele>
        <time>2014-05-18T12:26:32.000Z</time>
      </trkpt>
      <trkpt lat="45.95375" lon="-1.10361">
        <ele>11.1</ele>
        <time>2014-05-18T12:26:37.000Z</time>
      </trkpt>
      <trkpt lat="45.95374" lon="-1.10376">
        <ele>11</ele>
        <time>2014-05-18T12:26:42.000Z</time>
      </trkpt>
      <trkpt lat="45.95377" lon="-1.1039">
        <ele>11.3</ele>
        <time>2014-05-18T12:26:46.000Z</time>
      </trkpt>
      <trkpt lat="45.95381" lon="-1.10404">
        <ele>11.1</ele>
        <time>2014-05-18T12:26:50.000Z</time>
      </trkpt>
      <trkpt lat="45.95382" lon="-1.10419">
        <ele>11.3</ele>
        <time>2014-05-18T12:26:54.000Z</time>
      </trkpt>
      <trkpt lat="45.95384" lon="-1.10433">
        <ele>11.1</ele>
        <time>2014-05-18T12:26:58.000Z</time>
      </trkpt>
      <trkpt lat="45.95386" lon="-1.10446">
        <ele>11.1</ele>
        <time>2014-05-18T12:27:04.000Z</time>
      </trkpt>
      <trkpt lat="45.95386" lon="-1.1046">
        <ele>11</ele>
        <time>2014-05-18T12:27:10.000Z</time>
      </trkpt>
      <trkpt lat="45.95386" lon="-1.10474">
        <ele>11</ele>
        <time>2014-05-18T12:27:16.000Z</time>
      </trkpt>
      <trkpt lat="45.95393" lon="-1.10504">
        <ele>11</ele>
        <time>2014-05-18T12:27:26.000Z</time>
      </trkpt>
      <trkpt lat="45.95396" lon="-1.10518">
        <ele>11.5</ele>
        <time>2014-05-18T12:27:30.000Z</time>
      </trkpt>
      <trkpt lat="45.954" lon="-1.10532">
        <ele>12.3</ele>
        <time>2014-05-18T12:27:34.000Z</time>
      </trkpt>
      <trkpt lat="45.95403" lon="-1.10547">
        <ele>12.7</ele>
        <time>2014-05-18T12:27:39.000Z</time>
      </trkpt>
      <trkpt lat="45.95406" lon="-1.10559">
        <ele>12.8</ele>
        <time>2014-05-18T12:27:46.000Z</time>
      </trkpt>
      <trkpt lat="45.95415" lon="-1.10567">
        <ele>12.4</ele>
        <time>2014-05-18T12:33:55.000Z</time>
      </trkpt>
      <trkpt lat="45.9543" lon="-1.10586">
        <ele>12.4</ele>
        <time>2014-05-18T12:34:06.000Z</time>
      </trkpt>
      <trkpt lat="45.95437" lon="-1.10594">
        <ele>12.3</ele>
        <time>2014-05-18T12:34:10.000Z</time>
      </trkpt>
      <trkpt lat="45.95444" lon="-1.10606">
        <ele>12.1</ele>
        <time>2014-05-18T12:34:14.000Z</time>
      </trkpt>
      <trkpt lat="45.95451" lon="-1.10614">
        <ele>12.2</ele>
        <time>2014-05-18T12:34:18.000Z</time>
      </trkpt>
      <trkpt lat="45.9546" lon="-1.10623">
        <ele>12.5</ele>
        <time>2014-05-18T12:34:23.000Z</time>
      </trkpt>
      <trkpt lat="45.95468" lon="-1.10629">
        <ele>11.8</ele>
        <time>2014-05-18T12:34:27.000Z</time>
      </trkpt>
      <trkpt lat="45.95476" lon="-1.10637">
        <ele>11.7</ele>
        <time>2014-05-18T12:34:31.000Z</time>
      </trkpt>
      <trkpt lat="45.95485" lon="-1.10645">
        <ele>11.9</ele>
        <time>2014-05-18T12:34:35.000Z</time>
      </trkpt>
      <trkpt lat="45.95494" lon="-1.10654">
        <ele>11.9</ele>
        <time>2014-05-18T12:34:39.000Z</time>
      </trkpt>
      <trkpt lat="45.95504" lon="-1.10661">
        <ele>12.2</ele>
        <time>2014-05-18T12:34:43.000Z</time>
      </trkpt>
      <trkpt lat="45.95512" lon="-1.10668">
        <ele>12.1</ele>
        <time>2014-05-18T12:34:46.000Z</time>
      </trkpt>
      <trkpt lat="45.9552" lon="-1.10674">
        <ele>12.1</ele>
        <time>2014-05-18T12:34:49.000Z</time>
      </trkpt>
      <trkpt lat="45.95528" lon="-1.10681">
        <ele>12</ele>
        <time>2014-05-18T12:34:52.000Z</time>
      </trkpt>
      <trkpt lat="45.95537" lon="-1.10687">
        <ele>12.2</ele>
        <time>2014-05-18T12:34:55.000Z</time>
      </trkpt>
      <trkpt lat="45.95545" lon="-1.10694">
        <ele>12.1</ele>
        <time>2014-05-18T12:34:58.000Z</time>
      </trkpt>
      <trkpt lat="45.95565" lon="-1.10709">
        <ele>12.3</ele>
        <time>2014-05-18T12:35:06.000Z</time>
      </trkpt>
      <trkpt lat="45.95573" lon="-1.10715">
        <ele>12.1</ele>
        <time>2014-05-18T12:35:10.000Z</time>
      </trkpt>
      <trkpt lat="45.95582" lon="-1.10722">
        <ele>12.2</ele>
        <time>2014-05-18T12:35:14.000Z</time>
      </trkpt>
      <trkpt lat="45.9559" lon="-1.1073">
        <ele>12.3</ele>
        <time>2014-05-18T12:35:18.000Z</time>
      </trkpt>
      <trkpt lat="45.95598" lon="-1.10737">
        <ele>12.4</ele>
        <time>2014-05-18T12:35:22.000Z</time>
      </trkpt>
      <trkpt lat="45.95606" lon="-1.10746">
        <ele>12.5</ele>
        <time>2014-05-18T12:35:26.000Z</time>
      </trkpt>
      <trkpt lat="45.95615" lon="-1.10757">
        <ele>12.9</ele>
        <time>2014-05-18T12:35:30.000Z</time>
      </trkpt>
      <trkpt lat="45.95624" lon="-1.10767">
        <ele>12.5</ele>
        <time>2014-05-18T12:35:34.000Z</time>
      </trkpt>
      <trkpt lat="45.95633" lon="-1.10778">
        <ele>12.6</ele>
        <time>2014-05-18T12:35:38.000Z</time>
      </trkpt>
      <trkpt lat="45.95642" lon="-1.10789">
        <ele>12.6</ele>
        <time>2014-05-18T12:35:42.000Z</time>
      </trkpt>
      <trkpt lat="45.9565" lon="-1.10797">
        <ele>12.3</ele>
        <time>2014-05-18T12:35:45.000Z</time>
      </trkpt>
      <trkpt lat="45.95657" lon="-1.10805">
        <ele>12.1</ele>
        <time>2014-05-18T12:35:48.000Z</time>
      </trkpt>
      <trkpt lat="45.95666" lon="-1.10816">
        <ele>12.2</ele>
        <time>2014-05-18T12:35:52.000Z</time>
      </trkpt>
      <trkpt lat="45.95674" lon="-1.10823">
        <ele>12.4</ele>
        <time>2014-05-18T12:35:55.000Z</time>
      </trkpt>
      <trkpt lat="45.95684" lon="-1.10832">
        <ele>12.2</ele>
        <time>2014-05-18T12:35:59.000Z</time>
      </trkpt>
      <trkpt lat="45.957" lon="-1.10844">
        <ele>11.9</ele>
        <time>2014-05-18T12:36:05.000Z</time>
      </trkpt>
      <trkpt lat="45.95711" lon="-1.1085">
        <ele>12.1</ele>
        <time>2014-05-18T12:36:09.000Z</time>
      </trkpt>
      <trkpt lat="45.95721" lon="-1.10857">
        <ele>12.2</ele>
        <time>2014-05-18T12:36:13.000Z</time>
      </trkpt>
      <trkpt lat="45.95731" lon="-1.10863">
        <ele>12.4</ele>
        <time>2014-05-18T12:36:17.000Z</time>
      </trkpt>
      <trkpt lat="45.95741" lon="-1.10869">
        <ele>12.2</ele>
        <time>2014-05-18T12:36:21.000Z</time>
      </trkpt>
      <trkpt lat="45.95751" lon="-1.10876">
        <ele>12.2</ele>
        <time>2014-05-18T12:36:25.000Z</time>
      </trkpt>
      <trkpt lat="45.95762" lon="-1.10882">
        <ele>12.3</ele>
        <time>2014-05-18T12:36:29.000Z</time>
      </trkpt>
      <trkpt lat="45.95771" lon="-1.10887">
        <ele>12.4</ele>
        <time>2014-05-18T12:36:33.000Z</time>
      </trkpt>
      <trkpt lat="45.95781" lon="-1.10893">
        <ele>12.4</ele>
        <time>2014-05-18T12:36:37.000Z</time>
      </trkpt>
      <trkpt lat="45.95791" lon="-1.10899">
        <ele>12.5</ele>
        <time>2014-05-18T12:36:41.000Z</time>
      </trkpt>
      <trkpt lat="45.958" lon="-1.10904">
        <ele>12.3</ele>
        <time>2014-05-18T12:36:45.000Z</time>
      </trkpt>
      <trkpt lat="45.95808" lon="-1.1091">
        <ele>12.1</ele>
        <time>2014-05-18T12:36:49.000Z</time>
      </trkpt>
      <trkpt lat="45.95817" lon="-1.10918">
        <ele>12.3</ele>
        <time>2014-05-18T12:36:54.000Z</time>
      </trkpt>
      <trkpt lat="45.95823" lon="-1.10929">
        <ele>12</ele>
        <time>2014-05-18T12:36:59.000Z</time>
      </trkpt>
      <trkpt lat="45.95827" lon="-1.10942">
        <ele>11.9</ele>
        <time>2014-05-18T12:37:22.000Z</time>
      </trkpt>
      <trkpt lat="45.95827" lon="-1.10972">
        <ele>12</ele>
        <time>2014-05-18T12:37:32.000Z</time>
      </trkpt>
      <trkpt lat="45.95826" lon="-1.10988">
        <ele>11.9</ele>
        <time>2014-05-18T12:37:37.000Z</time>
      </trkpt>
      <trkpt lat="45.95826" lon="-1.11004">
        <ele>12.1</ele>
        <time>2014-05-18T12:37:42.000Z</time>
      </trkpt>
      <trkpt lat="45.95825" lon="-1.11018">
        <ele>12.3</ele>
        <time>2014-05-18T12:37:46.000Z</time>
      </trkpt>
      <trkpt lat="45.95823" lon="-1.11033">
        <ele>12.4</ele>
        <time>2014-05-18T12:37:50.000Z</time>
      </trkpt>
      <trkpt lat="45.95821" lon="-1.11047">
        <ele>12.4</ele>
        <time>2014-05-18T12:37:53.000Z</time>
      </trkpt>
      <trkpt lat="45.9582" lon="-1.1106">
        <ele>12.2</ele>
        <time>2014-05-18T12:37:56.000Z</time>
      </trkpt>
      <trkpt lat="45.95819" lon="-1.11074">
        <ele>12.4</ele>
        <time>2014-05-18T12:37:59.000Z</time>
      </trkpt>
      <trkpt lat="45.95818" lon="-1.1109">
        <ele>12.5</ele>
        <time>2014-05-18T12:38:03.000Z</time>
      </trkpt>
      <trkpt lat="45.95817" lon="-1.11107">
        <ele>12.7</ele>
        <time>2014-05-18T12:38:07.000Z</time>
      </trkpt>
      <trkpt lat="45.95817" lon="-1.11121">
        <ele>12.7</ele>
        <time>2014-05-18T12:38:10.000Z</time>
      </trkpt>
      <trkpt lat="45.95816" lon="-1.11134">
        <ele>12.8</ele>
        <time>2014-05-18T12:38:13.000Z</time>
      </trkpt>
      <trkpt lat="45.95817" lon="-1.11149">
        <ele>13</ele>
        <time>2014-05-18T12:38:16.000Z</time>
      </trkpt>
      <trkpt lat="45.95816" lon="-1.11164">
        <ele>13.1</ele>
        <time>2014-05-18T12:38:19.000Z</time>
      </trkpt>
      <trkpt lat="45.95814" lon="-1.11179">
        <ele>13.2</ele>
        <time>2014-05-18T12:38:22.000Z</time>
      </trkpt>
      <trkpt lat="45.95813" lon="-1.11194">
        <ele>13.1</ele>
        <time>2014-05-18T12:38:25.000Z</time>
      </trkpt>
      <trkpt lat="45.95812" lon="-1.11221">
        <ele>13</ele>
        <time>2014-05-18T12:38:31.000Z</time>
      </trkpt>
      <trkpt lat="45.95813" lon="-1.11236">
        <ele>13.3</ele>
        <time>2014-05-18T12:38:34.000Z</time>
      </trkpt>
      <trkpt lat="45.95813" lon="-1.11252">
        <ele>13.2</ele>
        <time>2014-05-18T12:38:37.000Z</time>
      </trkpt>
      <trkpt lat="45.95813" lon="-1.11266">
        <ele>13.2</ele>
        <time>2014-05-18T12:38:40.000Z</time>
      </trkpt>
      <trkpt lat="45.95812" lon="-1.1128">
        <ele>13.2</ele>
        <time>2014-05-18T12:38:43.000Z</time>
      </trkpt>
      <trkpt lat="45.95809" lon="-1.11293">
        <ele>13.2</ele>
        <time>2014-05-18T12:38:46.000Z</time>
      </trkpt>
      <trkpt lat="45.95807" lon="-1.11307">
        <ele>13.1</ele>
        <time>2014-05-18T12:38:49.000Z</time>
      </trkpt>
      <trkpt lat="45.95806" lon="-1.1132">
        <ele>13</ele>
        <time>2014-05-18T12:38:52.000Z</time>
      </trkpt>
      <trkpt lat="45.95805" lon="-1.11333">
        <ele>13</ele>
        <time>2014-05-18T12:38:55.000Z</time>
      </trkpt>
      <trkpt lat="45.95804" lon="-1.11346">
        <ele>12.9</ele>
        <time>2014-05-18T12:38:58.000Z</time>
      </trkpt>
      <trkpt lat="45.95803" lon="-1.11359">
        <ele>13.2</ele>
        <time>2014-05-18T12:39:01.000Z</time>
      </trkpt>
      <trkpt lat="45.95802" lon="-1.11372">
        <ele>13.2</ele>
        <time>2014-05-18T12:39:04.000Z</time>
      </trkpt>
      <trkpt lat="45.95801" lon="-1.11386">
        <ele>13.3</ele>
        <time>2014-05-18T12:39:07.000Z</time>
      </trkpt>
      <trkpt lat="45.95803" lon="-1.11398">
        <ele>13.1</ele>
        <time>2014-05-18T12:39:10.000Z</time>
      </trkpt>
      <trkpt lat="45.95806" lon="-1.11411">
        <ele>13.1</ele>
        <time>2014-05-18T12:39:13.000Z</time>
      </trkpt>
      <trkpt lat="45.95811" lon="-1.11427">
        <ele>13.1</ele>
        <time>2014-05-18T12:39:17.000Z</time>
      </trkpt>
      <trkpt lat="45.95815" lon="-1.11438">
        <ele>13.3</ele>
        <time>2014-05-18T12:39:20.000Z</time>
      </trkpt>
      <trkpt lat="45.95821" lon="-1.11453">
        <ele>13.8</ele>
        <time>2014-05-18T12:39:24.000Z</time>
      </trkpt>
      <trkpt lat="45.95826" lon="-1.11466">
        <ele>14.1</ele>
        <time>2014-05-18T12:39:28.000Z</time>
      </trkpt>
      <trkpt lat="45.95835" lon="-1.11494">
        <ele>14.3</ele>
        <time>2014-05-18T12:39:36.000Z</time>
      </trkpt>
      <trkpt lat="45.9584" lon="-1.11507">
        <ele>14.5</ele>
        <time>2014-05-18T12:39:40.000Z</time>
      </trkpt>
      <trkpt lat="45.95845" lon="-1.11519">
        <ele>14.6</ele>
        <time>2014-05-18T12:39:44.000Z</time>
      </trkpt>
      <trkpt lat="45.95853" lon="-1.11526">
        <ele>14.9</ele>
        <time>2014-05-18T12:39:48.000Z</time>
      </trkpt>
      <trkpt lat="45.95864" lon="-1.11524">
        <ele>15.4</ele>
        <time>2014-05-18T12:39:53.000Z</time>
      </trkpt>
      <trkpt lat="45.95873" lon="-1.1152">
        <ele>15.9</ele>
        <time>2014-05-18T12:39:57.000Z</time>
      </trkpt>
      <trkpt lat="45.95883" lon="-1.11514">
        <ele>16.6</ele>
        <time>2014-05-18T12:40:02.000Z</time>
      </trkpt>
      <trkpt lat="45.95893" lon="-1.11508">
        <ele>16.9</ele>
        <time>2014-05-18T12:40:07.000Z</time>
      </trkpt>
      <trkpt lat="45.95902" lon="-1.11501">
        <ele>17.9</ele>
        <time>2014-05-18T12:40:12.000Z</time>
      </trkpt>
      <trkpt lat="45.9591" lon="-1.11497">
        <ele>18.1</ele>
        <time>2014-05-18T12:40:17.000Z</time>
      </trkpt>
      <trkpt lat="45.95919" lon="-1.11491">
        <ele>18.7</ele>
        <time>2014-05-18T12:40:22.000Z</time>
      </trkpt>
      <trkpt lat="45.95929" lon="-1.11483">
        <ele>19</ele>
        <time>2014-05-18T12:40:27.000Z</time>
      </trkpt>
      <trkpt lat="45.95939" lon="-1.11477">
        <ele>19</ele>
        <time>2014-05-18T12:40:31.000Z</time>
      </trkpt>
      <trkpt lat="45.95956" lon="-1.11464">
        <ele>19.8</ele>
        <time>2014-05-18T12:40:39.000Z</time>
      </trkpt>
      <trkpt lat="45.95966" lon="-1.11456">
        <ele>20.4</ele>
        <time>2014-05-18T12:40:44.000Z</time>
      </trkpt>
      <trkpt lat="45.95975" lon="-1.11453">
        <ele>20.5</ele>
        <time>2014-05-18T12:40:48.000Z</time>
      </trkpt>
      <trkpt lat="45.95985" lon="-1.11453">
        <ele>20.8</ele>
        <time>2014-05-18T12:40:52.000Z</time>
      </trkpt>
      <trkpt lat="45.95994" lon="-1.11457">
        <ele>21.4</ele>
        <time>2014-05-18T12:40:56.000Z</time>
      </trkpt>
      <trkpt lat="45.96004" lon="-1.11463">
        <ele>21.4</ele>
        <time>2014-05-18T12:41:00.000Z</time>
      </trkpt>
      <trkpt lat="45.96011" lon="-1.11474">
        <ele>21.3</ele>
        <time>2014-05-18T12:41:04.000Z</time>
      </trkpt>
      <trkpt lat="45.96016" lon="-1.11489">
        <ele>21.4</ele>
        <time>2014-05-18T12:41:08.000Z</time>
      </trkpt>
      <trkpt lat="45.96019" lon="-1.11502">
        <ele>21.2</ele>
        <time>2014-05-18T12:41:11.000Z</time>
      </trkpt>
      <trkpt lat="45.96021" lon="-1.11515">
        <ele>21</ele>
        <time>2014-05-18T12:41:14.000Z</time>
      </trkpt>
      <trkpt lat="45.96022" lon="-1.11528">
        <ele>20.8</ele>
        <time>2014-05-18T12:41:17.000Z</time>
      </trkpt>
      <trkpt lat="45.96024" lon="-1.11542">
        <ele>20.9</ele>
        <time>2014-05-18T12:41:21.000Z</time>
      </trkpt>
      <trkpt lat="45.96026" lon="-1.11557">
        <ele>20.8</ele>
        <time>2014-05-18T12:41:25.000Z</time>
      </trkpt>
      <trkpt lat="45.96028" lon="-1.11571">
        <ele>21</ele>
        <time>2014-05-18T12:41:29.000Z</time>
      </trkpt>
      <trkpt lat="45.96029" lon="-1.11586">
        <ele>20.4</ele>
        <time>2014-05-18T12:41:33.000Z</time>
      </trkpt>
      <trkpt lat="45.96032" lon="-1.11618">
        <ele>19.8</ele>
        <time>2014-05-18T12:41:41.000Z</time>
      </trkpt>
      <trkpt lat="45.96034" lon="-1.11635">
        <ele>19.8</ele>
        <time>2014-05-18T12:41:45.000Z</time>
      </trkpt>
      <trkpt lat="45.96037" lon="-1.11647">
        <ele>19.6</ele>
        <time>2014-05-18T12:41:48.000Z</time>
      </trkpt>
      <trkpt lat="45.9604" lon="-1.1166">
        <ele>19.4</ele>
        <time>2014-05-18T12:41:51.000Z</time>
      </trkpt>
      <trkpt lat="45.96044" lon="-1.11675">
        <ele>19.6</ele>
        <time>2014-05-18T12:41:55.000Z</time>
      </trkpt>
      <trkpt lat="45.96046" lon="-1.11687">
        <ele>19.5</ele>
        <time>2014-05-18T12:41:59.000Z</time>
      </trkpt>
      <trkpt lat="45.9605" lon="-1.11701">
        <ele>19</ele>
        <time>2014-05-18T12:42:04.000Z</time>
      </trkpt>
      <trkpt lat="45.96053" lon="-1.11714">
        <ele>19</ele>
        <time>2014-05-18T12:42:08.000Z</time>
      </trkpt>
      <trkpt lat="45.96057" lon="-1.11727">
        <ele>18.8</ele>
        <time>2014-05-18T12:42:12.000Z</time>
      </trkpt>
      <trkpt lat="45.96061" lon="-1.1174">
        <ele>18.5</ele>
        <time>2014-05-18T12:42:16.000Z</time>
      </trkpt>
      <trkpt lat="45.96066" lon="-1.11755">
        <ele>18.1</ele>
        <time>2014-05-18T12:42:20.000Z</time>
      </trkpt>
      <trkpt lat="45.9607" lon="-1.11768">
        <ele>18.1</ele>
        <time>2014-05-18T12:42:24.000Z</time>
      </trkpt>
      <trkpt lat="45.96075" lon="-1.11779">
        <ele>17.8</ele>
        <time>2014-05-18T12:42:28.000Z</time>
      </trkpt>
      <trkpt lat="45.9608" lon="-1.1179">
        <ele>17.4</ele>
        <time>2014-05-18T12:42:32.000Z</time>
      </trkpt>
      <trkpt lat="45.96085" lon="-1.11802">
        <ele>17.1</ele>
        <time>2014-05-18T12:42:36.000Z</time>
      </trkpt>
      <trkpt lat="45.96097" lon="-1.11824">
        <ele>16.7</ele>
        <time>2014-05-18T12:42:47.000Z</time>
      </trkpt>
      <trkpt lat="45.96104" lon="-1.11835">
        <ele>16.7</ele>
        <time>2014-05-18T12:42:51.000Z</time>
      </trkpt>
      <trkpt lat="45.96113" lon="-1.11845">
        <ele>16.3</ele>
        <time>2014-05-18T12:42:55.000Z</time>
      </trkpt>
      <trkpt lat="45.96121" lon="-1.11852">
        <ele>15.9</ele>
        <time>2014-05-18T12:42:59.000Z</time>
      </trkpt>
      <trkpt lat="45.96129" lon="-1.11861">
        <ele>16.3</ele>
        <time>2014-05-18T12:43:04.000Z</time>
      </trkpt>
      <trkpt lat="45.96136" lon="-1.11871">
        <ele>15.9</ele>
        <time>2014-05-18T12:43:09.000Z</time>
      </trkpt>
      <trkpt lat="45.96137" lon="-1.11884">
        <ele>15.7</ele>
        <time>2014-05-18T12:43:34.000Z</time>
      </trkpt>
      <trkpt lat="45.96134" lon="-1.11899">
        <ele>15.3</ele>
        <time>2014-05-18T12:43:42.000Z</time>
      </trkpt>
      <trkpt lat="45.96126" lon="-1.11924">
        <ele>15.1</ele>
        <time>2014-05-18T12:43:50.000Z</time>
      </trkpt>
      <trkpt lat="45.96123" lon="-1.11936">
        <ele>15.4</ele>
        <time>2014-05-18T12:43:54.000Z</time>
      </trkpt>
      <trkpt lat="45.96119" lon="-1.11949">
        <ele>14.8</ele>
        <time>2014-05-18T12:43:58.000Z</time>
      </trkpt>
      <trkpt lat="45.96116" lon="-1.11961">
        <ele>14.7</ele>
        <time>2014-05-18T12:44:02.000Z</time>
      </trkpt>
      <trkpt lat="45.96112" lon="-1.11973">
        <ele>14.8</ele>
        <time>2014-05-18T12:44:06.000Z</time>
      </trkpt>
      <trkpt lat="45.96108" lon="-1.11985">
        <ele>14.6</ele>
        <time>2014-05-18T12:44:10.000Z</time>
      </trkpt>
      <trkpt lat="45.96103" lon="-1.11999">
        <ele>14.6</ele>
        <time>2014-05-18T12:44:15.000Z</time>
      </trkpt>
      <trkpt lat="45.96099" lon="-1.12011">
        <ele>14.5</ele>
        <time>2014-05-18T12:44:20.000Z</time>
      </trkpt>
      <trkpt lat="45.96093" lon="-1.12021">
        <ele>14.4</ele>
        <time>2014-05-18T12:44:28.000Z</time>
      </trkpt>
      <trkpt lat="45.96083" lon="-1.12023">
        <ele>13.4</ele>
        <time>2014-05-18T12:51:55.000Z</time>
      </trkpt>
      <trkpt lat="45.96066" lon="-1.12025">
        <ele>13.1</ele>
        <time>2014-05-18T12:52:04.000Z</time>
      </trkpt>
      <trkpt lat="45.96058" lon="-1.12034">
        <ele>13.2</ele>
        <time>2014-05-18T12:52:09.000Z</time>
      </trkpt>
      <trkpt lat="45.96049" lon="-1.12036">
        <ele>13.4</ele>
        <time>2014-05-18T12:52:14.000Z</time>
      </trkpt>
      <trkpt lat="45.96039" lon="-1.12034">
        <ele>13.6</ele>
        <time>2014-05-18T12:52:19.000Z</time>
      </trkpt>
      <trkpt lat="45.96029" lon="-1.12032">
        <ele>13.6</ele>
        <time>2014-05-18T12:52:24.000Z</time>
      </trkpt>
      <trkpt lat="45.9602" lon="-1.1203">
        <ele>13.7</ele>
        <time>2014-05-18T12:52:30.000Z</time>
      </trkpt>
      <trkpt lat="45.9601" lon="-1.12029">
        <ele>13.3</ele>
        <time>2014-05-18T12:52:35.000Z</time>
      </trkpt>
      <trkpt lat="45.96" lon="-1.12027">
        <ele>13.6</ele>
        <time>2014-05-18T12:52:39.000Z</time>
      </trkpt>
      <trkpt lat="45.95989" lon="-1.12024">
        <ele>13.3</ele>
        <time>2014-05-18T12:52:44.000Z</time>
      </trkpt>
      <trkpt lat="45.9598" lon="-1.12022">
        <ele>13.3</ele>
        <time>2014-05-18T12:52:48.000Z</time>
      </trkpt>
      <trkpt lat="45.95968" lon="-1.1202">
        <ele>13.3</ele>
        <time>2014-05-18T12:52:52.000Z</time>
      </trkpt>
      <trkpt lat="45.95958" lon="-1.12019">
        <ele>13.2</ele>
        <time>2014-05-18T12:52:56.000Z</time>
      </trkpt>
      <trkpt lat="45.95937" lon="-1.12015">
        <ele>13</ele>
        <time>2014-05-18T12:53:04.000Z</time>
      </trkpt>
      <trkpt lat="45.95927" lon="-1.12013">
        <ele>12.9</ele>
        <time>2014-05-18T12:53:08.000Z</time>
      </trkpt>
      <trkpt lat="45.95916" lon="-1.12011">
        <ele>12.8</ele>
        <time>2014-05-18T12:53:12.000Z</time>
      </trkpt>
      <trkpt lat="45.95907" lon="-1.12007">
        <ele>13</ele>
        <time>2014-05-18T12:53:16.000Z</time>
      </trkpt>
      <trkpt lat="45.95897" lon="-1.12004">
        <ele>12.9</ele>
        <time>2014-05-18T12:53:20.000Z</time>
      </trkpt>
      <trkpt lat="45.95887" lon="-1.12001">
        <ele>12.9</ele>
        <time>2014-05-18T12:53:24.000Z</time>
      </trkpt>
      <trkpt lat="45.95877" lon="-1.11999">
        <ele>12.8</ele>
        <time>2014-05-18T12:53:28.000Z</time>
      </trkpt>
      <trkpt lat="45.95868" lon="-1.11996">
        <ele>12.7</ele>
        <time>2014-05-18T12:53:32.000Z</time>
      </trkpt>
      <trkpt lat="45.95857" lon="-1.11995">
        <ele>12.2</ele>
        <time>2014-05-18T12:53:36.000Z</time>
      </trkpt>
      <trkpt lat="45.95848" lon="-1.11993">
        <ele>12.2</ele>
        <time>2014-05-18T12:53:40.000Z</time>
      </trkpt>
      <trkpt lat="45.95837" lon="-1.1199">
        <ele>12.1</ele>
        <time>2014-05-18T12:53:44.000Z</time>
      </trkpt>
      <trkpt lat="45.95827" lon="-1.11988">
        <ele>12.2</ele>
        <time>2014-05-18T12:53:48.000Z</time>
      </trkpt>
      <trkpt lat="45.95817" lon="-1.11985">
        <ele>12.6</ele>
        <time>2014-05-18T12:53:53.000Z</time>
      </trkpt>
      <trkpt lat="45.95807" lon="-1.11982">
        <ele>12.5</ele>
        <time>2014-05-18T12:53:58.000Z</time>
      </trkpt>
      <trkpt lat="45.95789" lon="-1.11973">
        <ele>12.4</ele>
        <time>2014-05-18T12:54:06.000Z</time>
      </trkpt>
      <trkpt lat="45.95779" lon="-1.11968">
        <ele>12.4</ele>
        <time>2014-05-18T12:54:10.000Z</time>
      </trkpt>
      <trkpt lat="45.9577" lon="-1.11961">
        <ele>12.3</ele>
        <time>2014-05-18T12:54:14.000Z</time>
      </trkpt>
      <trkpt lat="45.95762" lon="-1.11953">
        <ele>12.3</ele>
        <time>2014-05-18T12:54:18.000Z</time>
      </trkpt>
      <trkpt lat="45.95752" lon="-1.11946">
        <ele>12.2</ele>
        <time>2014-05-18T12:54:23.000Z</time>
      </trkpt>
      <trkpt lat="45.95744" lon="-1.11939">
        <ele>12.2</ele>
        <time>2014-05-18T12:54:27.000Z</time>
      </trkpt>
      <trkpt lat="45.95735" lon="-1.11931">
        <ele>12.3</ele>
        <time>2014-05-18T12:54:31.000Z</time>
      </trkpt>
      <trkpt lat="45.95727" lon="-1.11924">
        <ele>12.3</ele>
        <time>2014-05-18T12:54:35.000Z</time>
      </trkpt>
      <trkpt lat="45.95718" lon="-1.11917">
        <ele>12.5</ele>
        <time>2014-05-18T12:54:39.000Z</time>
      </trkpt>
      <trkpt lat="45.95708" lon="-1.1191">
        <ele>12.4</ele>
        <time>2014-05-18T12:54:44.000Z</time>
      </trkpt>
      <trkpt lat="45.95699" lon="-1.11904">
        <ele>12.3</ele>
        <time>2014-05-18T12:54:48.000Z</time>
      </trkpt>
      <trkpt lat="45.95691" lon="-1.11898">
        <ele>11.8</ele>
        <time>2014-05-18T12:54:52.000Z</time>
      </trkpt>
      <trkpt lat="45.95682" lon="-1.11892">
        <ele>11.9</ele>
        <time>2014-05-18T12:54:56.000Z</time>
      </trkpt>
      <trkpt lat="45.95674" lon="-1.11885">
        <ele>12</ele>
        <time>2014-05-18T12:55:00.000Z</time>
      </trkpt>
      <trkpt lat="45.95655" lon="-1.11873">
        <ele>12</ele>
        <time>2014-05-18T12:55:08.000Z</time>
      </trkpt>
      <trkpt lat="45.95646" lon="-1.11867">
        <ele>12</ele>
        <time>2014-05-18T12:55:12.000Z</time>
      </trkpt>
      <trkpt lat="45.95637" lon="-1.11861">
        <ele>11.9</ele>
        <time>2014-05-18T12:55:16.000Z</time>
      </trkpt>
      <trkpt lat="45.95629" lon="-1.11853">
        <ele>11.9</ele>
        <time>2014-05-18T12:55:21.000Z</time>
      </trkpt>
      <trkpt lat="45.95619" lon="-1.11845">
        <ele>12.1</ele>
        <time>2014-05-18T12:55:26.000Z</time>
      </trkpt>
      <trkpt lat="45.95613" lon="-1.11835">
        <ele>12</ele>
        <time>2014-05-18T12:55:30.000Z</time>
      </trkpt>
      <trkpt lat="45.95602" lon="-1.11833">
        <ele>12.2</ele>
        <time>2014-05-18T12:55:35.000Z</time>
      </trkpt>
      <trkpt lat="45.95593" lon="-1.11826">
        <ele>12</ele>
        <time>2014-05-18T12:55:39.000Z</time>
      </trkpt>
      <trkpt lat="45.95585" lon="-1.11819">
        <ele>12</ele>
        <time>2014-05-18T12:55:43.000Z</time>
      </trkpt>
      <trkpt lat="45.95578" lon="-1.1181">
        <ele>12.2</ele>
        <time>2014-05-18T12:55:47.000Z</time>
      </trkpt>
      <trkpt lat="45.95571" lon="-1.118">
        <ele>11.9</ele>
        <time>2014-05-18T12:55:51.000Z</time>
      </trkpt>
      <trkpt lat="45.95564" lon="-1.1179">
        <ele>11.7</ele>
        <time>2014-05-18T12:55:55.000Z</time>
      </trkpt>
      <trkpt lat="45.95558" lon="-1.1178">
        <ele>11.3</ele>
        <time>2014-05-18T12:55:59.000Z</time>
      </trkpt>
      <trkpt lat="45.95551" lon="-1.11769">
        <ele>11.5</ele>
        <time>2014-05-18T12:56:03.000Z</time>
      </trkpt>
      <trkpt lat="45.95537" lon="-1.11746">
        <ele>11.5</ele>
        <time>2014-05-18T12:56:11.000Z</time>
      </trkpt>
      <trkpt lat="45.95529" lon="-1.11736">
        <ele>11.3</ele>
        <time>2014-05-18T12:56:15.000Z</time>
      </trkpt>
      <trkpt lat="45.9552" lon="-1.11728">
        <ele>11.1</ele>
        <time>2014-05-18T12:56:19.000Z</time>
      </trkpt>
      <trkpt lat="45.9551" lon="-1.1172">
        <ele>10.7</ele>
        <time>2014-05-18T12:56:23.000Z</time>
      </trkpt>
      <trkpt lat="45.95501" lon="-1.11712">
        <ele>10.9</ele>
        <time>2014-05-18T12:56:27.000Z</time>
      </trkpt>
      <trkpt lat="45.9549" lon="-1.11707">
        <ele>11</ele>
        <time>2014-05-18T12:56:31.000Z</time>
      </trkpt>
      <trkpt lat="45.95479" lon="-1.11707">
        <ele>11.1</ele>
        <time>2014-05-18T12:56:35.000Z</time>
      </trkpt>
      <trkpt lat="45.95469" lon="-1.11712">
        <ele>11.2</ele>
        <time>2014-05-18T12:56:39.000Z</time>
      </trkpt>
      <trkpt lat="45.95459" lon="-1.11717">
        <ele>11.6</ele>
        <time>2014-05-18T12:56:43.000Z</time>
      </trkpt>
      <trkpt lat="45.95449" lon="-1.11721">
        <ele>11.3</ele>
        <time>2014-05-18T12:56:47.000Z</time>
      </trkpt>
      <trkpt lat="45.95438" lon="-1.11728">
        <ele>11.2</ele>
        <time>2014-05-18T12:56:51.000Z</time>
      </trkpt>
      <trkpt lat="45.95427" lon="-1.11733">
        <ele>11.2</ele>
        <time>2014-05-18T12:56:55.000Z</time>
      </trkpt>
      <trkpt lat="45.95416" lon="-1.11737">
        <ele>11.5</ele>
        <time>2014-05-18T12:56:59.000Z</time>
      </trkpt>
      <trkpt lat="45.95406" lon="-1.11741">
        <ele>11.8</ele>
        <time>2014-05-18T12:57:03.000Z</time>
      </trkpt>
      <trkpt lat="45.95395" lon="-1.11745">
        <ele>11.8</ele>
        <time>2014-05-18T12:57:07.000Z</time>
      </trkpt>
      <trkpt lat="45.95372" lon="-1.11748">
        <ele>11.5</ele>
        <time>2014-05-18T12:57:15.000Z</time>
      </trkpt>
      <trkpt lat="45.95361" lon="-1.11748">
        <ele>11.3</ele>
        <time>2014-05-18T12:57:19.000Z</time>
      </trkpt>
      <trkpt lat="45.95351" lon="-1.11744">
        <ele>11.4</ele>
        <time>2014-05-18T12:57:23.000Z</time>
      </trkpt>
      <trkpt lat="45.95341" lon="-1.11739">
        <ele>11.6</ele>
        <time>2014-05-18T12:57:27.000Z</time>
      </trkpt>
      <trkpt lat="45.95332" lon="-1.11732">
        <ele>11.3</ele>
        <time>2014-05-18T12:57:31.000Z</time>
      </trkpt>
      <trkpt lat="45.95323" lon="-1.11724">
        <ele>10.9</ele>
        <time>2014-05-18T12:57:35.000Z</time>
      </trkpt>
      <trkpt lat="45.95313" lon="-1.11716">
        <ele>10.9</ele>
        <time>2014-05-18T12:57:39.000Z</time>
      </trkpt>
      <trkpt lat="45.95303" lon="-1.11708">
        <ele>10.8</ele>
        <time>2014-05-18T12:57:43.000Z</time>
      </trkpt>
      <trkpt lat="45.95292" lon="-1.11703">
        <ele>10.6</ele>
        <time>2014-05-18T12:57:47.000Z</time>
      </trkpt>
      <trkpt lat="45.95282" lon="-1.11696">
        <ele>10.6</ele>
        <time>2014-05-18T12:57:51.000Z</time>
      </trkpt>
      <trkpt lat="45.95272" lon="-1.11689">
        <ele>10.3</ele>
        <time>2014-05-18T12:57:55.000Z</time>
      </trkpt>
      <trkpt lat="45.95261" lon="-1.11684">
        <ele>10.2</ele>
        <time>2014-05-18T12:57:59.000Z</time>
      </trkpt>
      <trkpt lat="45.9525" lon="-1.11679">
        <ele>10.2</ele>
        <time>2014-05-18T12:58:03.000Z</time>
      </trkpt>
      <trkpt lat="45.95243" lon="-1.11672">
        <ele>10.2</ele>
        <time>2014-05-18T12:58:06.000Z</time>
      </trkpt>
      <trkpt lat="45.95235" lon="-1.11664">
        <ele>10.3</ele>
        <time>2014-05-18T12:58:09.000Z</time>
      </trkpt>
      <trkpt lat="45.95224" lon="-1.11641">
        <ele>9.9</ele>
        <time>2014-05-18T12:58:15.000Z</time>
      </trkpt>
      <trkpt lat="45.95221" lon="-1.11625">
        <ele>10</ele>
        <time>2014-05-18T12:58:19.000Z</time>
      </trkpt>
      <trkpt lat="45.9522" lon="-1.11609">
        <ele>9.9</ele>
        <time>2014-05-18T12:58:23.000Z</time>
      </trkpt>
      <trkpt lat="45.95219" lon="-1.11595">
        <ele>9.6</ele>
        <time>2014-05-18T12:58:26.000Z</time>
      </trkpt>
      <trkpt lat="45.95217" lon="-1.11579">
        <ele>9.6</ele>
        <time>2014-05-18T12:58:30.000Z</time>
      </trkpt>
      <trkpt lat="45.95216" lon="-1.11563">
        <ele>9.7</ele>
        <time>2014-05-18T12:58:34.000Z</time>
      </trkpt>
      <trkpt lat="45.95214" lon="-1.11547">
        <ele>10.1</ele>
        <time>2014-05-18T12:58:38.000Z</time>
      </trkpt>
      <trkpt lat="45.95212" lon="-1.11531">
        <ele>10.1</ele>
        <time>2014-05-18T12:58:42.000Z</time>
      </trkpt>
      <trkpt lat="45.95211" lon="-1.11516">
        <ele>10</ele>
        <time>2014-05-18T12:58:46.000Z</time>
      </trkpt>
      <trkpt lat="45.95209" lon="-1.11499">
        <ele>9.9</ele>
        <time>2014-05-18T12:58:50.000Z</time>
      </trkpt>
      <trkpt lat="45.95209" lon="-1.11484">
        <ele>9.6</ele>
        <time>2014-05-18T12:58:54.000Z</time>
      </trkpt>
      <trkpt lat="45.95209" lon="-1.11467">
        <ele>9.6</ele>
        <time>2014-05-18T12:58:58.000Z</time>
      </trkpt>
      <trkpt lat="45.95209" lon="-1.11453">
        <ele>9.2</ele>
        <time>2014-05-18T12:59:01.000Z</time>
      </trkpt>
      <trkpt lat="45.95212" lon="-1.11438">
        <ele>9.1</ele>
        <time>2014-05-18T12:59:05.000Z</time>
      </trkpt>
      <trkpt lat="45.95217" lon="-1.11424">
        <ele>9.2</ele>
        <time>2014-05-18T12:59:09.000Z</time>
      </trkpt>
      <trkpt lat="45.95222" lon="-1.11414">
        <ele>9.2</ele>
        <time>2014-05-18T12:59:12.000Z</time>
      </trkpt>
      <trkpt lat="45.95235" lon="-1.11391">
        <ele>8.8</ele>
        <time>2014-05-18T12:59:18.000Z</time>
      </trkpt>
      <trkpt lat="45.95242" lon="-1.11382">
        <ele>8.8</ele>
        <time>2014-05-18T12:59:21.000Z</time>
      </trkpt>
      <trkpt lat="45.95248" lon="-1.11371">
        <ele>8.7</ele>
        <time>2014-05-18T12:59:24.000Z</time>
      </trkpt>
      <trkpt lat="45.95255" lon="-1.1136">
        <ele>9.1</ele>
        <time>2014-05-18T12:59:27.000Z</time>
      </trkpt>
      <trkpt lat="45.95261" lon="-1.11351">
        <ele>9</ele>
        <time>2014-05-18T12:59:30.000Z</time>
      </trkpt>
      <trkpt lat="45.9527" lon="-1.11338">
        <ele>9.1</ele>
        <time>2014-05-18T12:59:34.000Z</time>
      </trkpt>
      <trkpt lat="45.95277" lon="-1.11325">
        <ele>9.1</ele>
        <time>2014-05-18T12:59:38.000Z</time>
      </trkpt>
      <trkpt lat="45.95282" lon="-1.11314">
        <ele>9.1</ele>
        <time>2014-05-18T12:59:41.000Z</time>
      </trkpt>
      <trkpt lat="45.95286" lon="-1.11301">
        <ele>9.1</ele>
        <time>2014-05-18T12:59:44.000Z</time>
      </trkpt>
      <trkpt lat="45.95287" lon="-1.11287">
        <ele>9</ele>
        <time>2014-05-18T12:59:47.000Z</time>
      </trkpt>
      <trkpt lat="45.95288" lon="-1.11274">
        <ele>8.9</ele>
        <time>2014-05-18T12:59:50.000Z</time>
      </trkpt>
      <trkpt lat="45.95289" lon="-1.11259">
        <ele>9.1</ele>
        <time>2014-05-18T12:59:53.000Z</time>
      </trkpt>
      <trkpt lat="45.95289" lon="-1.11245">
        <ele>9.3</ele>
        <time>2014-05-18T12:59:56.000Z</time>
      </trkpt>
      <trkpt lat="45.9529" lon="-1.11231">
        <ele>9.3</ele>
        <time>2014-05-18T12:59:59.000Z</time>
      </trkpt>
      <trkpt lat="45.95291" lon="-1.11216">
        <ele>8.9</ele>
        <time>2014-05-18T13:00:02.000Z</time>
      </trkpt>
      <trkpt lat="45.95294" lon="-1.11203">
        <ele>8.8</ele>
        <time>2014-05-18T13:00:05.000Z</time>
      </trkpt>
      <trkpt lat="45.95297" lon="-1.1119">
        <ele>8.9</ele>
        <time>2014-05-18T13:00:08.000Z</time>
      </trkpt>
      <trkpt lat="45.95303" lon="-1.11177">
        <ele>9.1</ele>
        <time>2014-05-18T13:00:11.000Z</time>
      </trkpt>
      <trkpt lat="45.95311" lon="-1.11168">
        <ele>8.6</ele>
        <time>2014-05-18T13:00:14.000Z</time>
      </trkpt>
      <trkpt lat="45.95333" lon="-1.1116">
        <ele>8.2</ele>
        <time>2014-05-18T13:00:20.000Z</time>
      </trkpt>
      <trkpt lat="45.95344" lon="-1.11162">
        <ele>7.9</ele>
        <time>2014-05-18T13:00:23.000Z</time>
      </trkpt>
      <trkpt lat="45.95356" lon="-1.11163">
        <ele>7.8</ele>
        <time>2014-05-18T13:00:26.000Z</time>
      </trkpt>
      <trkpt lat="45.95368" lon="-1.11163">
        <ele>7.8</ele>
        <time>2014-05-18T13:00:29.000Z</time>
      </trkpt>
      <trkpt lat="45.95379" lon="-1.11163">
        <ele>7.9</ele>
        <time>2014-05-18T13:00:32.000Z</time>
      </trkpt>
      <trkpt lat="45.95391" lon="-1.11164">
        <ele>8</ele>
        <time>2014-05-18T13:00:35.000Z</time>
      </trkpt>
      <trkpt lat="45.95402" lon="-1.11163">
        <ele>8.2</ele>
        <time>2014-05-18T13:00:38.000Z</time>
      </trkpt>
      <trkpt lat="45.95413" lon="-1.11163">
        <ele>7.9</ele>
        <time>2014-05-18T13:00:41.000Z</time>
      </trkpt>
      <trkpt lat="45.95424" lon="-1.11163">
        <ele>7.8</ele>
        <time>2014-05-18T13:00:44.000Z</time>
      </trkpt>
      <trkpt lat="45.95435" lon="-1.11163">
        <ele>7.5</ele>
        <time>2014-05-18T13:00:47.000Z</time>
      </trkpt>
      <trkpt lat="45.95445" lon="-1.11164">
        <ele>7.4</ele>
        <time>2014-05-18T13:00:50.000Z</time>
      </trkpt>
      <trkpt lat="45.95454" lon="-1.11164">
        <ele>7.6</ele>
        <time>2014-05-18T13:00:53.000Z</time>
      </trkpt>
      <trkpt lat="45.95464" lon="-1.11163">
        <ele>7.6</ele>
        <time>2014-05-18T13:00:56.000Z</time>
      </trkpt>
      <trkpt lat="45.95474" lon="-1.11157">
        <ele>7.7</ele>
        <time>2014-05-18T13:00:59.000Z</time>
      </trkpt>
      <trkpt lat="45.95481" lon="-1.11145">
        <ele>7.7</ele>
        <time>2014-05-18T13:01:02.000Z</time>
      </trkpt>
      <trkpt lat="45.95483" lon="-1.11132">
        <ele>7.8</ele>
        <time>2014-05-18T13:01:05.000Z</time>
      </trkpt>
      <trkpt lat="45.95482" lon="-1.11119">
        <ele>8</ele>
        <time>2014-05-18T13:01:08.000Z</time>
      </trkpt>
      <trkpt lat="45.95481" lon="-1.11104">
        <ele>8</ele>
        <time>2014-05-18T13:01:12.000Z</time>
      </trkpt>
      <trkpt lat="45.95481" lon="-1.11091">
        <ele>8.1</ele>
        <time>2014-05-18T13:01:16.000Z</time>
      </trkpt>
      <trkpt lat="45.95482" lon="-1.11061">
        <ele>8.3</ele>
        <time>2014-05-18T13:01:24.000Z</time>
      </trkpt>
      <trkpt lat="45.95483" lon="-1.11044">
        <ele>8.2</ele>
        <time>2014-05-18T13:01:28.000Z</time>
      </trkpt>
      <trkpt lat="45.95483" lon="-1.11028">
        <ele>8</ele>
        <time>2014-05-18T13:01:32.000Z</time>
      </trkpt>
      <trkpt lat="45.95484" lon="-1.11012">
        <ele>8.1</ele>
        <time>2014-05-18T13:01:37.000Z</time>
      </trkpt>
      <trkpt lat="45.95484" lon="-1.10998">
        <ele>7.9</ele>
        <time>2014-05-18T13:01:41.000Z</time>
      </trkpt>
      <trkpt lat="45.95482" lon="-1.10984">
        <ele>8.2</ele>
        <time>2014-05-18T13:01:45.000Z</time>
      </trkpt>
      <trkpt lat="45.95481" lon="-1.10969">
        <ele>8.2</ele>
        <time>2014-05-18T13:01:49.000Z</time>
      </trkpt>
      <trkpt lat="45.95478" lon="-1.10953">
        <ele>8.1</ele>
        <time>2014-05-18T13:01:53.000Z</time>
      </trkpt>
      <trkpt lat="45.95475" lon="-1.10937">
        <ele>7.9</ele>
        <time>2014-05-18T13:01:57.000Z</time>
      </trkpt>
      <trkpt lat="45.95472" lon="-1.10921">
        <ele>7.8</ele>
        <time>2014-05-18T13:02:01.000Z</time>
      </trkpt>
      <trkpt lat="45.9547" lon="-1.10908">
        <ele>7.7</ele>
        <time>2014-05-18T13:02:04.000Z</time>
      </trkpt>
      <trkpt lat="45.95467" lon="-1.10892">
        <ele>7.6</ele>
        <time>2014-05-18T13:02:08.000Z</time>
      </trkpt>
      <trkpt lat="45.95465" lon="-1.10875">
        <ele>7.4</ele>
        <time>2014-05-18T13:02:12.000Z</time>
      </trkpt>
      <trkpt lat="45.95462" lon="-1.10859">
        <ele>7.6</ele>
        <time>2014-05-18T13:02:16.000Z</time>
      </trkpt>
      <trkpt lat="45.9546" lon="-1.10843">
        <ele>7.7</ele>
        <time>2014-05-18T13:02:20.000Z</time>
      </trkpt>
      <trkpt lat="45.95456" lon="-1.10814">
        <ele>7.6</ele>
        <time>2014-05-18T13:02:28.000Z</time>
      </trkpt>
      <trkpt lat="45.95455" lon="-1.10801">
        <ele>8.1</ele>
        <time>2014-05-18T13:02:32.000Z</time>
      </trkpt>
      <trkpt lat="45.95454" lon="-1.10788">
        <ele>8.1</ele>
        <time>2014-05-18T13:02:36.000Z</time>
      </trkpt>
      <trkpt lat="45.95451" lon="-1.10773">
        <ele>7.7</ele>
        <time>2014-05-18T13:02:40.000Z</time>
      </trkpt>
      <trkpt lat="45.95448" lon="-1.10758">
        <ele>7.7</ele>
        <time>2014-05-18T13:02:44.000Z</time>
      </trkpt>
      <trkpt lat="45.95446" lon="-1.10743">
        <ele>7.6</ele>
        <time>2014-05-18T13:02:48.000Z</time>
      </trkpt>
      <trkpt lat="45.95444" lon="-1.10728">
        <ele>7.4</ele>
        <time>2014-05-18T13:02:52.000Z</time>
      </trkpt>
      <trkpt lat="45.95442" lon="-1.10713">
        <ele>7.1</ele>
        <time>2014-05-18T13:02:56.000Z</time>
      </trkpt>
      <trkpt lat="45.95439" lon="-1.10698">
        <ele>6.9</ele>
        <time>2014-05-18T13:03:00.000Z</time>
      </trkpt>
      <trkpt lat="45.95438" lon="-1.10685">
        <ele>7</ele>
        <time>2014-05-18T13:03:04.000Z</time>
      </trkpt>
      <trkpt lat="45.95438" lon="-1.10671">
        <ele>6.8</ele>
        <time>2014-05-18T13:03:09.000Z</time>
      </trkpt>
      <trkpt lat="45.95435" lon="-1.10655">
        <ele>7</ele>
        <time>2014-05-18T13:03:15.000Z</time>
      </trkpt>
      <trkpt lat="45.95432" lon="-1.10641">
        <ele>6.8</ele>
        <time>2014-05-18T13:03:19.000Z</time>
      </trkpt>
      <trkpt lat="45.9543" lon="-1.10627">
        <ele>6.7</ele>
        <time>2014-05-18T13:03:23.000Z</time>
      </trkpt>
      <trkpt lat="45.95424" lon="-1.10599">
        <ele>6.4</ele>
        <time>2014-05-18T13:03:34.000Z</time>
      </trkpt>
      <trkpt lat="45.95433" lon="-1.10603">
        <ele>4.6</ele>
        <time>2014-05-18T13:06:36.000Z</time>
      </trkpt>
      <trkpt lat="45.95449" lon="-1.10621">
        <ele>4.3</ele>
        <time>2014-05-18T13:06:43.000Z</time>
      </trkpt>
      <trkpt lat="45.95457" lon="-1.10628">
        <ele>4.2</ele>
        <time>2014-05-18T13:06:46.000Z</time>
      </trkpt>
      <trkpt lat="45.95465" lon="-1.10636">
        <ele>4.1</ele>
        <time>2014-05-18T13:06:49.000Z</time>
      </trkpt>
      <trkpt lat="45.95473" lon="-1.10644">
        <ele>4</ele>
        <time>2014-05-18T13:06:52.000Z</time>
      </trkpt>
      <trkpt lat="45.95482" lon="-1.10651">
        <ele>4.1</ele>
        <time>2014-05-18T13:06:55.000Z</time>
      </trkpt>
      <trkpt lat="45.95491" lon="-1.10659">
        <ele>4.1</ele>
        <time>2014-05-18T13:06:58.000Z</time>
      </trkpt>
      <trkpt lat="45.955" lon="-1.10666">
        <ele>4.3</ele>
        <time>2014-05-18T13:07:01.000Z</time>
      </trkpt>
      <trkpt lat="45.95508" lon="-1.10673">
        <ele>4.3</ele>
        <time>2014-05-18T13:07:04.000Z</time>
      </trkpt>
      <trkpt lat="45.95517" lon="-1.10679">
        <ele>4.6</ele>
        <time>2014-05-18T13:07:07.000Z</time>
      </trkpt>
      <trkpt lat="45.95525" lon="-1.10686">
        <ele>4.4</ele>
        <time>2014-05-18T13:07:10.000Z</time>
      </trkpt>
      <trkpt lat="45.95535" lon="-1.10693">
        <ele>4.3</ele>
        <time>2014-05-18T13:07:14.000Z</time>
      </trkpt>
      <trkpt lat="45.95544" lon="-1.107">
        <ele>4.4</ele>
        <time>2014-05-18T13:07:21.000Z</time>
      </trkpt>
      <trkpt lat="45.95553" lon="-1.10707">
        <ele>4.4</ele>
        <time>2014-05-18T13:07:29.000Z</time>
      </trkpt>
      <trkpt lat="45.95561" lon="-1.10714">
        <ele>4.6</ele>
        <time>2014-05-18T13:07:36.000Z</time>
      </trkpt>
      <trkpt lat="45.9556" lon="-1.10728">
        <ele>4</ele>
        <time>2014-05-18T13:07:41.000Z</time>
      </trkpt>
      <trkpt lat="45.95556" lon="-1.10759">
        <ele>3.5</ele>
        <time>2014-05-18T13:07:50.000Z</time>
      </trkpt>
      <trkpt lat="45.95557" lon="-1.10774">
        <ele>3.7</ele>
        <time>2014-05-18T13:07:56.000Z</time>
      </trkpt>
      <trkpt lat="45.95559" lon="-1.1079">
        <ele>3.7</ele>
        <time>2014-05-18T13:08:01.000Z</time>
      </trkpt>
      <trkpt lat="45.95556" lon="-1.10803">
        <ele>3.8</ele>
        <time>2014-05-18T13:08:22.000Z</time>
      </trkpt>
      <trkpt lat="45.95557" lon="-1.10788">
        <ele>1.1</ele>
        <time>2014-05-18T13:13:49.000Z</time>
      </trkpt>
      <trkpt lat="45.95557" lon="-1.10758">
        <ele>0.4</ele>
        <time>2014-05-18T13:13:59.000Z</time>
      </trkpt>
      <trkpt lat="45.95556" lon="-1.10744">
        <ele>2.2</ele>
        <time>2014-05-18T13:14:02.000Z</time>
      </trkpt>
      <trkpt lat="45.95558" lon="-1.1073">
        <ele>0.2</ele>
        <time>2014-05-18T13:14:07.000Z</time>
      </trkpt>
      <trkpt lat="45.9556" lon="-1.10716">
        <ele>1</ele>
        <time>2014-05-18T13:14:15.000Z</time>
      </trkpt>
      <trkpt lat="45.95552" lon="-1.10708">
        <ele>1</ele>
        <time>2014-05-18T13:14:22.000Z</time>
      </trkpt>
      <trkpt lat="45.95543" lon="-1.10701">
        <ele>0.9</ele>
        <time>2014-05-18T13:14:27.000Z</time>
      </trkpt>
      <trkpt lat="45.95534" lon="-1.10695">
        <ele>1.1</ele>
        <time>2014-05-18T13:14:31.000Z</time>
      </trkpt>
      <trkpt lat="45.95525" lon="-1.10688">
        <ele>0.9</ele>
        <time>2014-05-18T13:14:35.000Z</time>
      </trkpt>
      <trkpt lat="45.95515" lon="-1.10682">
        <ele>0.9</ele>
        <time>2014-05-18T13:14:39.000Z</time>
      </trkpt>
      <trkpt lat="45.95504" lon="-1.10675">
        <ele>0.7</ele>
        <time>2014-05-18T13:14:43.000Z</time>
      </trkpt>
      <trkpt lat="45.95494" lon="-1.10667">
        <ele>0.6</ele>
        <time>2014-05-18T13:14:47.000Z</time>
      </trkpt>
      <trkpt lat="45.95483" lon="-1.1066">
        <ele>0.8</ele>
        <time>2014-05-18T13:14:51.000Z</time>
      </trkpt>
      <trkpt lat="45.95468" lon="-1.10644">
        <ele>0.4</ele>
        <time>2014-05-18T13:14:57.000Z</time>
      </trkpt>
      <trkpt lat="45.9546" lon="-1.10636">
        <ele>0.7</ele>
        <time>2014-05-18T13:15:00.000Z</time>
      </trkpt>
      <trkpt lat="45.95452" lon="-1.10627">
        <ele>0.7</ele>
        <time>2014-05-18T13:15:03.000Z</time>
      </trkpt>
      <trkpt lat="45.95444" lon="-1.10619">
        <ele>0.5</ele>
        <time>2014-05-18T13:15:06.000Z</time>
      </trkpt>
      <trkpt lat="45.95438" lon="-1.1061">
        <ele>0.4</ele>
        <time>2014-05-18T13:15:09.000Z</time>
      </trkpt>
      <trkpt lat="45.95431" lon="-1.10599">
        <ele>0.6</ele>
        <time>2014-05-18T13:15:12.000Z</time>
      </trkpt>
      <trkpt lat="45.95425" lon="-1.10589">
        <ele>0.4</ele>
        <time>2014-05-18T13:15:15.000Z</time>
      </trkpt>
      <trkpt lat="45.9542" lon="-1.10578">
        <ele>0.4</ele>
        <time>2014-05-18T13:15:18.000Z</time>
      </trkpt>
      <trkpt lat="45.95415" lon="-1.10567">
        <ele>0.6</ele>
        <time>2014-05-18T13:15:21.000Z</time>
      </trkpt>
      <trkpt lat="45.95407" lon="-1.10554">
        <ele>0.8</ele>
        <time>2014-05-18T13:15:25.000Z</time>
      </trkpt>
      <trkpt lat="45.95402" lon="-1.1054">
        <ele>0.5</ele>
        <time>2014-05-18T13:15:29.000Z</time>
      </trkpt>
      <trkpt lat="45.95398" lon="-1.10525">
        <ele>0.5</ele>
        <time>2014-05-18T13:15:33.000Z</time>
      </trkpt>
      <trkpt lat="45.95394" lon="-1.10511">
        <ele>1.9</ele>
        <time>2014-05-18T13:15:36.000Z</time>
      </trkpt>
      <trkpt lat="45.95391" lon="-1.10495">
        <ele>-0.5</ele>
        <time>2014-05-18T13:15:39.000Z</time>
      </trkpt>
      <trkpt lat="45.95388" lon="-1.10481">
        <ele>-0.8</ele>
        <time>2014-05-18T13:15:42.000Z</time>
      </trkpt>
      <trkpt lat="45.95385" lon="-1.10466">
        <ele>-0.8</ele>
        <time>2014-05-18T13:15:47.000Z</time>
      </trkpt>
      <trkpt lat="45.95384" lon="-1.10453">
        <ele>-1.2</ele>
        <time>2014-05-18T13:15:52.000Z</time>
      </trkpt>
      <trkpt lat="45.95383" lon="-1.10423">
        <ele>-1.4</ele>
        <time>2014-05-18T13:16:03.000Z</time>
      </trkpt>
      <trkpt lat="45.95382" lon="-1.10408">
        <ele>-1.6</ele>
        <time>2014-05-18T13:16:08.000Z</time>
      </trkpt>
      <trkpt lat="45.95381" lon="-1.10395">
        <ele>-1.9</ele>
        <time>2014-05-18T13:16:12.000Z</time>
      </trkpt>
      <trkpt lat="45.95377" lon="-1.10379">
        <ele>-1.3</ele>
        <time>2014-05-18T13:16:16.000Z</time>
      </trkpt>
      <trkpt lat="45.95375" lon="-1.10366">
        <ele>-1.5</ele>
        <time>2014-05-18T13:16:19.000Z</time>
      </trkpt>
      <trkpt lat="45.95372" lon="-1.10354">
        <ele>-1.6</ele>
        <time>2014-05-18T13:16:22.000Z</time>
      </trkpt>
      <trkpt lat="45.95368" lon="-1.10341">
        <ele>-1.4</ele>
        <time>2014-05-18T13:16:25.000Z</time>
      </trkpt>
      <trkpt lat="45.95364" lon="-1.10329">
        <ele>-1.1</ele>
        <time>2014-05-18T13:16:28.000Z</time>
      </trkpt>
      <trkpt lat="45.95361" lon="-1.10316">
        <ele>-1.7</ele>
        <time>2014-05-18T13:16:31.000Z</time>
      </trkpt>
      <trkpt lat="45.95359" lon="-1.103">
        <ele>-1.6</ele>
        <time>2014-05-18T13:16:35.000Z</time>
      </trkpt>
      <trkpt lat="45.95357" lon="-1.10285">
        <ele>-1.3</ele>
        <time>2014-05-18T13:16:39.000Z</time>
      </trkpt>
      <trkpt lat="45.95354" lon="-1.10271">
        <ele>-1.9</ele>
        <time>2014-05-18T13:16:43.000Z</time>
      </trkpt>
      <trkpt lat="45.95351" lon="-1.10258">
        <ele>-2</ele>
        <time>2014-05-18T13:16:47.000Z</time>
      </trkpt>
      <trkpt lat="45.95348" lon="-1.10245">
        <ele>-1.7</ele>
        <time>2014-05-18T13:16:52.000Z</time>
      </trkpt>
      <trkpt lat="45.95344" lon="-1.10233">
        <ele>-1.8</ele>
        <time>2014-05-18T13:16:56.000Z</time>
      </trkpt>
      <trkpt lat="45.95331" lon="-1.10209">
        <ele>-2.4</ele>
        <time>2014-05-18T13:17:04.000Z</time>
      </trkpt>
      <trkpt lat="45.95325" lon="-1.10197">
        <ele>-2.4</ele>
        <time>2014-05-18T13:17:08.000Z</time>
      </trkpt>
      <trkpt lat="45.95319" lon="-1.10186">
        <ele>-2</ele>
        <time>2014-05-18T13:17:12.000Z</time>
      </trkpt>
      <trkpt lat="45.95314" lon="-1.10174">
        <ele>-2.1</ele>
        <time>2014-05-18T13:17:17.000Z</time>
      </trkpt>
      <trkpt lat="45.95309" lon="-1.10163">
        <ele>-2</ele>
        <time>2014-05-18T13:17:21.000Z</time>
      </trkpt>
      <trkpt lat="45.95303" lon="-1.1015">
        <ele>-2.2</ele>
        <time>2014-05-18T13:17:27.000Z</time>
      </trkpt>
      <trkpt lat="45.95298" lon="-1.10137">
        <ele>-2.5</ele>
        <time>2014-05-18T13:17:32.000Z</time>
      </trkpt>
      <trkpt lat="45.95294" lon="-1.10125">
        <ele>-2.6</ele>
        <time>2014-05-18T13:17:36.000Z</time>
      </trkpt>
      <trkpt lat="45.95291" lon="-1.10113">
        <ele>-2.6</ele>
        <time>2014-05-18T13:17:40.000Z</time>
      </trkpt>
      <trkpt lat="45.95285" lon="-1.10099">
        <ele>-2.5</ele>
        <time>2014-05-18T13:17:45.000Z</time>
      </trkpt>
      <trkpt lat="45.9528" lon="-1.10087">
        <ele>-2.6</ele>
        <time>2014-05-18T13:17:49.000Z</time>
      </trkpt>
      <trkpt lat="45.95276" lon="-1.10074">
        <ele>-2.7</ele>
        <time>2014-05-18T13:17:53.000Z</time>
      </trkpt>
      <trkpt lat="45.95273" lon="-1.10058">
        <ele>-2.9</ele>
        <time>2014-05-18T13:17:57.000Z</time>
      </trkpt>
      <trkpt lat="45.95265" lon="-1.10027">
        <ele>-2.7</ele>
        <time>2014-05-18T13:18:05.000Z</time>
      </trkpt>
      <trkpt lat="45.95262" lon="-1.10013">
        <ele>-3</ele>
        <time>2014-05-18T13:18:09.000Z</time>
      </trkpt>
      <trkpt lat="45.95258" lon="-1.09998">
        <ele>-2.9</ele>
        <time>2014-05-18T13:18:13.000Z</time>
      </trkpt>
      <trkpt lat="45.95254" lon="-1.09984">
        <ele>-3.1</ele>
        <time>2014-05-18T13:18:17.000Z</time>
      </trkpt>
      <trkpt lat="45.9525" lon="-1.09971">
        <ele>-2.7</ele>
        <time>2014-05-18T13:18:21.000Z</time>
      </trkpt>
      <trkpt lat="45.95246" lon="-1.09958">
        <ele>-3.2</ele>
        <time>2014-05-18T13:18:25.000Z</time>
      </trkpt>
      <trkpt lat="45.95242" lon="-1.09945">
        <ele>-3.7</ele>
        <time>2014-05-18T13:18:29.000Z</time>
      </trkpt>
      <trkpt lat="45.95239" lon="-1.09931">
        <ele>-3.5</ele>
        <time>2014-05-18T13:18:33.000Z</time>
      </trkpt>
      <trkpt lat="45.95236" lon="-1.09917">
        <ele>-3.2</ele>
        <time>2014-05-18T13:18:37.000Z</time>
      </trkpt>
      <trkpt lat="45.95232" lon="-1.09903">
        <ele>-3.4</ele>
        <time>2014-05-18T13:18:41.000Z</time>
      </trkpt>
      <trkpt lat="45.95227" lon="-1.0989">
        <ele>-3.3</ele>
        <time>2014-05-18T13:18:45.000Z</time>
      </trkpt>
      <trkpt lat="45.95223" lon="-1.09877">
        <ele>-3.5</ele>
        <time>2014-05-18T13:18:49.000Z</time>
      </trkpt>
      <trkpt lat="45.95219" lon="-1.09863">
        <ele>-3.3</ele>
        <time>2014-05-18T13:18:53.000Z</time>
      </trkpt>
      <trkpt lat="45.95213" lon="-1.09849">
        <ele>-3.4</ele>
        <time>2014-05-18T13:18:57.000Z</time>
      </trkpt>
      <trkpt lat="45.95208" lon="-1.09835">
        <ele>-3.5</ele>
        <time>2014-05-18T13:19:01.000Z</time>
      </trkpt>
      <trkpt lat="45.95437" lon="-1.10594">
        <ele>12.3</ele>
        <time>2014-05-18T12:34:10.000Z</time>
      </trkpt>
      <trkpt lat="45.95444" lon="-1.10606">
        <ele>12.1</ele>
        <time>2014-05-18T12:34:14.000Z</time>
      </trkpt>
      <trkpt lat="45.95451" lon="-1.10614">
        <ele>12.2</ele>
        <time>2014-05-18T12:34:18.000Z</time>
      </trkpt>
      <trkpt lat="45.9546" lon="-1.10623">
        <ele>12.5</ele>
        <time>2014-05-18T12:34:23.000Z</time>
      </trkpt>
      <trkpt lat="45.95468" lon="-1.10629">
        <ele>11.8</ele>
        <time>2014-05-18T12:34:27.000Z</time>
      </trkpt>
      <trkpt lat="45.95476" lon="-1.10637">
        <ele>11.7</ele>
        <time>2014-05-18T12:34:31.000Z</time>
      </trkpt>
      <trkpt lat="45.95485" lon="-1.10645">
        <ele>11.9</ele>
        <time>2014-05-18T12:34:35.000Z</time>
      </trkpt>
      <trkpt lat="45.95494" lon="-1.10654">
        <ele>11.9</ele>
        <time>2014-05-18T12:34:39.000Z</time>
      </trkpt>
      <trkpt lat="45.95504" lon="-1.10661">
        <ele>12.2</ele>
        <time>2014-05-18T12:34:43.000Z</time>
      </trkpt>
      <trkpt lat="45.95512" lon="-1.10668">
        <ele>12.1</ele>
        <time>2014-05-18T12:34:46.000Z</time>
      </trkpt>
      <trkpt lat="45.9552" lon="-1.10674">
        <ele>12.1</ele>
        <time>2014-05-18T12:34:49.000Z</time>
      </trkpt>
      <trkpt lat="45.95528" lon="-1.10681">
        <ele>12</ele>
        <time>2014-05-18T12:34:52.000Z</time>
      </trkpt>
      <trkpt lat="45.95537" lon="-1.10687">
        <ele>12.2</ele>
        <time>2014-05-18T12:34:55.000Z</time>
      </trkpt>
      <trkpt lat="45.95545" lon="-1.10694">
        <ele>12.1</ele>
        <time>2014-05-18T12:34:58.000Z</time>
      </trkpt>
      <trkpt lat="45.95565" lon="-1.10709">
        <ele>12.3</ele>
        <time>2014-05-18T12:35:06.000Z</time>
      </trkpt>
      <trkpt lat="45.95573" lon="-1.10715">
        <ele>12.1</ele>
        <time>2014-05-18T12:35:10.000Z</time>
      </trkpt>
      <trkpt lat="45.95582" lon="-1.10722">
        <ele>12.2</ele>
        <time>2014-05-18T12:35:14.000Z</time>
      </trkpt>
      <trkpt lat="45.9559" lon="-1.1073">
        <ele>12.3</ele>
        <time>2014-05-18T12:35:18.000Z</time>
      </trkpt>
      <trkpt lat="45.95598" lon="-1.10737">
        <ele>12.4</ele>
        <time>2014-05-18T12:35:22.000Z</time>
      </trkpt>
      <trkpt lat="45.95606" lon="-1.10746">
        <ele>12.5</ele>
        <time>2014-05-18T12:35:26.000Z</time>
      </trkpt>
      <trkpt lat="45.95615" lon="-1.10757">
        <ele>12.9</ele>
        <time>2014-05-18T12:35:30.000Z</time>
      </trkpt>
      <trkpt lat="45.95624" lon="-1.10767">
        <ele>12.5</ele>
        <time>2014-05-18T12:35:34.000Z</time>
      </trkpt>
      <trkpt lat="45.95633" lon="-1.10778">
        <ele>12.6</ele>
        <time>2014-05-18T12:35:38.000Z</time>
      </trkpt>
      <trkpt lat="45.95642" lon="-1.10789">
        <ele>12.6</ele>
        <time>2014-05-18T12:35:42.000Z</time>
      </trkpt>
      <trkpt lat="45.9565" lon="-1.10797">
        <ele>12.3</ele>
        <time>2014-05-18T12:35:45.000Z</time>
      </trkpt>
      <trkpt lat="45.95657" lon="-1.10805">
        <ele>12.1</ele>
        <time>2014-05-18T12:35:48.000Z</time>
      </trkpt>
      <trkpt lat="45.95666" lon="-1.10816">
        <ele>12.2</ele>
        <time>2014-05-18T12:35:52.000Z</time>
      </trkpt>
      <trkpt lat="45.95674" lon="-1.10823">
        <ele>12.4</ele>
        <time>2014-05-18T12:35:55.000Z</time>
      </trkpt>
      <trkpt lat="45.95684" lon="-1.10832">
        <ele>12.2</ele>
        <time>2014-05-18T12:35:59.000Z</time>
      </trkpt>
      <trkpt lat="45.957" lon="-1.10844">
        <ele>11.9</ele>
        <time>2014-05-18T12:36:05.000Z</time>
      </trkpt>
      <trkpt lat="45.95711" lon="-1.1085">
        <ele>12.1</ele>
        <time>2014-05-18T12:36:09.000Z</time>
      </trkpt>
      <trkpt lat="45.95721" lon="-1.10857">
        <ele>12.2</ele>
        <time>2014-05-18T12:36:13.000Z</time>
      </trkpt>
      <trkpt lat="45.95731" lon="-1.10863">
        <ele>12.4</ele>
        <time>2014-05-18T12:36:17.000Z</time>
      </trkpt>
      <trkpt lat="45.95741" lon="-1.10869">
        <ele>12.2</ele>
        <time>2014-05-18T12:36:21.000Z</time>
      </trkpt>
      <trkpt lat="45.95751" lon="-1.10876">
        <ele>12.2</ele>
        <time>2014-05-18T12:36:25.000Z</time>
      </trkpt>
      <trkpt lat="45.95762" lon="-1.10882">
        <ele>12.3</ele>
        <time>2014-05-18T12:36:29.000Z</time>
      </trkpt>
      <trkpt lat="45.95771" lon="-1.10887">
        <ele>12.4</ele>
        <time>2014-05-18T12:36:33.000Z</time>
      </trkpt>
      <trkpt lat="45.95781" lon="-1.10893">
        <ele>12.4</ele>
        <time>2014-05-18T12:36:37.000Z</time>
      </trkpt>
      <trkpt lat="45.95791" lon="-1.10899">
        <ele>12.5</ele>
        <time>2014-05-18T12:36:41.000Z</time>
      </trkpt>
      <trkpt lat="45.958" lon="-1.10904">
        <ele>12.3</ele>
        <time>2014-05-18T12:36:45.000Z</time>
      </trkpt>
      <trkpt lat="45.95808" lon="-1.1091">
        <ele>12.1</ele>
        <time>2014-05-18T12:36:49.000Z</time>
      </trkpt>
      <trkpt lat="45.95817" lon="-1.10918">
        <ele>12.3</ele>
        <time>2014-05-18T12:36:54.000Z</time>
      </trkpt>
      <trkpt lat="45.95823" lon="-1.10929">
        <ele>12</ele>
        <time>2014-05-18T12:36:59.000Z</time>
      </trkpt>
      <trkpt lat="45.95827" lon="-1.10942">
        <ele>11.9</ele>
        <time>2014-05-18T12:37:22.000Z</time>
      </trkpt>
      <trkpt lat="45.95827" lon="-1.10972">
        <ele>12</ele>
        <time>2014-05-18T12:37:32.000Z</time>
      </trkpt>
      <trkpt lat="45.95826" lon="-1.10988">
        <ele>11.9</ele>
        <time>2014-05-18T12:37:37.000Z</time>
      </trkpt>
      <trkpt lat="45.95826" lon="-1.11004">
        <ele>12.1</ele>
        <time>2014-05-18T12:37:42.000Z</time>
      </trkpt>
      <trkpt lat="45.95825" lon="-1.11018">
        <ele>12.3</ele>
        <time>2014-05-18T12:37:46.000Z</time>
      </trkpt>
      <trkpt lat="45.95823" lon="-1.11033">
        <ele>12.4</ele>
        <time>2014-05-18T12:37:50.000Z</time>
      </trkpt>
      <trkpt lat="45.95821" lon="-1.11047">
        <ele>12.4</ele>
        <time>2014-05-18T12:37:53.000Z</time>
      </trkpt>
      <trkpt lat="45.9582" lon="-1.1106">
        <ele>12.2</ele>
        <time>2014-05-18T12:37:56.000Z</time>
      </trkpt>
      <trkpt lat="45.95819" lon="-1.11074">
        <ele>12.4</ele>
        <time>2014-05-18T12:37:59.000Z</time>
      </trkpt>
      <trkpt lat="45.95818" lon="-1.1109">
        <ele>12.5</ele>
        <time>2014-05-18T12:38:03.000Z</time>
      </trkpt>
      <trkpt lat="45.95817" lon="-1.11107">
        <ele>12.7</ele>
        <time>2014-05-18T12:38:07.000Z</time>
      </trkpt>
      <trkpt lat="45.95817" lon="-1.11121">
        <ele>12.7</ele>
        <time>2014-05-18T12:38:10.000Z</time>
      </trkpt>
      <trkpt lat="45.95816" lon="-1.11134">
        <ele>12.8</ele>
        <time>2014-05-18T12:38:13.000Z</time>
      </trkpt>
      <trkpt lat="45.95817" lon="-1.11149">
        <ele>13</ele>
        <time>2014-05-18T12:38:16.000Z</time>
      </trkpt>
      <trkpt lat="45.95816" lon="-1.11164">
        <ele>13.1</ele>
        <time>2014-05-18T12:38:19.000Z</time>
      </trkpt>
      <trkpt lat="45.95814" lon="-1.11179">
        <ele>13.2</ele>
        <time>2014-05-18T12:38:22.000Z</time>
      </trkpt>
      <trkpt lat="45.95813" lon="-1.11194">
        <ele>13.1</ele>
        <time>2014-05-18T12:38:25.000Z</time>
      </trkpt>
      <trkpt lat="45.95812" lon="-1.11221">
        <ele>13</ele>
        <time>2014-05-18T12:38:31.000Z</time>
      </trkpt>
      <trkpt lat="45.95813" lon="-1.11236">
        <ele>13.3</ele>
        <time>2014-05-18T12:38:34.000Z</time>
      </trkpt>
      <trkpt lat="45.95813" lon="-1.11252">
        <ele>13.2</ele>
        <time>2014-05-18T12:38:37.000Z</time>
      </trkpt>
      <trkpt lat="45.95813" lon="-1.11266">
        <ele>13.2</ele>
        <time>2014-05-18T12:38:40.000Z</time>
      </trkpt>
      <trkpt lat="45.95812" lon="-1.1128">
        <ele>13.2</ele>
        <time>2014-05-18T12:38:43.000Z</time>
      </trkpt>
      <trkpt lat="45.95809" lon="-1.11293">
        <ele>13.2</ele>
        <time>2014-05-18T12:38:46.000Z</time>
      </trkpt>
      <trkpt lat="45.95807" lon="-1.11307">
        <ele>13.1</ele>
        <time>2014-05-18T12:38:49.000Z</time>
      </trkpt>
      <trkpt lat="45.95806" lon="-1.1132">
        <ele>13</ele>
        <time>2014-05-18T12:38:52.000Z</time>
      </trkpt>
      <trkpt lat="45.95805" lon="-1.11333">
        <ele>13</ele>
        <time>2014-05-18T12:38:55.000Z</time>
      </trkpt>
      <trkpt lat="45.95804" lon="-1.11346">
        <ele>12.9</ele>
        <time>2014-05-18T12:38:58.000Z</time>
      </trkpt>
      <trkpt lat="45.95803" lon="-1.11359">
        <ele>13.2</ele>
        <time>2014-05-18T12:39:01.000Z</time>
      </trkpt>
      <trkpt lat="45.95802" lon="-1.11372">
        <ele>13.2</ele>
        <time>2014-05-18T12:39:04.000Z</time>
      </trkpt>
      <trkpt lat="45.95801" lon="-1.11386">
        <ele>13.3</ele>
        <time>2014-05-18T12:39:07.000Z</time>
      </trkpt>
      <trkpt lat="45.95803" lon="-1.11398">
        <ele>13.1</ele>
        <time>2014-05-18T12:39:10.000Z</time>
      </trkpt>
      <trkpt lat="45.95806" lon="-1.11411">
        <ele>13.1</ele>
        <time>2014-05-18T12:39:13.000Z</time>
      </trkpt>
      <trkpt lat="45.95811" lon="-1.11427">
        <ele>13.1</ele>
        <time>2014-05-18T12:39:17.000Z</time>
      </trkpt>
      <trkpt lat="45.95815" lon="-1.11438">
        <ele>13.3</ele>
        <time>2014-05-18T12:39:20.000Z</time>
      </trkpt>
      <trkpt lat="45.95821" lon="-1.11453">
        <ele>13.8</ele>
        <time>2014-05-18T12:39:24.000Z</time>
      </trkpt>
      <trkpt lat="45.95826" lon="-1.11466">
        <ele>14.1</ele>
        <time>2014-05-18T12:39:28.000Z</time>
      </trkpt>
      <trkpt lat="45.95835" lon="-1.11494">
        <ele>14.3</ele>
        <time>2014-05-18T12:39:36.000Z</time>
      </trkpt>
      <trkpt lat="45.9584" lon="-1.11507">
        <ele>14.5</ele>
        <time>2014-05-18T12:39:40.000Z</time>
      </trkpt>
      <trkpt lat="45.95845" lon="-1.11519">
        <ele>14.6</ele>
        <time>2014-05-18T12:39:44.000Z</time>
      </trkpt>
      <trkpt lat="45.95853" lon="-1.11526">
        <ele>14.9</ele>
        <time>2014-05-18T12:39:48.000Z</time>
      </trkpt>
      <trkpt lat="45.95864" lon="-1.11524">
        <ele>15.4</ele>
        <time>2014-05-18T12:39:53.000Z</time>
      </trkpt>
      <trkpt lat="45.95873" lon="-1.1152">
        <ele>15.9</ele>
        <time>2014-05-18T12:39:57.000Z</time>
      </trkpt>
      <trkpt lat="45.95883" lon="-1.11514">
        <ele>16.6</ele>
        <time>2014-05-18T12:40:02.000Z</time>
      </trkpt>
      <trkpt lat="45.95893" lon="-1.11508">
        <ele>16.9</ele>
        <time>2014-05-18T12:40:07.000Z</time>
      </trkpt>
      <trkpt lat="45.95902" lon="-1.11501">
        <ele>17.9</ele>
        <time>2014-05-18T12:40:12.000Z</time>
      </trkpt>
      <trkpt lat="45.9591" lon="-1.11497">
        <ele>18.1</ele>
        <time>2014-05-18T12:40:17.000Z</time>
      </trkpt>
      <trkpt lat="45.95919" lon="-1.11491">
        <ele>18.7</ele>
        <time>2014-05-18T12:40:22.000Z</time>
      </trkpt>
      <trkpt lat="45.95929" lon="-1.11483">
        <ele>19</ele>
        <time>2014-05-18T12:40:27.000Z</time>
      </trkpt>
      <trkpt lat="45.95939" lon="-1.11477">
        <ele>19</ele>
        <time>2014-05-18T12:40:31.000Z</time>
      </trkpt>
      <trkpt lat="45.95956" lon="-1.11464">
        <ele>19.8</ele>
        <time>2014-05-18T12:40:39.000Z</time>
      </trkpt>
      <trkpt lat="45.95966" lon="-1.11456">
        <ele>20.4</ele>
        <time>2014-05-18T12:40:44.000Z</time>
      </trkpt>
      <trkpt lat="45.95975" lon="-1.11453">
        <ele>20.5</ele>
        <time>2014-05-18T12:40:48.000Z</time>
      </trkpt>
      <trkpt lat="45.95985" lon="-1.11453">
        <ele>20.8</ele>
        <time>2014-05-18T12:40:52.000Z</time>
      </trkpt>
      <trkpt lat="45.95994" lon="-1.11457">
        <ele>21.4</ele>
        <time>2014-05-18T12:40:56.000Z</time>
      </trkpt>
      <trkpt lat="45.96004" lon="-1.11463">
        <ele>21.4</ele>
        <time>2014-05-18T12:41:00.000Z</time>
      </trkpt>
      <trkpt lat="45.96011" lon="-1.11474">
        <ele>21.3</ele>
        <time>2014-05-18T12:41:04.000Z</time>
      </trkpt>
      <trkpt lat="45.96016" lon="-1.11489">
        <ele>21.4</ele>
        <time>2014-05-18T12:41:08.000Z</time>
      </trkpt>
      <trkpt lat="45.96019" lon="-1.11502">
        <ele>21.2</ele>
        <time>2014-05-18T12:41:11.000Z</time>
      </trkpt>
      <trkpt lat="45.96021" lon="-1.11515">
        <ele>21</ele>
        <time>2014-05-18T12:41:14.000Z</time>
      </trkpt>
      <trkpt lat="45.96022" lon="-1.11528">
        <ele>20.8</ele>
        <time>2014-05-18T12:41:17.000Z</time>
      </trkpt>
      <trkpt lat="45.96024" lon="-1.11542">
        <ele>20.9</ele>
        <time>2014-05-18T12:41:21.000Z</time>
      </trkpt>
      <trkpt lat="45.96026" lon="-1.11557">
        <ele>20.8</ele>
        <time>2014-05-18T12:41:25.000Z</time>
      </trkpt>
      <trkpt lat="45.96028" lon="-1.11571">
        <ele>21</ele>
        <time>2014-05-18T12:41:29.000Z</time>
      </trkpt>
      <trkpt lat="45.96029" lon="-1.11586">
        <ele>20.4</ele>
        <time>2014-05-18T12:41:33.000Z</time>
      </trkpt>
      <trkpt lat="45.96032" lon="-1.11618">
        <ele>19.8</ele>
        <time>2014-05-18T12:41:41.000Z</time>
      </trkpt>
      <trkpt lat="45.96034" lon="-1.11635">
        <ele>19.8</ele>
        <time>2014-05-18T12:41:45.000Z</time>
      </trkpt>
      <trkpt lat="45.96037" lon="-1.11647">
        <ele>19.6</ele>
        <time>2014-05-18T12:41:48.000Z</time>
      </trkpt>
      <trkpt lat="45.9604" lon="-1.1166">
        <ele>19.4</ele>
        <time>2014-05-18T12:41:51.000Z</time>
      </trkpt>
      <trkpt lat="45.96044" lon="-1.11675">
        <ele>19.6</ele>
        <time>2014-05-18T12:41:55.000Z</time>
      </trkpt>
      <trkpt lat="45.96046" lon="-1.11687">
        <ele>19.5</ele>
        <time>2014-05-18T12:41:59.000Z</time>
      </trkpt>
      <trkpt lat="45.9605" lon="-1.11701">
        <ele>19</ele>
        <time>2014-05-18T12:42:04.000Z</time>
      </trkpt>
      <trkpt lat="45.96053" lon="-1.11714">
        <ele>19</ele>
        <time>2014-05-18T12:42:08.000Z</time>
      </trkpt>
      <trkpt lat="45.96057" lon="-1.11727">
        <ele>18.8</ele>
        <time>2014-05-18T12:42:12.000Z</time>
      </trkpt>
      <trkpt lat="45.96061" lon="-1.1174">
        <ele>18.5</ele>
        <time>2014-05-18T12:42:16.000Z</time>
      </trkpt>
      <trkpt lat="45.96066" lon="-1.11755">
        <ele>18.1</ele>
        <time>2014-05-18T12:42:20.000Z</time>
      </trkpt>
      <trkpt lat="45.9607" lon="-1.11768">
        <ele>18.1</ele>
        <time>2014-05-18T12:42:24.000Z</time>
      </trkpt>
      <trkpt lat="45.96075" lon="-1.11779">
        <ele>17.8</ele>
        <time>2014-05-18T12:42:28.000Z</time>
      </trkpt>
      <trkpt lat="45.9608" lon="-1.1179">
        <ele>17.4</ele>
        <time>2014-05-18T12:42:32.000Z</time>
      </trkpt>
      <trkpt lat="45.96085" lon="-1.11802">
        <ele>17.1</ele>
        <time>2014-05-18T12:42:36.000Z</time>
      </trkpt>
      <trkpt lat="45.96097" lon="-1.11824">
        <ele>16.7</ele>
        <time>2014-05-18T12:42:47.000Z</time>
      </trkpt>
      <trkpt lat="45.96104" lon="-1.11835">
        <ele>16.7</ele>
        <time>2014-05-18T12:42:51.000Z</time>
      </trkpt>
      <trkpt lat="45.96113" lon="-1.11845">
        <ele>16.3</ele>
        <time>2014-05-18T12:42:55.000Z</time>
      </trkpt>
      <trkpt lat="45.96121" lon="-1.11852">
        <ele>15.9</ele>
        <time>2014-05-18T12:42:59.000Z</time>
      </trkpt>
      <trkpt lat="45.96129" lon="-1.11861">
        <ele>16.3</ele>
        <time>2014-05-18T12:43:04.000Z</time>
      </trkpt>
      <trkpt lat="45.96136" lon="-1.11871">
        <ele>15.9</ele>
        <time>2014-05-18T12:43:09.000Z</time>
      </trkpt>
      <trkpt lat="45.96137" lon="-1.11884">
        <ele>15.7</ele>
        <time>2014-05-18T12:43:34.000Z</time>
      </trkpt>
      <trkpt lat="45.96134" lon="-1.11899">
        <ele>15.3</ele>
        <time>2014-05-18T12:43:42.000Z</time>
      </trkpt>
      <trkpt lat="45.96126" lon="-1.11924">
        <ele>15.1</ele>
        <time>2014-05-18T12:43:50.000Z</time>
      </trkpt>
      <trkpt lat="45.96123" lon="-1.11936">
        <ele>15.4</ele>
        <time>2014-05-18T12:43:54.000Z</time>
      </trkpt>
      <trkpt lat="45.96119" lon="-1.11949">
        <ele>14.8</ele>
        <time>2014-05-18T12:43:58.000Z</time>
      </trkpt>
      <trkpt lat="45.96116" lon="-1.11961">
        <ele>14.7</ele>
        <time>2014-05-18T12:44:02.000Z</time>
      </trkpt>
      <trkpt lat="45.96112" lon="-1.11973">
        <ele>14.8</ele>
        <time>2014-05-18T12:44:06.000Z</time>
      </trkpt>
      <trkpt lat="45.96108" lon="-1.11985">
        <ele>14.6</ele>
        <time>2014-05-18T12:44:10.000Z</time>
      </trkpt>
      <trkpt lat="45.96103" lon="-1.11999">
        <ele>14.6</ele>
        <time>2014-05-18T12:44:15.000Z</time>
      </trkpt>
      <trkpt lat="45.96099" lon="-1.12011">
        <ele>14.5</ele>
        <time>2014-05-18T12:44:20.000Z</time>
      </trkpt>
      <trkpt lat="45.96093" lon="-1.12021">
        <ele>14.4</ele>
        <time>2014-05-18T12:44:28.000Z</time>
      </trkpt>
      <trkpt lat="45.96083" lon="-1.12023">
        <ele>13.4</ele>
        <time>2014-05-18T12:51:55.000Z</time>
      </trkpt>
      <trkpt lat="45.96066" lon="-1.12025">
        <ele>13.1</ele>
        <time>2014-05-18T12:52:04.000Z</time>
      </trkpt>
      <trkpt lat="45.96058" lon="-1.12034">
        <ele>13.2</ele>
        <time>2014-05-18T12:52:09.000Z</time>
      </trkpt>
      <trkpt lat="45.96049" lon="-1.12036">
        <ele>13.4</ele>
        <time>2014-05-18T12:52:14.000Z</time>
      </trkpt>
      <trkpt lat="45.96039" lon="-1.12034">
        <ele>13.6</ele>
        <time>2014-05-18T12:52:19.000Z</time>
      </trkpt>
      <trkpt lat="45.96029" lon="-1.12032">
        <ele>13.6</ele>
        <time>2014-05-18T12:52:24.000Z</time>
      </trkpt>
      <trkpt lat="45.9602" lon="-1.1203">
        <ele>13.7</ele>
        <time>2014-05-18T12:52:30.000Z</time>
      </trkpt>
      <trkpt lat="45.9601" lon="-1.12029">
        <ele>13.3</ele>
        <time>2014-05-18T12:52:35.000Z</time>
      </trkpt>
      <trkpt lat="45.96" lon="-1.12027">
        <ele>13.6</ele>
        <time>2014-05-18T12:52:39.000Z</time>
      </trkpt>
      <trkpt lat="45.95989" lon="-1.12024">
        <ele>13.3</ele>
        <time>2014-05-18T12:52:44.000Z</time>
      </trkpt>
      <trkpt lat="45.9598" lon="-1.12022">
        <ele>13.3</ele>
        <time>2014-05-18T12:52:48.000Z</time>
      </trkpt>
      <trkpt lat="45.95968" lon="-1.1202">
        <ele>13.3</ele>
        <time>2014-05-18T12:52:52.000Z</time>
      </trkpt>
      <trkpt lat="45.95958" lon="-1.12019">
        <ele>13.2</ele>
        <time>2014-05-18T12:52:56.000Z</time>
      </trkpt>
      <trkpt lat="45.95937" lon="-1.12015">
        <ele>13</ele>
        <time>2014-05-18T12:53:04.000Z</time>
      </trkpt>
      <trkpt lat="45.95927" lon="-1.12013">
        <ele>12.9</ele>
        <time>2014-05-18T12:53:08.000Z</time>
      </trkpt>
      <trkpt lat="45.95916" lon="-1.12011">
        <ele>12.8</ele>
        <time>2014-05-18T12:53:12.000Z</time>
      </trkpt>
      <trkpt lat="45.95907" lon="-1.12007">
        <ele>13</ele>
        <time>2014-05-18T12:53:16.000Z</time>
      </trkpt>
      <trkpt lat="45.95897" lon="-1.12004">
        <ele>12.9</ele>
        <time>2014-05-18T12:53:20.000Z</time>
      </trkpt>
      <trkpt lat="45.95887" lon="-1.12001">
        <ele>12.9</ele>
        <time>2014-05-18T12:53:24.000Z</time>
      </trkpt>
      <trkpt lat="45.95877" lon="-1.11999">
        <ele>12.8</ele>
        <time>2014-05-18T12:53:28.000Z</time>
      </trkpt>
      <trkpt lat="45.95868" lon="-1.11996">
        <ele>12.7</ele>
        <time>2014-05-18T12:53:32.000Z</time>
      </trkpt>
      <trkpt lat="45.95857" lon="-1.11995">
        <ele>12.2</ele>
        <time>2014-05-18T12:53:36.000Z</time>
      </trkpt>
      <trkpt lat="45.95848" lon="-1.11993">
        <ele>12.2</ele>
        <time>2014-05-18T12:53:40.000Z</time>
      </trkpt>
      <trkpt lat="45.95837" lon="-1.1199">
        <ele>12.1</ele>
        <time>2014-05-18T12:53:44.000Z</time>
      </trkpt>
      <trkpt lat="45.95827" lon="-1.11988">
        <ele>12.2</ele>
        <time>2014-05-18T12:53:48.000Z</time>
      </trkpt>
      <trkpt lat="45.95817" lon="-1.11985">
        <ele>12.6</ele>
        <time>2014-05-18T12:53:53.000Z</time>
      </trkpt>
      <trkpt lat="45.95807" lon="-1.11982">
        <ele>12.5</ele>
        <time>2014-05-18T12:53:58.000Z</time>
      </trkpt>
      <trkpt lat="45.95789" lon="-1.11973">
        <ele>12.4</ele>
        <time>2014-05-18T12:54:06.000Z</time>
      </trkpt>
      <trkpt lat="45.95779" lon="-1.11968">
        <ele>12.4</ele>
        <time>2014-05-18T12:54:10.000Z</time>
      </trkpt>
      <trkpt lat="45.9577" lon="-1.11961">
        <ele>12.3</ele>
        <time>2014-05-18T12:54:14.000Z</time>
      </trkpt>
      <trkpt lat="45.95762" lon="-1.11953">
        <ele>12.3</ele>
        <time>2014-05-18T12:54:18.000Z</time>
      </trkpt>
      <trkpt lat="45.95752" lon="-1.11946">
        <ele>12.2</ele>
        <time>2014-05-18T12:54:23.000Z</time>
      </trkpt>
      <trkpt lat="45.95744" lon="-1.11939">
        <ele>12.2</ele>
        <time>2014-05-18T12:54:27.000Z</time>
      </trkpt>
      <trkpt lat="45.95735" lon="-1.11931">
        <ele>12.3</ele>
        <time>2014-05-18T12:54:31.000Z</time>
      </trkpt>
      <trkpt lat="45.95727" lon="-1.11924">
        <ele>12.3</ele>
        <time>2014-05-18T12:54:35.000Z</time>
      </trkpt>
      <trkpt lat="45.95718" lon="-1.11917">
        <ele>12.5</ele>
        <time>2014-05-18T12:54:39.000Z</time>
      </trkpt>
      <trkpt lat="45.95708" lon="-1.1191">
        <ele>12.4</ele>
        <time>2014-05-18T12:54:44.000Z</time>
      </trkpt>
      <trkpt lat="45.95699" lon="-1.11904">
        <ele>12.3</ele>
        <time>2014-05-18T12:54:48.000Z</time>
      </trkpt>
      <trkpt lat="45.95691" lon="-1.11898">
        <ele>11.8</ele>
        <time>2014-05-18T12:54:52.000Z</time>
      </trkpt>
      <trkpt lat="45.95682" lon="-1.11892">
        <ele>11.9</ele>
        <time>2014-05-18T12:54:56.000Z</time>
      </trkpt>
      <trkpt lat="45.95674" lon="-1.11885">
        <ele>12</ele>
        <time>2014-05-18T12:55:00.000Z</time>
      </trkpt>
      <trkpt lat="45.95655" lon="-1.11873">
        <ele>12</ele>
        <time>2014-05-18T12:55:08.000Z</time>
      </trkpt>
      <trkpt lat="45.95646" lon="-1.11867">
        <ele>12</ele>
        <time>2014-05-18T12:55:12.000Z</time>
      </trkpt>
      <trkpt lat="45.95637" lon="-1.11861">
        <ele>11.9</ele>
        <time>2014-05-18T12:55:16.000Z</time>
      </trkpt>
      <trkpt lat="45.95629" lon="-1.11853">
        <ele>11.9</ele>
        <time>2014-05-18T12:55:21.000Z</time>
      </trkpt>
      <trkpt lat="45.95619" lon="-1.11845">
        <ele>12.1</ele>
        <time>2014-05-18T12:55:26.000Z</time>
      </trkpt>
      <trkpt lat="45.95613" lon="-1.11835">
        <ele>12</ele>
        <time>2014-05-18T12:55:30.000Z</time>
      </trkpt>
      <trkpt lat="45.95602" lon="-1.11833">
        <ele>12.2</ele>
        <time>2014-05-18T12:55:35.000Z</time>
      </trkpt>
      <trkpt lat="45.95593" lon="-1.11826">
        <ele>12</ele>
        <time>2014-05-18T12:55:39.000Z</time>
      </trkpt>
      <trkpt lat="45.95585" lon="-1.11819">
        <ele>12</ele>
        <time>2014-05-18T12:55:43.000Z</time>
      </trkpt>
      <trkpt lat="45.95578" lon="-1.1181">
        <ele>12.2</ele>
        <time>2014-05-18T12:55:47.000Z</time>
      </trkpt>
      <trkpt lat="45.95571" lon="-1.118">
        <ele>11.9</ele>
        <time>2014-05-18T12:55:51.000Z</time>
      </trkpt>
      <trkpt lat="45.95564" lon="-1.1179">
        <ele>11.7</ele>
        <time>2014-05-18T12:55:55.000Z</time>
      </trkpt>
      <trkpt lat="45.95558" lon="-1.1178">
        <ele>11.3</ele>
        <time>2014-05-18T12:55:59.000Z</time>
      </trkpt>
      <trkpt lat="45.95551" lon="-1.11769">
        <ele>11.5</ele>
        <time>2014-05-18T12:56:03.000Z</time>
      </trkpt>
      <trkpt lat="45.95537" lon="-1.11746">
        <ele>11.5</ele>
        <time>2014-05-18T12:56:11.000Z</time>
      </trkpt>
      <trkpt lat="45.95529" lon="-1.11736">
        <ele>11.3</ele>
        <time>2014-05-18T12:56:15.000Z</time>
      </trkpt>
      <trkpt lat="45.9552" lon="-1.11728">
        <ele>11.1</ele>
        <time>2014-05-18T12:56:19.000Z</time>
      </trkpt>
      <trkpt lat="45.9551" lon="-1.1172">
        <ele>10.7</ele>
        <time>2014-05-18T12:56:23.000Z</time>
      </trkpt>
      <trkpt lat="45.95501" lon="-1.11712">
        <ele>10.9</ele>
        <time>2014-05-18T12:56:27.000Z</time>
      </trkpt>
      <trkpt lat="45.9549" lon="-1.11707">
        <ele>11</ele>
        <time>2014-05-18T12:56:31.000Z</time>
      </trkpt>
      <trkpt lat="45.95479" lon="-1.11707">
        <ele>11.1</ele>
        <time>2014-05-18T12:56:35.000Z</time>
      </trkpt>
      <trkpt lat="45.95469" lon="-1.11712">
        <ele>11.2</ele>
        <time>2014-05-18T12:56:39.000Z</time>
      </trkpt>
      <trkpt lat="45.95459" lon="-1.11717">
        <ele>11.6</ele>
        <time>2014-05-18T12:56:43.000Z</time>
      </trkpt>
      <trkpt lat="45.95449" lon="-1.11721">
        <ele>11.3</ele>
        <time>2014-05-18T12:56:47.000Z</time>
      </trkpt>
      <trkpt lat="45.95438" lon="-1.11728">
        <ele>11.2</ele>
        <time>2014-05-18T12:56:51.000Z</time>
      </trkpt>
      <trkpt lat="45.95427" lon="-1.11733">
        <ele>11.2</ele>
        <time>2014-05-18T12:56:55.000Z</time>
      </trkpt>
      <trkpt lat="45.95416" lon="-1.11737">
        <ele>11.5</ele>
        <time>2014-05-18T12:56:59.000Z</time>
      </trkpt>
      <trkpt lat="45.95406" lon="-1.11741">
        <ele>11.8</ele>
        <time>2014-05-18T12:57:03.000Z</time>
      </trkpt>
      <trkpt lat="45.95395" lon="-1.11745">
        <ele>11.8</ele>
        <time>2014-05-18T12:57:07.000Z</time>
      </trkpt>
      <trkpt lat="45.95372" lon="-1.11748">
        <ele>11.5</ele>
        <time>2014-05-18T12:57:15.000Z</time>
      </trkpt>
      <trkpt lat="45.95361" lon="-1.11748">
        <ele>11.3</ele>
        <time>2014-05-18T12:57:19.000Z</time>
      </trkpt>
      <trkpt lat="45.95351" lon="-1.11744">
        <ele>11.4</ele>
        <time>2014-05-18T12:57:23.000Z</time>
      </trkpt>
      <trkpt lat="45.95341" lon="-1.11739">
        <ele>11.6</ele>
        <time>2014-05-18T12:57:27.000Z</time>
      </trkpt>
      <trkpt lat="45.95332" lon="-1.11732">
        <ele>11.3</ele>
        <time>2014-05-18T12:57:31.000Z</time>
      </trkpt>
      <trkpt lat="45.95323" lon="-1.11724">
        <ele>10.9</ele>
        <time>2014-05-18T12:57:35.000Z</time>
      </trkpt>
      <trkpt lat="45.95313" lon="-1.11716">
        <ele>10.9</ele>
        <time>2014-05-18T12:57:39.000Z</time>
      </trkpt>
      <trkpt lat="45.95303" lon="-1.11708">
        <ele>10.8</ele>
        <time>2014-05-18T12:57:43.000Z</time>
      </trkpt>
      <trkpt lat="45.95292" lon="-1.11703">
        <ele>10.6</ele>
        <time>2014-05-18T12:57:47.000Z</time>
      </trkpt>
      <trkpt lat="45.95282" lon="-1.11696">
        <ele>10.6</ele>
        <time>2014-05-18T12:57:51.000Z</time>
      </trkpt>
      <trkpt lat="45.95272" lon="-1.11689">
        <ele>10.3</ele>
        <time>2014-05-18T12:57:55.000Z</time>
      </trkpt>
      <trkpt lat="45.95261" lon="-1.11684">
        <ele>10.2</ele>
        <time>2014-05-18T12:57:59.000Z</time>
      </trkpt>
      <trkpt lat="45.9525" lon="-1.11679">
        <ele>10.2</ele>
        <time>2014-05-18T12:58:03.000Z</time>
      </trkpt>
      <trkpt lat="45.95243" lon="-1.11672">
        <ele>10.2</ele>
        <time>2014-05-18T12:58:06.000Z</time>
      </trkpt>
      <trkpt lat="45.95235" lon="-1.11664">
        <ele>10.3</ele>
        <time>2014-05-18T12:58:09.000Z</time>
      </trkpt>
      <trkpt lat="45.95224" lon="-1.11641">
        <ele>9.9</ele>
        <time>2014-05-18T12:58:15.000Z</time>
      </trkpt>
      <trkpt lat="45.95221" lon="-1.11625">
        <ele>10</ele>
        <time>2014-05-18T12:58:19.000Z</time>
      </trkpt>
      <trkpt lat="45.9522" lon="-1.11609">
        <ele>9.9</ele>
        <time>2014-05-18T12:58:23.000Z</time>
      </trkpt>
      <trkpt lat="45.95219" lon="-1.11595">
        <ele>9.6</ele>
        <time>2014-05-18T12:58:26.000Z</time>
      </trkpt>
      <trkpt lat="45.95217" lon="-1.11579">
        <ele>9.6</ele>
        <time>2014-05-18T12:58:30.000Z</time>
      </trkpt>
      <trkpt lat="45.95216" lon="-1.11563">
        <ele>9.7</ele>
        <time>2014-05-18T12:58:34.000Z</time>
      </trkpt>
      <trkpt lat="45.95214" lon="-1.11547">
        <ele>10.1</ele>
        <time>2014-05-18T12:58:38.000Z</time>
      </trkpt>
      <trkpt lat="45.95212" lon="-1.11531">
        <ele>10.1</ele>
        <time>2014-05-18T12:58:42.000Z</time>
      </trkpt>
      <trkpt lat="45.95211" lon="-1.11516">
        <ele>10</ele>
        <time>2014-05-18T12:58:46.000Z</time>
      </trkpt>
      <trkpt lat="45.95209" lon="-1.11499">
        <ele>9.9</ele>
        <time>2014-05-18T12:58:50.000Z</time>
      </trkpt>
      <trkpt lat="45.95209" lon="-1.11484">
        <ele>9.6</ele>
        <time>2014-05-18T12:58:54.000Z</time>
      </trkpt>
      <trkpt lat="45.95209" lon="-1.11467">
        <ele>9.6</ele>
        <time>2014-05-18T12:58:58.000Z</time>
      </trkpt>
      <trkpt lat="45.95209" lon="-1.11453">
        <ele>9.2</ele>
        <time>2014-05-18T12:59:01.000Z</time>
      </trkpt>
      <trkpt lat="45.95212" lon="-1.11438">
        <ele>9.1</ele>
        <time>2014-05-18T12:59:05.000Z</time>
      </trkpt>
      <trkpt lat="45.95217" lon="-1.11424">
        <ele>9.2</ele>
        <time>2014-05-18T12:59:09.000Z</time>
      </trkpt>
      <trkpt lat="45.95222" lon="-1.11414">
        <ele>9.2</ele>
        <time>2014-05-18T12:59:12.000Z</time>
      </trkpt>
      <trkpt lat="45.95235" lon="-1.11391">
        <ele>8.8</ele>
        <time>2014-05-18T12:59:18.000Z</time>
      </trkpt>
      <trkpt lat="45.95242" lon="-1.11382">
        <ele>8.8</ele>
        <time>2014-05-18T12:59:21.000Z</time>
      </trkpt>
      <trkpt lat="45.95248" lon="-1.11371">
        <ele>8.7</ele>
        <time>2014-05-18T12:59:24.000Z</time>
      </trkpt>
      <trkpt lat="45.95255" lon="-1.1136">
        <ele>9.1</ele>
        <time>2014-05-18T12:59:27.000Z</time>
      </trkpt>
      <trkpt lat="45.95261" lon="-1.11351">
        <ele>9</ele>
        <time>2014-05-18T12:59:30.000Z</time>
      </trkpt>
      <trkpt lat="45.9527" lon="-1.11338">
        <ele>9.1</ele>
        <time>2014-05-18T12:59:34.000Z</time>
      </trkpt>
      <trkpt lat="45.95277" lon="-1.11325">
        <ele>9.1</ele>
        <time>2014-05-18T12:59:38.000Z</time>
      </trkpt>
      <trkpt lat="45.95282" lon="-1.11314">
        <ele>9.1</ele>
        <time>2014-05-18T12:59:41.000Z</time>
      </trkpt>
      <trkpt lat="45.95286" lon="-1.11301">
        <ele>9.1</ele>
        <time>2014-05-18T12:59:44.000Z</time>
      </trkpt>
      <trkpt lat="45.95287" lon="-1.11287">
        <ele>9</ele>
        <time>2014-05-18T12:59:47.000Z</time>
      </trkpt>
      <trkpt lat="45.95288" lon="-1.11274">
        <ele>8.9</ele>
        <time>2014-05-18T12:59:50.000Z</time>
      </trkpt>
      <trkpt lat="45.95289" lon="-1.11259">
        <ele>9.1</ele>
        <time>2014-05-18T12:59:53.000Z</time>
      </trkpt>
      <trkpt lat="45.95289" lon="-1.11245">
        <ele>9.3</ele>
        <time>2014-05-18T12:59:56.000Z</time>
      </trkpt>
      <trkpt lat="45.9529" lon="-1.11231">
        <ele>9.3</ele>
        <time>2014-05-18T12:59:59.000Z</time>
      </trkpt>
      <trkpt lat="45.95291" lon="-1.11216">
        <ele>8.9</ele>
        <time>2014-05-18T13:00:02.000Z</time>
      </trkpt>
      <trkpt lat="45.95294" lon="-1.11203">
        <ele>8.8</ele>
        <time>2014-05-18T13:00:05.000Z</time>
      </trkpt>
      <trkpt lat="45.95297" lon="-1.1119">
        <ele>8.9</ele>
        <time>2014-05-18T13:00:08.000Z</time>
      </trkpt>
      <trkpt lat="45.95303" lon="-1.11177">
        <ele>9.1</ele>
        <time>2014-05-18T13:00:11.000Z</time>
      </trkpt>
      <trkpt lat="45.95311" lon="-1.11168">
        <ele>8.6</ele>
        <time>2014-05-18T13:00:14.000Z</time>
      </trkpt>
      <trkpt lat="45.95333" lon="-1.1116">
        <ele>8.2</ele>
        <time>2014-05-18T13:00:20.000Z</time>
      </trkpt>
      <trkpt lat="45.95344" lon="-1.11162">
        <ele>7.9</ele>
        <time>2014-05-18T13:00:23.000Z</time>
      </trkpt>
      <trkpt lat="45.95356" lon="-1.11163">
        <ele>7.8</ele>
        <time>2014-05-18T13:00:26.000Z</time>
      </trkpt>
      <trkpt lat="45.95368" lon="-1.11163">
        <ele>7.8</ele>
        <time>2014-05-18T13:00:29.000Z</time>
      </trkpt>
      <trkpt lat="45.95379" lon="-1.11163">
        <ele>7.9</ele>
        <time>2014-05-18T13:00:32.000Z</time>
      </trkpt>
      <trkpt lat="45.95391" lon="-1.11164">
        <ele>8</ele>
        <time>2014-05-18T13:00:35.000Z</time>
      </trkpt>
      <trkpt lat="45.95402" lon="-1.11163">
        <ele>8.2</ele>
        <time>2014-05-18T13:00:38.000Z</time>
      </trkpt>
      <trkpt lat="45.95413" lon="-1.11163">
        <ele>7.9</ele>
        <time>2014-05-18T13:00:41.000Z</time>
      </trkpt>
      <trkpt lat="45.95424" lon="-1.11163">
        <ele>7.8</ele>
        <time>2014-05-18T13:00:44.000Z</time>
      </trkpt>
      <trkpt lat="45.95435" lon="-1.11163">
        <ele>7.5</ele>
        <time>2014-05-18T13:00:47.000Z</time>
      </trkpt>
      <trkpt lat="45.95445" lon="-1.11164">
        <ele>7.4</ele>
        <time>2014-05-18T13:00:50.000Z</time>
      </trkpt>
      <trkpt lat="45.95454" lon="-1.11164">
        <ele>7.6</ele>
        <time>2014-05-18T13:00:53.000Z</time>
      </trkpt>
      <trkpt lat="45.95464" lon="-1.11163">
        <ele>7.6</ele>
        <time>2014-05-18T13:00:56.000Z</time>
      </trkpt>
      <trkpt lat="45.95474" lon="-1.11157">
        <ele>7.7</ele>
        <time>2014-05-18T13:00:59.000Z</time>
      </trkpt>
      <trkpt lat="45.95481" lon="-1.11145">
        <ele>7.7</ele>
        <time>2014-05-18T13:01:02.000Z</time>
      </trkpt>
      <trkpt lat="45.95483" lon="-1.11132">
        <ele>7.8</ele>
        <time>2014-05-18T13:01:05.000Z</time>
      </trkpt>
      <trkpt lat="45.95482" lon="-1.11119">
        <ele>8</ele>
        <time>2014-05-18T13:01:08.000Z</time>
      </trkpt>
      <trkpt lat="45.95481" lon="-1.11104">
        <ele>8</ele>
        <time>2014-05-18T13:01:12.000Z</time>
      </trkpt>
      <trkpt lat="45.95481" lon="-1.11091">
        <ele>8.1</ele>
        <time>2014-05-18T13:01:16.000Z</time>
      </trkpt>
      <trkpt lat="45.95482" lon="-1.11061">
        <ele>8.3</ele>
        <time>2014-05-18T13:01:24.000Z</time>
      </trkpt>
      <trkpt lat="45.95483" lon="-1.11044">
        <ele>8.2</ele>
        <time>2014-05-18T13:01:28.000Z</time>
      </trkpt>
      <trkpt lat="45.95483" lon="-1.11028">
        <ele>8</ele>
        <time>2014-05-18T13:01:32.000Z</time>
      </trkpt>
      <trkpt lat="45.95484" lon="-1.11012">
        <ele>8.1</ele>
        <time>2014-05-18T13:01:37.000Z</time>
      </trkpt>
      <trkpt lat="45.95484" lon="-1.10998">
        <ele>7.9</ele>
        <time>2014-05-18T13:01:41.000Z</time>
      </trkpt>
      <trkpt lat="45.95482" lon="-1.10984">
        <ele>8.2</ele>
        <time>2014-05-18T13:01:45.000Z</time>
      </trkpt>
      <trkpt lat="45.95481" lon="-1.10969">
        <ele>8.2</ele>
        <time>2014-05-18T13:01:49.000Z</time>
      </trkpt>
      <trkpt lat="45.95478" lon="-1.10953">
        <ele>8.1</ele>
        <time>2014-05-18T13:01:53.000Z</time>
      </trkpt>
      <trkpt lat="45.95475" lon="-1.10937">
        <ele>7.9</ele>
        <time>2014-05-18T13:01:57.000Z</time>
      </trkpt>
      <trkpt lat="45.95472" lon="-1.10921">
        <ele>7.8</ele>
        <time>2014-05-18T13:02:01.000Z</time>
      </trkpt>
      <trkpt lat="45.9547" lon="-1.10908">
        <ele>7.7</ele>
        <time>2014-05-18T13:02:04.000Z</time>
      </trkpt>
      <trkpt lat="45.95467" lon="-1.10892">
        <ele>7.6</ele>
        <time>2014-05-18T13:02:08.000Z</time>
      </trkpt>
      <trkpt lat="45.95465" lon="-1.10875">
        <ele>7.4</ele>
        <time>2014-05-18T13:02:12.000Z</time>
      </trkpt>
      <trkpt lat="45.95462" lon="-1.10859">
        <ele>7.6</ele>
        <time>2014-05-18T13:02:16.000Z</time>
      </trkpt>
      <trkpt lat="45.9546" lon="-1.10843">
        <ele>7.7</ele>
        <time>2014-05-18T13:02:20.000Z</time>
      </trkpt>
      <trkpt lat="45.95456" lon="-1.10814">
        <ele>7.6</ele>
        <time>2014-05-18T13:02:28.000Z</time>
      </trkpt>
      <trkpt lat="45.95455" lon="-1.10801">
        <ele>8.1</ele>
        <time>2014-05-18T13:02:32.000Z</time>
      </trkpt>
      <trkpt lat="45.95454" lon="-1.10788">
        <ele>8.1</ele>
        <time>2014-05-18T13:02:36.000Z</time>
      </trkpt>
      <trkpt lat="45.95451" lon="-1.10773">
        <ele>7.7</ele>
        <time>2014-05-18T13:02:40.000Z</time>
      </trkpt>
      <trkpt lat="45.95448" lon="-1.10758">
        <ele>7.7</ele>
        <time>2014-05-18T13:02:44.000Z</time>
      </trkpt>
      <trkpt lat="45.95446" lon="-1.10743">
        <ele>7.6</ele>
        <time>2014-05-18T13:02:48.000Z</time>
      </trkpt>
      <trkpt lat="45.95444" lon="-1.10728">
        <ele>7.4</ele>
        <time>2014-05-18T13:02:52.000Z</time>
      </trkpt>
      <trkpt lat="45.95442" lon="-1.10713">
        <ele>7.1</ele>
        <time>2014-05-18T13:02:56.000Z</time>
      </trkpt>
      <trkpt lat="45.95439" lon="-1.10698">
        <ele>6.9</ele>
        <time>2014-05-18T13:03:00.000Z</time>
      </trkpt>
      <trkpt lat="45.95438" lon="-1.10685">
        <ele>7</ele>
        <time>2014-05-18T13:03:04.000Z</time>
      </trkpt>
      <trkpt lat="45.95438" lon="-1.10671">
        <ele>6.8</ele>
        <time>2014-05-18T13:03:09.000Z</time>
      </trkpt>
      <trkpt lat="45.95435" lon="-1.10655">
        <ele>7</ele>
        <time>2014-05-18T13:03:15.000Z</time>
      </trkpt>
      <trkpt lat="45.95432" lon="-1.10641">
        <ele>6.8</ele>
        <time>2014-05-18T13:03:19.000Z</time>
      </trkpt>
      <trkpt lat="45.9543" lon="-1.10627">
        <ele>6.7</ele>
        <time>2014-05-18T13:03:23.000Z</time>
      </trkpt>
      <trkpt lat="45.95424" lon="-1.10599">
        <ele>6.4</ele>
        <time>2014-05-18T13:03:34.000Z</time>
      </trkpt>
      <trkpt lat="45.95433" lon="-1.10603">
        <ele>4.6</ele>
        <time>2014-05-18T13:06:36.000Z</time>
      </trkpt>
      <trkpt lat="45.95449" lon="-1.10621">
        <ele>4.3</ele>
        <time>2014-05-18T13:06:43.000Z</time>
      </trkpt>
      <trkpt lat="45.95457" lon="-1.10628">
        <ele>4.2</ele>
        <time>2014-05-18T13:06:46.000Z</time>
      </trkpt>
      <trkpt lat="45.95465" lon="-1.10636">
        <ele>4.1</ele>
        <time>2014-05-18T13:06:49.000Z</time>
      </trkpt>
      <trkpt lat="45.95473" lon="-1.10644">
        <ele>4</ele>
        <time>2014-05-18T13:06:52.000Z</time>
      </trkpt>
      <trkpt lat="45.95482" lon="-1.10651">
        <ele>4.1</ele>
        <time>2014-05-18T13:06:55.000Z</time>
      </trkpt>
      <trkpt lat="45.95491" lon="-1.10659">
        <ele>4.1</ele>
        <time>2014-05-18T13:06:58.000Z</time>
      </trkpt>
      <trkpt lat="45.955" lon="-1.10666">
        <ele>4.3</ele>
        <time>2014-05-18T13:07:01.000Z</time>
      </trkpt>
      <trkpt lat="45.95508" lon="-1.10673">
        <ele>4.3</ele>
        <time>2014-05-18T13:07:04.000Z</time>
      </trkpt>
      <trkpt lat="45.95517" lon="-1.10679">
        <ele>4.6</ele>
        <time>2014-05-18T13:07:07.000Z</time>
      </trkpt>
      <trkpt lat="45.95525" lon="-1.10686">
        <ele>4.4</ele>
        <time>2014-05-18T13:07:10.000Z</time>
      </trkpt>
      <trkpt lat="45.95535" lon="-1.10693">
        <ele>4.3</ele>
        <time>2014-05-18T13:07:14.000Z</time>
      </trkpt>
      <trkpt lat="45.95544" lon="-1.107">
        <ele>4.4</ele>
        <time>2014-05-18T13:07:21.000Z</time>
      </trkpt>
      <trkpt lat="45.95553" lon="-1.10707">
        <ele>4.4</ele>
        <time>2014-05-18T13:07:29.000Z</time>
      </trkpt>
      <trkpt lat="45.95561" lon="-1.10714">
        <ele>4.6</ele>
        <time>2014-05-18T13:07:36.000Z</time>
      </trkpt>
      <trkpt lat="45.9556" lon="-1.10728">
        <ele>4</ele>
        <time>2014-05-18T13:07:41.000Z</time>
      </trkpt>
      <trkpt lat="45.95556" lon="-1.10759">
        <ele>3.5</ele>
        <time>2014-05-18T13:07:50.000Z</time>
      </trkpt>
      <trkpt lat="45.95557" lon="-1.10774">
        <ele>3.7</ele>
        <time>2014-05-18T13:07:56.000Z</time>
      </trkpt>
      <trkpt lat="45.95559" lon="-1.1079">
        <ele>3.7</ele>
        <time>2014-05-18T13:08:01.000Z</time>
      </trkpt>
      <trkpt lat="45.95556" lon="-1.10803">
        <ele>3.8</ele>
        <time>2014-05-18T13:08:22.000Z</time>
      </trkpt>
      <trkpt lat="45.95557" lon="-1.10788">
        <ele>1.1</ele>
        <time>2014-05-18T13:13:49.000Z</time>
      </trkpt>
      <trkpt lat="45.95557" lon="-1.10758">
        <ele>0.4</ele>
        <time>2014-05-18T13:13:59.000Z</time>
      </trkpt>
      <trkpt lat="45.95556" lon="-1.10744">
        <ele>2.2</ele>
        <time>2014-05-18T13:14:02.000Z</time>
      </trkpt>
      <trkpt lat="45.95558" lon="-1.1073">
        <ele>0.2</ele>
        <time>2014-05-18T13:14:07.000Z</time>
      </trkpt>
      <trkpt lat="45.9556" lon="-1.10716">
        <ele>1</ele>
        <time>2014-05-18T13:14:15.000Z</time>
      </trkpt>
      <trkpt lat="45.95552" lon="-1.10708">
        <ele>1</ele>
        <time>2014-05-18T13:14:22.000Z</time>
      </trkpt>
      <trkpt lat="45.95543" lon="-1.10701">
        <ele>0.9</ele>
        <time>2014-05-18T13:14:27.000Z</time>
      </trkpt>
      <trkpt lat="45.95534" lon="-1.10695">
        <ele>1.1</ele>
        <time>2014-05-18T13:14:31.000Z</time>
      </trkpt>
      <trkpt lat="45.95525" lon="-1.10688">
        <ele>0.9</ele>
        <time>2014-05-18T13:14:35.000Z</time>
      </trkpt>
      <trkpt lat="45.95515" lon="-1.10682">
        <ele>0.9</ele>
        <time>2014-05-18T13:14:39.000Z</time>
      </trkpt>
      <trkpt lat="45.95504" lon="-1.10675">
        <ele>0.7</ele>
        <time>2014-05-18T13:14:43.000Z</time>
      </trkpt>
      <trkpt lat="45.95494" lon="-1.10667">
        <ele>0.6</ele>
        <time>2014-05-18T13:14:47.000Z</time>
      </trkpt>
      <trkpt lat="45.95483" lon="-1.1066">
        <ele>0.8</ele>
        <time>2014-05-18T13:14:51.000Z</time>
      </trkpt>
      <trkpt lat="45.95468" lon="-1.10644">
        <ele>0.4</ele>
        <time>2014-05-18T13:14:57.000Z</time>
      </trkpt>
      <trkpt lat="45.9546" lon="-1.10636">
        <ele>0.7</ele>
        <time>2014-05-18T13:15:00.000Z</time>
      </trkpt>
      <trkpt lat="45.95452" lon="-1.10627">
        <ele>0.7</ele>
        <time>2014-05-18T13:15:03.000Z</time>
      </trkpt>
      <trkpt lat="45.95444" lon="-1.10619">
        <ele>0.5</ele>
        <time>2014-05-18T13:15:06.000Z</time>
      </trkpt>
      <trkpt lat="45.95438" lon="-1.1061">
        <ele>0.4</ele>
        <time>2014-05-18T13:15:09.000Z</time>
      </trkpt>
      <trkpt lat="45.95431" lon="-1.10599">
        <ele>0.6</ele>
        <time>2014-05-18T13:15:12.000Z</time>
      </trkpt>
      <trkpt lat="45.95425" lon="-1.10589">
        <ele>0.4</ele>
        <time>2014-05-18T13:15:15.000Z</time>
      </trkpt>
      <trkpt lat="45.9542" lon="-1.10578">
        <ele>0.4</ele>
        <time>2014-05-18T13:15:18.000Z</time>
      </trkpt>
      <trkpt lat="45.95415" lon="-1.10567">
        <ele>0.6</ele>
        <time>2014-05-18T13:15:21.000Z</time>
      </trkpt>
      <trkpt lat="45.95407" lon="-1.10554">
        <ele>0.8</ele>
        <time>2014-05-18T13:15:25.000Z</time>
      </trkpt>
      <trkpt lat="45.95402" lon="-1.1054">
        <ele>0.5</ele>
        <time>2014-05-18T13:15:29.000Z</time>
      </trkpt>
      <trkpt lat="45.95398" lon="-1.10525">
        <ele>0.5</ele>
        <time>2014-05-18T13:15:33.000Z</time>
      </trkpt>
      <trkpt lat="45.95394" lon="-1.10511">
        <ele>1.9</ele>
        <time>2014-05-18T13:15:36.000Z</time>
      </trkpt>
      <trkpt lat="45.95391" lon="-1.10495">
        <ele>-0.5</ele>
        <time>2014-05-18T13:15:39.000Z</time>
      </trkpt>
      <trkpt lat="45.95388" lon="-1.10481">
        <ele>-0.8</ele>
        <time>2014-05-18T13:15:42.000Z</time>
      </trkpt>
      <trkpt lat="45.95385" lon="-1.10466">
        <ele>-0.8</ele>
        <time>2014-05-18T13:15:47.000Z</time>
      </trkpt>
      <trkpt lat="45.95384" lon="-1.10453">
        <ele>-1.2</ele>
        <time>2014-05-18T13:15:52.000Z</time>
      </trkpt>
      <trkpt lat="45.95383" lon="-1.10423">
        <ele>-1.4</ele>
        <time>2014-05-18T13:16:03.000Z</time>
      </trkpt>
      <trkpt lat="45.95382" lon="-1.10408">
        <ele>-1.6</ele>
        <time>2014-05-18T13:16:08.000Z</time>
      </trkpt>
      <trkpt lat="45.95381" lon="-1.10395">
        <ele>-1.9</ele>
        <time>2014-05-18T13:16:12.000Z</time>
      </trkpt>
      <trkpt lat="45.95377" lon="-1.10379">
        <ele>-1.3</ele>
        <time>2014-05-18T13:16:16.000Z</time>
      </trkpt>
      <trkpt lat="45.95375" lon="-1.10366">
        <ele>-1.5</ele>
        <time>2014-05-18T13:16:19.000Z</time>
      </trkpt>
      <trkpt lat="45.95372" lon="-1.10354">
        <ele>-1.6</ele>
        <time>2014-05-18T13:16:22.000Z</time>
      </trkpt>
      <trkpt lat="45.95368" lon="-1.10341">
        <ele>-1.4</ele>
        <time>2014-05-18T13:16:25.000Z</time>
      </trkpt>
      <trkpt lat="45.95364" lon="-1.10329">
        <ele>-1.1</ele>
        <time>2014-05-18T13:16:28.000Z</time>
      </trkpt>
      <trkpt lat="45.95361" lon="-1.10316">
        <ele>-1.7</ele>
        <time>2014-05-18T13:16:31.000Z</time>
      </trkpt>
      <trkpt lat="45.95359" lon="-1.103">
        <ele>-1.6</ele>
        <time>2014-05-18T13:16:35.000Z</time>
      </trkpt>
      <trkpt lat="45.95357" lon="-1.10285">
        <ele>-1.3</ele>
        <time>2014-05-18T13:16:39.000Z</time>
      </trkpt>
      <trkpt lat="45.95354" lon="-1.10271">
        <ele>-1.9</ele>
        <time>2014-05-18T13:16:43.000Z</time>
      </trkpt>
      <trkpt lat="45.95351" lon="-1.10258">
        <ele>-2</ele>
        <time>2014-05-18T13:16:47.000Z</time>
      </trkpt>
      <trkpt lat="45.95348" lon="-1.10245">
        <ele>-1.7</ele>
        <time>2014-05-18T13:16:52.000Z</time>
      </trkpt>
      <trkpt lat="45.95344" lon="-1.10233">
        <ele>-1.8</ele>
        <time>2014-05-18T13:16:56.000Z</time>
      </trkpt>
      <trkpt lat="45.95331" lon="-1.10209">
        <ele>-2.4</ele>
        <time>2014-05-18T13:17:04.000Z</time>
      </trkpt>
      <trkpt lat="45.95325" lon="-1.10197">
        <ele>-2.4</ele>
        <time>2014-05-18T13:17:08.000Z</time>
      </trkpt>
      <trkpt lat="45.95319" lon="-1.10186">
        <ele>-2</ele>
        <time>2014-05-18T13:17:12.000Z</time>
      </trkpt>
      <trkpt lat="45.95314" lon="-1.10174">
        <ele>-2.1</ele>
        <time>2014-05-18T13:17:17.000Z</time>
      </trkpt>
      <trkpt lat="45.95309" lon="-1.10163">
        <ele>-2</ele>
        <time>2014-05-18T13:17:21.000Z</time>
      </trkpt>
      <trkpt lat="45.95303" lon="-1.1015">
        <ele>-2.2</ele>
        <time>2014-05-18T13:17:27.000Z</time>
      </trkpt>
      <trkpt lat="45.95298" lon="-1.10137">
        <ele>-2.5</ele>
        <time>2014-05-18T13:17:32.000Z</time>
      </trkpt>
      <trkpt lat="45.95294" lon="-1.10125">
        <ele>-2.6</ele>
        <time>2014-05-18T13:17:36.000Z</time>
      </trkpt>
      <trkpt lat="45.95291" lon="-1.10113">
        <ele>-2.6</ele>
        <time>2014-05-18T13:17:40.000Z</time>
      </trkpt>
      <trkpt lat="45.95285" lon="-1.10099">
        <ele>-2.5</ele>
        <time>2014-05-18T13:17:45.000Z</time>
      </trkpt>
      <trkpt lat="45.9528" lon="-1.10087">
        <ele>-2.6</ele>
        <time>2014-05-18T13:17:49.000Z</time>
      </trkpt>
      <trkpt lat="45.95276" lon="-1.10074">
        <ele>-2.7</ele>
        <time>2014-05-18T13:17:53.000Z</time>
      </trkpt>
      <trkpt lat="45.95273" lon="-1.10058">
        <ele>-2.9</ele>
        <time>2014-05-18T13:17:57.000Z</time>
      </trkpt>
      <trkpt lat="45.95265" lon="-1.10027">
        <ele>-2.7</ele>
        <time>2014-05-18T13:18:05.000Z</time>
      </trkpt>
      <trkpt lat="45.95262" lon="-1.10013">
        <ele>-3</ele>
        <time>2014-05-18T13:18:09.000Z</time>
      </trkpt>
      <trkpt lat="45.95258" lon="-1.09998">
        <ele>-2.9</ele>
        <time>2014-05-18T13:18:13.000Z</time>
      </trkpt>
      <trkpt lat="45.95254" lon="-1.09984">
        <ele>-3.1</ele>
        <time>2014-05-18T13:18:17.000Z</time>
      </trkpt>
      <trkpt lat="45.9525" lon="-1.09971">
        <ele>-2.7</ele>
        <time>2014-05-18T13:18:21.000Z</time>
      </trkpt>
      <trkpt lat="45.95246" lon="-1.09958">
        <ele>-3.2</ele>
        <time>2014-05-18T13:18:25.000Z</time>
      </trkpt>
      <trkpt lat="45.95242" lon="-1.09945">
        <ele>-3.7</ele>
        <time>2014-05-18T13:18:29.000Z</time>
      </trkpt>
      <trkpt lat="45.95239" lon="-1.09931">
        <ele>-3.5</ele>
        <time>2014-05-18T13:18:33.000Z</time>
      </trkpt>
      <trkpt lat="45.95236" lon="-1.09917">
        <ele>-3.2</ele>
        <time>2014-05-18T13:18:37.000Z</time>
      </trkpt>
      <trkpt lat="45.95232" lon="-1.09903">
        <ele>-3.4</ele>
        <time>2014-05-18T13:18:41.000Z</time>
      </trkpt>
      <trkpt lat="45.95227" lon="-1.0989">
        <ele>-3.3</ele>
        <time>2014-05-18T13:18:45.000Z</time>
      </trkpt>
      <trkpt lat="45.95223" lon="-1.09877">
        <ele>-3.5</ele>
        <time>2014-05-18T13:18:49.000Z</time>
      </trkpt>
      <trkpt lat="45.95219" lon="-1.09863">
        <ele>-3.3</ele>
        <time>2014-05-18T13:18:53.000Z</time>
      </trkpt>
      <trkpt lat="45.95213" lon="-1.09849">
        <ele>-3.4</ele>
        <time>2014-05-18T13:18:57.000Z</time>
      </trkpt>
      <trkpt lat="45.95208" lon="-1.09835">
        <ele>-3.5</ele>
        <time>2014-05-18T13:19:01.000Z</time>
      </trkpt>
      <trkpt lat="45.95197" lon="-1.09809">
        <ele>-3.9</ele>
        <time>2014-05-18T13:19:09.000Z</time>
      </trkpt>
      <trkpt lat="45.95192" lon="-1.09795">
        <ele>-3.7</ele>
        <time>2014-05-18T13:19:13.000Z</time>
      </trkpt>
      <trkpt lat="45.95187" lon="-1.09781">
        <ele>-4.2</ele>
        <time>2014-05-18T13:19:17.000Z</time>
      </trkpt>
      <trkpt lat="45.95182" lon="-1.09768">
        <ele>-4</ele>
        <time>2014-05-18T13:19:21.000Z</time>
      </trkpt>
      <trkpt lat="45.95177" lon="-1.09756">
        <ele>-3.6</ele>
        <time>2014-05-18T13:19:25.000Z</time>
      </trkpt>
      <trkpt lat="45.95172" lon="-1.09742">
        <ele>-3.5</ele>
        <time>2014-05-18T13:19:29.000Z</time>
      </trkpt>
      <trkpt lat="45.95167" lon="-1.09729">
        <ele>-3.6</ele>
        <time>2014-05-18T13:19:33.000Z</time>
      </trkpt>
      <trkpt lat="45.95162" lon="-1.09716">
        <ele>-3.5</ele>
        <time>2014-05-18T13:19:37.000Z</time>
      </trkpt>
      <trkpt lat="45.95157" lon="-1.09702">
        <ele>-3.6</ele>
        <time>2014-05-18T13:19:41.000Z</time>
      </trkpt>
      <trkpt lat="45.95151" lon="-1.09689">
        <ele>-4</ele>
        <time>2014-05-18T13:19:45.000Z</time>
      </trkpt>
      <trkpt lat="45.95145" lon="-1.09678">
        <ele>-3.6</ele>
        <time>2014-05-18T13:19:49.000Z</time>
      </trkpt>
      <trkpt lat="45.95138" lon="-1.09666">
        <ele>-3.7</ele>
        <time>2014-05-18T13:19:53.000Z</time>
      </trkpt>
      <trkpt lat="45.95132" lon="-1.09653">
        <ele>-3.5</ele>
        <time>2014-05-18T13:19:57.000Z</time>
      </trkpt>
      <trkpt lat="45.95126" lon="-1.09641">
        <ele>-3.6</ele>
        <time>2014-05-18T13:20:01.000Z</time>
      </trkpt>
      <trkpt lat="45.95119" lon="-1.09628">
        <ele>-3.6</ele>
        <time>2014-05-18T13:20:05.000Z</time>
      </trkpt>
      <trkpt lat="45.95105" lon="-1.09605">
        <ele>-3.7</ele>
        <time>2014-05-18T13:20:13.000Z</time>
      </trkpt>
      <trkpt lat="45.95098" lon="-1.09594">
        <ele>-3.6</ele>
        <time>2014-05-18T13:20:17.000Z</time>
      </trkpt>
      <trkpt lat="45.95091" lon="-1.09584">
        <ele>-3.8</ele>
        <time>2014-05-18T13:20:20.000Z</time>
      </trkpt>
      <trkpt lat="45.95084" lon="-1.09574">
        <ele>-3.6</ele>
        <time>2014-05-18T13:20:23.000Z</time>
      </trkpt>
      <trkpt lat="45.95076" lon="-1.09562">
        <ele>-3.7</ele>
        <time>2014-05-18T13:20:27.000Z</time>
      </trkpt>
      <trkpt lat="45.95069" lon="-1.09554">
        <ele>-3.7</ele>
        <time>2014-05-18T13:20:30.000Z</time>
      </trkpt>
      <trkpt lat="45.95062" lon="-1.09543">
        <ele>-3.8</ele>
        <time>2014-05-18T13:20:34.000Z</time>
      </trkpt>
      <trkpt lat="45.95055" lon="-1.0953">
        <ele>-3.9</ele>
        <time>2014-05-18T13:20:38.000Z</time>
      </trkpt>
      <trkpt lat="45.95046" lon="-1.09522">
        <ele>-3.7</ele>
        <time>2014-05-18T13:20:42.000Z</time>
      </trkpt>
      <trkpt lat="45.95037" lon="-1.09514">
        <ele>-3.8</ele>
        <time>2014-05-18T13:20:46.000Z</time>
      </trkpt>
      <trkpt lat="45.95026" lon="-1.09506">
        <ele>-3.6</ele>
        <time>2014-05-18T13:20:50.000Z</time>
      </trkpt>
      <trkpt lat="45.95018" lon="-1.09498">
        <ele>-3.8</ele>
        <time>2014-05-18T13:20:53.000Z</time>
      </trkpt>
      <trkpt lat="45.9501" lon="-1.09491">
        <ele>-3.8</ele>
        <time>2014-05-18T13:20:56.000Z</time>
      </trkpt>
      <trkpt lat="45.95002" lon="-1.09485">
        <ele>-3.9</ele>
        <time>2014-05-18T13:20:59.000Z</time>
      </trkpt>
      <trkpt lat="45.94992" lon="-1.09479">
        <ele>-4</ele>
        <time>2014-05-18T13:21:03.000Z</time>
      </trkpt>
      <trkpt lat="45.94981" lon="-1.09473">
        <ele>-3.8</ele>
        <time>2014-05-18T13:21:07.000Z</time>
      </trkpt>
      <trkpt lat="45.9496" lon="-1.09466">
        <ele>-3.6</ele>
        <time>2014-05-18T13:21:15.000Z</time>
      </trkpt>
      <trkpt lat="45.94949" lon="-1.09469">
        <ele>-3.4</ele>
        <time>2014-05-18T13:21:19.000Z</time>
      </trkpt>
      <trkpt lat="45.94942" lon="-1.09477">
        <ele>-3.2</ele>
        <time>2014-05-18T13:21:24.000Z</time>
      </trkpt>
      <trkpt lat="45.94937" lon="-1.09488">
        <ele>-2.6</ele>
        <time>2014-05-18T13:21:31.000Z</time>
      </trkpt>
      <trkpt lat="45.94932" lon="-1.09501">
        <ele>-2.4</ele>
        <time>2014-05-18T13:21:48.000Z</time>
      </trkpt>
      <trkpt lat="45.94926" lon="-1.09514">
        <ele>-1.7</ele>
        <time>2014-05-18T13:21:55.000Z</time>
      </trkpt>
      <trkpt lat="45.94918" lon="-1.09522">
        <ele>-1.6</ele>
        <time>2014-05-18T13:22:00.000Z</time>
      </trkpt>
      <trkpt lat="45.94909" lon="-1.09527">
        <ele>-1.5</ele>
        <time>2014-05-18T13:22:06.000Z</time>
      </trkpt>
      <trkpt lat="45.94902" lon="-1.09537">
        <ele>-1.3</ele>
        <time>2014-05-18T13:22:13.000Z</time>
      </trkpt>
      <trkpt lat="45.9491" lon="-1.0958">
        <ele>-0.6</ele>
        <time>2014-05-18T13:24:58.000Z</time>
      </trkpt>
      <trkpt lat="45.9491" lon="-1.09595">
        <ele>-0.5</ele>
        <time>2014-05-18T13:25:02.000Z</time>
      </trkpt>
      <trkpt lat="45.94907" lon="-1.0961">
        <ele>-0.5</ele>
        <time>2014-05-18T13:25:06.000Z</time>
      </trkpt>
      <trkpt lat="45.94902" lon="-1.09625">
        <ele>-0.6</ele>
        <time>2014-05-18T13:25:10.000Z</time>
      </trkpt>
      <trkpt lat="45.94898" lon="-1.09638">
        <ele>-0.7</ele>
        <time>2014-05-18T13:25:14.000Z</time>
      </trkpt>
      <trkpt lat="45.94891" lon="-1.09651">
        <ele>-0.8</ele>
        <time>2014-05-18T13:25:18.000Z</time>
      </trkpt>
      <trkpt lat="45.94884" lon="-1.09662">
        <ele>-0.6</ele>
        <time>2014-05-18T13:25:21.000Z</time>
      </trkpt>
      <trkpt lat="45.94873" lon="-1.09669">
        <ele>4.4</ele>
        <time>2014-05-18T13:25:25.000Z</time>
      </trkpt>
      <trkpt lat="45.94862" lon="-1.09668">
        <ele>4.9</ele>
        <time>2014-05-18T13:25:30.000Z</time>
      </trkpt>
      <trkpt lat="45.94851" lon="-1.09665">
        <ele>-0.5</ele>
        <time>2014-05-18T13:25:33.000Z</time>
      </trkpt>
      <trkpt lat="45.94839" lon="-1.09668">
        <ele>-1.1</ele>
        <time>2014-05-18T13:25:36.000Z</time>
      </trkpt>
      <trkpt lat="45.94834" lon="-1.0968">
        <ele>-1.1</ele>
        <time>2014-05-18T13:25:39.000Z</time>
      </trkpt>
      <trkpt lat="45.94831" lon="-1.09692">
        <ele>-0.3</ele>
        <time>2014-05-18T13:25:42.000Z</time>
      </trkpt>
      <trkpt lat="45.9484" lon="-1.09687">
        <ele>1.1</ele>
        <time>2014-05-18T13:27:39.000Z</time>
      </trkpt>
      <trkpt lat="45.94845" lon="-1.09656">
        <ele>-0.4</ele>
        <time>2014-05-18T13:27:46.000Z</time>
      </trkpt>
      <trkpt lat="45.94854" lon="-1.09655">
        <ele>-0.8</ele>
        <time>2014-05-18T13:27:51.000Z</time>
      </trkpt>
      <trkpt lat="45.94862" lon="-1.09664">
        <ele>-0.7</ele>
        <time>2014-05-18T13:27:55.000Z</time>
      </trkpt>
      <trkpt lat="45.94867" lon="-1.09677">
        <ele>0.8</ele>
        <time>2014-05-18T13:28:02.000Z</time>
      </trkpt>
      <trkpt lat="45.94857" lon="-1.09677">
        <ele>1.3</ele>
        <time>2014-05-18T13:28:29.000Z</time>
      </trkpt>
      <trkpt lat="45.94848" lon="-1.09674">
        <ele>0.6</ele>
        <time>2014-05-18T13:28:32.000Z</time>
      </trkpt>
      <trkpt lat="45.94839" lon="-1.09671">
        <ele>0.1</ele>
        <time>2014-05-18T13:28:34.000Z</time>
      </trkpt>
      <trkpt lat="45.94832" lon="-1.09657">
        <ele>-0.3</ele>
        <time>2014-05-18T13:28:37.000Z</time>
      </trkpt>
      <trkpt lat="45.94832" lon="-1.09643">
        <ele>-0.5</ele>
        <time>2014-05-18T13:28:40.000Z</time>
      </trkpt>
      <trkpt lat="45.94842" lon="-1.09631">
        <ele>-0.1</ele>
        <time>2014-05-18T13:28:49.000Z</time>
      </trkpt>
      <trkpt lat="45.94851" lon="-1.09641">
        <ele>0.2</ele>
        <time>2014-05-18T13:28:53.000Z</time>
      </trkpt>
      <trkpt lat="45.94857" lon="-1.09653">
        <ele>0.6</ele>
        <time>2014-05-18T13:28:57.000Z</time>
      </trkpt>
      <trkpt lat="45.94865" lon="-1.09662">
        <ele>0.7</ele>
        <time>2014-05-18T13:29:01.000Z</time>
      </trkpt>
      <trkpt lat="45.94867" lon="-1.09676">
        <ele>1.1</ele>
        <time>2014-05-18T13:29:29.000Z</time>
      </trkpt>
      <trkpt lat="45.94861" lon="-1.09666">
        <ele>1.3</ele>
        <time>2014-05-18T13:33:34.000Z</time>
      </trkpt>
      <trkpt lat="45.94844" lon="-1.09652">
        <ele>0.8</ele>
        <time>2014-05-18T13:33:41.000Z</time>
      </trkpt>
      <trkpt lat="45.94834" lon="-1.09643">
        <ele>3</ele>
        <time>2014-05-18T13:33:44.000Z</time>
      </trkpt>
      <trkpt lat="45.94827" lon="-1.09634">
        <ele>0.1</ele>
        <time>2014-05-18T13:33:48.000Z</time>
      </trkpt>
      <trkpt lat="45.94817" lon="-1.09637">
        <ele>0.4</ele>
        <time>2014-05-18T13:33:54.000Z</time>
      </trkpt>
      <trkpt lat="45.94807" lon="-1.09646">
        <ele>0.3</ele>
        <time>2014-05-18T13:33:58.000Z</time>
      </trkpt>
      <trkpt lat="45.94798" lon="-1.09653">
        <ele>0.3</ele>
        <time>2014-05-18T13:34:01.000Z</time>
      </trkpt>
      <trkpt lat="45.94789" lon="-1.09658">
        <ele>0.2</ele>
        <time>2014-05-18T13:34:04.000Z</time>
      </trkpt>
      <trkpt lat="45.94779" lon="-1.09659">
        <ele>3</ele>
        <time>2014-05-18T13:34:08.000Z</time>
      </trkpt>
      <trkpt lat="45.94768" lon="-1.09656">
        <ele>3</ele>
        <time>2014-05-18T13:34:12.000Z</time>
      </trkpt>
      <trkpt lat="45.94768" lon="-1.09656">
        <ele>3</ele>
        <time>2014-05-18T13:34:12.000Z</time>
      </trkpt>
      <trkpt lat="45.94758" lon="-1.09652">
        <ele>-0.1</ele>
        <time>2014-05-18T13:34:16.000Z</time>
      </trkpt>
      <trkpt lat="45.9475" lon="-1.09647">
        <ele>-0.2</ele>
        <time>2014-05-18T13:34:19.000Z</time>
      </trkpt>
      <trkpt lat="45.94739" lon="-1.0964">
        <ele>3</ele>
        <time>2014-05-18T13:34:23.000Z</time>
      </trkpt>
      <trkpt lat="45.94729" lon="-1.09633">
        <ele>3</ele>
        <time>2014-05-18T13:34:27.000Z</time>
      </trkpt>
      <trkpt lat="45.94719" lon="-1.09626">
        <ele>0.2</ele>
        <time>2014-05-18T13:34:31.000Z</time>
      </trkpt>
      <trkpt lat="45.94709" lon="-1.0962">
        <ele>0.3</ele>
        <time>2014-05-18T13:34:35.000Z</time>
      </trkpt>
      <trkpt lat="45.94689" lon="-1.09608">
        <ele>0.1</ele>
        <time>2014-05-18T13:34:43.000Z</time>
      </trkpt>
      <trkpt lat="45.9468" lon="-1.09601">
        <ele>0.2</ele>
        <time>2014-05-18T13:34:47.000Z</time>
      </trkpt>
      <trkpt lat="45.94669" lon="-1.09594">
        <ele>3</ele>
        <time>2014-05-18T13:34:51.000Z</time>
      </trkpt>
      <trkpt lat="45.94659" lon="-1.09589">
        <ele>0.2</ele>
        <time>2014-05-18T13:34:55.000Z</time>
      </trkpt>
      <trkpt lat="45.94647" lon="-1.09587">
        <ele>0.1</ele>
        <time>2014-05-18T13:34:59.000Z</time>
      </trkpt>
      <trkpt lat="45.94637" lon="-1.09589">
        <ele>3</ele>
        <time>2014-05-18T13:35:02.000Z</time>
      </trkpt>
      <trkpt lat="45.94628" lon="-1.09595">
        <ele>-0.1</ele>
        <time>2014-05-18T13:35:05.000Z</time>
      </trkpt>
      <trkpt lat="45.94619" lon="-1.09603">
        <ele>0.2</ele>
        <time>2014-05-18T13:35:08.000Z</time>
      </trkpt>
      <trkpt lat="45.9461" lon="-1.09611">
        <ele>0.3</ele>
        <time>2014-05-18T13:35:11.000Z</time>
      </trkpt>
      <trkpt lat="45.94601" lon="-1.09617">
        <ele>0.5</ele>
        <time>2014-05-18T13:35:14.000Z</time>
      </trkpt>
      <trkpt lat="45.94592" lon="-1.09619">
        <ele>0.7</ele>
        <time>2014-05-18T13:35:17.000Z</time>
      </trkpt>
      <trkpt lat="45.94582" lon="-1.09615">
        <ele>0.9</ele>
        <time>2014-05-18T13:35:21.000Z</time>
      </trkpt>
      <trkpt lat="45.94572" lon="-1.0961">
        <ele>1.1</ele>
        <time>2014-05-18T13:35:25.000Z</time>
      </trkpt>
      <trkpt lat="45.94562" lon="-1.09614">
        <ele>1.4</ele>
        <time>2014-05-18T13:35:31.000Z</time>
      </trkpt>
      <trkpt lat="45.94557" lon="-1.09626">
        <ele>1.5</ele>
        <time>2014-05-18T13:35:36.000Z</time>
      </trkpt>
      <trkpt lat="45.94547" lon="-1.09651">
        <ele>1.3</ele>
        <time>2014-05-18T13:35:44.000Z</time>
      </trkpt>
      <trkpt lat="45.9454" lon="-1.09663">
        <ele>1.5</ele>
        <time>2014-05-18T13:35:48.000Z</time>
      </trkpt>
      <trkpt lat="45.94533" lon="-1.09675">
        <ele>1.3</ele>
        <time>2014-05-18T13:35:52.000Z</time>
      </trkpt>
      <trkpt lat="45.94526" lon="-1.09684">
        <ele>1.3</ele>
        <time>2014-05-18T13:35:55.000Z</time>
      </trkpt>
      <trkpt lat="45.94516" lon="-1.09694">
        <ele>1.3</ele>
        <time>2014-05-18T13:35:59.000Z</time>
      </trkpt>
      <trkpt lat="45.94506" lon="-1.09702">
        <ele>1.5</ele>
        <time>2014-05-18T13:36:03.000Z</time>
      </trkpt>
      <trkpt lat="45.94497" lon="-1.09707">
        <ele>1.4</ele>
        <time>2014-05-18T13:36:06.000Z</time>
      </trkpt>
      <trkpt lat="45.94489" lon="-1.09711">
        <ele>1.3</ele>
        <time>2014-05-18T13:36:09.000Z</time>
      </trkpt>
      <trkpt lat="45.94477" lon="-1.09716">
        <ele>1.5</ele>
        <time>2014-05-18T13:36:13.000Z</time>
      </trkpt>
      <trkpt lat="45.94469" lon="-1.09721">
        <ele>1.6</ele>
        <time>2014-05-18T13:36:16.000Z</time>
      </trkpt>
      <trkpt lat="45.94459" lon="-1.09727">
        <ele>2</ele>
        <time>2014-05-18T13:36:20.000Z</time>
      </trkpt>
      <trkpt lat="45.94449" lon="-1.09732">
        <ele>2.2</ele>
        <time>2014-05-18T13:36:24.000Z</time>
      </trkpt>
      <trkpt lat="45.9444" lon="-1.09735">
        <ele>2.4</ele>
        <time>2014-05-18T13:36:28.000Z</time>
      </trkpt>
      <trkpt lat="45.94429" lon="-1.0974">
        <ele>2.7</ele>
        <time>2014-05-18T13:36:32.000Z</time>
      </trkpt>
      <trkpt lat="45.94417" lon="-1.09744">
        <ele>3</ele>
        <time>2014-05-18T13:36:36.000Z</time>
      </trkpt>
      <trkpt lat="45.94407" lon="-1.09748">
        <ele>3.6</ele>
        <time>2014-05-18T13:36:40.000Z</time>
      </trkpt>
      <trkpt lat="45.94388" lon="-1.09757">
        <ele>4.3</ele>
        <time>2014-05-18T13:36:48.000Z</time>
      </trkpt>
      <trkpt lat="45.94379" lon="-1.0976">
        <ele>4.6</ele>
        <time>2014-05-18T13:36:52.000Z</time>
      </trkpt>
      <trkpt lat="45.94369" lon="-1.09765">
        <ele>4.8</ele>
        <time>2014-05-18T13:36:56.000Z</time>
      </trkpt>
      <trkpt lat="45.94359" lon="-1.09769">
        <ele>5.6</ele>
        <time>2014-05-18T13:37:00.000Z</time>
      </trkpt>
      <trkpt lat="45.94349" lon="-1.09773">
        <ele>5.9</ele>
        <time>2014-05-18T13:37:05.000Z</time>
      </trkpt>
      <trkpt lat="45.94341" lon="-1.09779">
        <ele>6.5</ele>
        <time>2014-05-18T13:37:10.000Z</time>
      </trkpt>
      <trkpt lat="45.94332" lon="-1.09782">
        <ele>7.3</ele>
        <time>2014-05-18T13:37:15.000Z</time>
      </trkpt>
      <trkpt lat="45.94324" lon="-1.09773">
        <ele>7.6</ele>
        <time>2014-05-18T13:37:20.000Z</time>
      </trkpt>
      <trkpt lat="45.94317" lon="-1.09763">
        <ele>8.1</ele>
        <time>2014-05-18T13:37:25.000Z</time>
      </trkpt>
      <trkpt lat="45.94312" lon="-1.09751">
        <ele>8.6</ele>
        <time>2014-05-18T13:37:30.000Z</time>
      </trkpt>
      <trkpt lat="45.94307" lon="-1.09738">
        <ele>9</ele>
        <time>2014-05-18T13:37:35.000Z</time>
      </trkpt>
      <trkpt lat="45.94303" lon="-1.09725">
        <ele>9.1</ele>
        <time>2014-05-18T13:37:40.000Z</time>
      </trkpt>
      <trkpt lat="45.94297" lon="-1.09713">
        <ele>9.4</ele>
        <time>2014-05-18T13:37:45.000Z</time>
      </trkpt>
      <trkpt lat="45.94282" lon="-1.09689">
        <ele>10.8</ele>
        <time>2014-05-18T13:37:55.000Z</time>
      </trkpt>
      <trkpt lat="45.94277" lon="-1.09678">
        <ele>10.8</ele>
        <time>2014-05-18T13:37:59.000Z</time>
      </trkpt>
      <trkpt lat="45.94273" lon="-1.09666">
        <ele>11.3</ele>
        <time>2014-05-18T13:38:03.000Z</time>
      </trkpt>
      <trkpt lat="45.9427" lon="-1.09653">
        <ele>11.8</ele>
        <time>2014-05-18T13:38:07.000Z</time>
      </trkpt>
      <trkpt lat="45.94268" lon="-1.0964">
        <ele>11.8</ele>
        <time>2014-05-18T13:38:11.000Z</time>
      </trkpt>
      <trkpt lat="45.94266" lon="-1.09626">
        <ele>12.3</ele>
        <time>2014-05-18T13:38:15.000Z</time>
      </trkpt>
      <trkpt lat="45.94264" lon="-1.09612">
        <ele>12.2</ele>
        <time>2014-05-18T13:38:19.000Z</time>
      </trkpt>
      <trkpt lat="45.94263" lon="-1.09597">
        <ele>12.4</ele>
        <time>2014-05-18T13:38:23.000Z</time>
      </trkpt>
      <trkpt lat="45.94261" lon="-1.09581">
        <ele>12.5</ele>
        <time>2014-05-18T13:38:27.000Z</time>
      </trkpt>
      <trkpt lat="45.94258" lon="-1.09566">
        <ele>12.8</ele>
        <time>2014-05-18T13:38:31.000Z</time>
      </trkpt>
      <trkpt lat="45.94255" lon="-1.09549">
        <ele>13.1</ele>
        <time>2014-05-18T13:38:35.000Z</time>
      </trkpt>
      <trkpt lat="45.94252" lon="-1.09533">
        <ele>12.4</ele>
        <time>2014-05-18T13:38:39.000Z</time>
      </trkpt>
      <trkpt lat="45.94249" lon="-1.0952">
        <ele>12.6</ele>
        <time>2014-05-18T13:38:42.000Z</time>
      </trkpt>
      <trkpt lat="45.94245" lon="-1.09507">
        <ele>12.5</ele>
        <time>2014-05-18T13:38:45.000Z</time>
      </trkpt>
      <trkpt lat="45.94242" lon="-1.09494">
        <ele>12.6</ele>
        <time>2014-05-18T13:38:48.000Z</time>
      </trkpt>
      <trkpt lat="45.94234" lon="-1.09468">
        <ele>12.3</ele>
        <time>2014-05-18T13:38:54.000Z</time>
      </trkpt>
      <trkpt lat="45.9423" lon="-1.09453">
        <ele>12</ele>
        <time>2014-05-18T13:38:57.000Z</time>
      </trkpt>
      <trkpt lat="45.94226" lon="-1.09438">
        <ele>11.8</ele>
        <time>2014-05-18T13:39:00.000Z</time>
      </trkpt>
      <trkpt lat="45.94221" lon="-1.09423">
        <ele>11.6</ele>
        <time>2014-05-18T13:39:03.000Z</time>
      </trkpt>
      <trkpt lat="45.94216" lon="-1.09404">
        <ele>11</ele>
        <time>2014-05-18T13:39:06.000Z</time>
      </trkpt>
      <trkpt lat="45.94212" lon="-1.0939">
        <ele>10.5</ele>
        <time>2014-05-18T13:39:08.000Z</time>
      </trkpt>
      <trkpt lat="45.94208" lon="-1.09374">
        <ele>9.7</ele>
        <time>2014-05-18T13:39:10.000Z</time>
      </trkpt>
      <trkpt lat="45.94205" lon="-1.09356">
        <ele>9</ele>
        <time>2014-05-18T13:39:12.000Z</time>
      </trkpt>
      <trkpt lat="45.94203" lon="-1.09337">
        <ele>8.5</ele>
        <time>2014-05-18T13:39:14.000Z</time>
      </trkpt>
      <trkpt lat="45.942" lon="-1.09318">
        <ele>8.2</ele>
        <time>2014-05-18T13:39:16.000Z</time>
      </trkpt>
      <trkpt lat="45.94199" lon="-1.09298">
        <ele>7.9</ele>
        <time>2014-05-18T13:39:18.000Z</time>
      </trkpt>
      <trkpt lat="45.94195" lon="-1.09279">
        <ele>7.6</ele>
        <time>2014-05-18T13:39:20.000Z</time>
      </trkpt>
      <trkpt lat="45.94191" lon="-1.09261">
        <ele>7.2</ele>
        <time>2014-05-18T13:39:22.000Z</time>
      </trkpt>
      <trkpt lat="45.94186" lon="-1.09241">
        <ele>6.8</ele>
        <time>2014-05-18T13:39:24.000Z</time>
      </trkpt>
      <trkpt lat="45.94182" lon="-1.09223">
        <ele>6.4</ele>
        <time>2014-05-18T13:39:26.000Z</time>
      </trkpt>
      <trkpt lat="45.94177" lon="-1.09205">
        <ele>6.2</ele>
        <time>2014-05-18T13:39:28.000Z</time>
      </trkpt>
      <trkpt lat="45.94171" lon="-1.09188">
        <ele>6.1</ele>
        <time>2014-05-18T13:39:30.000Z</time>
      </trkpt>
      <trkpt lat="45.94164" lon="-1.09172">
        <ele>5.9</ele>
        <time>2014-05-18T13:39:32.000Z</time>
      </trkpt>
      <trkpt lat="45.9416" lon="-1.09157">
        <ele>5.9</ele>
        <time>2014-05-18T13:39:34.000Z</time>
      </trkpt>
      <trkpt lat="45.94157" lon="-1.09143">
        <ele>6.1</ele>
        <time>2014-05-18T13:39:36.000Z</time>
      </trkpt>
      <trkpt lat="45.94153" lon="-1.09128">
        <ele>6.1</ele>
        <time>2014-05-18T13:39:38.000Z</time>
      </trkpt>
      <trkpt lat="45.94148" lon="-1.09115">
        <ele>6.2</ele>
        <time>2014-05-18T13:39:40.000Z</time>
      </trkpt>
      <trkpt lat="45.94145" lon="-1.09101">
        <ele>6.1</ele>
        <time>2014-05-18T13:39:42.000Z</time>
      </trkpt>
      <trkpt lat="45.94142" lon="-1.09089">
        <ele>5.9</ele>
        <time>2014-05-18T13:39:44.000Z</time>
      </trkpt>
      <trkpt lat="45.94138" lon="-1.09071">
        <ele>5.9</ele>
        <time>2014-05-18T13:39:47.000Z</time>
      </trkpt>
      <trkpt lat="45.94133" lon="-1.09053">
        <ele>6</ele>
        <time>2014-05-18T13:39:50.000Z</time>
      </trkpt>
      <trkpt lat="45.94124" lon="-1.09018">
        <ele>6.1</ele>
        <time>2014-05-18T13:39:56.000Z</time>
      </trkpt>
      <trkpt lat="45.9412" lon="-1.09003">
        <ele>6.1</ele>
        <time>2014-05-18T13:39:59.000Z</time>
      </trkpt>
      <trkpt lat="45.94115" lon="-1.08988">
        <ele>6.2</ele>
        <time>2014-05-18T13:40:02.000Z</time>
      </trkpt>
      <trkpt lat="45.9411" lon="-1.08975">
        <ele>6.8</ele>
        <time>2014-05-18T13:40:05.000Z</time>
      </trkpt>
      <trkpt lat="45.94104" lon="-1.08961">
        <ele>6.9</ele>
        <time>2014-05-18T13:40:08.000Z</time>
      </trkpt>
      <trkpt lat="45.94099" lon="-1.08947">
        <ele>6.8</ele>
        <time>2014-05-18T13:40:11.000Z</time>
      </trkpt>
      <trkpt lat="45.94094" lon="-1.08934">
        <ele>6.8</ele>
        <time>2014-05-18T13:40:14.000Z</time>
      </trkpt>
      <trkpt lat="45.9409" lon="-1.08922">
        <ele>6.7</ele>
        <time>2014-05-18T13:40:17.000Z</time>
      </trkpt>
      <trkpt lat="45.94084" lon="-1.08909">
        <ele>6.8</ele>
        <time>2014-05-18T13:40:20.000Z</time>
      </trkpt>
      <trkpt lat="45.94079" lon="-1.08896">
        <ele>7.2</ele>
        <time>2014-05-18T13:40:23.000Z</time>
      </trkpt>
      <trkpt lat="45.94074" lon="-1.08882">
        <ele>7.3</ele>
        <time>2014-05-18T13:40:26.000Z</time>
      </trkpt>
      <trkpt lat="45.94069" lon="-1.08869">
        <ele>7.3</ele>
        <time>2014-05-18T13:40:29.000Z</time>
      </trkpt>
      <trkpt lat="45.94063" lon="-1.08855">
        <ele>7.3</ele>
        <time>2014-05-18T13:40:32.000Z</time>
      </trkpt>
      <trkpt lat="45.94058" lon="-1.08841">
        <ele>6.8</ele>
        <time>2014-05-18T13:40:35.000Z</time>
      </trkpt>
      <trkpt lat="45.94053" lon="-1.08828">
        <ele>6.8</ele>
        <time>2014-05-18T13:40:38.000Z</time>
      </trkpt>
      <trkpt lat="45.9405" lon="-1.08814">
        <ele>7.4</ele>
        <time>2014-05-18T13:40:41.000Z</time>
      </trkpt>
      <trkpt lat="45.94045" lon="-1.088">
        <ele>7.6</ele>
        <time>2014-05-18T13:40:44.000Z</time>
      </trkpt>
      <trkpt lat="45.94041" lon="-1.08786">
        <ele>7.7</ele>
        <time>2014-05-18T13:40:47.000Z</time>
      </trkpt>
      <trkpt lat="45.94037" lon="-1.08772">
        <ele>7.5</ele>
        <time>2014-05-18T13:40:50.000Z</time>
      </trkpt>
      <trkpt lat="45.94033" lon="-1.08758">
        <ele>7.6</ele>
        <time>2014-05-18T13:40:53.000Z</time>
      </trkpt>
      <trkpt lat="45.94026" lon="-1.08734">
        <ele>7.5</ele>
        <time>2014-05-18T13:40:59.000Z</time>
      </trkpt>
      <trkpt lat="45.94022" lon="-1.08722">
        <ele>7.8</ele>
        <time>2014-05-18T13:41:02.000Z</time>
      </trkpt>
      <trkpt lat="45.94018" lon="-1.08709">
        <ele>7.8</ele>
        <time>2014-05-18T13:41:05.000Z</time>
      </trkpt>
      <trkpt lat="45.94014" lon="-1.08696">
        <ele>8</ele>
        <time>2014-05-18T13:41:08.000Z</time>
      </trkpt>
      <trkpt lat="45.9401" lon="-1.08683">
        <ele>8.1</ele>
        <time>2014-05-18T13:41:11.000Z</time>
      </trkpt>
      <trkpt lat="45.94007" lon="-1.08669">
        <ele>8</ele>
        <time>2014-05-18T13:41:14.000Z</time>
      </trkpt>
      <trkpt lat="45.94004" lon="-1.08655">
        <ele>8.2</ele>
        <time>2014-05-18T13:41:17.000Z</time>
      </trkpt>
      <trkpt lat="45.94" lon="-1.0864">
        <ele>8</ele>
        <time>2014-05-18T13:41:20.000Z</time>
      </trkpt>
      <trkpt lat="45.93997" lon="-1.08624">
        <ele>8</ele>
        <time>2014-05-18T13:41:23.000Z</time>
      </trkpt>
      <trkpt lat="45.93994" lon="-1.08607">
        <ele>7.6</ele>
        <time>2014-05-18T13:41:26.000Z</time>
      </trkpt>
      <trkpt lat="45.9399" lon="-1.08591">
        <ele>7.3</ele>
        <time>2014-05-18T13:41:29.000Z</time>
      </trkpt>
      <trkpt lat="45.93986" lon="-1.08575">
        <ele>7.4</ele>
        <time>2014-05-18T13:41:32.000Z</time>
      </trkpt>
      <trkpt lat="45.93982" lon="-1.08558">
        <ele>7.3</ele>
        <time>2014-05-18T13:41:35.000Z</time>
      </trkpt>
      <trkpt lat="45.93979" lon="-1.08545">
        <ele>7.4</ele>
        <time>2014-05-18T13:41:37.000Z</time>
      </trkpt>
      <trkpt lat="45.93975" lon="-1.08528">
        <ele>6.8</ele>
        <time>2014-05-18T13:41:40.000Z</time>
      </trkpt>
      <trkpt lat="45.9397" lon="-1.08511">
        <ele>6.8</ele>
        <time>2014-05-18T13:41:43.000Z</time>
      </trkpt>
      <trkpt lat="45.93968" lon="-1.08496">
        <ele>6.9</ele>
        <time>2014-05-18T13:41:46.000Z</time>
      </trkpt>
      <trkpt lat="45.93964" lon="-1.08482">
        <ele>6.8</ele>
        <time>2014-05-18T13:41:50.000Z</time>
      </trkpt>
      <trkpt lat="45.93962" lon="-1.08466">
        <ele>6.9</ele>
        <time>2014-05-18T13:42:17.000Z</time>
      </trkpt>
      <trkpt lat="45.93956" lon="-1.08435">
        <ele>7</ele>
        <time>2014-05-18T13:42:24.000Z</time>
      </trkpt>
      <trkpt lat="45.93955" lon="-1.0842">
        <ele>7</ele>
        <time>2014-05-18T13:42:27.000Z</time>
      </trkpt>
      <trkpt lat="45.93952" lon="-1.08406">
        <ele>7.2</ele>
        <time>2014-05-18T13:42:30.000Z</time>
      </trkpt>
      <trkpt lat="45.9395" lon="-1.08392">
        <ele>7.1</ele>
        <time>2014-05-18T13:42:33.000Z</time>
      </trkpt>
      <trkpt lat="45.93948" lon="-1.08379">
        <ele>7.1</ele>
        <time>2014-05-18T13:42:36.000Z</time>
      </trkpt>
      <trkpt lat="45.93946" lon="-1.08366">
        <ele>7.2</ele>
        <time>2014-05-18T13:42:39.000Z</time>
      </trkpt>
      <trkpt lat="45.93945" lon="-1.08352">
        <ele>6.9</ele>
        <time>2014-05-18T13:42:42.000Z</time>
      </trkpt>
      <trkpt lat="45.93944" lon="-1.08337">
        <ele>7.1</ele>
        <time>2014-05-18T13:42:45.000Z</time>
      </trkpt>
      <trkpt lat="45.93945" lon="-1.08322">
        <ele>7.2</ele>
        <time>2014-05-18T13:42:48.000Z</time>
      </trkpt>
      <trkpt lat="45.93945" lon="-1.08306">
        <ele>7.3</ele>
        <time>2014-05-18T13:42:51.000Z</time>
      </trkpt>
      <trkpt lat="45.93946" lon="-1.0829">
        <ele>7.2</ele>
        <time>2014-05-18T13:42:54.000Z</time>
      </trkpt>
      <trkpt lat="45.93946" lon="-1.08275">
        <ele>6.9</ele>
        <time>2014-05-18T13:42:57.000Z</time>
      </trkpt>
      <trkpt lat="45.93946" lon="-1.08257">
        <ele>6.7</ele>
        <time>2014-05-18T13:43:00.000Z</time>
      </trkpt>
      <trkpt lat="45.93946" lon="-1.08239">
        <ele>6.5</ele>
        <time>2014-05-18T13:43:03.000Z</time>
      </trkpt>
      <trkpt lat="45.93945" lon="-1.08221">
        <ele>6.6</ele>
        <time>2014-05-18T13:43:06.000Z</time>
      </trkpt>
      <trkpt lat="45.93944" lon="-1.08202">
        <ele>5.9</ele>
        <time>2014-05-18T13:43:09.000Z</time>
      </trkpt>
      <trkpt lat="45.93943" lon="-1.08185">
        <ele>5.8</ele>
        <time>2014-05-18T13:43:12.000Z</time>
      </trkpt>
      <trkpt lat="45.93943" lon="-1.08167">
        <ele>5.6</ele>
        <time>2014-05-18T13:43:15.000Z</time>
      </trkpt>
      <trkpt lat="45.93942" lon="-1.08148">
        <ele>5.5</ele>
        <time>2014-05-18T13:43:18.000Z</time>
      </trkpt>
      <trkpt lat="45.93936" lon="-1.08112">
        <ele>6.3</ele>
        <time>2014-05-18T13:43:24.000Z</time>
      </trkpt>
      <trkpt lat="45.93933" lon="-1.08095">
        <ele>6.2</ele>
        <time>2014-05-18T13:43:27.000Z</time>
      </trkpt>
      <trkpt lat="45.9393" lon="-1.08078">
        <ele>6.2</ele>
        <time>2014-05-18T13:43:30.000Z</time>
      </trkpt>
      <trkpt lat="45.93926" lon="-1.08061">
        <ele>6.2</ele>
        <time>2014-05-18T13:43:33.000Z</time>
      </trkpt>
      <trkpt lat="45.93922" lon="-1.08044">
        <ele>6.5</ele>
        <time>2014-05-18T13:43:36.000Z</time>
      </trkpt>
      <trkpt lat="45.93919" lon="-1.08028">
        <ele>6.7</ele>
        <time>2014-05-18T13:43:39.000Z</time>
      </trkpt>
      <trkpt lat="45.93916" lon="-1.08011">
        <ele>6.7</ele>
        <time>2014-05-18T13:43:42.000Z</time>
      </trkpt>
      <trkpt lat="45.93913" lon="-1.07995">
        <ele>6.6</ele>
        <time>2014-05-18T13:43:45.000Z</time>
      </trkpt>
      <trkpt lat="45.9391" lon="-1.07979">
        <ele>6.8</ele>
        <time>2014-05-18T13:43:48.000Z</time>
      </trkpt>
      <trkpt lat="45.93907" lon="-1.07962">
        <ele>6.9</ele>
        <time>2014-05-18T13:43:51.000Z</time>
      </trkpt>
      <trkpt lat="45.93904" lon="-1.07945">
        <ele>6.7</ele>
        <time>2014-05-18T13:43:54.000Z</time>
      </trkpt>
      <trkpt lat="45.93902" lon="-1.07929">
        <ele>6.9</ele>
        <time>2014-05-18T13:43:57.000Z</time>
      </trkpt>
      <trkpt lat="45.93899" lon="-1.07912">
        <ele>7.1</ele>
        <time>2014-05-18T13:44:00.000Z</time>
      </trkpt>
      <trkpt lat="45.93896" lon="-1.07896">
        <ele>7.1</ele>
        <time>2014-05-18T13:44:03.000Z</time>
      </trkpt>
      <trkpt lat="45.93892" lon="-1.07879">
        <ele>7.1</ele>
        <time>2014-05-18T13:44:06.000Z</time>
      </trkpt>
      <trkpt lat="45.93889" lon="-1.07861">
        <ele>7.1</ele>
        <time>2014-05-18T13:44:09.000Z</time>
      </trkpt>
      <trkpt lat="45.93884" lon="-1.07843">
        <ele>6.7</ele>
        <time>2014-05-18T13:44:12.000Z</time>
      </trkpt>
      <trkpt lat="45.93881" lon="-1.0783">
        <ele>6.3</ele>
        <time>2014-05-18T13:44:14.000Z</time>
      </trkpt>
      <trkpt lat="45.93877" lon="-1.07816">
        <ele>6.1</ele>
        <time>2014-05-18T13:44:16.000Z</time>
      </trkpt>
      <trkpt lat="45.93873" lon="-1.07801">
        <ele>5.7</ele>
        <time>2014-05-18T13:44:18.000Z</time>
      </trkpt>
      <trkpt lat="45.93869" lon="-1.07786">
        <ele>5.3</ele>
        <time>2014-05-18T13:44:20.000Z</time>
      </trkpt>
      <trkpt lat="45.93862" lon="-1.07751">
        <ele>4.2</ele>
        <time>2014-05-18T13:44:24.000Z</time>
      </trkpt>
      <trkpt lat="45.93859" lon="-1.07734">
        <ele>3.8</ele>
        <time>2014-05-18T13:44:26.000Z</time>
      </trkpt>
      <trkpt lat="45.93856" lon="-1.07716">
        <ele>3.6</ele>
        <time>2014-05-18T13:44:28.000Z</time>
      </trkpt>
      <trkpt lat="45.93853" lon="-1.07699">
        <ele>3.2</ele>
        <time>2014-05-18T13:44:30.000Z</time>
      </trkpt>
      <trkpt lat="45.93852" lon="-1.07681">
        <ele>2.9</ele>
        <time>2014-05-18T13:44:32.000Z</time>
      </trkpt>
      <trkpt lat="45.9385" lon="-1.07664">
        <ele>2.6</ele>
        <time>2014-05-18T13:44:34.000Z</time>
      </trkpt>
      <trkpt lat="45.93849" lon="-1.0765">
        <ele>2.6</ele>
        <time>2014-05-18T13:44:36.000Z</time>
      </trkpt>
      <trkpt lat="45.93849" lon="-1.07636">
        <ele>2.6</ele>
        <time>2014-05-18T13:44:38.000Z</time>
      </trkpt>
      <trkpt lat="45.93848" lon="-1.07618">
        <ele>2.6</ele>
        <time>2014-05-18T13:44:41.000Z</time>
      </trkpt>
      <trkpt lat="45.93848" lon="-1.07601">
        <ele>2.6</ele>
        <time>2014-05-18T13:44:44.000Z</time>
      </trkpt>
      <trkpt lat="45.93848" lon="-1.07584">
        <ele>2.6</ele>
        <time>2014-05-18T13:44:47.000Z</time>
      </trkpt>
      <trkpt lat="45.93848" lon="-1.07567">
        <ele>2.6</ele>
        <time>2014-05-18T13:44:50.000Z</time>
      </trkpt>
      <trkpt lat="45.93846" lon="-1.07552">
        <ele>2.7</ele>
        <time>2014-05-18T13:44:53.000Z</time>
      </trkpt>
      <trkpt lat="45.93844" lon="-1.07538">
        <ele>2.7</ele>
        <time>2014-05-18T13:44:56.000Z</time>
      </trkpt>
      <trkpt lat="45.93841" lon="-1.07525">
        <ele>2.4</ele>
        <time>2014-05-18T13:44:59.000Z</time>
      </trkpt>
      <trkpt lat="45.93834" lon="-1.0751">
        <ele>2.4</ele>
        <time>2014-05-18T13:45:02.000Z</time>
      </trkpt>
      <trkpt lat="45.93826" lon="-1.07497">
        <ele>2.8</ele>
        <time>2014-05-18T13:45:05.000Z</time>
      </trkpt>
      <trkpt lat="45.9382" lon="-1.07485">
        <ele>2.8</ele>
        <time>2014-05-18T13:45:07.000Z</time>
      </trkpt>
      <trkpt lat="45.93814" lon="-1.0747">
        <ele>2.8</ele>
        <time>2014-05-18T13:45:10.000Z</time>
      </trkpt>
      <trkpt lat="45.93808" lon="-1.07455">
        <ele>2.7</ele>
        <time>2014-05-18T13:45:13.000Z</time>
      </trkpt>
      <trkpt lat="45.93803" lon="-1.07441">
        <ele>3.4</ele>
        <time>2014-05-18T13:45:16.000Z</time>
      </trkpt>
      <trkpt lat="45.93799" lon="-1.07425">
        <ele>3.7</ele>
        <time>2014-05-18T13:45:19.000Z</time>
      </trkpt>
      <trkpt lat="45.93795" lon="-1.07409">
        <ele>3.8</ele>
        <time>2014-05-18T13:45:22.000Z</time>
      </trkpt>
      <trkpt lat="45.93786" lon="-1.07378">
        <ele>4.3</ele>
        <time>2014-05-18T13:45:28.000Z</time>
      </trkpt>
      <trkpt lat="45.93781" lon="-1.07363">
        <ele>4.8</ele>
        <time>2014-05-18T13:45:31.000Z</time>
      </trkpt>
      <trkpt lat="45.93777" lon="-1.07347">
        <ele>5.2</ele>
        <time>2014-05-18T13:45:34.000Z</time>
      </trkpt>
      <trkpt lat="45.93773" lon="-1.07331">
        <ele>5.6</ele>
        <time>2014-05-18T13:45:37.000Z</time>
      </trkpt>
      <trkpt lat="45.9377" lon="-1.07315">
        <ele>6</ele>
        <time>2014-05-18T13:45:40.000Z</time>
      </trkpt>
      <trkpt lat="45.93766" lon="-1.07299">
        <ele>6.1</ele>
        <time>2014-05-18T13:45:43.000Z</time>
      </trkpt>
      <trkpt lat="45.93761" lon="-1.07282">
        <ele>6.8</ele>
        <time>2014-05-18T13:45:46.000Z</time>
      </trkpt>
      <trkpt lat="45.93757" lon="-1.07266">
        <ele>7</ele>
        <time>2014-05-18T13:45:49.000Z</time>
      </trkpt>
      <trkpt lat="45.93752" lon="-1.07251">
        <ele>7.3</ele>
        <time>2014-05-18T13:45:52.000Z</time>
      </trkpt>
      <trkpt lat="45.93746" lon="-1.07235">
        <ele>7.5</ele>
        <time>2014-05-18T13:45:55.000Z</time>
      </trkpt>
      <trkpt lat="45.93739" lon="-1.0722">
        <ele>7.9</ele>
        <time>2014-05-18T13:45:58.000Z</time>
      </trkpt>
      <trkpt lat="45.93732" lon="-1.07204">
        <ele>8.2</ele>
        <time>2014-05-18T13:46:01.000Z</time>
      </trkpt>
      <trkpt lat="45.93726" lon="-1.07189">
        <ele>8.6</ele>
        <time>2014-05-18T13:46:04.000Z</time>
      </trkpt>
      <trkpt lat="45.9372" lon="-1.07173">
        <ele>8.8</ele>
        <time>2014-05-18T13:46:07.000Z</time>
      </trkpt>
      <trkpt lat="45.93715" lon="-1.07157">
        <ele>8.4</ele>
        <time>2014-05-18T13:46:10.000Z</time>
      </trkpt>
      <trkpt lat="45.9371" lon="-1.07141">
        <ele>8.5</ele>
        <time>2014-05-18T13:46:13.000Z</time>
      </trkpt>
      <trkpt lat="45.93705" lon="-1.07126">
        <ele>8.5</ele>
        <time>2014-05-18T13:46:16.000Z</time>
      </trkpt>
      <trkpt lat="45.937" lon="-1.07111">
        <ele>8.4</ele>
        <time>2014-05-18T13:46:19.000Z</time>
      </trkpt>
      <trkpt lat="45.93695" lon="-1.07096">
        <ele>8.6</ele>
        <time>2014-05-18T13:46:22.000Z</time>
      </trkpt>
      <trkpt lat="45.93689" lon="-1.07081">
        <ele>8.7</ele>
        <time>2014-05-18T13:46:25.000Z</time>
      </trkpt>
      <trkpt lat="45.93679" lon="-1.0705">
        <ele>8.5</ele>
        <time>2014-05-18T13:46:31.000Z</time>
      </trkpt>
      <trkpt lat="45.93673" lon="-1.07034">
        <ele>8.6</ele>
        <time>2014-05-18T13:46:34.000Z</time>
      </trkpt>
      <trkpt lat="45.93668" lon="-1.07019">
        <ele>8.8</ele>
        <time>2014-05-18T13:46:37.000Z</time>
      </trkpt>
      <trkpt lat="45.93662" lon="-1.07004">
        <ele>8.8</ele>
        <time>2014-05-18T13:46:40.000Z</time>
      </trkpt>
      <trkpt lat="45.93657" lon="-1.0699">
        <ele>8.9</ele>
        <time>2014-05-18T13:46:43.000Z</time>
      </trkpt>
      <trkpt lat="45.93651" lon="-1.06977">
        <ele>8.9</ele>
        <time>2014-05-18T13:46:46.000Z</time>
      </trkpt>
      <trkpt lat="45.93646" lon="-1.06963">
        <ele>9</ele>
        <time>2014-05-18T13:46:49.000Z</time>
      </trkpt>
      <trkpt lat="45.9364" lon="-1.06948">
        <ele>9.3</ele>
        <time>2014-05-18T13:46:52.000Z</time>
      </trkpt>
      <trkpt lat="45.93634" lon="-1.06933">
        <ele>9.3</ele>
        <time>2014-05-18T13:46:55.000Z</time>
      </trkpt>
      <trkpt lat="45.93628" lon="-1.06917">
        <ele>9.2</ele>
        <time>2014-05-18T13:46:58.000Z</time>
      </trkpt>
      <trkpt lat="45.93622" lon="-1.06903">
        <ele>9.1</ele>
        <time>2014-05-18T13:47:01.000Z</time>
      </trkpt>
      <trkpt lat="45.93617" lon="-1.06889">
        <ele>9.4</ele>
        <time>2014-05-18T13:47:04.000Z</time>
      </trkpt>
      <trkpt lat="45.93611" lon="-1.06874">
        <ele>9.3</ele>
        <time>2014-05-18T13:47:07.000Z</time>
      </trkpt>
      <trkpt lat="45.93606" lon="-1.0686">
        <ele>9.1</ele>
        <time>2014-05-18T13:47:10.000Z</time>
      </trkpt>
      <trkpt lat="45.936" lon="-1.06845">
        <ele>9.3</ele>
        <time>2014-05-18T13:47:13.000Z</time>
      </trkpt>
      <trkpt lat="45.93594" lon="-1.06829">
        <ele>9</ele>
        <time>2014-05-18T13:47:16.000Z</time>
      </trkpt>
      <trkpt lat="45.93588" lon="-1.06812">
        <ele>8.7</ele>
        <time>2014-05-18T13:47:19.000Z</time>
      </trkpt>
      <trkpt lat="45.93583" lon="-1.06795">
        <ele>8.4</ele>
        <time>2014-05-18T13:47:22.000Z</time>
      </trkpt>
      <trkpt lat="45.93578" lon="-1.06778">
        <ele>8.4</ele>
        <time>2014-05-18T13:47:25.000Z</time>
      </trkpt>
      <trkpt lat="45.93574" lon="-1.0676">
        <ele>8</ele>
        <time>2014-05-18T13:47:28.000Z</time>
      </trkpt>
      <trkpt lat="45.93568" lon="-1.06735">
        <ele>7.7</ele>
        <time>2014-05-18T13:47:32.000Z</time>
      </trkpt>
      <trkpt lat="45.93566" lon="-1.06722">
        <ele>7.6</ele>
        <time>2014-05-18T13:47:34.000Z</time>
      </trkpt>
      <trkpt lat="45.93563" lon="-1.06707">
        <ele>7.6</ele>
        <time>2014-05-18T13:47:36.000Z</time>
      </trkpt>
      <trkpt lat="45.93561" lon="-1.06693">
        <ele>7.1</ele>
        <time>2014-05-18T13:47:38.000Z</time>
      </trkpt>
      <trkpt lat="45.93558" lon="-1.06678">
        <ele>6.3</ele>
        <time>2014-05-18T13:47:40.000Z</time>
      </trkpt>
      <trkpt lat="45.93555" lon="-1.06662">
        <ele>6.1</ele>
        <time>2014-05-18T13:47:42.000Z</time>
      </trkpt>
      <trkpt lat="45.93552" lon="-1.06647">
        <ele>5.6</ele>
        <time>2014-05-18T13:47:44.000Z</time>
      </trkpt>
      <trkpt lat="45.93549" lon="-1.0663">
        <ele>5.7</ele>
        <time>2014-05-18T13:47:46.000Z</time>
      </trkpt>
      <trkpt lat="45.93546" lon="-1.06615">
        <ele>5.4</ele>
        <time>2014-05-18T13:47:48.000Z</time>
      </trkpt>
      <trkpt lat="45.93542" lon="-1.066">
        <ele>5.4</ele>
        <time>2014-05-18T13:47:50.000Z</time>
      </trkpt>
      <trkpt lat="45.93537" lon="-1.06585">
        <ele>5.3</ele>
        <time>2014-05-18T13:47:52.000Z</time>
      </trkpt>
      <trkpt lat="45.93533" lon="-1.06571">
        <ele>4.9</ele>
        <time>2014-05-18T13:47:54.000Z</time>
      </trkpt>
      <trkpt lat="45.93529" lon="-1.06557">
        <ele>5</ele>
        <time>2014-05-18T13:47:56.000Z</time>
      </trkpt>
      <trkpt lat="45.93524" lon="-1.06545">
        <ele>5</ele>
        <time>2014-05-18T13:47:58.000Z</time>
      </trkpt>
      <trkpt lat="45.9352" lon="-1.06533">
        <ele>5.1</ele>
        <time>2014-05-18T13:48:00.000Z</time>
      </trkpt>
      <trkpt lat="45.93513" lon="-1.06516">
        <ele>4.9</ele>
        <time>2014-05-18T13:48:03.000Z</time>
      </trkpt>
      <trkpt lat="45.93507" lon="-1.06501">
        <ele>5.2</ele>
        <time>2014-05-18T13:48:06.000Z</time>
      </trkpt>
      <trkpt lat="45.93502" lon="-1.06489">
        <ele>5.3</ele>
        <time>2014-05-18T13:48:08.000Z</time>
      </trkpt>
      <trkpt lat="45.93496" lon="-1.06475">
        <ele>5.4</ele>
        <time>2014-05-18T13:48:10.000Z</time>
      </trkpt>
      <trkpt lat="45.9349" lon="-1.06463">
        <ele>6</ele>
        <time>2014-05-18T13:48:12.000Z</time>
      </trkpt>
      <trkpt lat="45.93485" lon="-1.06451">
        <ele>5.8</ele>
        <time>2014-05-18T13:48:14.000Z</time>
      </trkpt>
      <trkpt lat="45.93479" lon="-1.06434">
        <ele>6.2</ele>
        <time>2014-05-18T13:48:17.000Z</time>
      </trkpt>
      <trkpt lat="45.93474" lon="-1.06418">
        <ele>6.7</ele>
        <time>2014-05-18T13:48:20.000Z</time>
      </trkpt>
      <trkpt lat="45.93469" lon="-1.06401">
        <ele>6.9</ele>
        <time>2014-05-18T13:48:23.000Z</time>
      </trkpt>
      <trkpt lat="45.93464" lon="-1.06385">
        <ele>8.6</ele>
        <time>2014-05-18T13:48:26.000Z</time>
      </trkpt>
      <trkpt lat="45.9346" lon="-1.06368">
        <ele>8.3</ele>
        <time>2014-05-18T13:48:29.000Z</time>
      </trkpt>
      <trkpt lat="45.93451" lon="-1.06332">
        <ele>7.2</ele>
        <time>2014-05-18T13:48:35.000Z</time>
      </trkpt>
      <trkpt lat="45.93448" lon="-1.06319">
        <ele>7.1</ele>
        <time>2014-05-18T13:48:37.000Z</time>
      </trkpt>
      <trkpt lat="45.93444" lon="-1.06307">
        <ele>7</ele>
        <time>2014-05-18T13:48:39.000Z</time>
      </trkpt>
      <trkpt lat="45.9344" lon="-1.06294">
        <ele>6.5</ele>
        <time>2014-05-18T13:48:41.000Z</time>
      </trkpt>
      <trkpt lat="45.93436" lon="-1.06281">
        <ele>7.9</ele>
        <time>2014-05-18T13:48:43.000Z</time>
      </trkpt>
      <trkpt lat="45.93433" lon="-1.06269">
        <ele>5.3</ele>
        <time>2014-05-18T13:48:45.000Z</time>
      </trkpt>
      <trkpt lat="45.93429" lon="-1.06257">
        <ele>5.8</ele>
        <time>2014-05-18T13:48:47.000Z</time>
      </trkpt>
      <trkpt lat="45.93423" lon="-1.0624">
        <ele>4.4</ele>
        <time>2014-05-18T13:48:50.000Z</time>
      </trkpt>
      <trkpt lat="45.93418" lon="-1.06223">
        <ele>1.5</ele>
        <time>2014-05-18T13:48:53.000Z</time>
      </trkpt>
      <trkpt lat="45.93413" lon="-1.06206">
        <ele>4.3</ele>
        <time>2014-05-18T13:48:56.000Z</time>
      </trkpt>
      <trkpt lat="45.93408" lon="-1.06189">
        <ele>3</ele>
        <time>2014-05-18T13:48:59.000Z</time>
      </trkpt>
      <trkpt lat="45.93403" lon="-1.06172">
        <ele>5.1</ele>
        <time>2014-05-18T13:49:02.000Z</time>
      </trkpt>
      <trkpt lat="45.934" lon="-1.06159">
        <ele>5.4</ele>
        <time>2014-05-18T13:49:04.000Z</time>
      </trkpt>
      <trkpt lat="45.93395" lon="-1.06143">
        <ele>5.2</ele>
        <time>2014-05-18T13:49:07.000Z</time>
      </trkpt>
      <trkpt lat="45.93391" lon="-1.06125">
        <ele>5.2</ele>
        <time>2014-05-18T13:49:10.000Z</time>
      </trkpt>
      <trkpt lat="45.93387" lon="-1.06112">
        <ele>5.1</ele>
        <time>2014-05-18T13:49:12.000Z</time>
      </trkpt>
      <trkpt lat="45.93383" lon="-1.06099">
        <ele>2.4</ele>
        <time>2014-05-18T13:49:14.000Z</time>
      </trkpt>
      <trkpt lat="45.9338" lon="-1.06086">
        <ele>1.8</ele>
        <time>2014-05-18T13:49:16.000Z</time>
      </trkpt>
      <trkpt lat="45.93376" lon="-1.06074">
        <ele>3.3</ele>
        <time>2014-05-18T13:49:18.000Z</time>
      </trkpt>
      <trkpt lat="45.93371" lon="-1.06057">
        <ele>4.9</ele>
        <time>2014-05-18T13:49:21.000Z</time>
      </trkpt>
      <trkpt lat="45.93367" lon="-1.0604">
        <ele>5.4</ele>
        <time>2014-05-18T13:49:24.000Z</time>
      </trkpt>
      <trkpt lat="45.93362" lon="-1.06023">
        <ele>5.4</ele>
        <time>2014-05-18T13:49:27.000Z</time>
      </trkpt>
      <trkpt lat="45.93358" lon="-1.06007">
        <ele>5.2</ele>
        <time>2014-05-18T13:49:30.000Z</time>
      </trkpt>
      <trkpt lat="45.9335" lon="-1.05979">
        <ele>5.1</ele>
        <time>2014-05-18T13:49:36.000Z</time>
      </trkpt>
      <trkpt lat="45.93344" lon="-1.05964">
        <ele>5.2</ele>
        <time>2014-05-18T13:49:39.000Z</time>
      </trkpt>
      <trkpt lat="45.9334" lon="-1.05949">
        <ele>5.2</ele>
        <time>2014-05-18T13:49:42.000Z</time>
      </trkpt>
      <trkpt lat="45.93335" lon="-1.05934">
        <ele>5.5</ele>
        <time>2014-05-18T13:49:45.000Z</time>
      </trkpt>
      <trkpt lat="45.9333" lon="-1.05921">
        <ele>5.8</ele>
        <time>2014-05-18T13:49:48.000Z</time>
      </trkpt>
      <trkpt lat="45.93325" lon="-1.05908">
        <ele>6</ele>
        <time>2014-05-18T13:49:52.000Z</time>
      </trkpt>
      <trkpt lat="45.9332" lon="-1.05895">
        <ele>6.1</ele>
        <time>2014-05-18T13:49:56.000Z</time>
      </trkpt>
      <trkpt lat="45.93317" lon="-1.0588">
        <ele>6.4</ele>
        <time>2014-05-18T13:50:00.000Z</time>
      </trkpt>
      <trkpt lat="45.93313" lon="-1.05866">
        <ele>6.8</ele>
        <time>2014-05-18T13:50:03.000Z</time>
      </trkpt>
      <trkpt lat="45.93308" lon="-1.05852">
        <ele>7.3</ele>
        <time>2014-05-18T13:50:06.000Z</time>
      </trkpt>
      <trkpt lat="45.93304" lon="-1.0584">
        <ele>7.6</ele>
        <time>2014-05-18T13:50:09.000Z</time>
      </trkpt>
      <trkpt lat="45.93298" lon="-1.05824">
        <ele>7.6</ele>
        <time>2014-05-18T13:50:12.000Z</time>
      </trkpt>
      <trkpt lat="45.93292" lon="-1.0581">
        <ele>7.8</ele>
        <time>2014-05-18T13:50:15.000Z</time>
      </trkpt>
      <trkpt lat="45.93286" lon="-1.05795">
        <ele>8.2</ele>
        <time>2014-05-18T13:50:18.000Z</time>
      </trkpt>
      <trkpt lat="45.9328" lon="-1.0578">
        <ele>8.4</ele>
        <time>2014-05-18T13:50:21.000Z</time>
      </trkpt>
      <trkpt lat="45.93274" lon="-1.05766">
        <ele>8.8</ele>
        <time>2014-05-18T13:50:24.000Z</time>
      </trkpt>
      <trkpt lat="45.93268" lon="-1.05754">
        <ele>9.1</ele>
        <time>2014-05-18T13:50:27.000Z</time>
      </trkpt>
      <trkpt lat="45.93262" lon="-1.05741">
        <ele>9.4</ele>
        <time>2014-05-18T13:50:30.000Z</time>
      </trkpt>
      <trkpt lat="45.93257" lon="-1.05728">
        <ele>10</ele>
        <time>2014-05-18T13:50:33.000Z</time>
      </trkpt>
      <trkpt lat="45.93249" lon="-1.05703">
        <ele>10.6</ele>
        <time>2014-05-18T13:50:39.000Z</time>
      </trkpt>
      <trkpt lat="45.93246" lon="-1.0569">
        <ele>10.6</ele>
        <time>2014-05-18T13:50:42.000Z</time>
      </trkpt>
      <trkpt lat="45.93243" lon="-1.05677">
        <ele>11.2</ele>
        <time>2014-05-18T13:50:45.000Z</time>
      </trkpt>
      <trkpt lat="45.93241" lon="-1.05661">
        <ele>11.8</ele>
        <time>2014-05-18T13:50:49.000Z</time>
      </trkpt>
      <trkpt lat="45.93239" lon="-1.05645">
        <ele>12.1</ele>
        <time>2014-05-18T13:50:53.000Z</time>
      </trkpt>
      <trkpt lat="45.93239" lon="-1.05631">
        <ele>12.6</ele>
        <time>2014-05-18T13:50:56.000Z</time>
      </trkpt>
      <trkpt lat="45.93239" lon="-1.05618">
        <ele>12.9</ele>
        <time>2014-05-18T13:50:59.000Z</time>
      </trkpt>
      <trkpt lat="45.93239" lon="-1.05602">
        <ele>13.6</ele>
        <time>2014-05-18T13:51:03.000Z</time>
      </trkpt>
      <trkpt lat="45.93238" lon="-1.05586">
        <ele>14.5</ele>
        <time>2014-05-18T13:51:07.000Z</time>
      </trkpt>
      <trkpt lat="45.93237" lon="-1.05569">
        <ele>14.7</ele>
        <time>2014-05-18T13:51:11.000Z</time>
      </trkpt>
      <trkpt lat="45.93237" lon="-1.05555">
        <ele>15.4</ele>
        <time>2014-05-18T13:51:14.000Z</time>
      </trkpt>
      <trkpt lat="45.93237" lon="-1.05542">
        <ele>15.5</ele>
        <time>2014-05-18T13:51:17.000Z</time>
      </trkpt>
      <trkpt lat="45.93237" lon="-1.05529">
        <ele>15.7</ele>
        <time>2014-05-18T13:51:20.000Z</time>
      </trkpt>
      <trkpt lat="45.93237" lon="-1.05515">
        <ele>15.9</ele>
        <time>2014-05-18T13:51:23.000Z</time>
      </trkpt>
      <trkpt lat="45.93236" lon="-1.05501">
        <ele>16.3</ele>
        <time>2014-05-18T13:51:26.000Z</time>
      </trkpt>
      <trkpt lat="45.93235" lon="-1.05488">
        <ele>16.2</ele>
        <time>2014-05-18T13:51:29.000Z</time>
      </trkpt>
      <trkpt lat="45.93235" lon="-1.05474">
        <ele>16.4</ele>
        <time>2014-05-18T13:51:32.000Z</time>
      </trkpt>
      <trkpt lat="45.93234" lon="-1.0546">
        <ele>16.7</ele>
        <time>2014-05-18T13:51:35.000Z</time>
      </trkpt>
      <trkpt lat="45.93232" lon="-1.05432">
        <ele>17</ele>
        <time>2014-05-18T13:51:41.000Z</time>
      </trkpt>
      <trkpt lat="45.93231" lon="-1.05419">
        <ele>17.3</ele>
        <time>2014-05-18T13:51:44.000Z</time>
      </trkpt>
      <trkpt lat="45.93229" lon="-1.05406">
        <ele>17.2</ele>
        <time>2014-05-18T13:51:47.000Z</time>
      </trkpt>
      <trkpt lat="45.93226" lon="-1.05391">
        <ele>17.6</ele>
        <time>2014-05-18T13:51:50.000Z</time>
      </trkpt>
      <trkpt lat="45.93224" lon="-1.05377">
        <ele>17.5</ele>
        <time>2014-05-18T13:51:53.000Z</time>
      </trkpt>
      <trkpt lat="45.93221" lon="-1.05363">
        <ele>17.5</ele>
        <time>2014-05-18T13:51:56.000Z</time>
      </trkpt>
      <trkpt lat="45.9322" lon="-1.0535">
        <ele>17.6</ele>
        <time>2014-05-18T13:51:59.000Z</time>
      </trkpt>
      <trkpt lat="45.93217" lon="-1.05333">
        <ele>17.9</ele>
        <time>2014-05-18T13:52:03.000Z</time>
      </trkpt>
      <trkpt lat="45.93215" lon="-1.0532">
        <ele>17.9</ele>
        <time>2014-05-18T13:52:06.000Z</time>
      </trkpt>
      <trkpt lat="45.93213" lon="-1.05307">
        <ele>18.1</ele>
        <time>2014-05-18T13:52:09.000Z</time>
      </trkpt>
      <trkpt lat="45.93212" lon="-1.05292">
        <ele>18.1</ele>
        <time>2014-05-18T13:52:14.000Z</time>
      </trkpt>
      <trkpt lat="45.93212" lon="-1.05279">
        <ele>18.7</ele>
        <time>2014-05-18T13:56:32.000Z</time>
      </trkpt>
      <trkpt lat="45.93205" lon="-1.05251">
        <ele>19</ele>
        <time>2014-05-18T13:56:39.000Z</time>
      </trkpt>
      <trkpt lat="45.93202" lon="-1.05239">
        <ele>19.1</ele>
        <time>2014-05-18T13:56:42.000Z</time>
      </trkpt>
      <trkpt lat="45.932" lon="-1.05226">
        <ele>19.3</ele>
        <time>2014-05-18T13:56:45.000Z</time>
      </trkpt>
      <trkpt lat="45.93195" lon="-1.0521">
        <ele>19.3</ele>
        <time>2014-05-18T13:56:49.000Z</time>
      </trkpt>
      <trkpt lat="45.93191" lon="-1.05194">
        <ele>19.2</ele>
        <time>2014-05-18T13:56:53.000Z</time>
      </trkpt>
      <trkpt lat="45.93187" lon="-1.05179">
        <ele>19.3</ele>
        <time>2014-05-18T13:56:57.000Z</time>
      </trkpt>
      <trkpt lat="45.93183" lon="-1.05164">
        <ele>19.4</ele>
        <time>2014-05-18T13:57:01.000Z</time>
      </trkpt>
      <trkpt lat="45.93178" lon="-1.05148">
        <ele>19.2</ele>
        <time>2014-05-18T13:57:05.000Z</time>
      </trkpt>
      <trkpt lat="45.93174" lon="-1.05135">
        <ele>19.1</ele>
        <time>2014-05-18T13:57:08.000Z</time>
      </trkpt>
      <trkpt lat="45.93169" lon="-1.0512">
        <ele>19</ele>
        <time>2014-05-18T13:57:11.000Z</time>
      </trkpt>
      <trkpt lat="45.93163" lon="-1.05106">
        <ele>19</ele>
        <time>2014-05-18T13:57:14.000Z</time>
      </trkpt>
      <trkpt lat="45.93158" lon="-1.05094">
        <ele>19.1</ele>
        <time>2014-05-18T13:57:17.000Z</time>
      </trkpt>
      <trkpt lat="45.93152" lon="-1.05079">
        <ele>19.2</ele>
        <time>2014-05-18T13:57:21.000Z</time>
      </trkpt>
      <trkpt lat="45.93147" lon="-1.05067">
        <ele>19.1</ele>
        <time>2014-05-18T13:57:24.000Z</time>
      </trkpt>
      <trkpt lat="45.93141" lon="-1.05055">
        <ele>19.1</ele>
        <time>2014-05-18T13:57:27.000Z</time>
      </trkpt>
      <trkpt lat="45.93134" lon="-1.05042">
        <ele>19</ele>
        <time>2014-05-18T13:57:30.000Z</time>
      </trkpt>
      <trkpt lat="45.93128" lon="-1.05029">
        <ele>19.2</ele>
        <time>2014-05-18T13:57:33.000Z</time>
      </trkpt>
      <trkpt lat="45.93117" lon="-1.04996">
        <ele>18.8</ele>
        <time>2014-05-18T13:57:39.000Z</time>
      </trkpt>
      <trkpt lat="45.93112" lon="-1.04979">
        <ele>18.6</ele>
        <time>2014-05-18T13:57:42.000Z</time>
      </trkpt>
      <trkpt lat="45.93106" lon="-1.04963">
        <ele>18.5</ele>
        <time>2014-05-18T13:57:45.000Z</time>
      </trkpt>
      <trkpt lat="45.93101" lon="-1.04948">
        <ele>18.5</ele>
        <time>2014-05-18T13:57:48.000Z</time>
      </trkpt>
      <trkpt lat="45.93098" lon="-1.04931">
        <ele>18.3</ele>
        <time>2014-05-18T13:57:51.000Z</time>
      </trkpt>
      <trkpt lat="45.93096" lon="-1.04915">
        <ele>18.3</ele>
        <time>2014-05-18T13:57:54.000Z</time>
      </trkpt>
      <trkpt lat="45.93095" lon="-1.04898">
        <ele>18.4</ele>
        <time>2014-05-18T13:57:57.000Z</time>
      </trkpt>
      <trkpt lat="45.93095" lon="-1.04881">
        <ele>18.1</ele>
        <time>2014-05-18T13:58:00.000Z</time>
      </trkpt>
      <trkpt lat="45.93096" lon="-1.04864">
        <ele>17.6</ele>
        <time>2014-05-18T13:58:03.000Z</time>
      </trkpt>
      <trkpt lat="45.93097" lon="-1.04846">
        <ele>17.5</ele>
        <time>2014-05-18T13:58:06.000Z</time>
      </trkpt>
      <trkpt lat="45.93098" lon="-1.04829">
        <ele>17.2</ele>
        <time>2014-05-18T13:58:09.000Z</time>
      </trkpt>
      <trkpt lat="45.931" lon="-1.0481">
        <ele>17</ele>
        <time>2014-05-18T13:58:12.000Z</time>
      </trkpt>
      <trkpt lat="45.93101" lon="-1.04792">
        <ele>16.9</ele>
        <time>2014-05-18T13:58:15.000Z</time>
      </trkpt>
      <trkpt lat="45.93103" lon="-1.04774">
        <ele>16.6</ele>
        <time>2014-05-18T13:58:18.000Z</time>
      </trkpt>
      <trkpt lat="45.93105" lon="-1.04756">
        <ele>16.3</ele>
        <time>2014-05-18T13:58:21.000Z</time>
      </trkpt>
      <trkpt lat="45.93107" lon="-1.04739">
        <ele>15.9</ele>
        <time>2014-05-18T13:58:24.000Z</time>
      </trkpt>
      <trkpt lat="45.93109" lon="-1.04722">
        <ele>15.9</ele>
        <time>2014-05-18T13:58:27.000Z</time>
      </trkpt>
      <trkpt lat="45.93111" lon="-1.04704">
        <ele>15.9</ele>
        <time>2014-05-18T13:58:30.000Z</time>
      </trkpt>
      <trkpt lat="45.93113" lon="-1.04688">
        <ele>15.7</ele>
        <time>2014-05-18T13:58:33.000Z</time>
      </trkpt>
      <trkpt lat="45.93113" lon="-1.04672">
        <ele>16.1</ele>
        <time>2014-05-18T13:58:36.000Z</time>
      </trkpt>
      <trkpt lat="45.93109" lon="-1.04645">
        <ele>16.4</ele>
        <time>2014-05-18T13:58:42.000Z</time>
      </trkpt>
      <trkpt lat="45.93107" lon="-1.04632">
        <ele>16.7</ele>
        <time>2014-05-18T13:58:45.000Z</time>
      </trkpt>
      <trkpt lat="45.93104" lon="-1.04616">
        <ele>16.4</ele>
        <time>2014-05-18T13:58:49.000Z</time>
      </trkpt>
      <trkpt lat="45.93102" lon="-1.04603">
        <ele>16.5</ele>
        <time>2014-05-18T13:58:52.000Z</time>
      </trkpt>
      <trkpt lat="45.931" lon="-1.04589">
        <ele>16.1</ele>
        <time>2014-05-18T13:58:55.000Z</time>
      </trkpt>
      <trkpt lat="45.93098" lon="-1.04576">
        <ele>16.2</ele>
        <time>2014-05-18T13:58:58.000Z</time>
      </trkpt>
      <trkpt lat="45.93095" lon="-1.04563">
        <ele>16.2</ele>
        <time>2014-05-18T13:59:01.000Z</time>
      </trkpt>
      <trkpt lat="45.93092" lon="-1.04548">
        <ele>16.1</ele>
        <time>2014-05-18T13:59:04.000Z</time>
      </trkpt>
      <trkpt lat="45.93089" lon="-1.04533">
        <ele>15.9</ele>
        <time>2014-05-18T13:59:07.000Z</time>
      </trkpt>
      <trkpt lat="45.93085" lon="-1.0452">
        <ele>16.3</ele>
        <time>2014-05-18T13:59:10.000Z</time>
      </trkpt>
      <trkpt lat="45.93083" lon="-1.04504">
        <ele>16.3</ele>
        <time>2014-05-18T13:59:13.000Z</time>
      </trkpt>
      <trkpt lat="45.93081" lon="-1.04489">
        <ele>16.2</ele>
        <time>2014-05-18T13:59:16.000Z</time>
      </trkpt>
      <trkpt lat="45.93079" lon="-1.04474">
        <ele>16.4</ele>
        <time>2014-05-18T13:59:19.000Z</time>
      </trkpt>
      <trkpt lat="45.93078" lon="-1.0446">
        <ele>16.5</ele>
        <time>2014-05-18T13:59:22.000Z</time>
      </trkpt>
      <trkpt lat="45.93075" lon="-1.04447">
        <ele>16.2</ele>
        <time>2014-05-18T13:59:25.000Z</time>
      </trkpt>
      <trkpt lat="45.93072" lon="-1.04433">
        <ele>16.5</ele>
        <time>2014-05-18T13:59:28.000Z</time>
      </trkpt>
      <trkpt lat="45.9307" lon="-1.04418">
        <ele>16.3</ele>
        <time>2014-05-18T13:59:31.000Z</time>
      </trkpt>
      <trkpt lat="45.93067" lon="-1.04404">
        <ele>16</ele>
        <time>2014-05-18T13:59:34.000Z</time>
      </trkpt>
      <trkpt lat="45.93064" lon="-1.0439">
        <ele>16.1</ele>
        <time>2014-05-18T13:59:37.000Z</time>
      </trkpt>
      <trkpt lat="45.9306" lon="-1.0436">
        <ele>15.7</ele>
        <time>2014-05-18T13:59:43.000Z</time>
      </trkpt>
      <trkpt lat="45.93058" lon="-1.04345">
        <ele>15.5</ele>
        <time>2014-05-18T13:59:46.000Z</time>
      </trkpt>
      <trkpt lat="45.93056" lon="-1.04328">
        <ele>15.4</ele>
        <time>2014-05-18T13:59:49.000Z</time>
      </trkpt>
      <trkpt lat="45.93053" lon="-1.04311">
        <ele>15.6</ele>
        <time>2014-05-18T13:59:52.000Z</time>
      </trkpt>
      <trkpt lat="45.9305" lon="-1.04294">
        <ele>14.7</ele>
        <time>2014-05-18T13:59:55.000Z</time>
      </trkpt>
      <trkpt lat="45.93047" lon="-1.04276">
        <ele>14.5</ele>
        <time>2014-05-18T13:59:58.000Z</time>
      </trkpt>
      <trkpt lat="45.93045" lon="-1.04258">
        <ele>14.3</ele>
        <time>2014-05-18T14:00:01.000Z</time>
      </trkpt>
      <trkpt lat="45.93042" lon="-1.04239">
        <ele>13.9</ele>
        <time>2014-05-18T14:00:04.000Z</time>
      </trkpt>
      <trkpt lat="45.9304" lon="-1.04225">
        <ele>13.7</ele>
        <time>2014-05-18T14:00:06.000Z</time>
      </trkpt>
      <trkpt lat="45.93038" lon="-1.04211">
        <ele>13.7</ele>
        <time>2014-05-18T14:00:08.000Z</time>
      </trkpt>
      <trkpt lat="45.93036" lon="-1.04197">
        <ele>13.5</ele>
        <time>2014-05-18T14:00:10.000Z</time>
      </trkpt>
      <trkpt lat="45.93033" lon="-1.04179">
        <ele>13.6</ele>
        <time>2014-05-18T14:00:13.000Z</time>
      </trkpt>
      <trkpt lat="45.9303" lon="-1.04162">
        <ele>13.6</ele>
        <time>2014-05-18T14:00:16.000Z</time>
      </trkpt>
      <trkpt lat="45.93027" lon="-1.04145">
        <ele>13.6</ele>
        <time>2014-05-18T14:00:19.000Z</time>
      </trkpt>
      <trkpt lat="45.93024" lon="-1.04129">
        <ele>13.5</ele>
        <time>2014-05-18T14:00:22.000Z</time>
      </trkpt>
      <trkpt lat="45.9302" lon="-1.04113">
        <ele>13.6</ele>
        <time>2014-05-18T14:00:25.000Z</time>
      </trkpt>
      <trkpt lat="45.93016" lon="-1.04097">
        <ele>13.4</ele>
        <time>2014-05-18T14:00:28.000Z</time>
      </trkpt>
      <trkpt lat="45.93011" lon="-1.0408">
        <ele>13.6</ele>
        <time>2014-05-18T14:00:31.000Z</time>
      </trkpt>
      <trkpt lat="45.93006" lon="-1.04063">
        <ele>14.1</ele>
        <time>2014-05-18T14:00:34.000Z</time>
      </trkpt>
      <trkpt lat="45.93001" lon="-1.04047">
        <ele>14.3</ele>
        <time>2014-05-18T14:00:37.000Z</time>
      </trkpt>
      <trkpt lat="45.92996" lon="-1.04031">
        <ele>14.7</ele>
        <time>2014-05-18T14:00:40.000Z</time>
      </trkpt>
      <trkpt lat="45.92985" lon="-1.04002">
        <ele>14.8</ele>
        <time>2014-05-18T14:00:46.000Z</time>
      </trkpt>
      <trkpt lat="45.92979" lon="-1.03988">
        <ele>15.2</ele>
        <time>2014-05-18T14:00:49.000Z</time>
      </trkpt>
      <trkpt lat="45.92974" lon="-1.03974">
        <ele>15.2</ele>
        <time>2014-05-18T14:00:52.000Z</time>
      </trkpt>
      <trkpt lat="45.92969" lon="-1.0396">
        <ele>15.3</ele>
        <time>2014-05-18T14:00:55.000Z</time>
      </trkpt>
      <trkpt lat="45.92963" lon="-1.03946">
        <ele>15</ele>
        <time>2014-05-18T14:00:58.000Z</time>
      </trkpt>
      <trkpt lat="45.92957" lon="-1.03931">
        <ele>14.7</ele>
        <time>2014-05-18T14:01:01.000Z</time>
      </trkpt>
      <trkpt lat="45.92951" lon="-1.03914">
        <ele>15</ele>
        <time>2014-05-18T14:01:04.000Z</time>
      </trkpt>
      <trkpt lat="45.92946" lon="-1.03897">
        <ele>15.1</ele>
        <time>2014-05-18T14:01:07.000Z</time>
      </trkpt>
      <trkpt lat="45.92941" lon="-1.0388">
        <ele>15</ele>
        <time>2014-05-18T14:01:10.000Z</time>
      </trkpt>
      <trkpt lat="45.92936" lon="-1.03864">
        <ele>14.8</ele>
        <time>2014-05-18T14:01:13.000Z</time>
      </trkpt>
      <trkpt lat="45.92931" lon="-1.03848">
        <ele>14.9</ele>
        <time>2014-05-18T14:01:16.000Z</time>
      </trkpt>
      <trkpt lat="45.92926" lon="-1.03831">
        <ele>14.9</ele>
        <time>2014-05-18T14:01:19.000Z</time>
      </trkpt>
      <trkpt lat="45.92922" lon="-1.03815">
        <ele>14.9</ele>
        <time>2014-05-18T14:01:22.000Z</time>
      </trkpt>
      <trkpt lat="45.92917" lon="-1.03798">
        <ele>15</ele>
        <time>2014-05-18T14:01:25.000Z</time>
      </trkpt>
      <trkpt lat="45.92912" lon="-1.0378">
        <ele>14.8</ele>
        <time>2014-05-18T14:01:28.000Z</time>
      </trkpt>
      <trkpt lat="45.92907" lon="-1.03763">
        <ele>14.7</ele>
        <time>2014-05-18T14:01:31.000Z</time>
      </trkpt>
      <trkpt lat="45.92903" lon="-1.03747">
        <ele>14.6</ele>
        <time>2014-05-18T14:01:34.000Z</time>
      </trkpt>
      <trkpt lat="45.92898" lon="-1.03732">
        <ele>14.7</ele>
        <time>2014-05-18T14:01:37.000Z</time>
      </trkpt>
      <trkpt lat="45.92893" lon="-1.03716">
        <ele>14.9</ele>
        <time>2014-05-18T14:01:40.000Z</time>
      </trkpt>
      <trkpt lat="45.92888" lon="-1.037">
        <ele>15.1</ele>
        <time>2014-05-18T14:01:43.000Z</time>
      </trkpt>
      <trkpt lat="45.92878" lon="-1.0367">
        <ele>15.3</ele>
        <time>2014-05-18T14:01:49.000Z</time>
      </trkpt>
      <trkpt lat="45.92874" lon="-1.03654">
        <ele>15.6</ele>
        <time>2014-05-18T14:01:52.000Z</time>
      </trkpt>
      <trkpt lat="45.92869" lon="-1.03639">
        <ele>15.6</ele>
        <time>2014-05-18T14:01:55.000Z</time>
      </trkpt>
      <trkpt lat="45.92864" lon="-1.03624">
        <ele>15.8</ele>
        <time>2014-05-18T14:01:58.000Z</time>
      </trkpt>
      <trkpt lat="45.92858" lon="-1.03608">
        <ele>16</ele>
        <time>2014-05-18T14:02:01.000Z</time>
      </trkpt>
      <trkpt lat="45.92852" lon="-1.03592">
        <ele>16.1</ele>
        <time>2014-05-18T14:02:04.000Z</time>
      </trkpt>
      <trkpt lat="45.92846" lon="-1.03578">
        <ele>16.1</ele>
        <time>2014-05-18T14:02:07.000Z</time>
      </trkpt>
      <trkpt lat="45.9284" lon="-1.03564">
        <ele>16.2</ele>
        <time>2014-05-18T14:02:10.000Z</time>
      </trkpt>
      <trkpt lat="45.92835" lon="-1.0355">
        <ele>16</ele>
        <time>2014-05-18T14:02:13.000Z</time>
      </trkpt>
      <trkpt lat="45.9283" lon="-1.03538">
        <ele>16.3</ele>
        <time>2014-05-18T14:02:16.000Z</time>
      </trkpt>
      <trkpt lat="45.92824" lon="-1.03524">
        <ele>16.4</ele>
        <time>2014-05-18T14:02:19.000Z</time>
      </trkpt>
      <trkpt lat="45.92818" lon="-1.03508">
        <ele>16.6</ele>
        <time>2014-05-18T14:02:22.000Z</time>
      </trkpt>
      <trkpt lat="45.92812" lon="-1.03494">
        <ele>16.5</ele>
        <time>2014-05-18T14:02:25.000Z</time>
      </trkpt>
      <trkpt lat="45.92806" lon="-1.0348">
        <ele>16.6</ele>
        <time>2014-05-18T14:02:28.000Z</time>
      </trkpt>
      <trkpt lat="45.92799" lon="-1.03466">
        <ele>16.4</ele>
        <time>2014-05-18T14:02:31.000Z</time>
      </trkpt>
      <trkpt lat="45.92794" lon="-1.03452">
        <ele>16.3</ele>
        <time>2014-05-18T14:02:34.000Z</time>
      </trkpt>
      <trkpt lat="45.92788" lon="-1.03438">
        <ele>16.7</ele>
        <time>2014-05-18T14:02:37.000Z</time>
      </trkpt>
      <trkpt lat="45.92782" lon="-1.03424">
        <ele>16.9</ele>
        <time>2014-05-18T14:02:40.000Z</time>
      </trkpt>
      <trkpt lat="45.92775" lon="-1.0341">
        <ele>17</ele>
        <time>2014-05-18T14:02:43.000Z</time>
      </trkpt>
      <trkpt lat="45.92768" lon="-1.03397">
        <ele>16.9</ele>
        <time>2014-05-18T14:02:46.000Z</time>
      </trkpt>
      <trkpt lat="45.92755" lon="-1.03367">
        <ele>17.2</ele>
        <time>2014-05-18T14:02:52.000Z</time>
      </trkpt>
      <trkpt lat="45.92749" lon="-1.03353">
        <ele>17.5</ele>
        <time>2014-05-18T14:02:55.000Z</time>
      </trkpt>
      <trkpt lat="45.92742" lon="-1.03339">
        <ele>17.6</ele>
        <time>2014-05-18T14:02:58.000Z</time>
      </trkpt>
      <trkpt lat="45.92736" lon="-1.03325">
        <ele>17.7</ele>
        <time>2014-05-18T14:03:01.000Z</time>
      </trkpt>
      <trkpt lat="45.9273" lon="-1.03311">
        <ele>17.8</ele>
        <time>2014-05-18T14:03:04.000Z</time>
      </trkpt>
      <trkpt lat="45.92724" lon="-1.03298">
        <ele>17.9</ele>
        <time>2014-05-18T14:03:07.000Z</time>
      </trkpt>
      <trkpt lat="45.92718" lon="-1.03285">
        <ele>18.3</ele>
        <time>2014-05-18T14:03:10.000Z</time>
      </trkpt>
      <trkpt lat="45.92712" lon="-1.03271">
        <ele>18.5</ele>
        <time>2014-05-18T14:03:13.000Z</time>
      </trkpt>
      <trkpt lat="45.92706" lon="-1.03258">
        <ele>18.6</ele>
        <time>2014-05-18T14:03:16.000Z</time>
      </trkpt>
      <trkpt lat="45.92699" lon="-1.03244">
        <ele>18.5</ele>
        <time>2014-05-18T14:03:19.000Z</time>
      </trkpt>
      <trkpt lat="45.92694" lon="-1.0323">
        <ele>18.6</ele>
        <time>2014-05-18T14:03:22.000Z</time>
      </trkpt>
      <trkpt lat="45.92686" lon="-1.03215">
        <ele>18.6</ele>
        <time>2014-05-18T14:03:25.000Z</time>
      </trkpt>
      <trkpt lat="45.92681" lon="-1.03204">
        <ele>18.6</ele>
        <time>2014-05-18T14:03:27.000Z</time>
      </trkpt>
      <trkpt lat="45.92675" lon="-1.03193">
        <ele>18.5</ele>
        <time>2014-05-18T14:03:29.000Z</time>
      </trkpt>
      <trkpt lat="45.92668" lon="-1.03179">
        <ele>18.5</ele>
        <time>2014-05-18T14:03:32.000Z</time>
      </trkpt>
      <trkpt lat="45.92663" lon="-1.03165">
        <ele>18.9</ele>
        <time>2014-05-18T14:03:35.000Z</time>
      </trkpt>
      <trkpt lat="45.92659" lon="-1.03154">
        <ele>18.9</ele>
        <time>2014-05-18T14:03:38.000Z</time>
      </trkpt>
      <trkpt lat="45.92654" lon="-1.03142">
        <ele>19.1</ele>
        <time>2014-05-18T14:03:41.000Z</time>
      </trkpt>
      <trkpt lat="45.92647" lon="-1.0313">
        <ele>19.1</ele>
        <time>2014-05-18T14:03:44.000Z</time>
      </trkpt>
      <trkpt lat="45.9264" lon="-1.03116">
        <ele>19.4</ele>
        <time>2014-05-18T14:03:47.000Z</time>
      </trkpt>
      <trkpt lat="45.92628" lon="-1.03087">
        <ele>19.1</ele>
        <time>2014-05-18T14:03:53.000Z</time>
      </trkpt>
      <trkpt lat="45.92621" lon="-1.03071">
        <ele>18.9</ele>
        <time>2014-05-18T14:03:56.000Z</time>
      </trkpt>
      <trkpt lat="45.92613" lon="-1.03056">
        <ele>18.9</ele>
        <time>2014-05-18T14:03:59.000Z</time>
      </trkpt>
      <trkpt lat="45.92605" lon="-1.03041">
        <ele>18.5</ele>
        <time>2014-05-18T14:04:02.000Z</time>
      </trkpt>
      <trkpt lat="45.92597" lon="-1.03027">
        <ele>18.2</ele>
        <time>2014-05-18T14:04:05.000Z</time>
      </trkpt>
      <trkpt lat="45.92589" lon="-1.03012">
        <ele>18.1</ele>
        <time>2014-05-18T14:04:08.000Z</time>
      </trkpt>
      <trkpt lat="45.92584" lon="-1.03001">
        <ele>17.9</ele>
        <time>2014-05-18T14:04:10.000Z</time>
      </trkpt>
      <trkpt lat="45.92578" lon="-1.02991">
        <ele>17.9</ele>
        <time>2014-05-18T14:04:12.000Z</time>
      </trkpt>
      <trkpt lat="45.92573" lon="-1.0298">
        <ele>17.5</ele>
        <time>2014-05-18T14:04:14.000Z</time>
      </trkpt>
      <trkpt lat="45.92565" lon="-1.02966">
        <ele>16.9</ele>
        <time>2014-05-18T14:04:17.000Z</time>
      </trkpt>
      <trkpt lat="45.92557" lon="-1.0295">
        <ele>16.9</ele>
        <time>2014-05-18T14:04:20.000Z</time>
      </trkpt>
      <trkpt lat="45.92551" lon="-1.0294">
        <ele>16.8</ele>
        <time>2014-05-18T14:04:22.000Z</time>
      </trkpt>
      <trkpt lat="45.92546" lon="-1.02929">
        <ele>16.5</ele>
        <time>2014-05-18T14:04:24.000Z</time>
      </trkpt>
      <trkpt lat="45.9254" lon="-1.02918">
        <ele>16.3</ele>
        <time>2014-05-18T14:04:26.000Z</time>
      </trkpt>
      <trkpt lat="45.92534" lon="-1.02908">
        <ele>16.2</ele>
        <time>2014-05-18T14:04:28.000Z</time>
      </trkpt>
      <trkpt lat="45.92528" lon="-1.02897">
        <ele>16.1</ele>
        <time>2014-05-18T14:04:30.000Z</time>
      </trkpt>
      <trkpt lat="45.92521" lon="-1.02887">
        <ele>16.3</ele>
        <time>2014-05-18T14:04:32.000Z</time>
      </trkpt>
      <trkpt lat="45.92513" lon="-1.02874">
        <ele>16.2</ele>
        <time>2014-05-18T14:04:35.000Z</time>
      </trkpt>
      <trkpt lat="45.92507" lon="-1.02863">
        <ele>16</ele>
        <time>2014-05-18T14:04:37.000Z</time>
      </trkpt>
      <trkpt lat="45.92502" lon="-1.02853">
        <ele>15.9</ele>
        <time>2014-05-18T14:04:39.000Z</time>
      </trkpt>
      <trkpt lat="45.92496" lon="-1.02843">
        <ele>15.8</ele>
        <time>2014-05-18T14:04:41.000Z</time>
      </trkpt>
      <trkpt lat="45.92488" lon="-1.0283">
        <ele>15.8</ele>
        <time>2014-05-18T14:04:44.000Z</time>
      </trkpt>
      <trkpt lat="45.92479" lon="-1.02815">
        <ele>15.2</ele>
        <time>2014-05-18T14:04:47.000Z</time>
      </trkpt>
      <trkpt lat="45.92473" lon="-1.02805">
        <ele>15.2</ele>
        <time>2014-05-18T14:04:49.000Z</time>
      </trkpt>
      <trkpt lat="45.92458" lon="-1.02774">
        <ele>15</ele>
        <time>2014-05-18T14:04:55.000Z</time>
      </trkpt>
      <trkpt lat="45.92451" lon="-1.02758">
        <ele>14.7</ele>
        <time>2014-05-18T14:04:58.000Z</time>
      </trkpt>
      <trkpt lat="45.92444" lon="-1.02742">
        <ele>14.3</ele>
        <time>2014-05-18T14:05:01.000Z</time>
      </trkpt>
      <trkpt lat="45.92438" lon="-1.02726">
        <ele>14.3</ele>
        <time>2014-05-18T14:05:04.000Z</time>
      </trkpt>
      <trkpt lat="45.92431" lon="-1.0271">
        <ele>14.7</ele>
        <time>2014-05-18T14:05:07.000Z</time>
      </trkpt>
      <trkpt lat="45.92426" lon="-1.02694">
        <ele>14.7</ele>
        <time>2014-05-18T14:05:10.000Z</time>
      </trkpt>
      <trkpt lat="45.92421" lon="-1.02679">
        <ele>14.7</ele>
        <time>2014-05-18T14:05:13.000Z</time>
      </trkpt>
      <trkpt lat="45.92416" lon="-1.02666">
        <ele>14.6</ele>
        <time>2014-05-18T14:05:16.000Z</time>
      </trkpt>
      <trkpt lat="45.9241" lon="-1.02651">
        <ele>14.5</ele>
        <time>2014-05-18T14:05:19.000Z</time>
      </trkpt>
      <trkpt lat="45.92404" lon="-1.02638">
        <ele>14.4</ele>
        <time>2014-05-18T14:05:22.000Z</time>
      </trkpt>
      <trkpt lat="45.924" lon="-1.02626">
        <ele>14.3</ele>
        <time>2014-05-18T14:05:24.000Z</time>
      </trkpt>
      <trkpt lat="45.92395" lon="-1.02608">
        <ele>14.4</ele>
        <time>2014-05-18T14:05:27.000Z</time>
      </trkpt>
      <trkpt lat="45.9239" lon="-1.02592">
        <ele>14</ele>
        <time>2014-05-18T14:05:30.000Z</time>
      </trkpt>
      <trkpt lat="45.92385" lon="-1.02576">
        <ele>13.9</ele>
        <time>2014-05-18T14:05:33.000Z</time>
      </trkpt>
      <trkpt lat="45.92379" lon="-1.02559">
        <ele>12.6</ele>
        <time>2014-05-18T14:05:36.000Z</time>
      </trkpt>
      <trkpt lat="45.92374" lon="-1.02546">
        <ele>13.2</ele>
        <time>2014-05-18T14:05:39.000Z</time>
      </trkpt>
      <trkpt lat="45.92368" lon="-1.0253">
        <ele>14</ele>
        <time>2014-05-18T14:05:42.000Z</time>
      </trkpt>
      <trkpt lat="45.92362" lon="-1.02515">
        <ele>13.9</ele>
        <time>2014-05-18T14:05:45.000Z</time>
      </trkpt>
      <trkpt lat="45.92357" lon="-1.02503">
        <ele>13.8</ele>
        <time>2014-05-18T14:05:47.000Z</time>
      </trkpt>
      <trkpt lat="45.92353" lon="-1.0249">
        <ele>13.5</ele>
        <time>2014-05-18T14:05:49.000Z</time>
      </trkpt>
      <trkpt lat="45.92349" lon="-1.02472">
        <ele>12.3</ele>
        <time>2014-05-18T14:05:52.000Z</time>
      </trkpt>
      <trkpt lat="45.92343" lon="-1.02446">
        <ele>12.6</ele>
        <time>2014-05-18T14:05:56.000Z</time>
      </trkpt>
      <trkpt lat="45.92338" lon="-1.02429">
        <ele>12.3</ele>
        <time>2014-05-18T14:05:59.000Z</time>
      </trkpt>
      <trkpt lat="45.92335" lon="-1.02416">
        <ele>11.5</ele>
        <time>2014-05-18T14:06:01.000Z</time>
      </trkpt>
      <trkpt lat="45.92329" lon="-1.02399">
        <ele>12.5</ele>
        <time>2014-05-18T14:06:04.000Z</time>
      </trkpt>
      <trkpt lat="45.92324" lon="-1.02382">
        <ele>10.6</ele>
        <time>2014-05-18T14:06:07.000Z</time>
      </trkpt>
      <trkpt lat="45.92319" lon="-1.02366">
        <ele>12.6</ele>
        <time>2014-05-18T14:06:10.000Z</time>
      </trkpt>
      <trkpt lat="45.92313" lon="-1.02349">
        <ele>13.8</ele>
        <time>2014-05-18T14:06:13.000Z</time>
      </trkpt>
      <trkpt lat="45.92308" lon="-1.02332">
        <ele>12.7</ele>
        <time>2014-05-18T14:06:16.000Z</time>
      </trkpt>
      <trkpt lat="45.92303" lon="-1.02317">
        <ele>12</ele>
        <time>2014-05-18T14:06:19.000Z</time>
      </trkpt>
      <trkpt lat="45.92299" lon="-1.02302">
        <ele>12.2</ele>
        <time>2014-05-18T14:06:22.000Z</time>
      </trkpt>
      <trkpt lat="45.92295" lon="-1.02288">
        <ele>12</ele>
        <time>2014-05-18T14:06:25.000Z</time>
      </trkpt>
      <trkpt lat="45.92291" lon="-1.02275">
        <ele>11.5</ele>
        <time>2014-05-18T14:06:28.000Z</time>
      </trkpt>
      <trkpt lat="45.92293" lon="-1.02261">
        <ele>11.3</ele>
        <time>2014-05-18T14:06:32.000Z</time>
      </trkpt>
      <trkpt lat="45.92304" lon="-1.02257">
        <ele>11.3</ele>
        <time>2014-05-18T14:06:36.000Z</time>
      </trkpt>
      <trkpt lat="45.92315" lon="-1.02254">
        <ele>11.9</ele>
        <time>2014-05-18T14:06:40.000Z</time>
      </trkpt>
      <trkpt lat="45.92325" lon="-1.02247">
        <ele>12.4</ele>
        <time>2014-05-18T14:06:44.000Z</time>
      </trkpt>
      <trkpt lat="45.92333" lon="-1.02241">
        <ele>12.6</ele>
        <time>2014-05-18T14:06:47.000Z</time>
      </trkpt>
      <trkpt lat="45.92342" lon="-1.02235">
        <ele>13</ele>
        <time>2014-05-18T14:06:50.000Z</time>
      </trkpt>
      <trkpt lat="45.9235" lon="-1.02229">
        <ele>13.6</ele>
        <time>2014-05-18T14:06:53.000Z</time>
      </trkpt>
      <trkpt lat="45.92369" lon="-1.02209">
        <ele>12.3</ele>
        <time>2014-05-18T14:07:00.000Z</time>
      </trkpt>
      <trkpt lat="45.92378" lon="-1.02197">
        <ele>14.6</ele>
        <time>2014-05-18T14:07:03.000Z</time>
      </trkpt>
      <trkpt lat="45.92385" lon="-1.02187">
        <ele>13.8</ele>
        <time>2014-05-18T14:07:05.000Z</time>
      </trkpt>
      <trkpt lat="45.92391" lon="-1.02177">
        <ele>13.3</ele>
        <time>2014-05-18T14:07:07.000Z</time>
      </trkpt>
      <trkpt lat="45.92397" lon="-1.02165">
        <ele>8.4</ele>
        <time>2014-05-18T14:07:09.000Z</time>
      </trkpt>
      <trkpt lat="45.92403" lon="-1.02152">
        <ele>10.9</ele>
        <time>2014-05-18T14:07:11.000Z</time>
      </trkpt>
      <trkpt lat="45.92408" lon="-1.02139">
        <ele>11.5</ele>
        <time>2014-05-18T14:07:13.000Z</time>
      </trkpt>
      <trkpt lat="45.92412" lon="-1.02125">
        <ele>11.7</ele>
        <time>2014-05-18T14:07:15.000Z</time>
      </trkpt>
      <trkpt lat="45.92416" lon="-1.02112">
        <ele>12.6</ele>
        <time>2014-05-18T14:07:17.000Z</time>
      </trkpt>
      <trkpt lat="45.92419" lon="-1.02099">
        <ele>12.6</ele>
        <time>2014-05-18T14:07:19.000Z</time>
      </trkpt>
      <trkpt lat="45.92422" lon="-1.02085">
        <ele>12.3</ele>
        <time>2014-05-18T14:07:21.000Z</time>
      </trkpt>
      <trkpt lat="45.92424" lon="-1.02072">
        <ele>12.2</ele>
        <time>2014-05-18T14:07:23.000Z</time>
      </trkpt>
      <trkpt lat="45.92426" lon="-1.02054">
        <ele>12.1</ele>
        <time>2014-05-18T14:07:26.000Z</time>
      </trkpt>
      <trkpt lat="45.92429" lon="-1.02037">
        <ele>12.4</ele>
        <time>2014-05-18T14:07:29.000Z</time>
      </trkpt>
      <trkpt lat="45.92433" lon="-1.02022">
        <ele>12.7</ele>
        <time>2014-05-18T14:07:32.000Z</time>
      </trkpt>
      <trkpt lat="45.92437" lon="-1.02006">
        <ele>12.7</ele>
        <time>2014-05-18T14:07:35.000Z</time>
      </trkpt>
      <trkpt lat="45.92442" lon="-1.01991">
        <ele>12.8</ele>
        <time>2014-05-18T14:07:38.000Z</time>
      </trkpt>
      <trkpt lat="45.9245" lon="-1.01975">
        <ele>12.6</ele>
        <time>2014-05-18T14:07:41.000Z</time>
      </trkpt>
      <trkpt lat="45.92459" lon="-1.01961">
        <ele>12.6</ele>
        <time>2014-05-18T14:07:44.000Z</time>
      </trkpt>
      <trkpt lat="45.92466" lon="-1.01951">
        <ele>12.5</ele>
        <time>2014-05-18T14:07:46.000Z</time>
      </trkpt>
      <trkpt lat="45.92472" lon="-1.01942">
        <ele>12.3</ele>
        <time>2014-05-18T14:07:48.000Z</time>
      </trkpt>
      <trkpt lat="45.9248" lon="-1.01928">
        <ele>12.5</ele>
        <time>2014-05-18T14:07:51.000Z</time>
      </trkpt>
      <trkpt lat="45.92488" lon="-1.01916">
        <ele>12.8</ele>
        <time>2014-05-18T14:07:54.000Z</time>
      </trkpt>
      <trkpt lat="45.92504" lon="-1.01893">
        <ele>12.9</ele>
        <time>2014-05-18T14:08:00.000Z</time>
      </trkpt>
      <trkpt lat="45.92512" lon="-1.01883">
        <ele>13.3</ele>
        <time>2014-05-18T14:08:03.000Z</time>
      </trkpt>
      <trkpt lat="45.9252" lon="-1.01874">
        <ele>13.5</ele>
        <time>2014-05-18T14:08:06.000Z</time>
      </trkpt>
      <trkpt lat="45.92529" lon="-1.01868">
        <ele>13.8</ele>
        <time>2014-05-18T14:08:09.000Z</time>
      </trkpt>
      <trkpt lat="45.92537" lon="-1.01862">
        <ele>14</ele>
        <time>2014-05-18T14:08:12.000Z</time>
      </trkpt>
      <trkpt lat="45.92547" lon="-1.01855">
        <ele>14.6</ele>
        <time>2014-05-18T14:08:16.000Z</time>
      </trkpt>
      <trkpt lat="45.92556" lon="-1.0185">
        <ele>14.9</ele>
        <time>2014-05-18T14:08:20.000Z</time>
      </trkpt>
      <trkpt lat="45.92567" lon="-1.01846">
        <ele>15.8</ele>
        <time>2014-05-18T14:08:24.000Z</time>
      </trkpt>
      <trkpt lat="45.92577" lon="-1.01843">
        <ele>15.8</ele>
        <time>2014-05-18T14:08:27.000Z</time>
      </trkpt>
      <trkpt lat="45.92586" lon="-1.01843">
        <ele>15.7</ele>
        <time>2014-05-18T14:08:30.000Z</time>
      </trkpt>
      <trkpt lat="45.92596" lon="-1.01842">
        <ele>15.6</ele>
        <time>2014-05-18T14:08:33.000Z</time>
      </trkpt>
      <trkpt lat="45.92608" lon="-1.01843">
        <ele>15.6</ele>
        <time>2014-05-18T14:08:37.000Z</time>
      </trkpt>
      <trkpt lat="45.92617" lon="-1.01845">
        <ele>15.6</ele>
        <time>2014-05-18T14:08:40.000Z</time>
      </trkpt>
      <trkpt lat="45.92628" lon="-1.0185">
        <ele>15.7</ele>
        <time>2014-05-18T14:08:44.000Z</time>
      </trkpt>
      <trkpt lat="45.92636" lon="-1.01857">
        <ele>16.3</ele>
        <time>2014-05-18T14:08:49.000Z</time>
      </trkpt>
      <trkpt lat="45.92647" lon="-1.01854">
        <ele>16.2</ele>
        <time>2014-05-18T14:08:54.000Z</time>
      </trkpt>
      <trkpt lat="45.9265" lon="-1.01842">
        <ele>15.7</ele>
        <time>2014-05-18T14:08:57.000Z</time>
      </trkpt>
      <trkpt lat="45.92645" lon="-1.01816">
        <ele>15</ele>
        <time>2014-05-18T14:09:01.000Z</time>
      </trkpt>
      <trkpt lat="45.92642" lon="-1.01803">
        <ele>14.5</ele>
        <time>2014-05-18T14:09:03.000Z</time>
      </trkpt>
      <trkpt lat="45.92639" lon="-1.01788">
        <ele>13.8</ele>
        <time>2014-05-18T14:09:05.000Z</time>
      </trkpt>
      <trkpt lat="45.92636" lon="-1.0177">
        <ele>13.1</ele>
        <time>2014-05-18T14:09:07.000Z</time>
      </trkpt>
      <trkpt lat="45.92633" lon="-1.01752">
        <ele>12.2</ele>
        <time>2014-05-18T14:09:09.000Z</time>
      </trkpt>
      <trkpt lat="45.92629" lon="-1.01733">
        <ele>11.5</ele>
        <time>2014-05-18T14:09:11.000Z</time>
      </trkpt>
      <trkpt lat="45.92625" lon="-1.01713">
        <ele>10.7</ele>
        <time>2014-05-18T14:09:13.000Z</time>
      </trkpt>
      <trkpt lat="45.92621" lon="-1.01692">
        <ele>9.7</ele>
        <time>2014-05-18T14:09:15.000Z</time>
      </trkpt>
      <trkpt lat="45.92618" lon="-1.01671">
        <ele>8.9</ele>
        <time>2014-05-18T14:09:17.000Z</time>
      </trkpt>
      <trkpt lat="45.92615" lon="-1.01649">
        <ele>8.1</ele>
        <time>2014-05-18T14:09:19.000Z</time>
      </trkpt>
      <trkpt lat="45.92612" lon="-1.01628">
        <ele>7.5</ele>
        <time>2014-05-18T14:09:21.000Z</time>
      </trkpt>
      <trkpt lat="45.92608" lon="-1.01606">
        <ele>7</ele>
        <time>2014-05-18T14:09:23.000Z</time>
      </trkpt>
      <trkpt lat="45.92606" lon="-1.01585">
        <ele>6.4</ele>
        <time>2014-05-18T14:09:25.000Z</time>
      </trkpt>
      <trkpt lat="45.92603" lon="-1.01565">
        <ele>6.2</ele>
        <time>2014-05-18T14:09:27.000Z</time>
      </trkpt>
      <trkpt lat="45.926" lon="-1.01546">
        <ele>5.9</ele>
        <time>2014-05-18T14:09:29.000Z</time>
      </trkpt>
      <trkpt lat="45.92597" lon="-1.01529">
        <ele>5.9</ele>
        <time>2014-05-18T14:09:31.000Z</time>
      </trkpt>
      <trkpt lat="45.92593" lon="-1.01513">
        <ele>6.1</ele>
        <time>2014-05-18T14:09:33.000Z</time>
      </trkpt>
      <trkpt lat="45.92592" lon="-1.01498">
        <ele>6.2</ele>
        <time>2014-05-18T14:09:35.000Z</time>
      </trkpt>
      <trkpt lat="45.92591" lon="-1.01484">
        <ele>6.1</ele>
        <time>2014-05-18T14:09:37.000Z</time>
      </trkpt>
      <trkpt lat="45.9259" lon="-1.01471">
        <ele>6.1</ele>
        <time>2014-05-18T14:09:39.000Z</time>
      </trkpt>
      <trkpt lat="45.92589" lon="-1.01457">
        <ele>6.4</ele>
        <time>2014-05-18T14:09:41.000Z</time>
      </trkpt>
      <trkpt lat="45.92587" lon="-1.0144">
        <ele>6.6</ele>
        <time>2014-05-18T14:09:44.000Z</time>
      </trkpt>
      <trkpt lat="45.92585" lon="-1.01424">
        <ele>7.4</ele>
        <time>2014-05-18T14:09:47.000Z</time>
      </trkpt>
      <trkpt lat="45.92583" lon="-1.01411">
        <ele>8.2</ele>
        <time>2014-05-18T14:09:50.000Z</time>
      </trkpt>
      <trkpt lat="45.92581" lon="-1.01398">
        <ele>8.5</ele>
        <time>2014-05-18T14:09:53.000Z</time>
      </trkpt>
      <trkpt lat="45.92579" lon="-1.01384">
        <ele>9.1</ele>
        <time>2014-05-18T14:09:56.000Z</time>
      </trkpt>
      <trkpt lat="45.92576" lon="-1.01372">
        <ele>9.2</ele>
        <time>2014-05-18T14:09:59.000Z</time>
      </trkpt>
      <trkpt lat="45.92574" lon="-1.01345">
        <ele>9.9</ele>
        <time>2014-05-18T14:10:05.000Z</time>
      </trkpt>
      <trkpt lat="45.92572" lon="-1.01332">
        <ele>10.6</ele>
        <time>2014-05-18T14:10:08.000Z</time>
      </trkpt>
      <trkpt lat="45.92571" lon="-1.01318">
        <ele>10.8</ele>
        <time>2014-05-18T14:10:11.000Z</time>
      </trkpt>
      <trkpt lat="45.92569" lon="-1.01303">
        <ele>11.6</ele>
        <time>2014-05-18T14:10:14.000Z</time>
      </trkpt>
      <trkpt lat="45.92568" lon="-1.01289">
        <ele>12.1</ele>
        <time>2014-05-18T14:10:17.000Z</time>
      </trkpt>
      <trkpt lat="45.92569" lon="-1.01275">
        <ele>12.8</ele>
        <time>2014-05-18T14:10:20.000Z</time>
      </trkpt>
      <trkpt lat="45.92572" lon="-1.01261">
        <ele>13.6</ele>
        <time>2014-05-18T14:10:23.000Z</time>
      </trkpt>
      <trkpt lat="45.92575" lon="-1.01247">
        <ele>14.3</ele>
        <time>2014-05-18T14:10:26.000Z</time>
      </trkpt>
      <trkpt lat="45.92577" lon="-1.01234">
        <ele>15.1</ele>
        <time>2014-05-18T14:10:29.000Z</time>
      </trkpt>
      <trkpt lat="45.92579" lon="-1.01219">
        <ele>15.7</ele>
        <time>2014-05-18T14:10:32.000Z</time>
      </trkpt>
      <trkpt lat="45.92584" lon="-1.01206">
        <ele>15.9</ele>
        <time>2014-05-18T14:10:35.000Z</time>
      </trkpt>
      <trkpt lat="45.92591" lon="-1.01195">
        <ele>16.2</ele>
        <time>2014-05-18T14:10:38.000Z</time>
      </trkpt>
      <trkpt lat="45.92599" lon="-1.01181">
        <ele>16</ele>
        <time>2014-05-18T14:10:41.000Z</time>
      </trkpt>
      <trkpt lat="45.92606" lon="-1.01165">
        <ele>15.7</ele>
        <time>2014-05-18T14:10:44.000Z</time>
      </trkpt>
      <trkpt lat="45.92611" lon="-1.01154">
        <ele>15.7</ele>
        <time>2014-05-18T14:10:46.000Z</time>
      </trkpt>
      <trkpt lat="45.92619" lon="-1.01143">
        <ele>15.7</ele>
        <time>2014-05-18T14:10:48.000Z</time>
      </trkpt>
      <trkpt lat="45.92626" lon="-1.0113">
        <ele>15.7</ele>
        <time>2014-05-18T14:10:50.000Z</time>
      </trkpt>
      <trkpt lat="45.92631" lon="-1.01119">
        <ele>15.8</ele>
        <time>2014-05-18T14:10:52.000Z</time>
      </trkpt>
      <trkpt lat="45.92638" lon="-1.01106">
        <ele>15.9</ele>
        <time>2014-05-18T14:10:54.000Z</time>
      </trkpt>
      <trkpt lat="45.92643" lon="-1.01094">
        <ele>15.8</ele>
        <time>2014-05-18T14:10:56.000Z</time>
      </trkpt>
      <trkpt lat="45.92649" lon="-1.01082">
        <ele>15.8</ele>
        <time>2014-05-18T14:10:58.000Z</time>
      </trkpt>
      <trkpt lat="45.92652" lon="-1.01069">
        <ele>16</ele>
        <time>2014-05-18T14:11:00.000Z</time>
      </trkpt>
      <trkpt lat="45.92655" lon="-1.01036">
        <ele>16.6</ele>
        <time>2014-05-18T14:11:05.000Z</time>
      </trkpt>
      <trkpt lat="45.92651" lon="-1.0102">
        <ele>17.2</ele>
        <time>2014-05-18T14:11:08.000Z</time>
      </trkpt>
      <trkpt lat="45.92644" lon="-1.01006">
        <ele>17.7</ele>
        <time>2014-05-18T14:11:11.000Z</time>
      </trkpt>
      <trkpt lat="45.92636" lon="-1.00992">
        <ele>18.1</ele>
        <time>2014-05-18T14:11:14.000Z</time>
      </trkpt>
      <trkpt lat="45.9263" lon="-1.00977">
        <ele>18.2</ele>
        <time>2014-05-18T14:11:17.000Z</time>
      </trkpt>
      <trkpt lat="45.92625" lon="-1.00966">
        <ele>18.2</ele>
        <time>2014-05-18T14:11:19.000Z</time>
      </trkpt>
      <trkpt lat="45.92621" lon="-1.00954">
        <ele>18.1</ele>
        <time>2014-05-18T14:11:21.000Z</time>
      </trkpt>
      <trkpt lat="45.92613" lon="-1.00939">
        <ele>18.2</ele>
        <time>2014-05-18T14:11:24.000Z</time>
      </trkpt>
      <trkpt lat="45.92606" lon="-1.00924">
        <ele>18.6</ele>
        <time>2014-05-18T14:11:27.000Z</time>
      </trkpt>
      <trkpt lat="45.92599" lon="-1.00909">
        <ele>18.7</ele>
        <time>2014-05-18T14:11:30.000Z</time>
      </trkpt>
      <trkpt lat="45.92594" lon="-1.00892">
        <ele>18.5</ele>
        <time>2014-05-18T14:11:33.000Z</time>
      </trkpt>
      <trkpt lat="45.92591" lon="-1.00875">
        <ele>18.1</ele>
        <time>2014-05-18T14:11:36.000Z</time>
      </trkpt>
      <trkpt lat="45.92587" lon="-1.00859">
        <ele>18</ele>
        <time>2014-05-18T14:11:39.000Z</time>
      </trkpt>
      <trkpt lat="45.92592" lon="-1.00846">
        <ele>18.2</ele>
        <time>2014-05-18T14:11:42.000Z</time>
      </trkpt>
      <trkpt lat="45.926" lon="-1.00838">
        <ele>18.1</ele>
        <time>2014-05-18T14:11:45.000Z</time>
      </trkpt>
      <trkpt lat="45.92609" lon="-1.00829">
        <ele>18.5</ele>
        <time>2014-05-18T14:11:49.000Z</time>
      </trkpt>
      <trkpt lat="45.92618" lon="-1.00822">
        <ele>18.7</ele>
        <time>2014-05-18T14:11:53.000Z</time>
      </trkpt>
      <trkpt lat="45.92616" lon="-1.00809">
        <ele>18.6</ele>
        <time>2014-05-18T14:12:02.000Z</time>
      </trkpt>
    </trkseg>
  </trk>
</gpx>